
Distance (Route):
Temperature : -2.8°C
Humidity : 24.2%
Pressure : 0hPa| Receiver | Frames | First received | Last received |
|---|---|---|---|
| IW2NTF | 593 | 2026-08-31 23:28:29 | 2026-09-01 01:38:49 |
| DO3MHA-11 | 309 | 2026-08-31 23:29:51 | 2026-09-01 01:28:37 |
| DM0DOS-11 | 245 | 2026-09-01 00:07:55 | 2026-09-01 00:58:39 |
| HASLITAL | 243 | 2026-08-31 23:29:35 | 2026-09-01 01:33:52 |
| DB0UT-7 | 207 | 2026-08-31 23:12:42 | 2026-09-01 01:38:59 |
| BIOWL1-15 | 206 | 2026-09-01 00:13:40 | 2026-09-01 00:57:58 |
| DO3MHA-12 | 147 | 2026-08-31 23:30:49 | 2026-09-01 01:27:44 |
| DL1ZP-14 | 107 | 2026-08-31 23:40:23 | 2026-09-01 01:06:51 |
| DF7PN | 106 | 2026-08-31 23:46:02 | 2026-09-01 01:12:00 |
| DK5PH-5 | 95 | 2026-08-31 23:38:11 | 2026-09-01 01:16:35 |
| DH7VM-15 | 47 | 2026-08-31 23:24:22 | 2026-09-01 01:32:17 |
| BIOWL9-15 | 47 | 2026-09-01 00:11:47 | 2026-09-01 00:57:50 |
| DB0ND-19 | 44 | 2026-08-31 23:14:55 | 2026-09-01 01:27:50 |
| OE5DXL-15 | 38 | 2026-09-01 00:01:42 | 2026-09-01 00:46:09 |
| DF1GD-15 | 31 | 2026-09-01 01:00:43 | 2026-09-01 01:36:04 |
| DL6DJ-15 | 24 | 2026-09-01 00:03:16 | 2026-09-01 00:58:57 |
| IN3HCDX | 11 | 2026-09-01 00:48:29 | 2026-09-01 01:16:53 |
| DF3TZ-5 | 8 | 2026-09-01 00:41:36 | 2026-09-01 01:10:04 |
| DL8DAS-14 | 6 | 2026-09-01 00:44:34 | 2026-09-01 00:50:16 |
| LOEBOVI | 2 | 2026-09-01 00:40:23 | 2026-09-01 00:50:17 |
| HEMX73-6 | 1 | 2026-09-01 00:28:58 | 2026-09-01 00:28:58 |
| BIOWL7-15 | 1 | 2026-09-01 00:56:58 | 2026-09-01 00:56:58 |
| Receiver | Date | Latitude | Longitude | Direction | Speed | Altitude | Climb | Temperature | Humidity | Pressure | Voltage | Killtimer | Uptime | BKT | XDATA |
|---|---|---|---|---|---|---|---|---|---|---|---|---|---|---|---|
| DB0UT-7 | 2026-09-01 01:38:59 | 46.88288 | 8.39721 | 95° | 57km/h | 4186m | -4.2m/s | -2.8°C | 24.2% | 0hPa | 2.6V | 00:00:00 | 00:00:00 | 00:00:00 | |
| IW2NTF | 2026-09-01 01:38:49 | 46.88338 | 8.39416 | 102° | 46km/h | 4254m | -4m/s | -3.3°C | 24.8% | 0hPa | 2.6V | 07:41:03 | 03:02:27 | 00:00:00 | |
| IW2NTF | 2026-09-01 01:38:43 | 46.88348 | 8.39291 | 101° | 66km/h | 4282m | -4.7m/s | -3.4°C | 25.5% | 0hPa | 2.6V | 07:41:09 | 03:02:21 | 00:00:00 | |
| IW2NTF | 2026-09-01 01:38:37 | 46.88381 | 8.39167 | 112° | 49km/h | 4311m | -5.2m/s | -3.2°C | 23.7% | 0hPa | 2.7V | 07:41:15 | 03:02:15 | 00:00:00 | |
| IW2NTF | 2026-09-01 01:38:31 | 46.88396 | 8.39049 | 100° | 68km/h | 4339m | -4.7m/s | -3.3°C | 24% | 0hPa | 2.7V | 07:41:21 | 03:02:09 | 00:00:00 | |
| DB0UT-7 | 2026-09-01 01:38:29 | 46.88390 | 8.39114 | 98° | 60km/h | 4325m | -4.4m/s | -3.2°C | 23.0% | 0hPa | 2.7V | 00:00:00 | 03:02:12 | 00:00:00 | |
| IW2NTF | 2026-09-01 01:38:25 | 46.88430 | 8.38915 | 115° | 55km/h | 4368m | -4.7m/s | -3.4°C | 26.1% | 0hPa | 2.7V | 07:41:27 | 03:02:03 | 00:00:00 | |
| IW2NTF | 2026-09-01 01:38:19 | 46.88453 | 8.38809 | 98° | 51km/h | 4396m | -4.6m/s | -3.5°C | 26.3% | 0hPa | 2.7V | 07:41:33 | 03:01:57 | 00:00:00 | |
| IW2NTF | 2026-09-01 01:38:13 | 46.88467 | 8.38672 | 104° | 71km/h | 4425m | -4.7m/s | -3.7°C | 26.2% | 0hPa | 2.7V | 07:41:39 | 03:01:51 | 00:00:00 | |
| IW2NTF | 2026-09-01 01:38:07 | 46.88506 | 8.38535 | 114° | 57km/h | 4452m | -4.5m/s | -3.8°C | 27.7% | 0hPa | 2.7V | 07:41:45 | 03:01:45 | 00:00:00 | |
| IW2NTF | 2026-09-01 01:38:01 | 46.88524 | 8.38413 | 97° | 66km/h | 4480m | -4.8m/s | -4°C | 27.1% | 0hPa | 2.7V | 07:41:51 | 03:01:39 | 00:00:00 | |
| DB0UT-7 | 2026-09-01 01:37:59 | 46.88518 | 8.38478 | 100° | 62km/h | 4466m | -4.7m/s | -3.8°C | 27.0% | 0hPa | 2.6V | 00:00:00 | 00:00:00 | 00:00:00 | |
| IW2NTF | 2026-09-01 01:37:55 | 46.88554 | 8.38270 | 115° | 58km/h | 4509m | -5.3m/s | -4.2°C | 26.9% | 0hPa | 2.7V | 07:41:57 | 03:01:33 | 00:00:00 | |
| IW2NTF | 2026-09-01 01:37:49 | 46.88578 | 8.38157 | 97° | 58km/h | 4538m | -4.5m/s | -4.3°C | 26.5% | 0hPa | 2.7V | 07:42:03 | 03:01:27 | 00:00:00 | |
| IW2NTF | 2026-09-01 01:37:43 | 46.88602 | 8.38011 | 112° | 69km/h | 4567m | -4.8m/s | -4.3°C | 23.3% | 0hPa | 2.7V | 07:42:09 | 03:01:21 | 00:00:00 | |
| IW2NTF | 2026-09-01 01:37:37 | 46.88631 | 8.37888 | 97° | 57km/h | 4596m | -5.2m/s | -4.4°C | 22.9% | 0hPa | 2.7V | 07:42:15 | 03:01:15 | 00:00:00 | |
| IW2NTF | 2026-09-01 01:37:31 | 46.88646 | 8.37744 | 105° | 73km/h | 4626m | -4.5m/s | -4.6°C | 24.1% | 0hPa | 2.7V | 07:42:21 | 03:01:09 | 00:00:00 | |
| DB0UT-7 | 2026-09-01 01:37:29 | 46.88636 | 8.37820 | 98° | 64km/h | 4612m | -5.0m/s | -4.5°C | 24.5% | 0hPa | 2.7V | 00:00:00 | 03:01:12 | 00:00:00 | |
| IW2NTF | 2026-09-01 01:37:25 | 46.88686 | 8.37605 | 115° | 58km/h | 4656m | -4.9m/s | -4.8°C | 22.5% | 0hPa | 2.7V | 07:42:27 | 03:01:03 | 00:00:00 | |
| IW2NTF | 2026-09-01 01:37:19 | 46.88707 | 8.37489 | 94° | 58km/h | 4685m | -5m/s | -5°C | 24% | 0hPa | 2.6V | 07:42:33 | 03:00:57 | 00:00:00 | |
| IW2NTF | 2026-09-01 01:37:13 | 46.88721 | 8.37337 | 105° | 75km/h | 4715m | -5m/s | -5.1°C | 24.8% | 0hPa | 2.6V | 07:42:39 | 03:00:51 | 00:00:00 | |
| IW2NTF | 2026-09-01 01:37:07 | 46.88755 | 8.37201 | 104° | 55km/h | 4744m | -4.9m/s | -5.2°C | 25.9% | 0hPa | 2.6V | 07:42:45 | 03:00:45 | 00:00:00 | |
| IW2NTF | 2026-09-01 01:37:01 | 46.88765 | 8.37068 | 94° | 68km/h | 4774m | -5m/s | -5.3°C | 24.3% | 0hPa | 2.6V | 07:42:51 | 03:00:39 | 00:00:00 | |
| DB0UT-7 | 2026-09-01 01:36:59 | 46.88762 | 8.37138 | 94° | 64km/h | 4759m | -5.2m/s | -5.2°C | 25.1% | 0hPa | 2.7V | 00:00:00 | 00:00:00 | 00:00:00 | |
| IW2NTF | 2026-09-01 01:36:55 | 46.88791 | 8.36919 | 114° | 64km/h | 4803m | -5.5m/s | -5.5°C | 23.9% | 0hPa | 2.7V | 07:42:57 | 03:00:33 | 00:00:00 | |
| IW2NTF | 2026-09-01 01:36:49 | 46.88816 | 8.36801 | 97° | 58km/h | 4835m | -5m/s | -5.7°C | 22.8% | 0hPa | 2.7V | 07:43:03 | 03:00:27 | 00:00:00 | |
| IW2NTF | 2026-09-01 01:36:43 | 46.88839 | 8.36650 | 111° | 73km/h | 4864m | -5.2m/s | -5.9°C | 22.3% | 0hPa | 2.7V | 07:43:09 | 03:00:21 | 00:00:00 | |
| IW2NTF | 2026-09-01 01:36:37 | 46.88876 | 8.36524 | 106° | 53km/h | 4895m | -5.3m/s | -6°C | 22% | 0hPa | 2.7V | 07:43:15 | 03:00:15 | 00:00:00 | |
| DB0UT-7 | 2026-09-01 01:36:29 | 46.88885 | 8.36467 | 100° | 66km/h | 4911m | -4.9m/s | -6.0°C | 21.8% | 0hPa | 2.6V | 07:43:00 | 03:00:12 | 00:00:00 | |
| IW2NTF | 2026-09-01 01:36:25 | 46.88908 | 8.36250 | 105° | 75km/h | 4956m | -4.7m/s | -6.3°C | 21.3% | 0hPa | 2.6V | 07:43:27 | 03:00:03 | 00:00:00 | |
| IW2NTF | 2026-09-01 01:36:19 | 46.88947 | 8.36112 | 114° | 57km/h | 4986m | -5.5m/s | -6.4°C | 18.7% | 0hPa | 2.6V | 07:43:33 | 02:59:57 | 00:00:00 | |
| IW2NTF | 2026-09-01 01:36:13 | 46.88965 | 8.35992 | 94° | 64km/h | 5015m | -5m/s | -6.4°C | 15.7% | 0hPa | 2.6V | 07:43:39 | 02:59:51 | 00:00:00 | |
| DF1GD-15 | 2026-09-01 01:36:04 | 46.88971 | 8.35916 | 101° | 73km/h | 5031m | -5.4m/s | -6.4°C | 15.4% | 0hPa | 2.6V | 07:44:00 | 00:00:00 | 00:00:00 | |
| IW2NTF | 2026-09-01 01:36:03 | 46.89013 | 8.35746 | 115° | 60km/h | 5066m | -4.7m/s | -6.4°C | 16.9% | 0hPa | 2.6V | 07:43:49 | 02:59:41 | 00:00:00 | |
| DB0UT-7 | 2026-09-01 01:35:59 | 46.89006 | 8.35766 | 116° | 60km/h | 5062m | -5.1m/s | -6.4°C | 16.6% | 0hPa | 2.6V | 00:00:00 | 00:00:00 | 00:00:00 | |
| IW2NTF | 2026-09-01 01:35:53 | 46.89042 | 8.35542 | 97° | 68km/h | 5116m | -5m/s | -6.6°C | 18.6% | 0hPa | 2.6V | 07:43:59 | 02:59:31 | 00:00:00 | |
| DF1GD-15 | 2026-09-01 01:35:44 | 46.89053 | 8.35466 | 107° | 71km/h | 5131m | -4.9m/s | -6.7°C | 17.3% | 0hPa | 2.6V | 07:44:00 | 00:00:00 | 00:00:00 | |
| IW2NTF | 2026-09-01 01:35:43 | 46.89093 | 8.35315 | 106° | 49km/h | 5165m | -4.8m/s | -6.9°C | 18.1% | 0hPa | 2.6V | 07:44:09 | 02:59:21 | 00:00:00 | |
| IW2NTF | 2026-09-01 01:35:33 | 46.89138 | 8.35106 | 116° | 53km/h | 5214m | -5.1m/s | -7.2°C | 15.6% | 0hPa | 2.6V | 07:44:19 | 02:59:11 | 00:00:00 | |
| DB0UT-7 | 2026-09-01 01:35:29 | 46.89131 | 8.35124 | 118° | 60km/h | 5209m | -5.4m/s | -7.2°C | 16.7% | 0hPa | 2.6V | 00:00:00 | 02:59:12 | 00:00:00 | |
| IW2NTF | 2026-09-01 01:35:23 | 46.89175 | 8.34895 | 112° | 66km/h | 5264m | -4.6m/s | -7°C | 9.6% | 0hPa | 2.6V | 07:44:29 | 02:59:01 | 00:00:00 | |
| IW2NTF | 2026-09-01 01:35:13 | 46.89211 | 8.34687 | 101° | 71km/h | 5314m | -5.2m/s | -7.3°C | 11.8% | 0hPa | 2.6V | 07:44:39 | 02:58:51 | 00:00:00 | |
| IW2NTF | 2026-09-01 01:35:03 | 46.89271 | 8.34465 | 106° | 51km/h | 5363m | -4.8m/s | -7.6°C | 10.8% | 0hPa | 2.6V | 07:44:49 | 02:58:41 | 00:00:00 | |
| DB0UT-7 | 2026-09-01 01:34:59 | 46.89266 | 8.34483 | 112° | 66km/h | 5359m | -4.8m/s | -7.6°C | 11.0% | 0hPa | 2.7V | 00:00:00 | 00:00:00 | 00:00:00 | |
| IW2NTF | 2026-09-01 01:34:53 | 46.89306 | 8.34224 | 111° | 75km/h | 5414m | -5m/s | -7.9°C | 10.5% | 0hPa | 2.6V | 07:44:59 | 02:58:31 | 00:00:00 | |
| IW2NTF | 2026-09-01 01:34:43 | 46.89350 | 8.33995 | 95° | 73km/h | 5463m | -4.8m/s | -8.1°C | 9.2% | 0hPa | 2.6V | 07:45:09 | 02:58:21 | 00:00:00 | |
| IW2NTF | 2026-09-01 01:34:33 | 46.89387 | 8.33754 | 92° | 68km/h | 5512m | -4.7m/s | -8°C | 9.5% | 0hPa | 2.6V | 07:45:19 | 02:58:11 | 00:00:00 | |
| DB0UT-7 | 2026-09-01 01:34:29 | 46.89386 | 8.33778 | 94° | 71km/h | 5508m | -4.7m/s | -8.0°C | 9.5% | 0hPa | 2.6V | 00:00:00 | 02:58:12 | 00:00:00 | |
| IW2NTF | 2026-09-01 01:34:23 | 46.89424 | 8.33490 | 97° | 62km/h | 5561m | -4.7m/s | -8.2°C | 13.5% | 0hPa | 2.6V | 07:45:29 | 02:58:01 | 00:00:00 | |
| DF1GD-15 | 2026-09-01 01:34:22 | 46.89400 | 8.33612 | 107° | 80km/h | 5538m | -4.9m/s | -8.2°C | 9.8% | 0hPa | 2.6V | 07:45:00 | 00:00:00 | 00:00:00 | |
| IW2NTF | 2026-09-01 01:34:13 | 46.89448 | 8.33213 | 108° | 77km/h | 5610m | -4.6m/s | -8.6°C | 15.7% | 0hPa | 2.6V | 07:45:39 | 02:57:51 | 00:00:00 | |
| DF1GD-15 | 2026-09-01 01:34:02 | 46.89469 | 8.33095 | 96° | 64km/h | 5635m | -5.4m/s | -8.7°C | 17.0% | 0hPa | 2.6V | 07:45:00 | 00:00:00 | 00:00:00 | |
| IW2NTF | 2026-09-01 01:34:01 | 46.89481 | 8.32900 | 101° | 82km/h | 5671m | -4.9m/s | -9.1°C | 18.5% | 0hPa | 2.6V | 07:45:51 | 02:57:39 | 00:00:00 | |
| DB0UT-7 | 2026-09-01 01:33:59 | 46.89472 | 8.32990 | 95° | 73km/h | 5656m | -5.1m/s | -8.9°C | 18.1% | 0hPa | 2.6V | 00:00:00 | 00:00:00 | 00:00:00 | |
| HASLITAL | 2026-09-01 01:33:52 | 46.89496 | 8.32818 | 109° | 71km/h | 5685m | -4.5m/s | -9.2°C | 18.2% | 0hPa | 2.6V | 00:00:00 | 00:00:00 | 00:00:00 | |
| IW2NTF | 2026-09-01 01:33:46 | 46.89519 | 8.32589 | 100° | 80km/h | 5729m | -5m/s | -9.5°C | 20.4% | 0hPa | 2.6V | 07:46:03 | 02:57:27 | 00:00:00 | |
| DF1GD-15 | 2026-09-01 01:33:41 | 46.89527 | 8.32534 | 107° | 71km/h | 5738m | -4.7m/s | -9.6°C | 20.1% | 0hPa | 2.6V | 07:46:00 | 00:00:00 | 00:00:00 | |
| IW2NTF | 2026-09-01 01:33:36 | 46.89542 | 8.32338 | 92° | 80km/h | 5777m | -5m/s | -9.8°C | 20.9% | 0hPa | 2.6V | 07:46:13 | 02:57:17 | 00:00:00 | |
| DB0UT-7 | 2026-09-01 01:33:29 | 46.89560 | 8.32196 | 107° | 71km/h | 5802m | -4.7m/s | -9.8°C | 20.8% | 0hPa | 2.6V | 00:00:00 | 02:57:12 | 00:00:00 | |
| IW2NTF | 2026-09-01 01:33:26 | 46.89574 | 8.32082 | 91° | 62km/h | 5827m | -5.1m/s | -10.1°C | 21.2% | 0hPa | 2.6V | 07:46:23 | 02:57:07 | 00:00:00 | |
| HASLITAL | 2026-09-01 01:33:24 | 46.89573 | 8.32105 | 96° | 60km/h | 5821m | -5.4m/s | -10.0°C | 20.3% | 0hPa | 2.6V | 00:00:00 | 00:00:00 | 00:00:00 | |
| DF1GD-15 | 2026-09-01 01:33:20 | 46.89574 | 8.32006 | 91° | 77km/h | 5841m | -5.0m/s | -10.2°C | 20.5% | 0hPa | 2.6V | 07:46:00 | 00:00:00 | 00:00:00 | |
| IW2NTF | 2026-09-01 01:33:16 | 46.89597 | 8.31806 | 106° | 68km/h | 5876m | -5.3m/s | -10.4°C | 22.5% | 0hPa | 2.6V | 07:46:33 | 02:56:57 | 00:00:00 | |
| IW2NTF | 2026-09-01 01:33:06 | 46.89610 | 8.31558 | 93° | 80km/h | 5927m | -5.2m/s | -10.9°C | 23.7% | 0hPa | 2.5V | 07:46:43 | 02:56:47 | 00:00:00 | |
| DB0UT-7 | 2026-09-01 01:32:59 | 46.89627 | 8.31419 | 105° | 69km/h | 5952m | -5.3m/s | -11.0°C | 24.2% | 0hPa | 2.5V | 00:00:00 | 00:00:00 | 00:00:00 | |
| IW2NTF | 2026-09-01 01:32:55 | 46.89634 | 8.31307 | 86° | 64km/h | 5978m | -5.9m/s | -11.3°C | 25.2% | 0hPa | 2.5V | 07:46:53 | 02:56:37 | 00:00:00 | |
| IW2NTF | 2026-09-01 01:32:45 | 46.89644 | 8.31038 | 100° | 62km/h | 6029m | -5.3m/s | -11.6°C | 25.9% | 0hPa | 2.6V | 07:47:03 | 02:56:27 | 00:00:00 | |
| DF1GD-15 | 2026-09-01 01:32:39 | 46.89645 | 8.30947 | 86° | 66km/h | 6049m | -5.0m/s | -11.7°C | 23.0% | 0hPa | 2.6V | 07:47:00 | 00:00:00 | 00:00:00 | |
| IW2NTF | 2026-09-01 01:32:35 | 46.89643 | 8.30777 | 96° | 80km/h | 6079m | -5.3m/s | -11.9°C | 22.4% | 0hPa | 2.6V | 07:47:13 | 02:56:17 | 00:00:00 | |
| DB0UT-7 | 2026-09-01 01:32:29 | 46.89660 | 8.30649 | 101° | 66km/h | 6105m | -5.5m/s | -12.0°C | 22.2% | 0hPa | 2.6V | 07:47:00 | 02:56:12 | 00:00:00 | |
| HASLITAL | 2026-09-01 01:32:26 | 46.89664 | 8.30605 | 95° | 60km/h | 6115m | -5.1m/s | -12.1°C | 20.9% | 0hPa | 2.6V | 00:00:00 | 00:00:00 | 00:00:00 | |
| IW2NTF | 2026-09-01 01:32:25 | 46.89663 | 8.30538 | 84° | 64km/h | 6130m | -5.2m/s | -12.2°C | 22% | 0hPa | 2.6V | 07:47:23 | 02:56:07 | 00:00:00 | |
| DF1GD-15 | 2026-09-01 01:32:18 | 46.89663 | 8.30406 | 99° | 73km/h | 6155m | -5.1m/s | -12.3°C | 21.7% | 0hPa | 2.6V | 07:47:00 | 00:00:00 | 00:00:00 | |
| DH7VM-15 | 2026-09-01 01:32:17 | 46.89666 | 8.30380 | 103° | 69km/h | 6159m | -5.6m/s | -12.3°C | 21.7% | 0hPa | 2.6V | 00:00:00 | 00:00:00 | 00:00:00 | |
| IW2NTF | 2026-09-01 01:32:15 | 46.89678 | 8.30293 | 93° | 55km/h | 6182m | -5.2m/s | -12.4°C | 22.9% | 0hPa | 2.6V | 07:47:33 | 02:55:57 | 00:00:00 | |
| IW2NTF | 2026-09-01 01:32:05 | 46.89678 | 8.30046 | 100° | 77km/h | 6233m | -5.5m/s | -12.6°C | 23.6% | 0hPa | 2.6V | 07:47:43 | 02:55:47 | 00:00:00 | |
| DB0UT-7 | 2026-09-01 01:31:59 | 46.89701 | 8.29922 | 107° | 69km/h | 6259m | -5.1m/s | -12.8°C | 23.9% | 0hPa | 2.6V | 00:00:00 | 00:00:00 | 00:00:00 | |
| DF1GD-15 | 2026-09-01 01:31:57 | 46.89706 | 8.29899 | 106° | 62km/h | 6264m | -5.0m/s | -12.9°C | 23.0% | 0hPa | 2.6V | 07:48:00 | 00:00:00 | 00:00:00 | |
| IW2NTF | 2026-09-01 01:31:56 | 46.89713 | 8.29813 | 88° | 60km/h | 6283m | -5m/s | -13°C | 23.6% | 0hPa | 2.6V | 07:47:53 | 02:55:37 | 00:00:00 | |
| IW2NTF | 2026-09-01 01:31:45 | 46.89726 | 8.29542 | 106° | 77km/h | 6334m | -5.4m/s | -13.4°C | 23.3% | 0hPa | 2.5V | 07:48:03 | 02:55:27 | 00:00:00 | |
| DF1GD-15 | 2026-09-01 01:31:37 | 46.89752 | 8.29403 | 98° | 57km/h | 6364m | -5.0m/s | -13.6°C | 21.9% | 0hPa | 2.5V | 07:48:00 | 00:00:00 | 00:00:00 | |
| IW2NTF | 2026-09-01 01:31:35 | 46.89753 | 8.29307 | 89° | 71km/h | 6382m | -5m/s | -13.8°C | 23.1% | 0hPa | 2.5V | 07:48:13 | 02:55:17 | 00:00:00 | |
| DB0UT-7 | 2026-09-01 01:31:29 | 46.89758 | 8.29167 | 101° | 68km/h | 6406m | -4.7m/s | -13.9°C | 23.2% | 0hPa | 2.5V | 00:00:00 | 02:55:12 | 00:00:00 | |
| IW2NTF | 2026-09-01 01:31:25 | 46.89785 | 8.29035 | 111° | 64km/h | 6431m | -6m/s | -14.2°C | 23.5% | 0hPa | 2.5V | 07:48:23 | 02:55:07 | 00:00:00 | |
| HASLITAL | 2026-09-01 01:31:18 | 46.89801 | 8.28928 | 94° | 58km/h | 6458m | -4.9m/s | -14.5°C | 22.8% | 0hPa | 2.6V | 07:49:00 | 00:00:00 | 00:00:00 | |
| DF1GD-15 | 2026-09-01 01:31:16 | 46.89802 | 8.28882 | 91° | 66km/h | 6468m | -4.7m/s | -14.6°C | 23.0% | 0hPa | 2.6V | 07:49:00 | 00:00:00 | 00:00:00 | |
| IW2NTF | 2026-09-01 01:31:15 | 46.89804 | 8.28799 | 95° | 78km/h | 6482m | -5.4m/s | -14.7°C | 24.2% | 0hPa | 2.6V | 07:48:33 | 02:54:57 | 00:00:00 | |
| DH7VM-15 | 2026-09-01 01:31:13 | 46.89804 | 8.28799 | 96° | 78km/h | 6482m | -5.4m/s | -14.7°C | 23.1% | 0hPa | 2.6V | 00:00:00 | 00:00:00 | 00:00:00 | |
| IW2NTF | 2026-09-01 01:31:05 | 46.89849 | 8.28544 | 100° | 58km/h | 6532m | -5.6m/s | -15.2°C | 25% | 0hPa | 2.6V | 07:48:43 | 02:54:47 | 00:00:00 | |
| DB0UT-7 | 2026-09-01 01:30:59 | 46.89853 | 8.28432 | 90° | 71km/h | 6558m | -5.3m/s | -15.4°C | 25.4% | 0hPa | 2.5V | 00:00:00 | 00:00:00 | 00:00:00 | |
| DF1GD-15 | 2026-09-01 01:30:56 | 46.89854 | 8.28379 | 95° | 75km/h | 6568m | -4.4m/s | -15.5°C | 24.3% | 0hPa | 2.5V | 07:49:00 | 00:00:00 | 00:00:00 | |
| IW2NTF | 2026-09-01 01:30:55 | 46.89863 | 8.28291 | 103° | 78km/h | 6582m | -6.5m/s | -15.6°C | 26% | 0hPa | 2.5V | 07:48:53 | 02:54:37 | 00:00:00 | |
| HASLITAL | 2026-09-01 01:30:52 | 46.89868 | 8.28263 | 108° | 75km/h | 6588m | -5.6m/s | -15.7°C | 25.1% | 0hPa | 2.6V | 07:49:00 | 00:00:00 | 00:00:00 | |
| IW2NTF | 2026-09-01 01:30:45 | 46.89896 | 8.28055 | 87° | 68km/h | 6634m | -5.3m/s | -16.1°C | 26.1% | 0hPa | 2.6V | 07:49:03 | 02:54:27 | 00:00:00 | |
| IW2NTF | 2026-09-01 01:30:35 | 46.89916 | 8.27774 | 105° | 66km/h | 6685m | -4.9m/s | -16.4°C | 24.1% | 0hPa | 2.6V | 07:49:13 | 02:54:17 | 00:00:00 | |
| DB0UT-7 | 2026-09-01 01:30:29 | 46.89928 | 8.27662 | 91° | 71km/h | 6710m | -5.1m/s | -16.5°C | 23.8% | 0hPa | 2.5V | 00:00:00 | 02:54:12 | 00:00:00 | |
| HASLITAL | 2026-09-01 01:30:26 | 46.89928 | 8.27610 | 90° | 77km/h | 6720m | -4.8m/s | -16.7°C | 22.4% | 0hPa | 2.6V | 00:00:00 | 00:00:00 | 00:00:00 | |
| IW2NTF | 2026-09-01 01:30:25 | 46.89940 | 8.27465 | 106° | 73km/h | 6745m | -5.8m/s | -16.9°C | 23.8% | 0hPa | 2.6V | 07:49:25 | 02:54:05 | 00:00:00 | |
| IW2NTF | 2026-09-01 01:30:17 | 46.89955 | 8.27216 | 93° | 84km/h | 6796m | -5.3m/s | -17.3°C | 24% | 0hPa | 2.5V | 07:49:35 | 02:53:55 | 00:00:00 | |
| DF1GD-15 | 2026-09-01 01:30:14 | 46.89954 | 8.27301 | 90° | 69km/h | 6781m | -5.0m/s | -17.2°C | 22.3% | 0hPa | 2.6V | 00:00:00 | 00:00:00 | 00:00:00 | |
| DH7VM-15 | 2026-09-01 01:30:09 | 46.89960 | 8.27154 | 101° | 82km/h | 6806m | -5.6m/s | -17.4°C | 22.6% | 0hPa | 2.6V | 00:00:00 | 00:00:00 | 00:00:00 | |
| IW2NTF | 2026-09-01 01:30:05 | 46.89986 | 8.26951 | 89° | 68km/h | 6846m | -5.2m/s | -17.8°C | 23.6% | 0hPa | 2.6V | 07:49:45 | 02:53:45 | 00:00:00 | |
| DB0UT-7 | 2026-09-01 01:29:59 | 46.89984 | 8.26870 | 89° | 77km/h | 6861m | -5.0m/s | -17.9°C | 23.4% | 0hPa | 2.5V | 00:00:00 | 00:00:00 | 00:00:00 | |
| IW2NTF | 2026-09-01 01:29:56 | 46.90001 | 8.26662 | 103° | 82km/h | 6900m | -5.6m/s | -18.2°C | 23.6% | 0hPa | 2.5V | 07:49:55 | 02:53:35 | 00:00:00 | |
| IW2NTF | 2026-09-01 01:29:45 | 46.90028 | 8.26410 | 88° | 75km/h | 6953m | -5.7m/s | -18.6°C | 21.1% | 0hPa | 2.6V | 07:50:05 | 02:53:25 | 00:00:00 | |
| IW2NTF | 2026-09-01 01:29:35 | 46.90045 | 8.26111 | 100° | 82km/h | 7007m | -5.9m/s | -18.9°C | 20.1% | 0hPa | 2.6V | 07:50:15 | 02:53:15 | 00:00:00 | |
| DB0UT-7 | 2026-09-01 01:29:29 | 46.90058 | 8.26022 | 103° | 73km/h | 7024m | -5.9m/s | -19.0°C | 20.4% | 0hPa | 2.5V | 00:00:00 | 02:53:12 | 00:00:00 | |
| IW2NTF | 2026-09-01 01:29:24 | 46.90089 | 8.25781 | 90° | 62km/h | 7079m | -5.3m/s | -19.6°C | 21.2% | 0hPa | 2.5V | 07:50:28 | 02:53:02 | 00:00:00 | |
| HASLITAL | 2026-09-01 01:29:10 | 46.90085 | 8.25564 | 93° | 82km/h | 7121m | -5.8m/s | -20.0°C | 20.6% | 0hPa | 2.5V | 00:00:00 | 00:00:00 | 00:00:00 | |
| DB0UT-7 | 2026-09-01 01:28:59 | 46.90129 | 8.25231 | 105° | 73km/h | 7184m | -6.1m/s | -20.4°C | 21.8% | 0hPa | 2.5V | 00:00:00 | 00:00:00 | 00:00:00 | |
| HASLITAL | 2026-09-01 01:28:39 | 46.90185 | 8.24749 | 91° | 78km/h | 7287m | -5.6m/s | -21.4°C | 21.3% | 0hPa | 2.5V | 07:51:00 | 00:00:00 | 00:00:00 | |
| DO3MHA-11 | 2026-09-01 01:28:37 | 46.90188 | 8.24660 | 97° | 77km/h | 7303m | -5.2m/s | -21.5°C | 23.2% | 0hPa | 2.5V | 00:00:00 | 02:52:20 | 00:00:00 | |
| DB0UT-7 | 2026-09-01 01:28:29 | 46.90221 | 8.24434 | 106° | 71km/h | 7348m | -6.4m/s | -21.9°C | 24.6% | 0hPa | 2.5V | 07:51:00 | 02:52:12 | 00:00:00 | |
| DO3MHA-11 | 2026-09-01 01:28:27 | 46.90229 | 8.24385 | 104° | 75km/h | 7360m | -5.3m/s | -22.0°C | 24.4% | 0hPa | 2.5V | 00:00:00 | 02:52:10 | 00:00:00 | |
| HASLITAL | 2026-09-01 01:28:17 | 46.90252 | 8.24180 | 93° | 60km/h | 7409m | -5.2m/s | -22.4°C | 23.3% | 0hPa | 2.5V | 07:51:00 | 00:00:00 | 00:00:00 | |
| IW2NTF | 2026-09-01 01:28:11 | 46.90242 | 8.23864 | 89° | 82km/h | 7475m | -5.2m/s | -23°C | 24.5% | 0hPa | 2.5V | 07:51:41 | 02:51:49 | 00:00:00 | |
| DO3MHA-11 | 2026-09-01 01:28:06 | 46.90242 | 8.23864 | 90° | 78km/h | 7475m | -5.1m/s | -23.0°C | 24.5% | 0hPa | 2.5V | 00:00:00 | 02:51:49 | 00:00:00 | |
| DB0ND-19 | 2026-09-01 01:27:50 | 46.90275 | 8.23368 | 83° | 69km/h | 7577m | -5.4m/s | 0°C | -1.0% | -1.0hPa | 2.5V | 00:00:00 | 00:00:00 | 00:00:00 | |
| DO3MHA-11 | 2026-09-01 01:27:46 | 46.90273 | 8.23342 | 85° | 82km/h | 7583m | -5.6m/s | -23.9°C | 22.4% | 0hPa | 2.5V | 00:00:00 | 02:51:29 | 00:00:00 | |
| DO3MHA-12 | 2026-09-01 01:27:44 | 46.90269 | 8.23285 | 85° | 82km/h | 7594m | -5.3m/s | -23.9°C | 22.2% | 0hPa | 2.5V | 00:00:00 | 02:51:27 | 00:00:00 | |
| HASLITAL | 2026-09-01 01:27:37 | 46.90273 | 8.23099 | 99° | 86km/h | 7627m | -5.8m/s | -24.2°C | 19.7% | 0hPa | 2.5V | 07:52:00 | 00:00:00 | 00:00:00 | |
| DO3MHA-11 | 2026-09-01 01:27:36 | 46.90279 | 8.23038 | 100° | 69km/h | 7638m | -6.2m/s | -24.3°C | 21.6% | 0hPa | 2.5V | 00:00:00 | 02:51:19 | 00:00:00 | |
| DO3MHA-12 | 2026-09-01 01:27:34 | 46.90286 | 8.22981 | 102° | 68km/h | 7649m | -5.7m/s | -24.4°C | 21.4% | 0hPa | 2.5V | 00:00:00 | 02:51:17 | 00:00:00 | |
| DB0UT-7 | 2026-09-01 01:27:29 | 46.90295 | 8.22860 | 91° | 75km/h | 7677m | -6.1m/s | -24.6°C | 21.5% | 0hPa | 2.5V | 00:00:00 | 02:51:12 | 00:00:00 | |
| DO3MHA-11 | 2026-09-01 01:27:26 | 46.90292 | 8.22788 | 84° | 80km/h | 7694m | -6.1m/s | -24.8°C | 20.3% | 0hPa | 2.5V | 07:52:00 | 02:51:09 | 00:00:00 | |
| DO3MHA-12 | 2026-09-01 01:27:24 | 46.90286 | 8.22736 | 81° | 82km/h | 7705m | -5.5m/s | -24.8°C | 19.8% | 0hPa | 2.5V | 00:00:00 | 02:51:07 | 00:00:00 | |
| DO3MHA-11 | 2026-09-01 01:27:16 | 46.90282 | 8.22491 | 99° | 69km/h | 7750m | -5.7m/s | -25.2°C | 17.4% | 0hPa | 2.5V | 00:00:00 | 02:50:59 | 00:00:00 | |
| DO3MHA-12 | 2026-09-01 01:27:14 | 46.90288 | 8.22435 | 99° | 69km/h | 7761m | -5.6m/s | -25.3°C | 16.4% | 0hPa | 2.5V | 00:00:00 | 02:50:57 | 00:00:00 | |
| DO3MHA-11 | 2026-09-01 01:27:06 | 46.90288 | 8.22238 | 82° | 84km/h | 7806m | -5.9m/s | -25.6°C | 14.5% | 0hPa | 2.6V | 00:00:00 | 02:50:49 | 00:00:00 | |
| DO3MHA-12 | 2026-09-01 01:27:04 | 46.90282 | 8.22183 | 83° | 80km/h | 7817m | -5.4m/s | -25.6°C | 14.4% | 0hPa | 2.5V | 07:52:00 | 02:50:47 | 00:00:00 | |
| DB0UT-7 | 2026-09-01 01:26:59 | 46.90275 | 8.22025 | 93° | 78km/h | 7845m | -5.8m/s | -25.8°C | 13.9% | 0hPa | 2.5V | 00:00:00 | 00:00:00 | 00:00:00 | |
| DO3MHA-11 | 2026-09-01 01:26:56 | 46.90280 | 8.21927 | 96° | 84km/h | 7862m | -5.9m/s | -25.9°C | 13.8% | 0hPa | 2.5V | 00:00:00 | 02:50:39 | 00:00:00 | |
| HASLITAL | 2026-09-01 01:26:55 | 46.90280 | 8.21927 | 96° | 86km/h | 7862m | -6.0m/s | -25.9°C | 12.4% | 0hPa | 2.5V | 07:53:00 | 00:00:00 | 00:00:00 | |
| DB0ND-19 | 2026-09-01 01:26:49 | 46.90282 | 8.21473 | 86° | 91km/h | 7956m | -5.5m/s | 0°C | -1.0% | -1.0hPa | 2.5V | 00:00:00 | 00:00:00 | 00:00:00 | |
| HASLITAL | 2026-09-01 01:26:35 | 46.90289 | 8.21314 | 97° | 77km/h | 7982m | -5.8m/s | -26.9°C | 14.1% | 0hPa | 2.5V | 07:53:00 | 00:00:00 | 00:00:00 | |
| DB0UT-7 | 2026-09-01 01:26:29 | 46.90289 | 8.21145 | 90° | 82km/h | 8017m | -5.9m/s | -27.2°C | 18.2% | 0hPa | 2.5V | 00:00:00 | 02:50:12 | 00:00:00 | |
| DH7VM-15 | 2026-09-01 01:26:28 | 46.90288 | 8.21145 | 91° | 84km/h | 8017m | -6.0m/s | -27.2°C | 16.5% | 0hPa | 2.5V | 00:00:00 | 00:00:00 | 00:00:00 | |
| HASLITAL | 2026-09-01 01:26:13 | 46.90299 | 8.20690 | 92° | 75km/h | 8103m | -5.0m/s | -28.0°C | 18.8% | 0hPa | 2.5V | 07:54:00 | 00:00:00 | 00:00:00 | |
| DB0UT-7 | 2026-09-01 01:25:59 | 46.90297 | 8.20248 | 91° | 80km/h | 8188m | -5.9m/s | -28.7°C | 15.0% | 0hPa | 2.5V | 00:00:00 | 00:00:00 | 00:00:00 | |
| HASLITAL | 2026-09-01 01:25:52 | 46.90299 | 8.20071 | 97° | 78km/h | 8223m | -6.0m/s | -29.0°C | 13.8% | 0hPa | 2.5V | 07:54:00 | 00:00:00 | 00:00:00 | |
| HASLITAL | 2026-09-01 01:25:32 | 46.90309 | 8.19486 | 87° | 82km/h | 8338m | -5.9m/s | -29.9°C | 13.6% | 0hPa | 2.5V | 07:54:00 | 00:00:00 | 00:00:00 | |
| DO3MHA-11 | 2026-09-01 01:25:30 | 46.90309 | 8.19391 | 95° | 78km/h | 8355m | -5.4m/s | -30.0°C | 15.6% | 0hPa | 2.5V | 00:00:00 | 02:49:13 | 00:00:00 | |
| DB0UT-7 | 2026-09-01 01:25:29 | 46.90311 | 8.19361 | 96° | 77km/h | 8360m | -5.6m/s | -30.0°C | 15.6% | 0hPa | 2.5V | 00:00:00 | 02:49:12 | 00:00:00 | |
| DO3MHA-11 | 2026-09-01 01:25:20 | 46.90313 | 8.19100 | 94° | 77km/h | 8411m | -5.6m/s | -30.4°C | 16.6% | 0hPa | 2.5V | 00:00:00 | 02:49:03 | 00:00:00 | |
| HASLITAL | 2026-09-01 01:25:12 | 46.90310 | 8.18902 | 94° | 78km/h | 8450m | -5.6m/s | -30.8°C | 15.6% | 0hPa | 2.5V | 07:55:00 | 00:00:00 | 00:00:00 | |
| DO3MHA-11 | 2026-09-01 01:25:10 | 46.90310 | 8.18821 | 86° | 77km/h | 8466m | -5.6m/s | -30.9°C | 17.7% | 0hPa | 2.5V | 00:00:00 | 02:48:53 | 00:00:00 | |
| DO3MHA-11 | 2026-09-01 01:25:00 | 46.90297 | 8.18538 | 87° | 77km/h | 8522m | -6.1m/s | -31.3°C | 16.6% | 0hPa | 2.5V | 00:00:00 | 02:48:43 | 00:00:00 | |
| DB0UT-7 | 2026-09-01 01:24:59 | 46.90297 | 8.18509 | 88° | 77km/h | 8527m | -5.4m/s | -31.3°C | 16.2% | 0hPa | 2.5V | 00:00:00 | 00:00:00 | 00:00:00 | |
| HASLITAL | 2026-09-01 01:24:52 | 46.90297 | 8.18343 | 85° | 73km/h | 8562m | -5.3m/s | -31.6°C | 14.6% | 0hPa | 2.5V | 07:55:00 | 00:00:00 | 00:00:00 | |
| DO3MHA-11 | 2026-09-01 01:24:50 | 46.90292 | 8.18255 | 88° | 78km/h | 8579m | -5.7m/s | -31.7°C | 17.0% | 0hPa | 2.5V | 07:54:00 | 02:48:33 | 00:00:00 | |
| DO3MHA-11 | 2026-09-01 01:24:40 | 46.90294 | 8.17975 | 85° | 77km/h | 8641m | -5.7m/s | -32.2°C | 22.8% | 0hPa | 2.5V | 00:00:00 | 02:48:23 | 00:00:00 | |
| DO3MHA-12 | 2026-09-01 01:24:31 | 46.90287 | 8.17712 | 90° | 77km/h | 8691m | -5.5m/s | -32.7°C | 24.7% | 0hPa | 2.5V | 00:00:00 | 02:48:14 | 00:00:00 | |
| DB0UT-7 | 2026-09-01 01:24:29 | 46.90286 | 8.17658 | 88° | 75km/h | 8702m | -5.6m/s | -32.8°C | 24.5% | 0hPa | 2.5V | 07:55:00 | 02:48:12 | 00:00:00 | |
| DO3MHA-11 | 2026-09-01 01:24:28 | 46.90285 | 8.17630 | 89° | 78km/h | 8708m | -6.0m/s | -32.9°C | 24.5% | 0hPa | 2.6V | 00:00:00 | 02:48:11 | 00:00:00 | |
| DH7VM-15 | 2026-09-01 01:24:23 | 46.90284 | 8.17519 | 88° | 77km/h | 8731m | -6.3m/s | -33.1°C | 21.0% | 0hPa | 2.6V | 00:00:00 | 00:00:00 | 00:00:00 | |
| DO3MHA-12 | 2026-09-01 01:24:21 | 46.90284 | 8.17429 | 94° | 75km/h | 8748m | -5.6m/s | -33.2°C | 21.5% | 0hPa | 2.6V | 00:00:00 | 02:48:04 | 00:00:00 | |
| DO3MHA-11 | 2026-09-01 01:24:18 | 46.90290 | 8.17342 | 97° | 73km/h | 8767m | -6.1m/s | -33.4°C | 19.0% | 0hPa | 2.5V | 00:00:00 | 02:48:01 | 00:00:00 | |
| DO3MHA-11 | 2026-09-01 01:24:08 | 46.90290 | 8.17075 | 89° | 75km/h | 8822m | -5.7m/s | -33.9°C | 24.4% | 0hPa | 2.5V | 00:00:00 | 02:47:51 | 00:00:00 | |
| DO3MHA-12 | 2026-09-01 01:24:01 | 46.90293 | 8.16884 | 91° | 69km/h | 8862m | -5.5m/s | -34.2°C | 28.8% | 0hPa | 2.5V | 00:00:00 | 02:47:44 | 00:00:00 | |
| DB0UT-7 | 2026-09-01 01:23:59 | 46.90293 | 8.16830 | 90° | 75km/h | 8873m | -5.8m/s | -34.3°C | 28.1% | 0hPa | 2.5V | 00:00:00 | 00:00:00 | 00:00:00 | |
| DO3MHA-11 | 2026-09-01 01:23:58 | 46.90293 | 8.16801 | 92° | 75km/h | 8879m | -5.6m/s | -34.4°C | 27.9% | 0hPa | 2.5V | 00:00:00 | 02:47:41 | 00:00:00 | |
| DO3MHA-12 | 2026-09-01 01:23:51 | 46.90292 | 8.16610 | 88° | 75km/h | 8920m | -5.9m/s | -34.8°C | 27.6% | 0hPa | 2.5V | 00:00:00 | 02:47:34 | 00:00:00 | |
| HASLITAL | 2026-09-01 01:23:49 | 46.90292 | 8.16580 | 92° | 80km/h | 8926m | -6.0m/s | -34.9°C | 24.8% | 0hPa | 2.5V | 07:56:00 | 00:00:00 | 00:00:00 | |
| DO3MHA-11 | 2026-09-01 01:23:48 | 46.90294 | 8.16523 | 95° | 75km/h | 8938m | -6.0m/s | -34.9°C | 28.0% | 0hPa | 2.5V | 00:00:00 | 02:47:31 | 00:00:00 | |
| DO3MHA-12 | 2026-09-01 01:23:41 | 46.90290 | 8.16332 | 92° | 73km/h | 8979m | -5.8m/s | -35.3°C | 30.2% | 0hPa | 2.6V | 00:00:00 | 02:47:24 | 00:00:00 | |
| DO3MHA-11 | 2026-09-01 01:23:38 | 46.90294 | 8.16247 | 94° | 73km/h | 8996m | -5.7m/s | -35.4°C | 30.9% | 0hPa | 2.6V | 00:00:00 | 02:47:21 | 00:00:00 | |
| DB0UT-7 | 2026-09-01 01:23:29 | 46.90292 | 8.16000 | 92° | 73km/h | 9047m | -6.1m/s | -35.9°C | 32.5% | 0hPa | 2.6V | 00:00:00 | 02:47:12 | 00:00:00 | |
| DO3MHA-11 | 2026-09-01 01:23:28 | 46.90292 | 8.15974 | 88° | 73km/h | 9053m | -5.9m/s | -36.0°C | 32.5% | 0hPa | 2.6V | 07:56:00 | 02:47:11 | 00:00:00 | |
| DH7VM-15 | 2026-09-01 01:23:17 | 46.90298 | 8.15694 | 95° | 73km/h | 9111m | -6.1m/s | -36.5°C | 28.9% | 0hPa | 2.6V | 00:00:00 | 00:00:00 | 00:00:00 | |
| DO3MHA-11 | 2026-09-01 01:23:12 | 46.90297 | 8.15535 | 89° | 75km/h | 9148m | -5.7m/s | -36.6°C | 33.2% | 0hPa | 2.6V | 00:00:00 | 02:46:55 | 00:00:00 | |
| HASLITAL | 2026-09-01 01:23:08 | 46.90300 | 8.15450 | 98° | 71km/h | 9164m | -6.0m/s | -36.7°C | 30.2% | 0hPa | 2.5V | 07:56:00 | 00:00:00 | 00:00:00 | |
| HASLITAL | 2026-09-01 01:22:48 | 46.90290 | 8.14923 | 90° | 71km/h | 9284m | -6.3m/s | -37.5°C | 32.8% | 0hPa | 2.5V | 07:57:00 | 00:00:00 | 00:00:00 | |
| DB0UT-7 | 2026-09-01 01:22:29 | 46.90268 | 8.14396 | 84° | 73km/h | 9397m | -6.1m/s | -38.5°C | 36.5% | 0hPa | 2.5V | 00:00:00 | 02:46:12 | 00:00:00 | |
| HASLITAL | 2026-09-01 01:22:27 | 46.90266 | 8.14368 | 86° | 77km/h | 9403m | -6.0m/s | -38.7°C | 32.6% | 0hPa | 2.5V | 07:57:00 | 00:00:00 | 00:00:00 | |
| IW2NTF | 2026-09-01 01:22:14 | 46.90236 | 8.13943 | 81° | 66km/h | 9499m | -6m/s | -39.5°C | 27.5% | 0hPa | 2.5V | 07:57:35 | 02:45:55 | 00:00:00 | |
| IW2NTF | 2026-09-01 01:22:05 | 46.90207 | 8.13681 | 77° | 73km/h | 9555m | -5.6m/s | -39.9°C | 24% | 0hPa | 2.5V | 07:57:45 | 02:45:45 | 00:00:00 | |
| DO3MHA-11 | 2026-09-01 01:22:02 | 46.90206 | 8.13681 | 78° | 71km/h | 9556m | -5.6m/s | -39.9°C | 24.0% | 0hPa | 2.6V | 00:00:00 | 02:45:45 | 00:00:00 | |
| DB0UT-7 | 2026-09-01 01:21:59 | 46.90196 | 8.13601 | 81° | 73km/h | 9573m | -5.9m/s | -40.0°C | 23.5% | 0hPa | 2.6V | 00:00:00 | 00:00:00 | 00:00:00 | |
| IW2NTF | 2026-09-01 01:21:55 | 46.90173 | 8.13419 | 79° | 71km/h | 9613m | -5.8m/s | -40.4°C | 24.1% | 0hPa | 2.6V | 07:57:55 | 02:45:35 | 00:00:00 | |
| HASLITAL | 2026-09-01 01:21:46 | 46.90159 | 8.13287 | 82° | 68km/h | 9643m | -6.3m/s | -40.6°C | 21.1% | 0hPa | 2.6V | 07:58:00 | 00:00:00 | 00:00:00 | |
| IW2NTF | 2026-09-01 01:21:43 | 46.90131 | 8.13107 | 76° | 78km/h | 9685m | -6m/s | -41°C | 24.9% | 0hPa | 2.6V | 07:58:07 | 02:45:23 | 00:00:00 | |
| IW2NTF | 2026-09-01 01:21:33 | 46.90098 | 8.12841 | 79° | 73km/h | 9741m | -5.8m/s | -41.5°C | 26.2% | 0hPa | 2.5V | 07:58:17 | 02:45:13 | 00:00:00 | |
| DO3MHA-11 | 2026-09-01 01:21:31 | 46.90102 | 8.12868 | 77° | 73km/h | 9735m | -5.7m/s | -41.4°C | 26.1% | 0hPa | 2.5V | 00:00:00 | 02:45:14 | 00:00:00 | |
| DB0UT-7 | 2026-09-01 01:21:29 | 46.90095 | 8.12815 | 80° | 69km/h | 9747m | -5.8m/s | -41.5°C | 26.3% | 0hPa | 2.5V | 00:00:00 | 02:45:12 | 00:00:00 | |
| HASLITAL | 2026-09-01 01:21:26 | 46.90088 | 8.12764 | 78° | 71km/h | 9758m | -5.9m/s | -41.7°C | 23.1% | 0hPa | 2.5V | 07:58:00 | 00:00:00 | 00:00:00 | |
| IW2NTF | 2026-09-01 01:21:23 | 46.90062 | 8.12529 | 77° | 68km/h | 9810m | -5.8m/s | -42.2°C | 29.5% | 0hPa | 2.5V | 07:58:29 | 02:45:01 | 00:00:00 | |
| DO3MHA-11 | 2026-09-01 01:21:21 | 46.90071 | 8.12602 | 84° | 68km/h | 9794m | -5.7m/s | -42.0°C | 28.5% | 0hPa | 2.6V | 00:00:00 | 02:45:04 | 00:00:00 | |
| IW2NTF | 2026-09-01 01:21:13 | 46.90033 | 8.12276 | 84° | 62km/h | 9870m | -5.8m/s | -42.7°C | 33.4% | 0hPa | 2.5V | 07:58:39 | 02:44:51 | 00:00:00 | |
| HASLITAL | 2026-09-01 01:21:06 | 46.90031 | 8.12254 | 81° | 62km/h | 9876m | -5.7m/s | -42.7°C | 29.6% | 0hPa | 2.6V | 07:59:00 | 00:00:00 | 00:00:00 | |
| IW2NTF | 2026-09-01 01:21:03 | 46.90001 | 8.12037 | 74° | 69km/h | 9926m | -5.8m/s | -43.2°C | 38% | 0hPa | 2.6V | 07:58:49 | 02:44:41 | 00:00:00 | |
| DB0UT-7 | 2026-09-01 01:20:59 | 46.90005 | 8.12061 | 77° | 69km/h | 9920m | -5.9m/s | -43.1°C | 37.9% | 0hPa | 2.6V | 00:00:00 | 00:00:00 | 00:00:00 | |
| IW2NTF | 2026-09-01 01:20:51 | 46.89972 | 8.11724 | 83° | 71km/h | 9993m | -5.9m/s | -43.9°C | 40.3% | 0hPa | 2.6V | 07:59:01 | 02:44:29 | 00:00:00 | |
| HASLITAL | 2026-09-01 01:20:45 | 46.89972 | 8.11724 | 85° | 73km/h | 9994m | -5.9m/s | -43.9°C | 35.2% | 0hPa | 2.5V | 07:59:00 | 00:00:00 | 00:00:00 | |
| IW2NTF | 2026-09-01 01:20:41 | 46.89945 | 8.11475 | 79° | 71km/h | 10053m | -6.1m/s | -44.4°C | 39.6% | 0hPa | 2.5V | 07:59:11 | 02:44:19 | 00:00:00 | |
| IW2NTF | 2026-09-01 01:20:31 | 46.89917 | 8.11220 | 81° | 68km/h | 10113m | -6.2m/s | -44.8°C | 33.8% | 0hPa | 2.5V | 07:59:21 | 02:44:09 | 00:00:00 | |
| DB0UT-7 | 2026-09-01 01:20:29 | 46.89926 | 8.11295 | 78° | 68km/h | 10095m | -6.0m/s | -44.6°C | 35.0% | 0hPa | 2.6V | 07:59:00 | 02:44:12 | 00:00:00 | |
| DH7VM-15 | 2026-09-01 01:20:26 | 46.89919 | 8.11245 | 82° | 69km/h | 10107m | -6.1m/s | -44.8°C | 29.3% | 0hPa | 2.6V | 00:00:00 | 00:00:00 | 00:00:00 | |
| HASLITAL | 2026-09-01 01:20:25 | 46.89917 | 8.11220 | 82° | 68km/h | 10113m | -6.2m/s | -44.8°C | 29.1% | 0hPa | 2.6V | 07:59:00 | 00:00:00 | 00:00:00 | |
| IW2NTF | 2026-09-01 01:20:21 | 46.89887 | 8.10970 | 79° | 69km/h | 10175m | -6.1m/s | -45.2°C | 35.7% | 0hPa | 2.6V | 07:59:31 | 02:43:59 | 00:00:00 | |
| IW2NTF | 2026-09-01 01:20:11 | 46.89859 | 8.10719 | 88° | 73km/h | 10236m | -6.2m/s | -45.6°C | 31.3% | 0hPa | 2.5V | 07:59:41 | 02:43:49 | 00:00:00 | |
| HASLITAL | 2026-09-01 01:20:04 | 46.89858 | 8.10693 | 91° | 68km/h | 10242m | -6.0m/s | -45.7°C | 26.2% | 0hPa | 2.6V | 08:00:00 | 00:00:00 | 00:00:00 | |
| IW2NTF | 2026-09-01 01:20:01 | 46.89836 | 8.10481 | 79° | 66km/h | 10296m | -6.3m/s | -45.9°C | 27.8% | 0hPa | 2.6V | 07:59:51 | 02:43:39 | 00:00:00 | |
| DB0UT-7 | 2026-09-01 01:19:59 | 46.89845 | 8.10554 | 80° | 64km/h | 10277m | -6.1m/s | -45.8°C | 27.9% | 0hPa | 2.5V | 00:00:00 | 00:00:00 | 00:00:00 | |
| IW2NTF | 2026-09-01 01:19:51 | 46.89815 | 8.10248 | 76° | 69km/h | 10357m | -5.7m/s | -46.5°C | 28.8% | 0hPa | 2.5V | 08:00:01 | 02:43:29 | 00:00:00 | |
| HASLITAL | 2026-09-01 01:19:43 | 46.89809 | 8.10196 | 86° | 73km/h | 10369m | -6.0m/s | -46.6°C | 24.2% | 0hPa | 2.5V | 08:00:00 | 00:00:00 | 00:00:00 | |
| IW2NTF | 2026-09-01 01:19:41 | 46.89792 | 8.10016 | 76° | 71km/h | 10417m | -5.8m/s | -47°C | 28.3% | 0hPa | 2.5V | 08:00:11 | 02:43:19 | 00:00:00 | |
| DO3MHA-11 | 2026-09-01 01:19:31 | 46.89788 | 8.09889 | 92° | 68km/h | 10447m | -6.0m/s | -47.2°C | 28.7% | 0hPa | 2.5V | 00:00:00 | 02:43:14 | 00:00:00 | |
| DB0UT-7 | 2026-09-01 01:19:29 | 46.89786 | 8.09847 | 80° | 66km/h | 10458m | -5.6m/s | -47.3°C | 28.9% | 0hPa | 2.5V | 00:00:00 | 02:43:12 | 00:00:00 | |
| IW2NTF | 2026-09-01 01:19:23 | 46.89779 | 8.09622 | 94° | 53km/h | 10513m | -5.8m/s | -47.9°C | 30.5% | 0hPa | 2.5V | 08:00:27 | 02:43:03 | 00:00:00 | |
| DH7VM-15 | 2026-09-01 01:19:22 | 46.89773 | 8.09691 | 96° | 73km/h | 10495m | -6.3m/s | -47.7°C | 25.1% | 0hPa | 2.5V | 00:00:00 | 00:00:00 | 00:00:00 | |
| DO3MHA-11 | 2026-09-01 01:19:21 | 46.89777 | 8.09642 | 98° | 66km/h | 10507m | -5.9m/s | -47.8°C | 30.3% | 0hPa | 2.5V | 00:00:00 | 02:43:04 | 00:00:00 | |
| DO3MHA-11 | 2026-09-01 01:19:10 | 46.89756 | 8.09390 | 97° | 64km/h | 10573m | -6.2m/s | -48.4°C | 32.2% | 0hPa | 2.5V | 00:00:00 | 02:42:53 | 00:00:00 | |
| IW2NTF | 2026-09-01 01:19:09 | 46.89755 | 8.09263 | 71° | 60km/h | 10608m | -6m/s | -48.8°C | 33.1% | 0hPa | 2.5V | 08:00:43 | 02:42:47 | 00:00:00 | |
| HASLITAL | 2026-09-01 01:19:02 | 46.89750 | 8.09240 | 73° | 68km/h | 10614m | -6.2m/s | -48.9°C | 28.1% | 0hPa | 2.6V | 08:01:00 | 00:00:00 | 00:00:00 | |
| DO3MHA-11 | 2026-09-01 01:19:00 | 46.89737 | 8.09159 | 83° | 68km/h | 10632m | -6.1m/s | -49.0°C | 34.0% | 0hPa | 2.6V | 00:00:00 | 02:42:43 | 00:00:00 | |
| DB0UT-7 | 2026-09-01 01:18:59 | 46.89735 | 8.09129 | 87° | 68km/h | 10639m | -6.2m/s | -49.0°C | 34.2% | 0hPa | 2.6V | 00:00:00 | 00:00:00 | 00:00:00 | |
| IW2NTF | 2026-09-01 01:18:51 | 46.89715 | 8.08804 | 90° | 77km/h | 10717m | -5.8m/s | -49.8°C | 34.8% | 0hPa | 2.6V | 08:01:01 | 02:42:29 | 00:00:00 | |
| DO3MHA-11 | 2026-09-01 01:18:47 | 46.89716 | 8.08833 | 86° | 62km/h | 10711m | -5.8m/s | -49.7°C | 35.0% | 0hPa | 2.6V | 00:00:00 | 02:42:30 | 00:00:00 | |
| HASLITAL | 2026-09-01 01:18:42 | 46.89721 | 8.08710 | 92° | 51km/h | 10741m | -6.3m/s | -50.1°C | 29.2% | 0hPa | 2.6V | 08:01:00 | 00:00:00 | 00:00:00 | |
| DO3MHA-12 | 2026-09-01 01:18:41 | 46.89720 | 8.08691 | 84° | 66km/h | 10747m | -6.2m/s | -50.0°C | 34.9% | 0hPa | 2.6V | 00:00:00 | 02:42:24 | 00:00:00 | |
| IW2NTF | 2026-09-01 01:18:39 | 46.89687 | 8.08525 | 82° | 82km/h | 10790m | -6.2m/s | -50.5°C | 34.6% | 0hPa | 2.6V | 08:01:13 | 02:42:17 | 00:00:00 | |
| DO3MHA-11 | 2026-09-01 01:18:37 | 46.89702 | 8.08608 | 71° | 71km/h | 10771m | -6.0m/s | -50.3°C | 34.6% | 0hPa | 2.5V | 08:01:00 | 02:42:20 | 00:00:00 | |
| IW2NTF | 2026-09-01 01:18:29 | 46.89676 | 8.08298 | 66° | 58km/h | 10851m | -6.3m/s | -51°C | 35.2% | 0hPa | 2.5V | 08:01:23 | 02:42:07 | 00:00:00 | |
| DB0UT-7 | 2026-09-01 01:18:29 | 46.89688 | 8.08391 | 95° | 64km/h | 10820m | -5.9m/s | -50.7°C | 34.4% | 0hPa | 2.5V | 08:01:00 | 02:42:12 | 00:00:00 | |
| DO3MHA-11 | 2026-09-01 01:18:27 | 46.89688 | 8.08353 | 82° | 57km/h | 10832m | -6.2m/s | -50.8°C | 34.4% | 0hPa | 2.6V | 00:00:00 | 02:42:10 | 00:00:00 | |
| HASLITAL | 2026-09-01 01:18:21 | 46.89663 | 8.08254 | 69° | 69km/h | 10863m | -6.1m/s | -51.2°C | 29.9% | 0hPa | 2.6V | 08:02:00 | 00:00:00 | 00:00:00 | |
| IW2NTF | 2026-09-01 01:18:19 | 46.89644 | 8.08051 | 82° | 55km/h | 10911m | -6m/s | -51.6°C | 36.2% | 0hPa | 2.6V | 08:01:33 | 02:41:57 | 00:00:00 | |
| DO3MHA-11 | 2026-09-01 01:18:17 | 46.89645 | 8.08119 | 90° | 66km/h | 10893m | -6.1m/s | -51.4°C | 35.8% | 0hPa | 2.5V | 00:00:00 | 02:42:00 | 00:00:00 | |
| IW2NTF | 2026-09-01 01:18:10 | 46.89619 | 8.07820 | 79° | 51km/h | 10973m | -6.5m/s | -52.2°C | 36.2% | 0hPa | 2.5V | 08:01:43 | 02:41:47 | 00:00:00 | |
| DO3MHA-11 | 2026-09-01 01:18:07 | 46.89620 | 8.07883 | 90° | 64km/h | 10954m | -6.3m/s | -52.0°C | 35.8% | 0hPa | 2.5V | 00:00:00 | 02:41:50 | 00:00:00 | |
| DH7VM-15 | 2026-09-01 01:18:02 | 46.89615 | 8.07801 | 73° | 53km/h | 10980m | -6.2m/s | -52.2°C | 30.2% | 0hPa | 2.5V | 00:00:00 | 00:00:00 | 00:00:00 | |
| HASLITAL | 2026-09-01 01:18:00 | 46.89604 | 8.07761 | 67° | 66km/h | 10992m | -6.4m/s | -52.3°C | 30.6% | 0hPa | 2.5V | 08:02:00 | 00:00:00 | 00:00:00 | |
| DB0UT-7 | 2026-09-01 01:17:59 | 46.89591 | 8.07711 | 73° | 68km/h | 11005m | -6.3m/s | -52.4°C | 37.7% | 0hPa | 2.5V | 00:00:00 | 00:00:00 | 00:00:00 | |
| DO3MHA-11 | 2026-09-01 01:17:57 | 46.89582 | 8.07654 | 83° | 66km/h | 11017m | -6.0m/s | -52.5°C | 37.9% | 0hPa | 2.5V | 00:00:00 | 02:41:40 | 00:00:00 | |
| DO3MHA-11 | 2026-09-01 01:17:47 | 46.89551 | 8.07421 | 77° | 64km/h | 11078m | -6.4m/s | -53.0°C | 35.9% | 0hPa | 2.5V | 00:00:00 | 02:41:30 | 00:00:00 | |
| HASLITAL | 2026-09-01 01:17:39 | 46.89537 | 8.07258 | 68° | 53km/h | 11122m | -6.5m/s | -53.4°C | 29.4% | 0hPa | 2.5V | 08:02:00 | 00:00:00 | 00:00:00 | |
| DO3MHA-11 | 2026-09-01 01:17:37 | 46.89516 | 8.07197 | 64° | 71km/h | 11141m | -6.2m/s | -53.5°C | 35.6% | 0hPa | 2.5V | 00:00:00 | 02:41:20 | 00:00:00 | |
| DB0UT-7 | 2026-09-01 01:17:29 | 46.89488 | 8.06985 | 87° | 68km/h | 11190m | -6.2m/s | -53.9°C | 35.5% | 0hPa | 2.5V | 00:00:00 | 02:41:12 | 00:00:00 | |
| DO3MHA-11 | 2026-09-01 01:17:27 | 46.89482 | 8.06948 | 71° | 69km/h | 11203m | -6.3m/s | -54.0°C | 35.7% | 0hPa | 2.5V | 00:00:00 | 02:41:10 | 00:00:00 | |
| HASLITAL | 2026-09-01 01:17:18 | 46.89432 | 8.06754 | 86° | 75km/h | 11253m | -6.4m/s | -54.6°C | 29.6% | 0hPa | 2.5V | 08:02:00 | 00:00:00 | 00:00:00 | |
| DO3MHA-11 | 2026-09-01 01:17:06 | 46.89374 | 8.06452 | 75° | 69km/h | 11334m | -6.1m/s | -55.1°C | 38.6% | 0hPa | 2.5V | 08:02:00 | 02:40:49 | 00:00:00 | |
| DO3MHA-12 | 2026-09-01 01:16:59 | 46.89343 | 8.06271 | 86° | 71km/h | 11379m | -6.6m/s | -55.5°C | 36.8% | 0hPa | 2.5V | 00:00:00 | 02:40:42 | 00:00:00 | |
| HASLITAL | 2026-09-01 01:16:57 | 46.89341 | 8.06247 | 84° | 60km/h | 11386m | -6.6m/s | -55.6°C | 29.8% | 0hPa | 2.5V | 08:02:00 | 00:00:00 | 00:00:00 | |
| DO3MHA-11 | 2026-09-01 01:16:56 | 46.89334 | 8.06206 | 68° | 75km/h | 11399m | -5.8m/s | -55.6°C | 36.4% | 0hPa | 2.5V | 00:00:00 | 02:40:39 | 00:00:00 | |
| IN3HCDX | 2026-09-01 01:16:53 | 46.89319 | 8.06164 | 62° | 71km/h | 11411m | -6.6m/s | 0°C | 0% | 0hPa | 2.5V | 00:00:00 | 00:00:00 | 00:00:00 | |
| DO3MHA-11 | 2026-09-01 01:16:46 | 46.89281 | 8.05945 | 85° | 71km/h | 11462m | -6.4m/s | -55.8°C | 37.9% | 0hPa | 2.5V | 00:00:00 | 02:40:29 | 00:00:00 | |
| DO3MHA-11 | 2026-09-01 01:16:36 | 46.89219 | 8.05695 | 84° | 69km/h | 11525m | -6.0m/s | -56.4°C | 40.6% | 0hPa | 2.5V | 00:00:00 | 02:40:19 | 00:00:00 | |
| DK5PH-5 | 2026-09-01 01:16:35 | 46.89218 | 8.05666 | 87° | 89km/h | 11531m | -6.0m/s | -56.4°C | 41.0% | 0hPa | 2.5V | 00:00:00 | 02:40:18 | 00:00:00 | |
| DB0UT-7 | 2026-09-01 01:16:29 | 46.89197 | 8.05536 | 63° | 75km/h | 11569m | -6.0m/s | -56.8°C | 42.8% | 0hPa | 2.5V | 00:00:00 | 02:40:12 | 00:00:00 | |
| IN3HCDX | 2026-09-01 01:16:28 | 46.89197 | 8.05536 | 63° | 68km/h | 11569m | -6.0m/s | 0°C | 0% | 0hPa | 2.5V | 00:00:00 | 00:00:00 | 00:00:00 | |
| IW2NTF | 2026-09-01 01:16:20 | 46.89127 | 8.05181 | 67° | 80km/h | 11656m | -6m/s | -57.5°C | 44.8% | 0hPa | 2.5V | 08:03:32 | 02:39:58 | 00:00:00 | |
| HASLITAL | 2026-09-01 01:16:16 | 46.89142 | 8.05230 | 65° | 66km/h | 11644m | -6.6m/s | -57.3°C | 36.5% | 0hPa | 2.6V | 08:03:00 | 00:00:00 | 00:00:00 | |
| DO3MHA-11 | 2026-09-01 01:16:13 | 46.89114 | 8.05122 | 78° | 77km/h | 11668m | -5.9m/s | -57.5°C | 44.3% | 0hPa | 2.6V | 00:00:00 | 02:39:56 | 00:00:00 | |
| IW2NTF | 2026-09-01 01:16:10 | 46.89098 | 8.04916 | 66° | 66km/h | 11718m | -6.1m/s | -58°C | 44% | 0hPa | 2.6V | 08:03:42 | 02:39:48 | 00:00:00 | |
| IN3HCDX | 2026-09-01 01:16:07 | 46.89109 | 8.04980 | 89° | 62km/h | 11699m | -6.1m/s | 0°C | 0% | 0hPa | 2.5V | 00:00:00 | 00:00:00 | 00:00:00 | |
| IW2NTF | 2026-09-01 01:16:00 | 46.89059 | 8.04636 | 83° | 62km/h | 11781m | -6.5m/s | -58.4°C | 45% | 0hPa | 2.5V | 08:03:52 | 02:39:38 | 00:00:00 | |
| DB0UT-7 | 2026-09-01 01:15:59 | 46.89062 | 8.04743 | 86° | 77km/h | 11756m | -6.2m/s | -58.2°C | 46.2% | 0hPa | 2.6V | 00:00:00 | 00:00:00 | 00:00:00 | |
| HASLITAL | 2026-09-01 01:15:55 | 46.89060 | 8.04659 | 90° | 66km/h | 11775m | -6.3m/s | -58.4°C | 36.8% | 0hPa | 2.6V | 08:04:00 | 00:00:00 | 00:00:00 | |
| DO3MHA-11 | 2026-09-01 01:15:52 | 46.89047 | 8.04567 | 70° | 78km/h | 11799m | -5.7m/s | -58.5°C | 43.9% | 0hPa | 2.6V | 00:00:00 | 02:39:35 | 00:00:00 | |
| IW2NTF | 2026-09-01 01:15:50 | 46.89027 | 8.04354 | 92° | 73km/h | 11843m | -6.2m/s | -58.4°C | 43.1% | 0hPa | 2.6V | 08:04:02 | 02:39:28 | 00:00:00 | |
| DO3MHA-11 | 2026-09-01 01:15:42 | 46.89023 | 8.04282 | 77° | 82km/h | 11862m | -6.4m/s | -58.4°C | 42.8% | 0hPa | 2.5V | 00:00:00 | 02:39:25 | 00:00:00 | |
| IW2NTF | 2026-09-01 01:15:40 | 46.88996 | 8.04064 | 91° | 88km/h | 11907m | -6.3m/s | -58.6°C | 42.5% | 0hPa | 2.5V | 08:04:12 | 02:39:18 | 00:00:00 | |
| HASLITAL | 2026-09-01 01:15:35 | 46.88996 | 8.04097 | 90° | 93km/h | 11900m | -6.6m/s | -58.5°C | 34.3% | 0hPa | 2.5V | 08:04:00 | 00:00:00 | 00:00:00 | |
| DO3MHA-11 | 2026-09-01 01:15:32 | 46.88998 | 8.03980 | 88° | 80km/h | 11925m | -6.0m/s | -58.6°C | 41.5% | 0hPa | 2.5V | 00:00:00 | 02:39:15 | 00:00:00 | |
| IW2NTF | 2026-09-01 01:15:30 | 46.88956 | 8.03798 | 70° | 97km/h | 11969m | -6m/s | -58.5°C | 39.5% | 0hPa | 2.5V | 08:04:22 | 02:39:08 | 00:00:00 | |
| DO3MHA-12 | 2026-09-01 01:15:29 | 46.88988 | 8.03911 | 70° | 88km/h | 11944m | -6.7m/s | -58.7°C | 40.7% | 0hPa | 2.5V | 00:00:00 | 02:39:12 | 00:00:00 | |
| DO3MHA-11 | 2026-09-01 01:15:22 | 46.88940 | 8.03692 | 85° | 86km/h | 11987m | -5.9m/s | -58.6°C | 39.9% | 0hPa | 2.5V | 08:04:00 | 02:39:05 | 00:00:00 | |
| IW2NTF | 2026-09-01 01:15:21 | 46.88911 | 8.03487 | 69° | 93km/h | 12030m | -6m/s | -59°C | 38.5% | 0hPa | 2.5V | 08:04:32 | 02:38:58 | 00:00:00 | |
| DO3MHA-12 | 2026-09-01 01:15:17 | 46.88927 | 8.03546 | 71° | 84km/h | 12017m | -6.2m/s | -58.8°C | 38.8% | 0hPa | 2.5V | 00:00:00 | 02:39:00 | 00:00:00 | |
| HASLITAL | 2026-09-01 01:15:16 | 46.88919 | 8.03518 | 69° | 84km/h | 12023m | -6.2m/s | -58.9°C | 30.7% | 0hPa | 2.5V | 08:04:00 | 00:00:00 | 00:00:00 | |
| DO3MHA-11 | 2026-09-01 01:15:12 | 46.88893 | 8.03382 | 83° | 88km/h | 12048m | -6.2m/s | -59.1°C | 38.0% | 0hPa | 2.5V | 00:00:00 | 02:38:55 | 00:00:00 | |
| IW2NTF | 2026-09-01 01:15:10 | 46.88868 | 8.03166 | 74° | 89km/h | 12091m | -6.1m/s | -59.5°C | 37.2% | 0hPa | 2.5V | 08:04:42 | 02:38:48 | 00:00:00 | |
| DO3MHA-12 | 2026-09-01 01:15:07 | 46.88880 | 8.03226 | 76° | 89km/h | 12079m | -6.2m/s | -59.4°C | 37.6% | 0hPa | 2.6V | 00:00:00 | 02:38:50 | 00:00:00 | |
| DO3MHA-11 | 2026-09-01 01:15:02 | 46.88853 | 8.03064 | 82° | 91km/h | 12110m | -6.1m/s | -59.6°C | 36.4% | 0hPa | 2.6V | 00:00:00 | 02:38:45 | 00:00:00 | |
| IW2NTF | 2026-09-01 01:15:00 | 46.88827 | 8.02833 | 83° | 93km/h | 12155m | -6.5m/s | -59.6°C | 33.9% | 0hPa | 2.6V | 08:04:52 | 02:38:38 | 00:00:00 | |
| DB0UT-7 | 2026-09-01 01:14:59 | 46.88843 | 8.02967 | 80° | 97km/h | 12129m | -6.2m/s | -59.6°C | 35.3% | 0hPa | 2.5V | 00:00:00 | 00:00:00 | 00:00:00 | |
| DO3MHA-12 | 2026-09-01 01:14:57 | 46.88834 | 8.02902 | 79° | 78km/h | 12142m | -6.7m/s | -59.7°C | 34.8% | 0hPa | 2.5V | 00:00:00 | 02:38:40 | 00:00:00 | |
| HASLITAL | 2026-09-01 01:14:55 | 46.88830 | 8.02867 | 82° | 95km/h | 12149m | -6.8m/s | -59.7°C | 26.7% | 0hPa | 2.5V | 08:05:00 | 00:00:00 | 00:00:00 | |
| DO3MHA-11 | 2026-09-01 01:14:52 | 46.88819 | 8.02734 | 82° | 95km/h | 12175m | -6.2m/s | -59.4°C | 32.2% | 0hPa | 2.5V | 00:00:00 | 02:38:35 | 00:00:00 | |
| IW2NTF | 2026-09-01 01:14:50 | 46.88793 | 8.02504 | 75° | 95km/h | 12222m | -6.4m/s | -59.4°C | 27.5% | 0hPa | 2.5V | 08:05:02 | 02:38:28 | 00:00:00 | |
| IW2NTF | 2026-09-01 01:14:40 | 46.88762 | 8.02133 | 78° | 95km/h | 12285m | -6.1m/s | -58.5°C | 22.8% | 0hPa | 2.6V | 08:05:12 | 02:38:18 | 00:00:00 | |
| HASLITAL | 2026-09-01 01:14:34 | 46.88762 | 8.02133 | 79° | 95km/h | 12286m | -6.1m/s | -58.5°C | 16.9% | 0hPa | 2.5V | 08:05:00 | 00:00:00 | 00:00:00 | |
| IW2NTF | 2026-09-01 01:14:30 | 46.88723 | 8.01741 | 84° | 115km/h | 12351m | -6.5m/s | -58°C | 19.5% | 0hPa | 2.5V | 08:05:22 | 02:38:08 | 00:00:00 | |
| DB0UT-7 | 2026-09-01 01:14:29 | 46.88738 | 8.01901 | 85° | 104km/h | 12324m | -6.3m/s | -58.1°C | 21.2% | 0hPa | 2.6V | 00:00:00 | 02:38:12 | 00:00:00 | |
| DB0ND-19 | 2026-09-01 01:14:24 | 46.88722 | 8.01619 | 92° | 99km/h | 12371m | -6.6m/s | 0°C | -1.0% | -1.0hPa | 2.6V | 00:00:00 | 00:00:00 | 00:00:00 | |
| IW2NTF | 2026-09-01 01:14:20 | 46.88700 | 8.01368 | 83° | 115km/h | 12415m | -6m/s | -57.8°C | 17.9% | 0hPa | 2.6V | 08:05:32 | 02:37:58 | 00:00:00 | |
| HASLITAL | 2026-09-01 01:14:13 | 46.88698 | 8.01326 | 90° | 115km/h | 12421m | -6.2m/s | -57.8°C | 12.7% | 0hPa | 2.5V | 08:06:00 | 00:00:00 | 00:00:00 | |
| IW2NTF | 2026-09-01 01:14:10 | 46.88689 | 8.01002 | 84° | 115km/h | 12477m | -5.5m/s | -57.8°C | 16.7% | 0hPa | 2.5V | 08:05:42 | 02:37:48 | 00:00:00 | |
| IW2NTF | 2026-09-01 01:14:00 | 46.88713 | 8.00641 | 88° | 77km/h | 12539m | -5.7m/s | -58.2°C | 15.9% | 0hPa | 2.5V | 08:05:52 | 02:37:38 | 00:00:00 | |
| DB0UT-7 | 2026-09-01 01:13:59 | 46.88704 | 8.00760 | 103° | 99km/h | 12514m | -6.2m/s | -58.0°C | 16.1% | 0hPa | 2.5V | 08:05:00 | 00:00:00 | 00:00:00 | |
| IN3HCDX | 2026-09-01 01:13:57 | 46.88708 | 8.00728 | 102° | 84km/h | 12521m | -6.7m/s | 0°C | 0% | 0hPa | 2.6V | 00:00:00 | 00:00:00 | 00:00:00 | |
| HASLITAL | 2026-09-01 01:13:52 | 46.88707 | 8.00580 | 79° | 93km/h | 12550m | -6.1m/s | -58.2°C | 10.9% | 0hPa | 2.6V | 08:06:00 | 00:00:00 | 00:00:00 | |
| IW2NTF | 2026-09-01 01:13:50 | 46.88704 | 8.00268 | 98° | 93km/h | 12599m | -5.8m/s | -57.9°C | 14.5% | 0hPa | 2.6V | 08:06:02 | 02:37:28 | 00:00:00 | |
| IW2NTF | 2026-09-01 01:13:40 | 46.88679 | 7.99899 | 90° | 120km/h | 12662m | -6.3m/s | -58.1°C | 13.6% | 0hPa | 2.5V | 08:06:12 | 02:37:18 | 00:00:00 | |
| HASLITAL | 2026-09-01 01:13:31 | 46.88685 | 7.99775 | 98° | 102km/h | 12680m | -6.1m/s | -58.2°C | 9.0% | 0hPa | 2.6V | 08:06:00 | 00:00:00 | 00:00:00 | |
| DB0UT-7 | 2026-09-01 01:13:29 | 46.88688 | 7.99670 | 88° | 108km/h | 12699m | -6.2m/s | -58.1°C | 13.3% | 0hPa | 2.6V | 00:00:00 | 02:37:12 | 00:00:00 | |
| IN3HCDX | 2026-09-01 01:13:28 | 46.88688 | 7.99670 | 88° | 91km/h | 12699m | -6.3m/s | 0°C | 0% | 0hPa | 2.6V | 00:00:00 | 00:00:00 | 00:00:00 | |
| IW2NTF | 2026-09-01 01:13:27 | 46.88678 | 7.99521 | 84° | 111km/h | 12723m | -6.1m/s | -58.2°C | 12.8% | 0hPa | 2.6V | 08:06:22 | 02:37:08 | 00:00:00 | |
| IW2NTF | 2026-09-01 01:13:17 | 46.88652 | 7.99120 | 87° | 126km/h | 12791m | -6.8m/s | -58.5°C | 12.2% | 0hPa | 2.5V | 08:06:32 | 02:36:58 | 00:00:00 | |
| HASLITAL | 2026-09-01 01:13:10 | 46.88658 | 7.98947 | 97° | 106km/h | 12819m | -6.6m/s | -58.6°C | 7.6% | 0hPa | 2.5V | 08:07:00 | 00:00:00 | 00:00:00 | |
| IW2NTF | 2026-09-01 01:13:07 | 46.88649 | 7.98739 | 77° | 106km/h | 12860m | -6.4m/s | -58.7°C | 11.4% | 0hPa | 2.5V | 08:06:42 | 02:36:48 | 00:00:00 | |
| DB0UT-7 | 2026-09-01 01:12:59 | 46.88636 | 7.98485 | 94° | 95km/h | 12898m | -6.3m/s | -58.5°C | 10.4% | 0hPa | 2.5V | 00:00:00 | 00:00:00 | 00:00:00 | |
| IW2NTF | 2026-09-01 01:12:57 | 46.88638 | 7.98343 | 84° | 93km/h | 12924m | -6.5m/s | -58.3°C | 10.1% | 0hPa | 2.5V | 08:06:52 | 02:36:38 | 00:00:00 | |
| HASLITAL | 2026-09-01 01:12:49 | 46.88629 | 7.98160 | 90° | 97km/h | 12959m | -7.1m/s | -58.3°C | 6.0% | 0hPa | 2.5V | 08:07:00 | 00:00:00 | 00:00:00 | |
| IW2NTF | 2026-09-01 01:12:47 | 46.88618 | 7.97980 | 85° | 100km/h | 12994m | -7.3m/s | -58.3°C | 10% | 0hPa | 2.5V | 08:07:02 | 02:36:28 | 00:00:00 | |
| IW2NTF | 2026-09-01 01:12:37 | 46.88597 | 7.97632 | 93° | 99km/h | 13067m | -7.9m/s | -58.6°C | 9.4% | 0hPa | 2.6V | 08:07:12 | 02:36:18 | 00:00:00 | |
| DB0UT-7 | 2026-09-01 01:12:29 | 46.88590 | 7.97450 | 75° | 97km/h | 13109m | -7.2m/s | -58.2°C | 8.7% | 0hPa | 2.6V | 00:00:00 | 02:36:12 | 00:00:00 | |
| HASLITAL | 2026-09-01 01:12:28 | 46.88590 | 7.97450 | 75° | 86km/h | 13109m | -7.3m/s | -58.2°C | 5.0% | 0hPa | 2.5V | 08:07:00 | 00:00:00 | 00:00:00 | |
| IW2NTF | 2026-09-01 01:12:27 | 46.88568 | 7.97314 | 81° | 99km/h | 13138m | -7m/s | -58°C | 8.5% | 0hPa | 2.5V | 08:07:22 | 02:36:08 | 00:00:00 | |
| IN3HCDX | 2026-09-01 01:12:22 | 46.88561 | 7.97244 | 82° | 93km/h | 13152m | -7.3m/s | 0°C | 0% | 0hPa | 2.5V | 00:00:00 | 00:00:00 | 00:00:00 | |
| IW2NTF | 2026-09-01 01:12:16 | 46.88531 | 7.96958 | 81° | 86km/h | 13214m | -7.3m/s | -57.6°C | 7.7% | 0hPa | 2.5V | 08:07:32 | 02:35:58 | 00:00:00 | |
| HASLITAL | 2026-09-01 01:12:08 | 46.88496 | 7.96751 | 82° | 106km/h | 13259m | -6.9m/s | -57.7°C | 4.3% | 0hPa | 2.5V | 08:07:00 | 00:00:00 | 00:00:00 | |
| IW2NTF | 2026-09-01 01:12:06 | 46.88484 | 7.96608 | 79° | 93km/h | 13290m | -7.2m/s | -57.8°C | 7.7% | 0hPa | 2.5V | 08:07:42 | 02:35:48 | 00:00:00 | |
| DF7PN | 2026-09-01 01:12:00 | 46.88423 | 7.95940 | 89° | 110km/h | 13431m | -6.8m/s | -57.7°C | 3.7% | -1.0hPa | 2.5V | 00:00:00 | 00:00:00 | 00:00:00 | |
| DB0UT-7 | 2026-09-01 01:11:59 | 46.88458 | 7.96389 | 83° | 102km/h | 13337m | -7.6m/s | -57.6°C | 7.5% | 0hPa | 2.5V | 00:00:00 | 00:00:00 | 00:00:00 | |
| IN3HCDX | 2026-09-01 01:11:58 | 46.88458 | 7.96389 | 84° | 100km/h | 13337m | -7.6m/s | 0°C | 0% | 0hPa | 2.5V | 00:00:00 | 00:00:00 | 00:00:00 | |
| IW2NTF | 2026-09-01 01:11:56 | 46.88449 | 7.96237 | 88° | 102km/h | 13369m | -8.1m/s | -57.6°C | 7.5% | 0hPa | 2.5V | 08:07:52 | 02:35:38 | 00:00:00 | |
| DK5PH-5 | 2026-09-01 01:11:53 | 46.88447 | 7.96166 | 85° | 93km/h | 13386m | -7.7m/s | -57.6°C | 7.5% | 0hPa | 2.6V | 00:00:00 | 02:35:36 | 00:00:00 | |
| HASLITAL | 2026-09-01 01:11:48 | 46.88428 | 7.96022 | 82° | 110km/h | 13415m | -7.6m/s | -57.6°C | 4.0% | 0hPa | 2.6V | 08:08:00 | 00:00:00 | 00:00:00 | |
| IW2NTF | 2026-09-01 01:11:46 | 46.88424 | 7.95865 | 92° | 91km/h | 13445m | -6.9m/s | -57.8°C | 7.3% | 0hPa | 2.6V | 08:08:02 | 02:35:28 | 00:00:00 | |
| IW2NTF | 2026-09-01 01:11:41 | 46.88382 | 7.95491 | 90° | 119km/h | 13522m | -7.3m/s | -57.8°C | 7% | 0hPa | 2.5V | 08:08:12 | 02:35:18 | 00:00:00 | |
| IW2NTF | 2026-09-01 01:11:30 | 46.88361 | 7.95127 | 81° | 124km/h | 13595m | -7.7m/s | -58.1°C | 7.2% | 0hPa | 2.5V | 08:08:22 | 02:35:08 | 00:00:00 | |
| DB0UT-7 | 2026-09-01 01:11:29 | 46.88385 | 7.95281 | 80° | 99km/h | 13565m | -7.4m/s | -57.9°C | 7.2% | 0hPa | 2.5V | 00:00:00 | 02:35:12 | 00:00:00 | |
| HASLITAL | 2026-09-01 01:11:27 | 46.88380 | 7.95247 | 77° | 95km/h | 13573m | -7.1m/s | -58.0°C | 3.7% | 0hPa | 2.5V | 08:08:00 | 00:00:00 | 00:00:00 | |
| IW2NTF | 2026-09-01 01:11:20 | 46.88358 | 7.94768 | 73° | 88km/h | 13669m | -7.2m/s | -57.3°C | 6.4% | 0hPa | 2.5V | 08:08:32 | 02:34:58 | 00:00:00 | |
| IN3HCDX | 2026-09-01 01:11:17 | 46.88366 | 7.94855 | 91° | 78km/h | 13647m | -7.4m/s | 0°C | 0% | 0hPa | 2.5V | 00:00:00 | 00:00:00 | 00:00:00 | |
| IW2NTF | 2026-09-01 01:11:10 | 46.88341 | 7.94399 | 91° | 78km/h | 13743m | -7m/s | -56.4°C | 5.9% | 0hPa | 2.5V | 08:08:42 | 02:34:48 | 00:00:00 | |
| HASLITAL | 2026-09-01 01:11:07 | 46.88334 | 7.94498 | 96° | 104km/h | 13721m | -7.3m/s | -56.4°C | 2.9% | 0hPa | 2.6V | 08:08:00 | 00:00:00 | 00:00:00 | |
| IW2NTF | 2026-09-01 01:11:00 | 46.88320 | 7.94070 | 87° | 82km/h | 13815m | -7.2m/s | -56.9°C | 5.9% | 0hPa | 2.6V | 08:08:52 | 02:34:38 | 00:00:00 | |
| DF7PN | 2026-09-01 01:10:58 | 46.88320 | 7.94136 | 90° | 95km/h | 13800m | -7.2m/s | -56.8°C | 2.6% | -1.0hPa | 2.5V | 00:00:00 | 00:00:00 | 00:00:00 | |
| IN3HCDX | 2026-09-01 01:10:52 | 46.88316 | 7.94009 | 83° | 86km/h | 13831m | -7.8m/s | 0°C | 0% | 0hPa | 2.5V | 00:00:00 | 00:00:00 | 00:00:00 | |
| IW2NTF | 2026-09-01 01:10:50 | 46.88293 | 7.93731 | 93° | 97km/h | 13897m | -7.4m/s | -57.3°C | 6.1% | 0hPa | 2.5V | 08:09:02 | 02:34:28 | 00:00:00 | |
| DK5PH-5 | 2026-09-01 01:10:50 | 46.88306 | 7.93912 | 82° | 91km/h | 13855m | -7.9m/s | -57.0°C | 6.0% | 0hPa | 2.6V | 08:08:00 | 02:34:33 | 00:00:00 | |
| HASLITAL | 2026-09-01 01:10:46 | 46.88295 | 7.93806 | 84° | 102km/h | 13880m | -8.3m/s | -57.2°C | 2.8% | 0hPa | 2.5V | 08:09:00 | 00:00:00 | 00:00:00 | |
| IW2NTF | 2026-09-01 01:10:40 | 46.88259 | 7.93420 | 81° | 113km/h | 13970m | -7.2m/s | -57.1°C | 6.2% | 0hPa | 2.5V | 08:09:12 | 02:34:18 | 00:00:00 | |
| IW2NTF | 2026-09-01 01:10:29 | 46.88254 | 7.93103 | 74° | 80km/h | 14047m | -7.8m/s | -56.6°C | 5.9% | 0hPa | 2.6V | 08:09:22 | 02:34:08 | 00:00:00 | |
| DB0UT-7 | 2026-09-01 01:10:29 | 46.88264 | 7.93208 | 93° | 93km/h | 14015m | -7.6m/s | -57.1°C | 6.2% | 0hPa | 2.5V | 00:00:00 | 02:34:12 | 00:00:00 | |
| HASLITAL | 2026-09-01 01:10:26 | 46.88263 | 7.93156 | 82° | 69km/h | 14031m | -8.2m/s | -56.9°C | 2.9% | 0hPa | 2.5V | 08:09:00 | 00:00:00 | 00:00:00 | |
| DK5PH-5 | 2026-09-01 01:10:20 | 46.88221 | 7.92925 | 83° | 93km/h | 14084m | -8.0m/s | -55.8°C | 5.6% | 0hPa | 2.5V | 00:00:00 | 02:34:03 | 00:00:00 | |
| IW2NTF | 2026-09-01 01:10:19 | 46.88216 | 7.92745 | 81° | 82km/h | 14121m | -7.2m/s | -56.1°C | 5.7% | 0hPa | 2.5V | 08:09:32 | 02:33:58 | 00:00:00 | |
| DB0ND-19 | 2026-09-01 01:10:15 | 46.88181 | 7.92490 | 90° | 102km/h | 14175m | -6.8m/s | 0°C | -1.0% | -1.0hPa | 2.5V | 00:00:00 | 00:00:00 | 00:00:00 | |
| IW2NTF | 2026-09-01 01:10:09 | 46.88182 | 7.92389 | 88° | 78km/h | 14197m | -7.5m/s | -56.1°C | 5.7% | 0hPa | 2.5V | 08:09:42 | 02:33:48 | 00:00:00 | |
| HASLITAL | 2026-09-01 01:10:05 | 46.88182 | 7.92419 | 94° | 86km/h | 14190m | -7.3m/s | -56.1°C | 2.6% | 0hPa | 2.5V | 08:10:00 | 00:00:00 | 00:00:00 | |
| DF3TZ-5 | 2026-09-01 01:10:04 | 46.88149 | 7.91955 | 70° | 86km/h | 14302m | -7.1m/s | -56.2°C | -1.0% | -1.0hPa | 2.5V | 00:00:00 | 00:00:00 | 00:00:00 | |
| IW2NTF | 2026-09-01 01:09:59 | 46.88162 | 7.92059 | 95° | 73km/h | 14273m | -7.9m/s | -56.1°C | 5.5% | 0hPa | 2.5V | 08:09:52 | 02:33:38 | 00:00:00 | |
| DF7PN | 2026-09-01 01:09:55 | 46.88131 | 7.91847 | 82° | 108km/h | 14324m | -7.8m/s | -56.4°C | 2.3% | -1.0hPa | 2.5V | 00:00:00 | 00:00:00 | 00:00:00 | |
| DK5PH-5 | 2026-09-01 01:09:50 | 46.88142 | 7.91922 | 74° | 104km/h | 14309m | -7.1m/s | -56.3°C | 5.5% | 0hPa | 2.5V | 00:00:00 | 02:33:33 | 00:00:00 | |
| IW2NTF | 2026-09-01 01:09:48 | 46.88132 | 7.91734 | 96° | 93km/h | 14347m | -7.3m/s | -56.3°C | 5.5% | 0hPa | 2.5V | 08:10:02 | 02:33:28 | 00:00:00 | |
| HASLITAL | 2026-09-01 01:09:44 | 46.88132 | 7.91734 | 97° | 93km/h | 14347m | -7.3m/s | -56.3°C | 2.5% | 0hPa | 2.6V | 08:10:00 | 00:00:00 | 00:00:00 | |
| IW2NTF | 2026-09-01 01:09:38 | 46.88098 | 7.91419 | 86° | 111km/h | 14423m | -7.8m/s | -56.7°C | 5.5% | 0hPa | 2.6V | 08:10:12 | 02:33:18 | 00:00:00 | |
| DB0UT-7 | 2026-09-01 01:09:29 | 46.88106 | 7.91212 | 84° | 89km/h | 14469m | -6.4m/s | -56.8°C | 5.6% | 0hPa | 2.6V | 08:10:00 | 02:33:12 | 00:00:00 | |
| IW2NTF | 2026-09-01 01:09:27 | 46.88086 | 7.91080 | 80° | 110km/h | 14500m | -7.1m/s | -56.7°C | 5.5% | 0hPa | 2.5V | 08:10:22 | 02:33:08 | 00:00:00 | |
| HASLITAL | 2026-09-01 01:09:24 | 46.88086 | 7.91080 | 81° | 110km/h | 14500m | -7.1m/s | -56.7°C | 2.4% | 0hPa | 2.5V | 08:10:00 | 00:00:00 | 00:00:00 | |
| DK5PH-5 | 2026-09-01 01:09:20 | 46.88095 | 7.90884 | 106° | 88km/h | 14537m | -7.8m/s | -56.3°C | 5.2% | 0hPa | 2.5V | 00:00:00 | 02:33:03 | 00:00:00 | |
| IW2NTF | 2026-09-01 01:09:17 | 46.88097 | 7.90747 | 77° | 88km/h | 14575m | -7.4m/s | -56.3°C | 5.2% | 0hPa | 2.5V | 08:10:32 | 02:32:58 | 00:00:00 | |
| IW2NTF | 2026-09-01 01:09:07 | 46.88112 | 7.90412 | 89° | 60km/h | 14651m | -8m/s | -56°C | 5% | 0hPa | 2.6V | 08:10:42 | 02:32:48 | 00:00:00 | |
| HASLITAL | 2026-09-01 01:09:03 | 46.88110 | 7.90388 | 82° | 68km/h | 14659m | -7.5m/s | -56.0°C | 2.1% | 0hPa | 2.5V | 08:11:00 | 00:00:00 | 00:00:00 | |
| DF3TZ-5 | 2026-09-01 01:09:02 | 46.88098 | 7.90299 | 80° | 97km/h | 14681m | -7.2m/s | 0°C | -1.0% | -1.0hPa | 2.5V | 00:00:00 | 00:00:00 | 00:00:00 | |
| DB0UT-7 | 2026-09-01 01:08:59 | 46.88095 | 7.90223 | 94° | 80km/h | 14697m | -7.7m/s | -56.2°C | 5.1% | 0hPa | 2.5V | 00:00:00 | 00:00:00 | 00:00:00 | |
| IW2NTF | 2026-09-01 01:08:57 | 46.88111 | 7.90095 | 101° | 71km/h | 14727m | -7.5m/s | -56.3°C | 5.1% | 0hPa | 2.5V | 08:10:52 | 02:32:38 | 00:00:00 | |
| DF7PN | 2026-09-01 01:08:53 | 46.88114 | 7.90046 | 84° | 66km/h | 14743m | -7.2m/s | -56.2°C | 1.9% | -1.0hPa | 2.5V | 00:00:00 | 00:00:00 | 00:00:00 | |
| DK5PH-5 | 2026-09-01 01:08:48 | 46.88106 | 7.89883 | 96° | 95km/h | 14778m | -7.4m/s | -56.2°C | 5.0% | 0hPa | 2.5V | 00:00:00 | 02:32:31 | 00:00:00 | |
| IW2NTF | 2026-09-01 01:08:47 | 46.88120 | 7.89786 | 104° | 75km/h | 14803m | -7.3m/s | -56.3°C | 5% | 0hPa | 2.5V | 08:11:02 | 02:32:28 | 00:00:00 | |
| HASLITAL | 2026-09-01 01:08:43 | 46.88123 | 7.89761 | 99° | 66km/h | 14810m | -7.0m/s | -56.3°C | 2.1% | 0hPa | 2.6V | 08:11:00 | 00:00:00 | 00:00:00 | |
| IW2NTF | 2026-09-01 01:08:37 | 46.88111 | 7.89489 | 105° | 89km/h | 14875m | -7.6m/s | -56.5°C | 5.1% | 0hPa | 2.6V | 08:11:12 | 02:32:18 | 00:00:00 | |
| DB0UT-7 | 2026-09-01 01:08:29 | 46.88125 | 7.89356 | 74° | 77km/h | 14921m | -7.7m/s | -56.8°C | 5.1% | 0hPa | 2.5V | 00:00:00 | 02:32:12 | 00:00:00 | |
| IW2NTF | 2026-09-01 01:08:27 | 46.88112 | 7.89228 | 93° | 100km/h | 14950m | -8.8m/s | -56.9°C | 5% | 0hPa | 2.5V | 08:11:22 | 02:32:08 | 00:00:00 | |
| DF7PN | 2026-09-01 01:08:22 | 46.88128 | 7.89128 | 109° | 80km/h | 14974m | -7.9m/s | -57.0°C | 1.8% | -1.0hPa | 2.5V | 00:00:00 | 00:00:00 | 00:00:00 | |
| IW2NTF | 2026-09-01 01:08:17 | 46.88123 | 7.88967 | 71° | 86km/h | 15030m | -8.6m/s | -57.1°C | 5.1% | 0hPa | 2.5V | 08:11:32 | 02:31:58 | 00:00:00 | |
| DH7VM-15 | 2026-09-01 01:08:08 | 46.88126 | 7.88766 | 112° | 78km/h | 15076m | -9.6m/s | -57.2°C | 1.9% | 0hPa | 2.6V | 00:00:00 | 00:00:00 | 00:00:00 | |
| IW2NTF | 2026-09-01 01:08:07 | 46.88144 | 7.88682 | 89° | 46km/h | 15110m | -8.7m/s | -57.3°C | 5.1% | 0hPa | 2.6V | 08:11:42 | 02:31:48 | 00:00:00 | |
| HASLITAL | 2026-09-01 01:08:01 | 46.88132 | 7.88620 | 70° | 77km/h | 15133m | -8.5m/s | -57.4°C | 2.0% | 0hPa | 2.6V | 08:12:00 | 00:00:00 | 00:00:00 | |
| DB0UT-7 | 2026-09-01 01:07:59 | 46.88118 | 7.88523 | 86° | 77km/h | 15158m | -9.0m/s | -57.5°C | 5.1% | 0hPa | 2.6V | 00:00:00 | 00:00:00 | 00:00:00 | |
| IW2NTF | 2026-09-01 01:07:57 | 46.88130 | 7.88386 | 107° | 80km/h | 15188m | -8.3m/s | -57.6°C | 5.1% | 0hPa | 2.5V | 08:11:52 | 02:31:38 | 00:00:00 | |
| DF7PN | 2026-09-01 01:07:51 | 46.88146 | 7.88301 | 88° | 47km/h | 15223m | -9.3m/s | -57.6°C | 1.7% | -1.0hPa | 2.5V | 00:00:00 | 00:00:00 | 00:00:00 | |
| IW2NTF | 2026-09-01 01:07:46 | 46.88114 | 7.88152 | 82° | 97km/h | 15270m | -9.8m/s | -57.5°C | 5.1% | 0hPa | 2.5V | 08:12:02 | 02:31:28 | 00:00:00 | |
| HASLITAL | 2026-09-01 01:07:41 | 46.88117 | 7.88048 | 103° | 89km/h | 15298m | -9.1m/s | -57.3°C | 1.9% | 0hPa | 2.6V | 08:12:00 | 00:00:00 | 00:00:00 | |
| IW2NTF | 2026-09-01 01:07:36 | 46.88125 | 7.87897 | 62° | 68km/h | 15358m | -7.8m/s | -57.2°C | 4.9% | 0hPa | 2.6V | 08:12:12 | 02:31:18 | 00:00:00 | |
| DB0UT-7 | 2026-09-01 01:07:29 | 46.88093 | 7.87704 | 93° | 82km/h | 15408m | -8.0m/s | -57.2°C | 4.9% | 0hPa | 2.5V | 00:00:00 | 02:31:12 | 00:00:00 | |
| IW2NTF | 2026-09-01 01:07:25 | 46.88103 | 7.87600 | 88° | 49km/h | 15441m | -9m/s | -57.2°C | 5% | 0hPa | 2.5V | 08:12:22 | 02:31:08 | 00:00:00 | |
| HASLITAL | 2026-09-01 01:07:21 | 46.88089 | 7.87543 | 59° | 69km/h | 15466m | -8.1m/s | -57.3°C | 1.9% | 0hPa | 2.5V | 08:13:00 | 00:00:00 | 00:00:00 | |
| IW2NTF | 2026-09-01 01:07:20 | 46.88037 | 7.87313 | 92° | 100km/h | 15524m | -9.1m/s | -57.5°C | 5% | 0hPa | 2.5V | 08:12:32 | 02:30:58 | 00:00:00 | |
| DF7PN | 2026-09-01 01:07:20 | 46.88068 | 7.87491 | 60° | 91km/h | 15483m | -9.4m/s | -57.4°C | 1.6% | -1.0hPa | 2.6V | 00:00:00 | 00:00:00 | 00:00:00 | |
| IW2NTF | 2026-09-01 01:07:09 | 46.88014 | 7.87044 | 75° | 100km/h | 15609m | -9.7m/s | -57.5°C | 5% | 0hPa | 2.6V | 08:12:42 | 02:30:48 | 00:00:00 | |
| DF1GD-15 | 2026-09-01 01:07:06 | 46.88030 | 7.87110 | 66° | 84km/h | 15591m | -9.0m/s | -57.6°C | 1.8% | 0hPa | 2.5V | 08:13:00 | 00:00:00 | 00:00:00 | |
| IW2NTF | 2026-09-01 01:07:00 | 46.88021 | 7.86744 | 69° | 62km/h | 15694m | -9.1m/s | -57.3°C | 5% | 0hPa | 2.5V | 08:12:52 | 02:30:38 | 00:00:00 | |
| DL1ZP-14 | 2026-09-01 01:06:51 | 46.87991 | 7.86589 | 86° | 104km/h | 15738m | -8.8m/s | -57.1°C | 1.5% | -1.0hPa | 2.5V | 00:00:00 | 00:00:00 | 00:00:00 | |
| DF7PN | 2026-09-01 01:06:49 | 46.87991 | 7.86551 | 94° | 100km/h | 15747m | -9.6m/s | -57.1°C | 1.5% | -1.0hPa | 2.5V | 00:00:00 | 00:00:00 | 00:00:00 | |
| IW2NTF | 2026-09-01 01:06:48 | 46.88012 | 7.86428 | 110° | 69km/h | 15783m | -9.3m/s | -57°C | 4.9% | 0hPa | 2.5V | 08:13:02 | 02:30:28 | 00:00:00 | |
| DH7VM-15 | 2026-09-01 01:06:48 | 46.87990 | 7.86551 | 95° | 102km/h | 15747m | -9.6m/s | -57.1°C | 1.5% | 0hPa | 2.6V | 00:00:00 | 00:00:00 | 00:00:00 | |
| DF1GD-15 | 2026-09-01 01:06:45 | 46.88006 | 7.86453 | 112° | 78km/h | 15774m | -9.9m/s | -57.1°C | 1.7% | 0hPa | 2.6V | 08:13:00 | 00:00:00 | 00:00:00 | |
| HASLITAL | 2026-09-01 01:06:40 | 46.88019 | 7.86350 | 80° | 53km/h | 15819m | -9.1m/s | -56.9°C | 1.7% | 0hPa | 2.6V | 08:13:00 | 00:00:00 | 00:00:00 | |
| IW2NTF | 2026-09-01 01:06:38 | 46.87996 | 7.86167 | 91° | 104km/h | 15870m | -10.8m/s | -56.6°C | 4.6% | 0hPa | 2.6V | 08:13:12 | 02:30:18 | 00:00:00 | |
| DB0ND-19 | 2026-09-01 01:06:38 | 46.87998 | 7.86130 | 97° | 100km/h | 15880m | -9.7m/s | 0°C | -1.0% | -1.0hPa | 2.6V | 00:00:00 | 00:00:00 | 00:00:00 | |
| DB0UT-7 | 2026-09-01 01:06:29 | 46.88031 | 7.85986 | 113° | 78km/h | 15924m | -9.7m/s | -56.2°C | 4.4% | 0hPa | 2.6V | 00:00:00 | 02:30:12 | 00:00:00 | |
| IW2NTF | 2026-09-01 01:06:28 | 46.88029 | 7.85909 | 70° | 66km/h | 15960m | -8.9m/s | -56.2°C | 4.3% | 0hPa | 2.5V | 08:13:22 | 02:30:08 | 00:00:00 | |
| DF1GD-15 | 2026-09-01 01:06:25 | 46.88034 | 7.85930 | 75° | 53km/h | 15951m | -9.3m/s | -56.1°C | 1.5% | 0hPa | 2.6V | 00:00:00 | 00:00:00 | 00:00:00 | |
| HASLITAL | 2026-09-01 01:06:20 | 46.88009 | 7.85782 | 89° | 102km/h | 15995m | -9.0m/s | -56.2°C | 1.5% | 0hPa | 2.6V | 08:13:00 | 00:00:00 | 00:00:00 | |
| DL1ZP-14 | 2026-09-01 01:06:19 | 46.88014 | 7.85708 | 101° | 97km/h | 16011m | -8.4m/s | -56.2°C | 1.3% | -1.0hPa | 2.6V | 00:00:00 | 00:00:00 | 00:00:00 | |
| IW2NTF | 2026-09-01 01:06:18 | 46.88036 | 7.85599 | 102° | 55km/h | 16046m | -9.9m/s | -56.3°C | 4.4% | 0hPa | 2.5V | 08:13:32 | 02:29:58 | 00:00:00 | |
| DK5PH-5 | 2026-09-01 01:06:18 | 46.88019 | 7.85674 | 108° | 62km/h | 16020m | -8.9m/s | -56.1°C | 4.4% | 0hPa | 2.5V | 00:00:00 | 02:30:01 | 00:00:00 | |
| IW2NTF | 2026-09-01 01:06:08 | 46.87997 | 7.85302 | 96° | 99km/h | 16132m | -8.3m/s | -57°C | 4.7% | 0hPa | 2.5V | 08:13:42 | 02:29:48 | 00:00:00 | |
| DF1GD-15 | 2026-09-01 01:06:04 | 46.87997 | 7.85302 | 97° | 99km/h | 16132m | -8.3m/s | -57.0°C | 1.6% | 0hPa | 2.6V | 00:00:00 | 00:00:00 | 00:00:00 | |
| HASLITAL | 2026-09-01 01:06:00 | 46.88012 | 7.85192 | 95° | 57km/h | 16164m | -9.8m/s | -56.9°C | 1.5% | 0hPa | 2.6V | 08:13:00 | 00:00:00 | 00:00:00 | |
| DB0UT-7 | 2026-09-01 01:05:59 | 46.88008 | 7.85148 | 72° | 78km/h | 16183m | -9.8m/s | -56.8°C | 4.6% | 0hPa | 2.6V | 00:00:00 | 00:00:00 | 00:00:00 | |
| IW2NTF | 2026-09-01 01:05:58 | 46.87992 | 7.85018 | 91° | 100km/h | 16220m | -9.1m/s | -56.9°C | 4.6% | 0hPa | 2.6V | 08:13:52 | 02:29:38 | 00:00:00 | |
| DL1ZP-14 | 2026-09-01 01:05:49 | 46.88012 | 7.84832 | 73° | 60km/h | 16283m | -9.6m/s | -57.1°C | 1.3% | -1.0hPa | 2.6V | 00:00:00 | 00:00:00 | 00:00:00 | |
| IW2NTF | 2026-09-01 01:05:48 | 46.87994 | 7.84747 | 76° | 97km/h | 16309m | -9.4m/s | -57°C | 4.9% | 0hPa | 2.5V | 08:14:02 | 02:29:28 | 00:00:00 | |
| DF7PN | 2026-09-01 01:05:47 | 46.88000 | 7.84780 | 71° | 89km/h | 16299m | -9.7m/s | -57.2°C | 1.3% | -1.0hPa | 2.5V | 00:00:00 | 00:00:00 | 00:00:00 | |
| DF1GD-15 | 2026-09-01 01:05:44 | 46.87994 | 7.84747 | 77° | 97km/h | 16309m | -9.4m/s | -57.1°C | 1.6% | 0hPa | 2.5V | 08:14:00 | 00:00:00 | 00:00:00 | |
| HASLITAL | 2026-09-01 01:05:40 | 46.87996 | 7.84593 | 107° | 106km/h | 16345m | -9.2m/s | -56.4°C | 1.4% | 0hPa | 2.5V | 08:14:00 | 00:00:00 | 00:00:00 | |
| IW2NTF | 2026-09-01 01:05:38 | 46.88036 | 7.84455 | 91° | 44km/h | 16397m | -9.5m/s | -56.2°C | 4.5% | 0hPa | 2.5V | 08:14:12 | 02:29:18 | 00:00:00 | |
| DB0UT-7 | 2026-09-01 01:05:29 | 46.88017 | 7.84301 | 93° | 68km/h | 16451m | -9.9m/s | -55.6°C | 4.4% | 0hPa | 2.6V | 00:00:00 | 02:29:12 | 00:00:00 | |
| IW2NTF | 2026-09-01 01:05:28 | 46.88045 | 7.84175 | 123° | 71km/h | 16487m | -9.2m/s | -55.1°C | 4.2% | 0hPa | 2.6V | 08:14:22 | 02:29:08 | 00:00:00 | |
| DF1GD-15 | 2026-09-01 01:05:23 | 46.88055 | 7.84155 | 124° | 60km/h | 16496m | -10.0m/s | -55.1°C | 1.3% | 0hPa | 2.5V | 08:14:00 | 00:00:00 | 00:00:00 | |
| HASLITAL | 2026-09-01 01:05:19 | 46.88066 | 7.84090 | 82° | 47km/h | 16531m | -8.9m/s | -54.7°C | 1.3% | 0hPa | 2.5V | 08:14:00 | 00:00:00 | 00:00:00 | |
| IW2NTF | 2026-09-01 01:05:18 | 46.88047 | 7.83959 | 85° | 91km/h | 16576m | -10.2m/s | -54.2°C | 4.1% | 0hPa | 2.5V | 08:14:32 | 02:28:58 | 00:00:00 | |
| DL1ZP-14 | 2026-09-01 01:05:17 | 46.88053 | 7.84023 | 77° | 78km/h | 16557m | -9.7m/s | -54.3°C | 1.0% | -1.0hPa | 2.5V | 00:00:00 | 00:00:00 | 00:00:00 | |
| DF7PN | 2026-09-01 01:05:16 | 46.88047 | 7.83959 | 85° | 89km/h | 16576m | -10.2m/s | -54.2°C | 1.0% | -1.0hPa | 2.5V | 00:00:00 | 00:00:00 | 00:00:00 | |
| IW2NTF | 2026-09-01 01:05:08 | 46.88115 | 7.83705 | 115° | 31km/h | 16670m | -9.5m/s | -53.6°C | 3.8% | 0hPa | 2.5V | 08:14:42 | 02:28:48 | 00:00:00 | |
| DF1GD-15 | 2026-09-01 01:05:02 | 46.88117 | 7.83684 | 79° | 35km/h | 16688m | -9.3m/s | -53.3°C | 1.1% | 0hPa | 2.5V | 08:14:00 | 00:00:00 | 00:00:00 | |
| IW2NTF | 2026-09-01 01:05:00 | 46.88122 | 7.83497 | 118° | 75km/h | 16764m | -9.8m/s | -52.7°C | 3.7% | 0hPa | 2.5V | 08:14:52 | 02:28:38 | 00:00:00 | |
| DB0UT-7 | 2026-09-01 01:04:59 | 46.88106 | 7.83605 | 89° | 51km/h | 16724m | -10.5m/s | -52.8°C | 3.7% | 0hPa | 2.5V | 08:14:00 | 00:00:00 | 00:00:00 | |
| IW2NTF | 2026-09-01 01:04:47 | 46.88152 | 7.83395 | 52° | 49km/h | 16862m | -9.3m/s | -52.5°C | 3.6% | 0hPa | 2.6V | 08:15:02 | 02:28:28 | 00:00:00 | |
| DL1ZP-14 | 2026-09-01 01:04:46 | 46.88159 | 7.83406 | 40° | 37km/h | 16852m | -10.3m/s | -52.5°C | 0.9% | -1.0hPa | 2.5V | 00:00:00 | 00:00:00 | 00:00:00 | |
| DF7PN | 2026-09-01 01:04:45 | 46.88143 | 7.83378 | 59° | 60km/h | 16870m | -9.8m/s | -52.4°C | 0.9% | -1.0hPa | 2.5V | 00:00:00 | 00:00:00 | 00:00:00 | |
| DF1GD-15 | 2026-09-01 01:04:41 | 46.88134 | 7.83332 | 86° | 71km/h | 16889m | -11.1m/s | -52.3°C | 1.0% | 0hPa | 2.5V | 08:15:00 | 00:00:00 | 00:00:00 | |
| IW2NTF | 2026-09-01 01:04:40 | 46.88164 | 7.83208 | 99° | 16km/h | 16956m | -9m/s | -52.2°C | 3.5% | 0hPa | 2.5V | 08:15:12 | 02:28:18 | 00:00:00 | |
| HASLITAL | 2026-09-01 01:04:38 | 46.88141 | 7.83258 | 116° | 62km/h | 16920m | -10.2m/s | -52.1°C | 1.0% | 0hPa | 2.5V | 08:15:00 | 00:00:00 | 00:00:00 | |
| IW2NTF | 2026-09-01 01:04:30 | 46.88142 | 7.83011 | 118° | 60km/h | 17054m | -10.8m/s | -51.8°C | 3.4% | 0hPa | 2.5V | 08:15:22 | 02:28:08 | 00:00:00 | |
| DB0UT-7 | 2026-09-01 01:04:29 | 46.88132 | 7.83115 | 79° | 46km/h | 17016m | -10.6m/s | -52.4°C | 3.6% | 0hPa | 2.6V | 00:00:00 | 02:28:12 | 00:00:00 | |
| IW2NTF | 2026-09-01 01:04:20 | 46.88129 | 7.82915 | 73° | 68km/h | 17153m | -10.6m/s | -51.9°C | 3.4% | 0hPa | 2.6V | 08:15:32 | 02:27:58 | 00:00:00 | |
| HASLITAL | 2026-09-01 01:04:17 | 46.88153 | 7.82964 | 37° | 38km/h | 17124m | -9.7m/s | -51.7°C | 1.0% | 0hPa | 2.6V | 08:15:00 | 00:00:00 | 00:00:00 | |
| DL1ZP-14 | 2026-09-01 01:04:15 | 46.88129 | 7.82915 | 73° | 66km/h | 17153m | -10.6m/s | -51.9°C | 0.9% | -1.0hPa | 2.6V | 00:00:00 | 00:00:00 | 00:00:00 | |
| DF7PN | 2026-09-01 01:04:14 | 46.88126 | 7.82868 | 98° | 60km/h | 17172m | -10.8m/s | -52.0°C | 0.9% | -1.0hPa | 2.6V | 00:00:00 | 00:00:00 | 00:00:00 | |
| IW2NTF | 2026-09-01 01:04:06 | 46.88137 | 7.82812 | 12° | 37km/h | 17250m | -9.9m/s | -52.3°C | 3.4% | 0hPa | 2.6V | 08:15:42 | 02:27:48 | 00:00:00 | |
| DB0UT-7 | 2026-09-01 01:03:59 | 46.88078 | 7.82728 | 71° | 46km/h | 17307m | -9.2m/s | -52.5°C | 3.5% | 0hPa | 2.5V | 00:00:00 | 00:00:00 | 00:00:00 | |
| HASLITAL | 2026-09-01 01:03:56 | 46.88074 | 7.82690 | 94° | 46km/h | 17324m | -9.2m/s | -52.5°C | 1.1% | 0hPa | 2.5V | 08:16:00 | 00:00:00 | 00:00:00 | |
| IW2NTF | 2026-09-01 01:03:56 | 46.88078 | 7.82661 | 355° | 7km/h | 17362m | -10.3m/s | -52.5°C | 3.4% | 0hPa | 2.6V | 08:15:54 | 02:27:36 | 00:00:00 | |
| DF1GD-15 | 2026-09-01 01:03:53 | 46.88078 | 7.82662 | 113° | 9km/h | 17353m | -10.4m/s | -52.6°C | 1.0% | 0hPa | 2.5V | 00:00:00 | 00:00:00 | 00:00:00 | |
| IW2NTF | 2026-09-01 01:03:45 | 46.87960 | 7.82585 | 64° | 64km/h | 17460m | -10.7m/s | -53.1°C | 3.5% | 0hPa | 2.5V | 08:16:04 | 02:27:26 | 00:00:00 | |
| DL1ZP-14 | 2026-09-01 01:03:44 | 46.87968 | 7.82607 | 57° | 71km/h | 17451m | -10.5m/s | -53.0°C | 0.9% | -1.0hPa | 2.5V | 00:00:00 | 00:00:00 | 00:00:00 | |
| DF7PN | 2026-09-01 01:03:43 | 46.87954 | 7.82565 | 77° | 53km/h | 17471m | -10.2m/s | -53.2°C | 0.9% | -1.0hPa | 2.5V | 00:00:00 | 00:00:00 | 00:00:00 | |
| HASLITAL | 2026-09-01 01:03:36 | 46.87947 | 7.82529 | 334° | 22km/h | 17522m | -10.6m/s | -53.6°C | 1.1% | 0hPa | 2.5V | 08:16:00 | 00:00:00 | 00:00:00 | |
| IW2NTF | 2026-09-01 01:03:35 | 46.87903 | 7.82533 | 12° | 66km/h | 17560m | -10.6m/s | -53.9°C | 3.7% | 0hPa | 2.5V | 08:16:14 | 02:27:16 | 00:00:00 | |
| DF1GD-15 | 2026-09-01 01:03:33 | 46.87918 | 7.82536 | 4° | 55km/h | 17550m | -9.6m/s | -53.9°C | 1.1% | 0hPa | 2.6V | 00:00:00 | 00:00:00 | 00:00:00 | |
| DB0UT-7 | 2026-09-01 01:03:29 | 46.87849 | 7.82472 | 61° | 44km/h | 17600m | -11.7m/s | -54.1°C | 3.8% | 0hPa | 2.6V | 00:00:00 | 02:27:12 | 00:00:00 | |
| IW2NTF | 2026-09-01 01:03:24 | 46.87846 | 7.82386 | 133° | 11km/h | 17664m | -11.3m/s | -54.7°C | 3.9% | 0hPa | 2.6V | 08:16:24 | 02:27:06 | 00:00:00 | |
| HASLITAL | 2026-09-01 01:03:16 | 46.87797 | 7.82379 | 28° | 68km/h | 17723m | -11.2m/s | -55.1°C | 1.2% | 0hPa | 2.6V | 08:17:00 | 00:00:00 | 00:00:00 | |
| IW2NTF | 2026-09-01 01:03:15 | 46.87755 | 7.82307 | 71° | 60km/h | 17764m | -10.3m/s | -55.3°C | 4% | 0hPa | 2.6V | 08:16:34 | 02:26:56 | 00:00:00 | |
| DL1ZP-14 | 2026-09-01 01:03:13 | 46.87755 | 7.82307 | 71° | 58km/h | 17764m | -10.3m/s | -55.3°C | 1.0% | -1.0hPa | 2.6V | 00:00:00 | 00:00:00 | 00:00:00 | |
| DF1GD-15 | 2026-09-01 01:03:12 | 46.87755 | 7.82307 | 73° | 60km/h | 17765m | -10.3m/s | -55.3°C | 1.2% | 0hPa | 2.5V | 00:00:00 | 00:00:00 | 00:00:00 | |
| DF7PN | 2026-09-01 01:03:11 | 46.87752 | 7.82270 | 98° | 40km/h | 17784m | -9.4m/s | -55.5°C | 1.1% | -1.0hPa | 2.5V | 00:00:00 | 00:00:00 | 00:00:00 | |
| IW2NTF | 2026-09-01 01:03:04 | 46.87724 | 7.82242 | 20° | 55km/h | 17864m | -10.7m/s | -55.9°C | 4.3% | 0hPa | 2.5V | 08:16:44 | 02:26:46 | 00:00:00 | |
| DB0UT-7 | 2026-09-01 01:02:59 | 46.87678 | 7.82173 | 72° | 44km/h | 17907m | -11.1m/s | -55.8°C | 4.2% | 0hPa | 2.5V | 00:00:00 | 00:00:00 | 00:00:00 | |
| HASLITAL | 2026-09-01 01:02:56 | 46.87676 | 7.82107 | 113° | 51km/h | 17938m | -11.0m/s | -55.8°C | 1.2% | 0hPa | 2.5V | 08:17:00 | 00:00:00 | 00:00:00 | |
| IW2NTF | 2026-09-01 01:02:54 | 46.87691 | 7.82082 | 171° | 13km/h | 17968m | -10.3m/s | -55.7°C | 4.2% | 0hPa | 2.5V | 08:16:54 | 02:26:36 | 00:00:00 | |
| DF1GD-15 | 2026-09-01 01:02:51 | 46.87691 | 7.82082 | 324° | 9km/h | 17978m | -10.0m/s | -55.5°C | 1.2% | 0hPa | 2.6V | 00:00:00 | 00:00:00 | 00:00:00 | |
| IW2NTF | 2026-09-01 01:02:43 | 46.87635 | 7.81964 | 100° | 60km/h | 18071m | -10.7m/s | -55.5°C | 4.1% | 0hPa | 2.6V | 08:17:04 | 02:26:26 | 00:00:00 | |
| DL1ZP-14 | 2026-09-01 01:02:42 | 46.87638 | 7.81943 | 110° | 57km/h | 18081m | -11.1m/s | -55.6°C | 1.0% | -1.0hPa | 2.5V | 00:00:00 | 00:00:00 | 00:00:00 | |
| DF7PN | 2026-09-01 01:02:40 | 46.87650 | 7.81913 | 128° | 37km/h | 18102m | -11.1m/s | -55.7°C | 1.0% | -1.0hPa | 2.6V | 00:00:00 | 00:00:00 | 00:00:00 | |
| IW2NTF | 2026-09-01 01:02:34 | 46.87638 | 7.81895 | 25° | 47km/h | 18173m | -11.3m/s | -55.8°C | 4.3% | 0hPa | 2.6V | 08:17:14 | 02:26:16 | 00:00:00 | |
| DF1GD-15 | 2026-09-01 01:02:30 | 46.87618 | 7.81869 | 57° | 58km/h | 18194m | -11.5m/s | -56.0°C | 1.2% | 0hPa | 2.6V | 00:00:00 | 00:00:00 | 00:00:00 | |
| DB0UT-7 | 2026-09-01 01:02:29 | 46.87608 | 7.81826 | 84° | 44km/h | 18214m | -11.2m/s | -55.9°C | 4.4% | 0hPa | 2.6V | 00:00:00 | 02:26:12 | 00:00:00 | |
| IW2NTF | 2026-09-01 01:02:24 | 46.87643 | 7.81732 | 325° | 2km/h | 18299m | -10.4m/s | -55.4°C | 4.5% | 0hPa | 2.6V | 08:17:26 | 02:26:04 | 00:00:00 | |
| HASLITAL | 2026-09-01 01:02:14 | 46.87597 | 7.81677 | 66° | 69km/h | 18361m | -11.0m/s | -55.2°C | 1.3% | 0hPa | 2.5V | 08:18:00 | 00:00:00 | 00:00:00 | |
| IW2NTF | 2026-09-01 01:02:12 | 46.87616 | 7.81514 | 154° | 20km/h | 18449m | -10m/s | -52.9°C | 3.5% | 0hPa | 2.5V | 08:17:40 | 02:25:50 | 00:00:00 | |
| DL1ZP-14 | 2026-09-01 01:02:11 | 46.87590 | 7.81572 | 103° | 68km/h | 18407m | -12.9m/s | -53.1°C | 0.9% | -1.0hPa | 2.5V | 00:00:00 | 00:00:00 | 00:00:00 | |
| DF1GD-15 | 2026-09-01 01:02:09 | 46.87595 | 7.81549 | 116° | 58km/h | 18418m | -10.9m/s | -53.1°C | 0% | 0hPa | 2.6V | 08:18:00 | 00:00:00 | 00:00:00 | |
| DB0UT-7 | 2026-09-01 01:01:59 | 46.87577 | 7.81448 | 80° | 44km/h | 18543m | -11.6m/s | -52.8°C | 3.5% | 0hPa | 2.6V | 00:00:00 | 00:00:00 | 00:00:00 | |
| HASLITAL | 2026-09-01 01:01:53 | 46.87596 | 7.81341 | 137° | 55km/h | 18603m | -11.8m/s | -53.1°C | 1.0% | 0hPa | 2.5V | 08:18:00 | 00:00:00 | 00:00:00 | |
| DF1GD-15 | 2026-09-01 01:01:49 | 46.87626 | 7.81320 | 212° | 11km/h | 18652m | -10.7m/s | -53.4°C | 0% | 0hPa | 2.5V | 08:18:00 | 00:00:00 | 00:00:00 | |
| DL1ZP-14 | 2026-09-01 01:01:40 | 46.87607 | 7.81175 | 123° | 58km/h | 18767m | -11.2m/s | -54.1°C | 0.9% | -1.0hPa | 2.5V | 00:00:00 | 00:00:00 | 00:00:00 | |
| DK5PH-5 | 2026-09-01 01:01:39 | 46.87616 | 7.81159 | 138° | 33km/h | 18779m | -11.5m/s | -54.1°C | 3.8% | 0hPa | 2.5V | 00:00:00 | 02:25:22 | 00:00:00 | |
| DF7PN | 2026-09-01 01:01:38 | 46.87625 | 7.81150 | 154° | 40km/h | 18791m | -11.4m/s | -54.2°C | 0.9% | -1.0hPa | 2.5V | 00:00:00 | 00:00:00 | 00:00:00 | |
| HASLITAL | 2026-09-01 01:01:33 | 46.87640 | 7.81153 | 332° | 15km/h | 18836m | -11.6m/s | -54.5°C | 1.1% | 0hPa | 2.5V | 08:19:00 | 00:00:00 | 00:00:00 | |
| DB0UT-7 | 2026-09-01 01:01:29 | 46.87608 | 7.81111 | 80° | 40km/h | 18896m | -11.5m/s | -54.7°C | 4.1% | 0hPa | 2.5V | 00:00:00 | 02:25:12 | 00:00:00 | |
| DF1GD-15 | 2026-09-01 01:01:24 | 46.87630 | 7.81047 | 156° | 46km/h | 18941m | -11.5m/s | -54.7°C | 0% | 0hPa | 2.5V | 08:19:00 | 00:00:00 | 00:00:00 | |
| DH7VM-15 | 2026-09-01 01:01:18 | 46.87645 | 7.81064 | 355° | 29km/h | 19015m | -12.3m/s | -53.9°C | 1.0% | 0hPa | 2.5V | 00:00:00 | 00:00:00 | 00:00:00 | |
| HASLITAL | 2026-09-01 01:01:13 | 46.87612 | 7.80986 | 107° | 49km/h | 19083m | -11.4m/s | -54.1°C | 1.1% | 0hPa | 2.5V | 08:19:00 | 00:00:00 | 00:00:00 | |
| DK5PH-5 | 2026-09-01 01:01:09 | 46.87636 | 7.80958 | 212° | 31km/h | 19131m | -12.0m/s | -54.4°C | 3.9% | 0hPa | 2.5V | 00:00:00 | 02:24:52 | 00:00:00 | |
| DF7PN | 2026-09-01 01:01:07 | 46.87637 | 7.80970 | 316° | 20km/h | 19155m | -11.1m/s | -54.5°C | 0.9% | -1.0hPa | 2.5V | 00:00:00 | 00:00:00 | 00:00:00 | |
| DF1GD-15 | 2026-09-01 01:01:04 | 46.87622 | 7.80975 | 10° | 42km/h | 19179m | -10.9m/s | -54.4°C | 0% | 0hPa | 2.5V | 08:19:00 | 00:00:00 | 00:00:00 | |
| DB0UT-7 | 2026-09-01 01:00:59 | 46.87598 | 7.80885 | 123° | 37km/h | 19250m | -11.1m/s | -54.7°C | 3.9% | 0hPa | 2.5V | 00:00:00 | 00:00:00 | 00:00:00 | |
| HASLITAL | 2026-09-01 01:00:52 | 46.87628 | 7.80885 | 295° | 26km/h | 19323m | -12.4m/s | -54.9°C | 1.1% | 0hPa | 2.5V | 08:19:00 | 00:00:00 | 00:00:00 | |
| DF1GD-15 | 2026-09-01 01:00:43 | 46.87603 | 7.80823 | 150° | 38km/h | 19431m | -12.5m/s | 0°C | 0% | 0hPa | 2.5V | 00:00:00 | 00:00:00 | 00:00:00 | |
| DL1ZP-14 | 2026-09-01 01:00:38 | 46.87611 | 7.80866 | 343° | 38km/h | 19518m | -10.6m/s | -54.6°C | 0.9% | -1.0hPa | 2.5V | 00:00:00 | 00:00:00 | 00:00:00 | |
| DF7PN | 2026-09-01 01:00:36 | 46.87600 | 7.80868 | 4° | 44km/h | 19529m | -10.7m/s | -54.7°C | 0.9% | -1.0hPa | 2.6V | 00:00:00 | 00:00:00 | 00:00:00 | |
| HASLITAL | 2026-09-01 01:00:31 | 46.87568 | 7.80829 | 83° | 37km/h | 19575m | -11.5m/s | -54.9°C | 1.1% | 0hPa | 2.6V | 08:19:00 | 00:00:00 | 00:00:00 | |
| DB0UT-7 | 2026-09-01 01:00:29 | 46.87577 | 7.80804 | 169° | 40km/h | 19611m | -12.6m/s | -55.0°C | 4.1% | 0hPa | 2.6V | 08:19:00 | 02:24:12 | 00:00:00 | |
| IW2NTF | 2026-09-01 01:00:19 | 46.87534 | 7.80815 | 213° | 35km/h | 19817m | -13.7m/s | -54.4°C | 3.8% | 0hPa | 2.6V | 08:19:34 | 02:23:56 | 00:00:00 | |
| HASLITAL | 2026-09-01 01:00:10 | 46.87543 | 7.80837 | 260° | 38km/h | 19847m | -13.8m/s | -54.2°C | 1.0% | 0hPa | 2.5V | 08:19:00 | 00:00:00 | 00:00:00 | |
| DL1ZP-14 | 2026-09-01 01:00:07 | 46.87507 | 7.80877 | 16° | 53km/h | 19914m | -11.9m/s | -54.0°C | 0.9% | -1.0hPa | 2.5V | 00:00:00 | 00:00:00 | 00:00:00 | |
| DF7PN | 2026-09-01 01:00:05 | 46.87496 | 7.80868 | 38° | 53km/h | 19927m | -11.6m/s | -54.1°C | 0.8% | -1.0hPa | 2.6V | 00:00:00 | 00:00:00 | 00:00:00 | |
| IW2NTF | 2026-09-01 01:00:00 | 46.87507 | 7.80836 | 299° | 42km/h | 20042m | -13.2m/s | -55.1°C | 3.9% | 0hPa | 2.6V | 08:19:51 | 02:23:39 | 00:00:00 | |
| DB0UT-7 | 2026-09-01 00:59:59 | 46.87502 | 7.80804 | 207° | 42km/h | 20002m | -12.4m/s | -54.7°C | 3.8% | 0hPa | 2.5V | 00:00:00 | 00:00:00 | 00:00:00 | |
| DH7VM-15 | 2026-09-01 00:59:54 | 46.87499 | 7.80849 | 323° | 47km/h | 20056m | -11.8m/s | -55.2°C | 1.0% | 0hPa | 2.5V | 00:00:00 | 00:00:00 | 00:00:00 | |
| HASLITAL | 2026-09-01 00:59:50 | 46.87450 | 7.80839 | 48° | 57km/h | 20101m | -12.0m/s | -55.6°C | 1.1% | 0hPa | 2.5V | 08:20:00 | 00:00:00 | 00:00:00 | |
| IW2NTF | 2026-09-01 00:59:47 | 46.87430 | 7.80812 | 348° | 57km/h | 20231m | -12.3m/s | -55.6°C | 4.3% | 0hPa | 2.5V | 08:20:06 | 02:23:24 | 00:00:00 | |
| DL1ZP-14 | 2026-09-01 00:59:36 | 46.87373 | 7.80737 | 100° | 47km/h | 20307m | -13.3m/s | -55.5°C | 1.0% | -1.0hPa | 2.6V | 00:00:00 | 00:00:00 | 00:00:00 | |
| DF7PN | 2026-09-01 00:59:34 | 46.87376 | 7.80723 | 121° | 38km/h | 20321m | -12.9m/s | -55.5°C | 1.0% | -1.0hPa | 2.6V | 00:00:00 | 00:00:00 | 00:00:00 | |
| IW2NTF | 2026-09-01 00:59:33 | 46.87394 | 7.80732 | 297° | 29km/h | 20389m | -12.9m/s | -54.3°C | 3.9% | 0hPa | 2.6V | 08:20:18 | 02:23:12 | 00:00:00 | |
| HASLITAL | 2026-09-01 00:59:30 | 46.87393 | 7.80715 | 225° | 24km/h | 20362m | -13.7m/s | -54.7°C | 1.1% | 0hPa | 2.6V | 08:20:00 | 00:00:00 | 00:00:00 | |
| DB0UT-7 | 2026-09-01 00:59:29 | 46.87394 | 7.80732 | 298° | 38km/h | 20390m | -12.9m/s | -54.3°C | 3.9% | 0hPa | 2.6V | 00:00:00 | 02:23:12 | 00:00:00 | |
| IW2NTF | 2026-09-01 00:59:24 | 46.87371 | 7.80642 | 163° | 51km/h | 20516m | -12.2m/s | -54.6°C | 4% | 0hPa | 2.6V | 08:20:28 | 02:23:02 | 00:00:00 | |
| DO3MHA-11 | 2026-09-01 00:59:17 | 46.87393 | 7.80645 | 213° | 37km/h | 20543m | -14.5m/s | -54.5°C | 4.0% | 0hPa | 2.6V | 00:00:00 | 02:23:00 | 00:00:00 | |
| IW2NTF | 2026-09-01 00:59:11 | 46.87369 | 7.80668 | 80° | 35km/h | 20646m | -13.2m/s | -54°C | 3.9% | 0hPa | 2.6V | 08:20:38 | 02:22:52 | 00:00:00 | |
| HASLITAL | 2026-09-01 00:59:10 | 46.87379 | 7.80689 | 31° | 37km/h | 20619m | -13.0m/s | -54.3°C | 1.1% | 0hPa | 2.5V | 08:20:00 | 00:00:00 | 00:00:00 | |
| DO3MHA-11 | 2026-09-01 00:59:05 | 46.87387 | 7.80639 | 196° | 20km/h | 20696m | -13.3m/s | -53.9°C | 3.9% | 0hPa | 2.5V | 00:00:00 | 02:22:48 | 00:00:00 | |
| DL1ZP-14 | 2026-09-01 00:59:04 | 46.87392 | 7.80644 | 229° | 24km/h | 20709m | -13.2m/s | -54.0°C | 0.9% | -1.0hPa | 2.5V | 00:00:00 | 00:00:00 | 00:00:00 | |
| DF7PN | 2026-09-01 00:59:03 | 46.87394 | 7.80651 | 265° | 22km/h | 20722m | -12.7m/s | -54.1°C | 0.9% | -1.0hPa | 2.5V | 00:00:00 | 00:00:00 | 00:00:00 | |
| IW2NTF | 2026-09-01 00:59:01 | 46.87379 | 7.80662 | 34° | 20km/h | 20773m | -14.2m/s | -54.3°C | 4.1% | 0hPa | 2.5V | 08:20:48 | 02:22:42 | 00:00:00 | |
| DL6DJ-15 | 2026-09-01 00:58:57 | 46.87373 | 7.80645 | 95° | 5km/h | 20830m | -14.3m/s | 0°C | -1.0% | -1.0hPa | 2.5V | 00:00:00 | 00:00:00 | 00:00:00 | |
| DO3MHA-11 | 2026-09-01 00:58:55 | 46.87373 | 7.80645 | 96° | 7km/h | 20830m | -14.3m/s | -54.1°C | 4.1% | 0hPa | 2.5V | 00:00:00 | 02:22:38 | 00:00:00 | |
| IW2NTF | 2026-09-01 00:58:51 | 46.87374 | 7.80636 | 33° | 7km/h | 20920m | -15m/s | -53.5°C | 3.8% | 0hPa | 2.5V | 08:20:58 | 02:22:32 | 00:00:00 | |
| HASLITAL | 2026-09-01 00:58:50 | 46.87374 | 7.80637 | 146° | 4km/h | 20890m | -15.0m/s | -53.6°C | 1.0% | 0hPa | 2.5V | 08:21:00 | 00:00:00 | 00:00:00 | |
| DK5PH-5 | 2026-09-01 00:58:49 | 46.87374 | 7.80636 | 34° | 9km/h | 20920m | -15.0m/s | -53.5°C | 3.8% | 0hPa | 2.5V | 08:20:00 | 02:22:32 | 00:00:00 | |
| IW2NTF | 2026-09-01 00:58:45 | 46.87373 | 7.80622 | 130° | 5km/h | 21065m | -15m/s | -53.1°C | 3.6% | 0hPa | 2.5V | 08:21:08 | 02:22:22 | 00:00:00 | |
| DO3MHA-11 | 2026-09-01 00:58:45 | 46.87372 | 7.80620 | 129° | 7km/h | 20978m | -14.6m/s | -53.3°C | 3.8% | 0hPa | 2.5V | 00:00:00 | 02:22:28 | 00:00:00 | |
| DM0DOS-11 | 2026-09-01 00:58:39 | 46.87374 | 7.80620 | 149° | 7km/h | 21080m | -15.2m/s | -53.1°C | 3.7% | 0hPa | 2.5V | 08:21:09 | 02:22:21 | 00:00:00 | |
| DO3MHA-11 | 2026-09-01 00:58:35 | 46.87379 | 7.80613 | 128° | 15km/h | 21127m | -15.7m/s | -53.0°C | 3.6% | 0hPa | 2.6V | 00:00:00 | 02:22:18 | 00:00:00 | |
| IW2NTF | 2026-09-01 00:58:34 | 46.87378 | 7.80585 | 82° | 18km/h | 21218m | -15.2m/s | -53.3°C | 3.6% | 0hPa | 2.6V | 08:21:18 | 02:22:12 | 00:00:00 | |
| DL1ZP-14 | 2026-09-01 00:58:33 | 46.87382 | 7.80606 | 106° | 9km/h | 21158m | -15.1m/s | -53.1°C | 0.8% | -1.0hPa | 2.6V | 00:00:00 | 00:00:00 | 00:00:00 | |
| DF7PN | 2026-09-01 00:58:32 | 46.87382 | 7.80602 | 71° | 11km/h | 21173m | -14.7m/s | -53.1°C | 0.8% | -1.0hPa | 2.6V | 00:00:00 | 00:00:00 | 00:00:00 | |
| DM0DOS-11 | 2026-09-01 00:58:29 | 46.87378 | 7.80579 | 86° | 13km/h | 21234m | -15.2m/s | -53.4°C | 3.6% | 0hPa | 2.6V | 08:21:19 | 02:22:11 | 00:00:00 | |
| DB0UT-7 | 2026-09-01 00:58:29 | 46.87378 | 7.80585 | 83° | 11km/h | 21219m | -15.2m/s | -53.3°C | 3.6% | 0hPa | 2.6V | 00:00:00 | 02:22:12 | 00:00:00 | |
| IW2NTF | 2026-09-01 00:58:24 | 46.87371 | 7.80549 | 93° | 13km/h | 21375m | -15.5m/s | -53.8°C | 3.7% | 0hPa | 2.6V | 08:21:28 | 02:22:02 | 00:00:00 | |
| DM0DOS-11 | 2026-09-01 00:58:19 | 46.87371 | 7.80545 | 97° | 11km/h | 21390m | -15.3m/s | -53.8°C | 3.7% | 0hPa | 2.6V | 08:21:29 | 02:22:01 | 00:00:00 | |
| DK5PH-5 | 2026-09-01 00:58:19 | 46.87371 | 7.80549 | 94° | 13km/h | 21375m | -15.4m/s | -53.7°C | 3.7% | 0hPa | 2.6V | 00:00:00 | 02:22:02 | 00:00:00 | |
| IW2NTF | 2026-09-01 00:58:13 | 46.87379 | 7.80526 | 252° | 7km/h | 21530m | -15.7m/s | -54.6°C | 3.9% | 0hPa | 2.6V | 08:21:38 | 02:21:52 | 00:00:00 | |
| DH7VM-15 | 2026-09-01 00:58:11 | 46.87375 | 7.80522 | 170° | 9km/h | 21483m | -15.5m/s | -54.3°C | 0.9% | 0hPa | 2.6V | 00:00:00 | 00:00:00 | 00:00:00 | |
| HASLITAL | 2026-09-01 00:58:09 | 46.87379 | 7.80523 | 236° | 5km/h | 21514m | -15.8m/s | -54.5°C | 1.0% | 0hPa | 2.6V | 08:22:00 | 00:00:00 | 00:00:00 | |
| DM0DOS-11 | 2026-09-01 00:58:09 | 46.87379 | 7.80528 | 287° | 7km/h | 21545m | -16.4m/s | -54.6°C | 3.9% | 0hPa | 2.6V | 08:21:39 | 02:21:51 | 00:00:00 | |
| IW2NTF | 2026-09-01 00:58:02 | 46.87387 | 7.80515 | 205° | 22km/h | 21689m | -16.1m/s | -55°C | 4.1% | 0hPa | 2.6V | 08:21:48 | 02:21:42 | 00:00:00 | |
| DF7PN | 2026-09-01 00:58:01 | 46.87383 | 7.80513 | 179° | 18km/h | 21673m | -16.6m/s | -55.0°C | 0.9% | -1.0hPa | 2.6V | 00:00:00 | 00:00:00 | 00:00:00 | |
| DM0DOS-11 | 2026-09-01 00:57:58 | 46.87392 | 7.80520 | 236° | 22km/h | 21705m | -15.3m/s | -55°C | 4.1% | 0hPa | 2.6V | 08:21:49 | 02:21:41 | 00:00:00 | |
| BIOWL1-15 | 2026-09-01 00:57:58 | 46.87377 | 7.80513 | 139° | 18km/h | 21824m | -14.7m/s | -55.2°C | 0.3% | 0hPa | 2.6V | 08:22:24 | 02:21:33 | 00:00:00 | |
| BIOWL1-15 | 2026-09-01 00:57:52 | 46.87384 | 7.80511 | 205° | 13km/h | 21854m | -14.7m/s | -54.9°C | 0.3% | 0hPa | 2.6V | 08:22:24 | 02:21:31 | 00:00:00 | |
| IW2NTF | 2026-09-01 00:57:51 | 46.87381 | 7.80511 | 174° | 16km/h | 21839m | -14.6m/s | -55.1°C | 4.2% | 0hPa | 2.6V | 08:21:58 | 02:21:32 | 00:00:00 | |
| DM0DOS-11 | 2026-09-01 00:57:51 | 46.87386 | 7.80514 | 241° | 11km/h | 21868m | -14.3m/s | -54.8°C | 4.1% | 0hPa | 2.6V | 08:22:00 | 02:21:30 | 00:00:00 | |
| BIOWL9-15 | 2026-09-01 00:57:50 | 46.87381 | 7.80511 | 174° | 16km/h | 21839m | -14.6m/s | -55.1°C | 0.9% | -1.0hPa | 2.6V | 00:00:00 | 00:00:00 | 00:00:00 | |
| DK5PH-5 | 2026-09-01 00:57:49 | 46.87380 | 7.80510 | 175° | 15km/h | 21839m | -14.6m/s | -55.1°C | 4.2% | 0hPa | 2.6V | 00:00:00 | 02:21:32 | 00:00:00 | |
| HASLITAL | 2026-09-01 00:57:48 | 46.87380 | 7.80510 | 175° | 16km/h | 21839m | -14.6m/s | -55.1°C | 1.1% | 0hPa | 2.6V | 08:22:00 | 00:00:00 | 00:00:00 | |
| IW2NTF | 2026-09-01 00:57:41 | 46.87384 | 7.80525 | 328° | 7km/h | 21991m | -16.2m/s | -54.3°C | 3.9% | 0hPa | 2.6V | 08:22:08 | 02:21:22 | 00:00:00 | |
| DM0DOS-11 | 2026-09-01 00:57:40 | 46.87381 | 7.80529 | 302° | 9km/h | 22024m | -16.2m/s | -54.4°C | 3.9% | 0hPa | 2.6V | 08:22:10 | 02:21:20 | 00:00:00 | |
| BIOWL1-15 | 2026-09-01 00:57:37 | 46.87380 | 7.80532 | 302° | 13km/h | 22040m | -16.1m/s | -54.5°C | 0.2% | 0hPa | 2.6V | 08:22:24 | 02:21:19 | 00:00:00 | |
| IW2NTF | 2026-09-01 00:57:34 | 46.87362 | 7.80568 | 315° | 18km/h | 22153m | -16.7m/s | -54.9°C | 4.1% | 0hPa | 2.6V | 08:22:18 | 02:21:12 | 00:00:00 | |
| DL1ZP-14 | 2026-09-01 00:57:31 | 46.87368 | 7.80557 | 306° | 20km/h | 22121m | -16.5m/s | -54.8°C | 0.9% | -1.0hPa | 2.6V | 00:00:00 | 00:00:00 | 00:00:00 | |
| DM0DOS-11 | 2026-09-01 00:57:30 | 46.87356 | 7.80577 | 304° | 18km/h | 22187m | -16.4m/s | -55°C | 4.2% | 0hPa | 2.6V | 08:22:20 | 02:21:10 | 00:00:00 | |
| BIOWL1-15 | 2026-09-01 00:57:25 | 46.87350 | 7.80588 | 314° | 18km/h | 22220m | -16m/s | -54.8°C | 0.3% | 0hPa | 2.6V | 08:22:24 | 02:21:08 | 00:00:00 | |
| DL6DJ-15 | 2026-09-01 00:57:24 | 46.87341 | 7.80603 | 311° | 18km/h | 22269m | -16.3m/s | 0°C | -1.0% | -1.0hPa | 2.6V | 00:00:00 | 00:00:00 | 00:00:00 | |
| IW2NTF | 2026-09-01 00:57:23 | 46.87324 | 7.80612 | 10° | 13km/h | 22332m | -15.6m/s | -54.7°C | 4% | 0hPa | 2.6V | 08:22:29 | 02:21:01 | 00:00:00 | |
| BIOWL1-15 | 2026-09-01 00:57:17 | 46.87300 | 7.80600 | 81° | 4km/h | 22483m | -16.2m/s | -54.1°C | 0.2% | 0hPa | 2.6V | 08:24:57 | 02:20:52 | 00:00:00 | |
| IW2NTF | 2026-09-01 00:57:09 | 46.87300 | 7.80600 | 251° | 4km/h | 22499m | -16.2m/s | -54.1°C | 3.8% | 0hPa | 2.6V | 08:22:39 | 02:20:51 | 00:00:00 | |
| BIOWL1-15 | 2026-09-01 00:57:03 | 46.87292 | 7.80617 | 341° | 9km/h | 22616m | -17.1m/s | -54.4°C | 0.1% | 0hPa | 2.6V | 08:24:57 | 02:20:44 | 00:00:00 | |
| IW2NTF | 2026-09-01 00:57:01 | 46.87279 | 7.80618 | 5° | 15km/h | 22701m | -17.2m/s | -54.5°C | 3.9% | 0hPa | 2.6V | 08:22:51 | 02:20:39 | 00:00:00 | |
| DL1ZP-14 | 2026-09-01 00:57:00 | 46.87290 | 7.80617 | 2° | 7km/h | 22633m | -16.8m/s | -54.4°C | 0.8% | -1.0hPa | 2.6V | 00:00:00 | 00:00:00 | 00:00:00 | |
| DF7PN | 2026-09-01 00:56:59 | 46.87286 | 7.80618 | 350° | 9km/h | 22667m | -16.7m/s | -54.4°C | 0.8% | -1.0hPa | 2.6V | 00:00:00 | 00:00:00 | 00:00:00 | |
| BIOWL7-15 | 2026-09-01 00:56:58 | 46.87288 | 7.80617 | 2° | 7km/h | 22651m | -17.0m/s | 0°C | 0% | 0hPa | 2.6V | 00:00:00 | 00:00:00 | 00:00:00 | |
| DM0DOS-11 | 2026-09-01 00:56:53 | 46.87243 | 7.80614 | 22° | 18km/h | 22855m | -17.4m/s | -54.5°C | 4% | 0hPa | 2.6V | 08:23:00 | 02:20:30 | 00:00:00 | |
| IW2NTF | 2026-09-01 00:56:51 | 46.87239 | 7.80610 | 35° | 18km/h | 22872m | -16.9m/s | -54.5°C | 3.9% | 0hPa | 2.6V | 08:23:01 | 02:20:29 | 00:00:00 | |
| BIOWL1-15 | 2026-09-01 00:56:51 | 46.87261 | 7.80618 | 355° | 18km/h | 22786m | -17.3m/s | -54.4°C | 0.1% | 0hPa | 2.6V | 08:24:57 | 02:20:34 | 00:00:00 | |
| BIOWL9-15 | 2026-09-01 00:56:48 | 46.87243 | 7.80614 | 22° | 18km/h | 22855m | -17.4m/s | -54.5°C | 0.9% | -1.0hPa | 2.6V | 00:00:00 | 00:00:00 | 00:00:00 | |
| HASLITAL | 2026-09-01 00:56:47 | 46.87248 | 7.80616 | 14° | 18km/h | 22838m | -17.0m/s | -54.5°C | 1.0% | 0hPa | 2.6V | 08:23:00 | 00:00:00 | 00:00:00 | |
| DM0DOS-11 | 2026-09-01 00:56:42 | 46.87219 | 7.80572 | 73° | 13km/h | 23028m | -17.1m/s | -54.7°C | 4.1% | 0hPa | 2.6V | 08:23:10 | 02:20:20 | 00:00:00 | |
| BIOWL1-15 | 2026-09-01 00:56:41 | 46.87226 | 7.80590 | 57° | 15km/h | 22959m | -17.6m/s | -54.6°C | 0.2% | 0hPa | 2.6V | 08:24:57 | 02:20:24 | 00:00:00 | |
| IW2NTF | 2026-09-01 00:56:38 | 46.87218 | 7.80568 | 93° | 11km/h | 23045m | -17.4m/s | -54.7°C | 4.1% | 0hPa | 2.6V | 08:23:11 | 02:20:19 | 00:00:00 | |
| DH7VM-15 | 2026-09-01 00:56:38 | 46.87220 | 7.80577 | 59° | 15km/h | 23011m | -17.1m/s | -54.6°C | 0.9% | 0hPa | 2.6V | 00:00:00 | 00:00:00 | 00:00:00 | |
| IW2NTF | 2026-09-01 00:56:31 | 46.87233 | 7.80547 | 183° | 7km/h | 23220m | -17.7m/s | -54.6°C | 4.1% | 0hPa | 2.6V | 08:23:21 | 02:20:09 | 00:00:00 | |
| DB0UT-7 | 2026-09-01 00:56:29 | 46.87228 | 7.80548 | 170° | 13km/h | 23168m | -17.4m/s | -54.5°C | 4.1% | 0hPa | 2.6V | 00:00:00 | 02:20:12 | 00:00:00 | |
| DF7PN | 2026-09-01 00:56:28 | 46.87231 | 7.80547 | 157° | 5km/h | 23202m | -17.5m/s | -54.5°C | 0.9% | -1.0hPa | 2.6V | 00:00:00 | 00:00:00 | 00:00:00 | |
| HASLITAL | 2026-09-01 00:56:26 | 46.87231 | 7.80547 | 158° | 5km/h | 23202m | -17.5m/s | -54.5°C | 1.0% | 0hPa | 2.6V | 08:24:00 | 00:00:00 | 00:00:00 | |
| DK5PH-5 | 2026-09-01 00:56:19 | 46.87243 | 7.80574 | 258° | 15km/h | 23343m | -17.8m/s | -54.6°C | 4.2% | 0hPa | 2.6V | 00:00:00 | 02:20:02 | 00:00:00 | |
| IW2NTF | 2026-09-01 00:56:18 | 46.87244 | 7.80592 | 259° | 16km/h | 23398m | -18.4m/s | -54°C | 4% | 0hPa | 2.6V | 08:23:31 | 02:19:59 | 00:00:00 | |
| BIOWL1-15 | 2026-09-01 00:56:13 | 46.87240 | 7.80625 | 291° | 16km/h | 23489m | -18.7m/s | -53.6°C | 0.2% | 0hPa | 2.6V | 08:24:57 | 02:19:54 | 00:00:00 | |
| IW2NTF | 2026-09-01 00:56:08 | 46.87230 | 7.80650 | 321° | 11km/h | 23619m | -18.4m/s | -53.2°C | 3.8% | 0hPa | 2.6V | 08:23:43 | 02:19:47 | 00:00:00 | |
| DM0DOS-11 | 2026-09-01 00:56:06 | 46.87226 | 7.80655 | 291° | 7km/h | 23656m | -18.6m/s | -53.1°C | 3.8% | 0hPa | 2.6V | 08:23:45 | 02:19:45 | 00:00:00 | |
| BIOWL1-15 | 2026-09-01 00:55:58 | 46.87226 | 7.80664 | 219° | 7km/h | 23731m | -18.9m/s | -52.9°C | 0% | 0hPa | 2.6V | 08:24:57 | 02:19:41 | 00:00:00 | |
| DF7PN | 2026-09-01 00:55:57 | 46.87230 | 7.80671 | 240° | 15km/h | 23769m | -18.8m/s | -52.8°C | 0.7% | -1.0hPa | 2.6V | 00:00:00 | 00:00:00 | 00:00:00 | |
| DM0DOS-11 | 2026-09-01 00:55:56 | 46.87233 | 7.80699 | 270° | 26km/h | 23843m | -18.8m/s | -52.7°C | 3.7% | 0hPa | 2.6V | 08:23:55 | 02:19:35 | 00:00:00 | |
| BIOWL1-15 | 2026-09-01 00:55:47 | 46.87219 | 7.80773 | 292° | 27km/h | 23974m | -19.1m/s | -52.3°C | 0% | 0hPa | 2.6V | 08:24:57 | 02:19:28 | 00:00:00 | |
| DB0ND-19 | 2026-09-01 00:55:47 | 46.87222 | 7.80763 | 288° | 29km/h | 23955m | -18.6m/s | -52.3°C | 0.7% | -1.0hPa | 2.6V | 00:00:00 | 00:00:00 | 00:00:00 | |
| BIOWL9-15 | 2026-09-01 00:55:46 | 46.87219 | 7.80773 | 291° | 26km/h | 23974m | -19.1m/s | -52.3°C | 0.7% | -1.0hPa | 2.6V | 00:00:00 | 00:00:00 | 00:00:00 | |
| BIOWL1-15 | 2026-09-01 00:55:37 | 46.87193 | 7.80835 | 318° | 24km/h | 24125m | -18.9m/s | -52.8°C | 0.1% | 0hPa | 2.6V | 08:24:57 | 02:19:20 | 00:00:00 | |
| DM0DOS-11 | 2026-09-01 00:55:30 | 46.87162 | 7.80893 | 316° | 22km/h | 24279m | -18.5m/s | -52.2°C | 3.7% | 0hPa | 2.6V | 08:24:18 | 02:19:12 | 00:00:00 | |
| BIOWL1-15 | 2026-09-01 00:55:28 | 46.87150 | 7.80910 | 324° | 22km/h | 24336m | -18.8m/s | -51.8°C | 0% | 0hPa | 2.6V | 08:24:57 | 02:19:09 | 00:00:00 | |
| DL1ZP-14 | 2026-09-01 00:55:27 | 46.87154 | 7.80904 | 317° | 22km/h | 24317m | -18.9m/s | -52.0°C | 0.7% | -1.0hPa | 2.6V | 00:00:00 | 00:00:00 | 00:00:00 | |
| DF7PN | 2026-09-01 00:55:26 | 46.87146 | 7.80915 | 324° | 20km/h | 24355m | -20.0m/s | -51.7°C | 0.7% | -1.0hPa | 2.6V | 00:00:00 | 00:00:00 | 00:00:00 | |
| IW2NTF | 2026-09-01 00:55:24 | 46.87133 | 7.80932 | 316° | 26km/h | 24413m | -19.8m/s | -51.6°C | 3.5% | 0hPa | 2.6V | 08:24:25 | 02:19:05 | 00:00:00 | |
| HASLITAL | 2026-09-01 00:55:24 | 46.87145 | 7.80914 | 325° | 22km/h | 24355m | -20.0m/s | -51.7°C | 0.8% | 0hPa | 2.6V | 08:24:00 | 00:00:00 | 00:00:00 | |
| DM0DOS-11 | 2026-09-01 00:55:20 | 46.87119 | 7.80947 | 329° | 22km/h | 24472m | -20m/s | -51.5°C | 3.5% | 0hPa | 2.6V | 08:24:28 | 02:19:02 | 00:00:00 | |
| BIOWL1-15 | 2026-09-01 00:55:16 | 46.87102 | 7.80953 | 3° | 24km/h | 24532m | -19.5m/s | -51.4°C | 0% | 0hPa | 2.6V | 08:24:57 | 02:18:59 | 00:00:00 | |
| BIOWL9-15 | 2026-09-01 00:55:15 | 46.87090 | 7.80951 | 8° | 24km/h | 24571m | -20.0m/s | -51.4°C | 0.7% | -1.0hPa | 2.7V | 00:00:00 | 00:00:00 | 00:00:00 | |
| IW2NTF | 2026-09-01 00:55:13 | 46.87078 | 7.80949 | 7° | 24km/h | 24611m | -19.8m/s | -51.2°C | 3.4% | 0hPa | 2.7V | 08:24:35 | 02:18:55 | 00:00:00 | |
| DM0DOS-11 | 2026-09-01 00:55:10 | 46.87061 | 7.80950 | 356° | 24km/h | 24671m | -20.2m/s | -51.3°C | 3.4% | 0hPa | 2.6V | 08:24:38 | 02:18:52 | 00:00:00 | |
| BIOWL1-15 | 2026-09-01 00:55:06 | 46.87035 | 7.80955 | 262° | 7km/h | 24874m | -21m/s | -50.9°C | 0% | 0hPa | 2.6V | 08:24:57 | 02:18:42 | 00:00:00 | |
| IW2NTF | 2026-09-01 00:55:03 | 46.87037 | 7.80949 | 311° | 4km/h | 24813m | -20.6m/s | -51.2°C | 3.4% | 0hPa | 2.6V | 08:24:45 | 02:18:45 | 00:00:00 | |
| DM0DOS-11 | 2026-09-01 00:54:59 | 46.87035 | 7.80956 | 261° | 7km/h | 24874m | -21m/s | -50.9°C | 3.4% | 0hPa | 2.6V | 08:24:48 | 02:18:42 | 00:00:00 | |
| BIOWL1-15 | 2026-09-01 00:54:56 | 46.87041 | 7.80966 | 186° | 9km/h | 24977m | -21m/s | -50.7°C | 0% | 0hPa | 2.6V | 08:24:57 | 02:18:37 | 00:00:00 | |
| DM0DOS-11 | 2026-09-01 00:54:54 | 46.87052 | 7.80967 | 218° | 7km/h | 25082m | -21.2m/s | -50.5°C | 3.2% | 0hPa | 2.6V | 08:24:58 | 02:18:32 | 00:00:00 | |
| IW2NTF | 2026-09-01 00:54:52 | 46.87045 | 7.80965 | 168° | 11km/h | 25019m | -21.2m/s | -50.6°C | 3.3% | 0hPa | 2.6V | 08:24:55 | 02:18:35 | 00:00:00 | |
| DL6DJ-15 | 2026-09-01 00:54:48 | 46.87053 | 7.80972 | 299° | 9km/h | 25165m | -20.1m/s | 0°C | -1.0% | -1.0hPa | 2.6V | 00:00:00 | 00:00:00 | 00:00:00 | |
| DM0DOS-11 | 2026-09-01 00:54:44 | 46.87033 | 7.80984 | 1° | 16km/h | 25291m | -21.2m/s | -50.9°C | 3.4% | 0hPa | 2.6V | 08:25:08 | 02:18:22 | 00:00:00 | |
| HASLITAL | 2026-09-01 00:54:43 | 46.87051 | 7.80976 | 322° | 15km/h | 25186m | -20.7m/s | -50.9°C | 0.7% | 0hPa | 2.6V | 08:25:00 | 00:00:00 | 00:00:00 | |
| IW2NTF | 2026-09-01 00:54:42 | 46.87037 | 7.80983 | 347° | 16km/h | 25270m | -21.5m/s | -50.9°C | 3.4% | 0hPa | 2.6V | 08:25:07 | 02:18:23 | 00:00:00 | |
| BIOWL1-15 | 2026-09-01 00:54:41 | 46.87041 | 7.80982 | 347° | 15km/h | 25248m | -21m/s | -51°C | 0% | 0hPa | 2.6V | 08:25:48 | 02:18:24 | 00:00:00 | |
| DM0DOS-11 | 2026-09-01 00:54:33 | 46.87018 | 7.80957 | 88° | 11km/h | 25500m | -22.1m/s | -50.5°C | 3.3% | 0hPa | 2.6V | 08:25:18 | 02:18:12 | 00:00:00 | |
| IW2NTF | 2026-09-01 00:54:32 | 46.87018 | 7.80961 | 78° | 7km/h | 25478m | -21.7m/s | -50.4°C | 3.3% | 0hPa | 2.6V | 08:25:17 | 02:18:13 | 00:00:00 | |
| BIOWL1-15 | 2026-09-01 00:54:30 | 46.87018 | 7.80961 | 79° | 7km/h | 25478m | -21.7m/s | -50.4°C | 0% | 0hPa | 2.6V | 08:25:48 | 02:18:13 | 00:00:00 | |
| BIOWL1-15 | 2026-09-01 00:54:23 | 46.87045 | 7.80947 | 209° | 11km/h | 25714m | -21.8m/s | -50.4°C | 0% | 0hPa | 2.6V | 08:25:48 | 02:18:02 | 00:00:00 | |
| DM0DOS-11 | 2026-09-01 00:54:23 | 46.87045 | 7.80947 | 209° | 11km/h | 25714m | -21.8m/s | -50.4°C | 3.3% | 0hPa | 2.6V | 08:25:28 | 02:18:02 | 00:00:00 | |
| IW2NTF | 2026-09-01 00:54:22 | 46.87043 | 7.80944 | 224° | 13km/h | 25693m | -21.5m/s | -50.4°C | 3.3% | 0hPa | 2.6V | 08:25:27 | 02:18:03 | 00:00:00 | |
| HASLITAL | 2026-09-01 00:54:22 | 46.87032 | 7.80938 | 175° | 16km/h | 25629m | -21.8m/s | -50.1°C | 0.7% | 0hPa | 2.6V | 08:25:00 | 00:00:00 | 00:00:00 | |
| DK5PH-5 | 2026-09-01 00:54:19 | 46.87045 | 7.80947 | 210° | 15km/h | 25715m | -21.8m/s | -50.4°C | 3.3% | 0hPa | 2.6V | 08:25:00 | 02:18:02 | 00:00:00 | |
| DB0ND-19 | 2026-09-01 00:54:13 | 46.87053 | 7.80951 | 260° | 0km/h | 25846m | -22.9m/s | -50.1°C | 0.6% | -1.0hPa | 2.6V | 00:00:00 | 00:00:00 | 00:00:00 | |
| BIOWL9-15 | 2026-09-01 00:54:12 | 46.87052 | 7.80951 | 332° | 5km/h | 25869m | -22.2m/s | -50.1°C | 0.6% | -1.0hPa | 2.6V | 00:00:00 | 00:00:00 | 00:00:00 | |
| IW2NTF | 2026-09-01 00:54:12 | 46.87038 | 7.80946 | 29° | 22km/h | 25959m | -22.8m/s | -49.8°C | 3.2% | 0hPa | 2.6V | 08:25:39 | 02:17:51 | 00:00:00 | |
| DM0DOS-11 | 2026-09-01 00:54:11 | 46.87043 | 7.80950 | 30° | 20km/h | 25936m | -22.9m/s | -49.8°C | 3.2% | 0hPa | 2.6V | 08:25:38 | 02:17:52 | 00:00:00 | |
| BIOWL1-15 | 2026-09-01 00:54:09 | 46.87043 | 7.80950 | 31° | 20km/h | 25936m | -22.9m/s | -49.8°C | 0% | 0hPa | 2.6V | 08:25:48 | 02:17:52 | 00:00:00 | |
| DM0DOS-11 | 2026-09-01 00:54:04 | 46.87020 | 7.80886 | 78° | 15km/h | 26163m | -22.8m/s | -49.3°C | 3% | 0hPa | 2.6V | 08:25:48 | 02:17:42 | 00:00:00 | |
| IW2NTF | 2026-09-01 00:54:02 | 46.87019 | 7.80881 | 82° | 16km/h | 26186m | -23.1m/s | -49.3°C | 3.1% | 0hPa | 2.6V | 08:25:49 | 02:17:41 | 00:00:00 | |
| BIOWL1-15 | 2026-09-01 00:54:00 | 46.87019 | 7.80881 | 82° | 18km/h | 26186m | -23.1m/s | -49.3°C | 0% | 0hPa | 2.6V | 08:26:39 | 02:17:41 | 00:00:00 | |
| DL1ZP-14 | 2026-09-01 00:53:54 | 46.87016 | 7.80851 | 85° | 20km/h | 26278m | -23.2m/s | -49.5°C | 0.6% | -1.0hPa | 2.6V | 00:00:00 | 00:00:00 | 00:00:00 | |
| IW2NTF | 2026-09-01 00:53:52 | 46.87027 | 7.80824 | 179° | 15km/h | 26415m | -22.8m/s | -49.5°C | 3.1% | 0hPa | 2.6V | 08:25:59 | 02:17:31 | 00:00:00 | |
| DF7PN | 2026-09-01 00:53:52 | 46.87017 | 7.80837 | 105° | 16km/h | 26324m | -23.1m/s | -49.5°C | 0.6% | -1.0hPa | 2.6V | 00:00:00 | 00:00:00 | 00:00:00 | |
| DM0DOS-11 | 2026-09-01 00:53:51 | 46.87024 | 7.80825 | 159° | 13km/h | 26392m | -22.9m/s | -49.5°C | 3.1% | 0hPa | 2.6V | 08:25:58 | 02:17:32 | 00:00:00 | |
| BIOWL1-15 | 2026-09-01 00:53:48 | 46.87027 | 7.80824 | 180° | 15km/h | 26415m | -22.8m/s | -49.5°C | 0% | 0hPa | 2.6V | 08:26:39 | 02:17:31 | 00:00:00 | |
| DL6DJ-15 | 2026-09-01 00:53:47 | 46.87033 | 7.80827 | 238° | 9km/h | 26462m | -23.4m/s | 0°C | -1.0% | -1.0hPa | 2.6V | 00:00:00 | 00:00:00 | 00:00:00 | |
| DM0DOS-11 | 2026-09-01 00:53:44 | 46.87018 | 7.80841 | 4° | 13km/h | 26624m | -23.5m/s | -49.3°C | 3.1% | 0hPa | 2.6V | 08:26:08 | 02:17:22 | 00:00:00 | |
| IW2NTF | 2026-09-01 00:53:42 | 46.87015 | 7.80841 | 350° | 11km/h | 26648m | -23.7m/s | -49.3°C | 3.1% | 0hPa | 2.6V | 08:26:09 | 02:17:21 | 00:00:00 | |
| BIOWL1-15 | 2026-09-01 00:53:37 | 46.87008 | 7.80844 | 339° | 4km/h | 26719m | -23.4m/s | -49.2°C | 0% | 0hPa | 2.6V | 08:26:39 | 02:17:18 | 00:00:00 | |
| DM0DOS-11 | 2026-09-01 00:53:34 | 46.86993 | 7.80836 | 35° | 15km/h | 26859m | -23.3m/s | -48.9°C | 3.1% | 0hPa | 2.6V | 08:26:18 | 02:17:12 | 00:00:00 | |
| IW2NTF | 2026-09-01 00:53:33 | 46.86990 | 7.80833 | 43° | 18km/h | 26882m | -22.8m/s | -49°C | 3.1% | 0hPa | 2.6V | 08:26:19 | 02:17:11 | 00:00:00 | |
| BIOWL1-15 | 2026-09-01 00:53:26 | 46.86985 | 7.80819 | 118° | 5km/h | 26975m | -23m/s | -48.9°C | 0% | 0hPa | 2.6V | 08:26:39 | 02:17:07 | 00:00:00 | |
| IW2NTF | 2026-09-01 00:53:23 | 46.86994 | 7.80807 | 124° | 15km/h | 27117m | -24.1m/s | -48.5°C | 3% | 0hPa | 2.6V | 08:26:29 | 02:17:01 | 00:00:00 | |
| DM0DOS-11 | 2026-09-01 00:53:22 | 46.86992 | 7.80810 | 142° | 7km/h | 27093m | -24.1m/s | -48.5°C | 3% | 0hPa | 2.6V | 08:26:28 | 02:17:02 | 00:00:00 | |
| BIOWL1-15 | 2026-09-01 00:53:13 | 46.86999 | 7.80789 | 307° | 5km/h | 27286m | -23.9m/s | -48.2°C | 0% | 0hPa | 2.6V | 08:26:39 | 02:16:54 | 00:00:00 | |
| DM0DOS-11 | 2026-09-01 00:53:12 | 46.86998 | 7.80793 | 323° | 7km/h | 27334m | -25m/s | -48.3°C | 3% | 0hPa | 2.6V | 08:26:38 | 02:16:52 | 00:00:00 | |
| BIOWL1-15 | 2026-09-01 00:53:03 | 46.87003 | 7.80801 | 158° | 7km/h | 27531m | -24.2m/s | -48.2°C | 0% | 0hPa | 2.6V | 08:27:30 | 02:16:44 | 00:00:00 | |
| DM0DOS-11 | 2026-09-01 00:53:01 | 46.87008 | 7.80799 | 166° | 11km/h | 27579m | -24.7m/s | -48.1°C | 2.9% | 0hPa | 2.7V | 08:26:48 | 02:16:42 | 00:00:00 | |
| DB0UT-7 | 2026-09-01 00:52:59 | 46.87008 | 7.80799 | 167° | 7km/h | 27580m | -24.7m/s | -48.1°C | 2.9% | 0hPa | 2.7V | 00:00:00 | 00:00:00 | 00:00:00 | |
| HASLITAL | 2026-09-01 00:52:58 | 46.87008 | 7.80799 | 168° | 11km/h | 27580m | -24.7m/s | -48.1°C | 0.6% | 0hPa | 2.7V | 08:27:00 | 00:00:00 | 00:00:00 | |
| IW2NTF | 2026-09-01 00:52:53 | 46.87000 | 7.80819 | 126° | 5km/h | 27852m | -25.4m/s | -48.3°C | 3% | 0hPa | 2.7V | 08:26:59 | 02:16:31 | 00:00:00 | |
| BIOWL1-15 | 2026-09-01 00:52:52 | 46.87005 | 7.80817 | 326° | 13km/h | 27751m | -24.7m/s | -48.4°C | 0% | 0hPa | 2.6V | 08:27:30 | 02:16:35 | 00:00:00 | |
| DF7PN | 2026-09-01 00:52:50 | 46.87000 | 7.80821 | 323° | 5km/h | 27802m | -25.7m/s | -48.4°C | 0.5% | -1.0hPa | 2.6V | 00:00:00 | 00:00:00 | 00:00:00 | |
| DM0DOS-11 | 2026-09-01 00:52:50 | 46.87000 | 7.80821 | 65° | 5km/h | 27827m | -25.2m/s | -48.4°C | 3% | 0hPa | 2.6V | 08:26:58 | 02:16:32 | 00:00:00 | |
| DK5PH-5 | 2026-09-01 00:52:47 | 46.87001 | 7.80817 | 145° | 11km/h | 27879m | -24.2m/s | -48.1°C | 3.0% | 0hPa | 2.6V | 00:00:00 | 02:16:30 | 00:00:00 | |
| DM0DOS-11 | 2026-09-01 00:52:45 | 46.87013 | 7.80810 | 296° | 2km/h | 28079m | -25.4m/s | -47.6°C | 2.9% | 0hPa | 2.6V | 08:27:08 | 02:16:22 | 00:00:00 | |
| IW2NTF | 2026-09-01 00:52:42 | 46.87012 | 7.80811 | 317° | 5km/h | 28104m | -26.6m/s | -47.6°C | 2.9% | 0hPa | 2.7V | 08:27:09 | 02:16:21 | 00:00:00 | |
| BIOWL1-15 | 2026-09-01 00:52:42 | 46.87012 | 7.80808 | 182° | 5km/h | 28003m | -25.1m/s | -47.9°C | 0% | 0hPa | 2.6V | 08:27:30 | 02:16:25 | 00:00:00 | |
| BIOWL9-15 | 2026-09-01 00:52:39 | 46.87013 | 7.80810 | 296° | 2km/h | 28079m | -25.5m/s | -47.7°C | 0.5% | -1.0hPa | 2.6V | 00:00:00 | 00:00:00 | 00:00:00 | |
| HASLITAL | 2026-09-01 00:52:38 | 46.87013 | 7.80810 | 298° | 2km/h | 28079m | -25.5m/s | -47.7°C | 0.6% | 0hPa | 2.6V | 08:27:00 | 00:00:00 | 00:00:00 | |
| DM0DOS-11 | 2026-09-01 00:52:34 | 46.87019 | 7.80816 | 46° | 2km/h | 28342m | -26.8m/s | -47.1°C | 2.8% | 0hPa | 2.6V | 08:27:18 | 02:16:12 | 00:00:00 | |
| IW2NTF | 2026-09-01 00:52:32 | 46.87019 | 7.80815 | 24° | 5km/h | 28369m | -26.3m/s | -47°C | 2.8% | 0hPa | 2.7V | 08:27:19 | 02:16:11 | 00:00:00 | |
| BIOWL1-15 | 2026-09-01 00:52:31 | 46.87019 | 7.80815 | 235° | 5km/h | 28289m | -27m/s | -47.3°C | 0% | 0hPa | 2.6V | 08:27:30 | 02:16:14 | 00:00:00 | |
| DB0UT-7 | 2026-09-01 00:52:29 | 46.87019 | 7.80816 | 47° | 9km/h | 28343m | -26.8m/s | -47.0°C | 2.8% | 0hPa | 2.7V | 00:00:00 | 02:16:12 | 00:00:00 | |
| DM0DOS-11 | 2026-09-01 00:52:24 | 46.87030 | 7.80798 | 167° | 16km/h | 28607m | -26.4m/s | -46.8°C | 2.9% | 0hPa | 2.7V | 08:27:28 | 02:16:02 | 00:00:00 | |
| IW2NTF | 2026-09-01 00:52:22 | 46.87034 | 7.80797 | 165° | 13km/h | 28633m | -26.8m/s | -46.7°C | 2.8% | 0hPa | 2.6V | 08:27:29 | 02:16:01 | 00:00:00 | |
| BIOWL1-15 | 2026-09-01 00:52:21 | 46.87034 | 7.80797 | 166° | 13km/h | 28633m | -26.8m/s | -46.7°C | 0% | 0hPa | 2.6V | 08:27:30 | 02:16:01 | 00:00:00 | |
| DF7PN | 2026-09-01 00:52:19 | 46.87030 | 7.80798 | 167° | 16km/h | 28607m | -26.4m/s | -46.8°C | 0.5% | -1.0hPa | 2.7V | 00:00:00 | 00:00:00 | 00:00:00 | |
| DK5PH-5 | 2026-09-01 00:52:17 | 46.87037 | 7.80795 | 153° | 9km/h | 28661m | -27.1m/s | -46.5°C | 2.8% | 0hPa | 2.7V | 00:00:00 | 02:16:00 | 00:00:00 | |
| DM0DOS-11 | 2026-09-01 00:52:14 | 46.87036 | 7.80773 | 154° | 9km/h | 28873m | -26.9m/s | -45.9°C | 2.7% | 0hPa | 2.7V | 08:27:38 | 02:15:52 | 00:00:00 | |
| IW2NTF | 2026-09-01 00:52:11 | 46.87038 | 7.80771 | 165° | 11km/h | 28900m | -27.7m/s | -45.9°C | 2.7% | 0hPa | 2.6V | 08:27:39 | 02:15:51 | 00:00:00 | |
| BIOWL1-15 | 2026-09-01 00:52:10 | 46.87034 | 7.80774 | 122° | 5km/h | 28846m | -27.3m/s | -46°C | 0% | 0hPa | 2.6V | 08:28:21 | 02:15:53 | 00:00:00 | |
| BIOWL1-15 | 2026-09-01 00:52:02 | 46.87054 | 7.80762 | 60° | 7km/h | 29119m | -28.3m/s | -45.4°C | 0% | 0hPa | 2.6V | 08:28:21 | 02:15:43 | 00:00:00 | |
| IW2NTF | 2026-09-01 00:52:01 | 46.87053 | 7.80757 | 87° | 7km/h | 29174m | -27.6m/s | -45.5°C | 2.7% | 0hPa | 2.7V | 08:27:49 | 02:15:41 | 00:00:00 | |
| DB0UT-7 | 2026-09-01 00:51:59 | 46.87053 | 7.80760 | 86° | 7km/h | 29147m | -27.4m/s | -45.4°C | 2.6% | 0hPa | 2.6V | 00:00:00 | 00:00:00 | 00:00:00 | |
| HASLITAL | 2026-09-01 00:51:57 | 46.87053 | 7.80757 | 89° | 9km/h | 29175m | -27.6m/s | -45.5°C | 0.5% | 0hPa | 2.6V | 08:28:00 | 00:00:00 | 00:00:00 | |
| IW2NTF | 2026-09-01 00:51:52 | 46.87067 | 7.80739 | 102° | 11km/h | 29448m | -27.9m/s | -44.6°C | 2.6% | 0hPa | 2.6V | 08:27:59 | 02:15:31 | 00:00:00 | |
| BIOWL1-15 | 2026-09-01 00:51:50 | 46.87067 | 7.80745 | 90° | 7km/h | 29393m | -27.3m/s | -44.9°C | 0% | 0hPa | 2.7V | 08:28:21 | 02:15:33 | 00:00:00 | |
| DF7PN | 2026-09-01 00:51:48 | 46.87067 | 7.80739 | 102° | 9km/h | 29449m | -27.9m/s | -44.6°C | 0.4% | -1.0hPa | 2.7V | 00:00:00 | 00:00:00 | 00:00:00 | |
| DK5PH-5 | 2026-09-01 00:51:47 | 46.87068 | 7.80735 | 119° | 13km/h | 29477m | -28.4m/s | -44.4°C | 2.5% | 0hPa | 2.7V | 00:00:00 | 02:15:30 | 00:00:00 | |
| DM0DOS-11 | 2026-09-01 00:51:43 | 46.87082 | 7.80736 | 182° | 4km/h | 29728m | -28.8m/s | -43.7°C | 2.5% | 0hPa | 2.7V | 08:28:09 | 02:15:21 | 00:00:00 | |
| BIOWL1-15 | 2026-09-01 00:51:39 | 46.87084 | 7.80736 | 360° | 4km/h | 29785m | -28.3m/s | -43.7°C | 0% | 0hPa | 2.6V | 08:28:21 | 02:15:19 | 00:00:00 | |
| BIOWL9-15 | 2026-09-01 00:51:37 | 46.87083 | 7.80736 | 175° | 4km/h | 29757m | -28.4m/s | -43.7°C | 0.3% | -1.0hPa | 2.6V | 00:00:00 | 00:00:00 | 00:00:00 | |
| HASLITAL | 2026-09-01 00:51:36 | 46.87083 | 7.80736 | 177° | 4km/h | 29757m | -28.4m/s | -43.7°C | 0.4% | 0hPa | 2.6V | 08:28:00 | 00:00:00 | 00:00:00 | |
| DM0DOS-11 | 2026-09-01 00:51:33 | 46.87067 | 7.80738 | 7° | 16km/h | 30015m | -29.2m/s | -42.8°C | 2.3% | 0hPa | 2.6V | 08:28:19 | 02:15:11 | 00:00:00 | |
| BIOWL1-15 | 2026-09-01 00:51:27 | 46.87058 | 7.80733 | 38° | 20km/h | 30071m | -27.2m/s | -42.6°C | 0% | 0hPa | 2.6V | 08:28:21 | 02:15:09 | 00:00:00 | |
| DM0DOS-11 | 2026-09-01 00:51:23 | 46.87020 | 7.80711 | 356° | 22km/h | 30310m | -30.7m/s | -43°C | 2.4% | 0hPa | 2.6V | 08:30:00 | 02:15:01 | 00:00:00 | |
| BIOWL1-15 | 2026-09-01 00:51:15 | 46.87004 | 7.80710 | 9° | 24km/h | 30401m | -31.1m/s | -42.8°C | 0% | 0hPa | 2.6V | 18:12:15 | 02:14:58 | 00:00:00 | |
| BIOWL1-15 | 2026-09-01 00:51:04 | 46.86962 | 7.80612 | 79° | 16km/h | 30932m | -31.4m/s | -41.5°C | 0% | 0hPa | 2.6V | 18:12:15 | 02:14:41 | 00:00:00 | |
| DM0DOS-11 | 2026-09-01 00:51:02 | 46.86962 | 7.80612 | 78° | 16km/h | 30932m | -31.4m/s | -41.5°C | 2.3% | 0hPa | 2.6V | 08:30:00 | 02:14:41 | 00:00:00 | |
| BIOWL1-15 | 2026-09-01 00:50:52 | 46.86964 | 7.80581 | 90° | 16km/h | 31123m | -33.8m/s | -40.2°C | 0% | 0hPa | 2.6V | 18:12:15 | 02:14:35 | 00:00:00 | |
| DM0DOS-11 | 2026-09-01 00:50:51 | 46.86962 | 7.80555 | 79° | 16km/h | 31282m | -43.4m/s | -39.1°C | 2% | 0hPa | 2.6V | 08:30:00 | 02:14:31 | 00:00:00 | |
| DL1ZP-14 | 2026-09-01 00:50:48 | 46.86961 | 7.80550 | 76° | 13km/h | 31326m | -45.1m/s | -39.0°C | 0.3% | -1.0hPa | 2.6V | 00:00:00 | 00:00:00 | 00:00:00 | |
| DF7PN | 2026-09-01 00:50:46 | 46.86960 | 7.80543 | 68° | 7km/h | 31414m | -42.3m/s | -39.0°C | 0.2% | -1.0hPa | 2.6V | 00:00:00 | 00:00:00 | 00:00:00 | |
| DH7VM-15 | 2026-09-01 00:50:44 | 46.86960 | 7.80542 | 69° | 9km/h | 31414m | -42.3m/s | -39.0°C | 0.2% | 0hPa | 2.6V | 00:00:00 | 00:00:00 | 00:00:00 | |
| IW2NTF | 2026-09-01 00:50:43 | 46.86954 | 7.80532 | 38° | 7km/h | 31699m | -35.4m/s | -38.4°C | 1.9% | 0hPa | 2.6V | 08:30:00 | 02:14:21 | 00:00:00 | |
| BIOWL1-15 | 2026-09-01 00:50:42 | 46.86953 | 7.80530 | 37° | 11km/h | 31735m | -37m/s | -38.4°C | 0% | 0hPa | 2.6V | 18:12:15 | 02:14:20 | 00:00:00 | |
| DM0DOS-11 | 2026-09-01 00:50:41 | 46.86953 | 7.80530 | 36° | 11km/h | 31735m | -37m/s | -38.4°C | 1.9% | 0hPa | 2.6V | 08:30:00 | 02:14:20 | 00:00:00 | |
| DB0ND-19 | 2026-09-01 00:50:36 | 46.86950 | 7.80528 | 26° | 15km/h | 31771m | -36.4m/s | -38.4°C | 0.2% | -1.0hPa | 2.6V | 00:00:00 | 00:00:00 | 00:00:00 | |
| BIOWL9-15 | 2026-09-01 00:50:35 | 46.86936 | 7.80509 | 52° | 16km/h | 31914m | -34.1m/s | -38.3°C | 0.2% | -1.0hPa | 2.6V | 00:00:00 | 00:00:00 | 00:00:00 | |
| IW2NTF | 2026-09-01 00:50:33 | 46.86932 | 7.80491 | 103° | 9km/h | 32048m | -33m/s | -38.5°C | 2% | 0hPa | 2.6V | 08:30:00 | 02:14:11 | 00:00:00 | |
| DM0DOS-11 | 2026-09-01 00:50:31 | 46.86933 | 7.80484 | 107° | 9km/h | 32116m | -35.7m/s | -38.5°C | 2% | 0hPa | 2.6V | 08:30:00 | 02:14:09 | 00:00:00 | |
| BIOWL1-15 | 2026-09-01 00:50:29 | 46.86906 | 7.80479 | 338° | 20km/h | 32473m | -42.2m/s | -37.1°C | 0% | 0hPa | 2.6V | 18:12:15 | 02:14:00 | 00:00:00 | |
| BIOWL1-15 | 2026-09-01 00:50:25 | 46.86901 | 7.80481 | 338° | 18km/h | 32515m | -41.8m/s | -37°C | 0% | 0hPa | 2.6V | 18:12:15 | 02:13:59 | 00:00:00 | |
| IW2NTF | 2026-09-01 00:50:22 | 46.86911 | 7.80477 | 352° | 22km/h | 32431m | -41.9m/s | -37.2°C | 1.8% | 0hPa | 2.6V | 08:30:00 | 02:14:01 | 00:00:00 | |
| DM0DOS-11 | 2026-09-01 00:50:17 | 46.86901 | 7.80481 | 338° | 18km/h | 32515m | -41.8m/s | -37°C | 1.8% | 0hPa | 2.6V | 08:30:00 | 02:13:59 | 00:00:00 | |
| LOEBOVI | 2026-09-01 00:50:17 | 46.86906 | 7.80479 | 339° | 20km/h | 32473m | -42.2m/s | 0°C | 0% | 0hPa | 2.6V | 00:00:00 | 00:00:00 | 00:00:00 | |
| DL8DAS-14 | 2026-09-01 00:50:16 | 46.86897 | 7.80484 | 329° | 18km/h | 32557m | -42.0m/s | -36.8°C | 0.2% | -1.0hPa | 2.6V | 00:00:00 | 00:00:00 | 00:00:00 | |
| HASLITAL | 2026-09-01 00:50:14 | 46.86897 | 7.80484 | 331° | 18km/h | 32557m | -42.0m/s | -36.8°C | 0.3% | 0hPa | 2.6V | 00:00:00 | 00:00:00 | 00:00:00 | |
| DM0DOS-11 | 2026-09-01 00:50:12 | 46.86884 | 7.80457 | 103° | 22km/h | 32938m | -40.7m/s | -35.9°C | 1.6% | 0hPa | 2.6V | 08:30:00 | 02:13:49 | 00:00:00 | |
| BIOWL1-15 | 2026-09-01 00:50:06 | 46.86884 | 7.80457 | 104° | 22km/h | 32938m | -40.7m/s | -35.9°C | 0% | 0hPa | 2.6V | 18:12:15 | 02:13:49 | 00:00:00 | |
| DB0ND-19 | 2026-09-01 00:50:05 | 46.86888 | 7.80445 | 127° | 15km/h | 33019m | -40.4m/s | -36.2°C | 0.2% | -1.0hPa | 2.7V | 00:00:00 | 00:00:00 | 00:00:00 | |
| BIOWL9-15 | 2026-09-01 00:50:04 | 46.86888 | 7.80445 | 127° | 15km/h | 33019m | -40.4m/s | -36.2°C | 0.2% | -1.0hPa | 2.7V | 00:00:00 | 00:00:00 | 00:00:00 | |
| IW2NTF | 2026-09-01 00:50:03 | 46.86892 | 7.80443 | 3° | 11km/h | 33266m | -46.6m/s | -35.9°C | 1.6% | 0hPa | 2.7V | 08:30:00 | 02:13:41 | 00:00:00 | |
| DB0UT-7 | 2026-09-01 00:49:59 | 46.86894 | 7.80442 | 324° | 20km/h | 33221m | -45.4m/s | -36.0°C | 1.6% | 0hPa | 2.6V | 00:00:00 | 00:00:00 | 00:00:00 | |
| DM0DOS-11 | 2026-09-01 00:49:57 | 46.86887 | 7.80437 | 67° | 20km/h | 33365m | -50.9m/s | -35.5°C | 1.5% | 0hPa | 2.6V | 08:30:00 | 02:13:39 | 00:00:00 | |
| BIOWL1-15 | 2026-09-01 00:49:56 | 46.86887 | 7.80398 | 93° | 27km/h | 33562m | -50.6m/s | -35.7°C | 0% | 0hPa | 2.6V | 18:12:15 | 02:13:35 | 00:00:00 | |
| IW2NTF | 2026-09-01 00:49:53 | 46.86879 | 7.80377 | 355° | 16km/h | 33756m | -43.9m/s | -36.7°C | 1.7% | 0hPa | 2.6V | 08:30:00 | 02:13:31 | 00:00:00 | |
| HASLITAL | 2026-09-01 00:49:53 | 46.86885 | 7.80419 | 93° | 29km/h | 33464m | -47.4m/s | -35.6°C | 0.2% | 0hPa | 2.7V | 00:00:00 | 00:00:00 | 00:00:00 | |
| DM0DOS-11 | 2026-09-01 00:49:47 | 46.86870 | 7.80381 | 328° | 26km/h | 33840m | -40.8m/s | -37.1°C | 1.8% | 0hPa | 2.7V | 08:30:00 | 02:13:29 | 00:00:00 | |
| DL1ZP-14 | 2026-09-01 00:49:46 | 46.86866 | 7.80386 | 329° | 18km/h | 33884m | -46.0m/s | -37.1°C | 0.2% | -1.0hPa | 2.6V | 00:00:00 | 00:00:00 | 00:00:00 | |
| BIOWL1-15 | 2026-09-01 00:49:46 | 46.86858 | 7.80360 | 98° | 31km/h | 34152m | -40.3m/s | -36.2°C | 0% | 0hPa | 2.6V | 18:12:15 | 02:13:22 | 00:00:00 | |
| IW2NTF | 2026-09-01 00:49:43 | 46.86859 | 7.80349 | 96° | 27km/h | 34193m | -41.2m/s | -36.3°C | 1.7% | 0hPa | 2.6V | 08:30:00 | 02:13:21 | 00:00:00 | |
| DM0DOS-11 | 2026-09-01 00:49:41 | 46.86859 | 7.80334 | 78° | 15km/h | 34271m | -36.8m/s | -36.4°C | 1.8% | 0hPa | 2.7V | 08:30:00 | 02:13:19 | 00:00:00 | |
| BIOWL1-15 | 2026-09-01 00:49:34 | 46.86855 | 7.80330 | 336° | 13km/h | 34340m | -32.6m/s | -36.3°C | 0% | 0hPa | 2.6V | 18:12:15 | 02:13:17 | 00:00:00 | |
| IW2NTF | 2026-09-01 00:49:33 | 46.86841 | 7.80361 | 144° | 7km/h | 34555m | -34.6m/s | -35.7°C | 1.6% | 0hPa | 2.6V | 08:30:00 | 02:13:11 | 00:00:00 | |
| BIOWL9-15 | 2026-09-01 00:49:33 | 46.86852 | 7.80334 | 313° | 22km/h | 34373m | -33.1m/s | -36.2°C | 0.2% | -1.0hPa | 2.7V | 00:00:00 | 00:00:00 | 00:00:00 | |
| HASLITAL | 2026-09-01 00:49:32 | 46.86852 | 7.80334 | 314° | 22km/h | 34374m | -33.1m/s | -36.2°C | 0.2% | 0hPa | 2.7V | 00:00:00 | 00:00:00 | 00:00:00 | |
| BIOWL1-15 | 2026-09-01 00:49:24 | 46.86817 | 7.80332 | 12° | 13km/h | 34862m | 5.9m/s | -36°C | 0% | 0hPa | 2.7V | 18:12:15 | 02:12:58 | 00:00:00 | |
| IW2NTF | 2026-09-01 00:49:23 | 46.86838 | 7.80322 | 339° | 31km/h | 34872m | -8.5m/s | -36°C | 1.7% | 0hPa | 2.6V | 08:30:00 | 02:13:01 | 00:00:00 | |
| DK5PH-5 | 2026-09-01 00:49:18 | 46.86830 | 7.80326 | 340° | 27km/h | 34876m | 0.9m/s | -35.9°C | 1.6% | 0hPa | 2.7V | 00:00:00 | 02:13:00 | 00:00:00 | |
| DM0DOS-11 | 2026-09-01 00:49:14 | 46.86817 | 7.80324 | 121° | 22km/h | 34848m | 7.1m/s | -36°C | 1.6% | 0hPa | 2.7V | 08:30:00 | 02:12:56 | 00:00:00 | |
| BIOWL1-15 | 2026-09-01 00:49:10 | 46.86821 | 7.80289 | 352° | 27km/h | 34819m | 6.9m/s | -36°C | 0% | 0hPa | 2.6V | 18:12:15 | 02:12:50 | 00:00:00 | |
| DM0DOS-11 | 2026-09-01 00:49:08 | 46.86790 | 7.80314 | 316° | 27km/h | 34799m | 4.3m/s | -36°C | 1.6% | 0hPa | 2.7V | 08:30:00 | 02:12:46 | 00:00:00 | |
| IW2NTF | 2026-09-01 00:49:03 | 46.86793 | 7.80309 | 107° | 27km/h | 34771m | 3.6m/s | -36.1°C | 1.7% | 0hPa | 2.7V | 08:30:00 | 02:12:41 | 00:00:00 | |
| DB0ND-19 | 2026-09-01 00:49:03 | 46.86786 | 7.80319 | 302° | 15km/h | 34795m | 5.6m/s | -36.1°C | 0.2% | -1.0hPa | 2.7V | 00:00:00 | 00:00:00 | 00:00:00 | |
| BIOWL9-15 | 2026-09-01 00:49:02 | 46.86786 | 7.80319 | 302° | 15km/h | 34795m | 5.6m/s | -36.1°C | 0.2% | -1.0hPa | 2.7V | 00:00:00 | 00:00:00 | 00:00:00 | |
| DB0UT-7 | 2026-09-01 00:48:59 | 46.86790 | 7.80317 | 128° | 26km/h | 34776m | 5.1m/s | -36.1°C | 1.7% | 0hPa | 2.7V | 00:00:00 | 00:00:00 | 00:00:00 | |
| DM0DOS-11 | 2026-09-01 00:48:58 | 46.86765 | 7.80275 | 355° | 49km/h | 34747m | 5.4m/s | -36.1°C | 1.6% | 0hPa | 2.7V | 08:30:00 | 02:12:36 | 00:00:00 | |
| BIOWL1-15 | 2026-09-01 00:48:57 | 46.86752 | 7.80278 | 341° | 49km/h | 34742m | 3.8m/s | -36.2°C | 0% | 0hPa | 2.6V | 18:12:15 | 02:12:35 | 00:00:00 | |
| IW2NTF | 2026-09-01 00:48:53 | 46.86730 | 7.80312 | 250° | 20km/h | 34723m | 6.6m/s | -36.2°C | 1.6% | 0hPa | 2.7V | 08:30:00 | 02:12:31 | 00:00:00 | |
| HASLITAL | 2026-09-01 00:48:50 | 46.86742 | 7.80286 | 328° | 44km/h | 34739m | 3.1m/s | -36.2°C | 0.3% | 0hPa | 2.7V | 00:00:00 | 00:00:00 | 00:00:00 | |
| IN3HCDX | 2026-09-01 00:48:49 | 46.86734 | 7.80295 | 313° | 35km/h | 34735m | 4.4m/s | 0°C | 0% | 0hPa | 2.7V | 00:00:00 | 00:00:00 | 00:00:00 | |
| DM0DOS-11 | 2026-09-01 00:48:48 | 46.86744 | 7.80312 | 43° | 13km/h | 34698m | 5.2m/s | -36.2°C | 1.6% | 0hPa | 2.7V | 08:30:00 | 02:12:26 | 00:00:00 | |
| DK5PH-5 | 2026-09-01 00:48:47 | 46.86733 | 7.80317 | 210° | 18km/h | 34718m | 6.0m/s | -36.1°C | 1.6% | 0hPa | 2.6V | 00:00:00 | 02:12:30 | 00:00:00 | |
| IW2NTF | 2026-09-01 00:48:43 | 46.86699 | 7.80324 | 321° | 31km/h | 34665m | 4.4m/s | -36.4°C | 1.7% | 0hPa | 2.6V | 08:30:00 | 02:12:20 | 00:00:00 | |
| BIOWL1-15 | 2026-09-01 00:48:41 | 46.86733 | 7.80308 | 0° | 31km/h | 34687m | 6.1m/s | -36.3°C | 0% | 0hPa | 2.6V | 18:12:15 | 02:12:24 | 00:00:00 | |
| DM0DOS-11 | 2026-09-01 00:48:35 | 46.86690 | 7.80349 | 263° | 9km/h | 34645m | 6.3m/s | -36.5°C | 1.7% | 0hPa | 2.7V | 08:30:00 | 02:12:16 | 00:00:00 | |
| IW2NTF | 2026-09-01 00:48:33 | 46.86692 | 7.80357 | 269° | 9km/h | 34614m | 5.6m/s | -36.7°C | 1.7% | 0hPa | 2.7V | 08:30:00 | 02:12:10 | 00:00:00 | |
| BIOWL1-15 | 2026-09-01 00:48:30 | 46.86692 | 7.80353 | 179° | 2km/h | 34628m | 4.7m/s | -36.6°C | 0% | 0hPa | 2.6V | 18:12:15 | 02:12:13 | 00:00:00 | |
| IN3HCDX | 2026-09-01 00:48:29 | 46.86692 | 7.80353 | 0° | 0km/h | 34624m | 4.5m/s | 0°C | 0% | 0hPa | 2.6V | 00:00:00 | 00:00:00 | 00:00:00 | |
| DM0DOS-11 | 2026-09-01 00:48:25 | 46.86686 | 7.80385 | 303° | 29km/h | 34594m | 4.5m/s | -36.9°C | 1.7% | 0hPa | 2.6V | 08:30:00 | 02:12:06 | 00:00:00 | |
| IW2NTF | 2026-09-01 00:48:22 | 46.86662 | 7.80402 | 121° | 9km/h | 34565m | 5.7m/s | -36.9°C | 1.7% | 0hPa | 2.7V | 08:30:00 | 02:12:00 | 00:00:00 | |
| DO3MHA-11 | 2026-09-01 00:48:21 | 46.86675 | 7.80400 | 329° | 24km/h | 34584m | 5.4m/s | -36.9°C | 1.7% | 0hPa | 2.6V | 00:00:00 | 02:12:04 | 00:00:00 | |
| DM0DOS-11 | 2026-09-01 00:48:20 | 46.86685 | 7.80393 | 177° | 29km/h | 34541m | 2.7m/s | -37°C | 1.7% | 0hPa | 2.6V | 08:30:00 | 02:11:56 | 00:00:00 | |
| BIOWL1-15 | 2026-09-01 00:48:20 | 46.86670 | 7.80404 | 343° | 24km/h | 34578m | 4.9m/s | -36.9°C | 0% | 0hPa | 2.6V | 18:12:15 | 02:12:03 | 00:00:00 | |
| DK5PH-5 | 2026-09-01 00:48:17 | 46.86661 | 7.80402 | 122° | 20km/h | 34566m | 5.7m/s | -36.9°C | 1.7% | 0hPa | 2.7V | 00:00:00 | 02:12:00 | 00:00:00 | |
| IW2NTF | 2026-09-01 00:48:12 | 46.86676 | 7.80391 | 8° | 31km/h | 34509m | 3.6m/s | -37.1°C | 1.7% | 0hPa | 2.7V | 08:30:00 | 02:11:50 | 00:00:00 | |
| BIOWL1-15 | 2026-09-01 00:48:10 | 46.86665 | 7.80385 | 173° | 15km/h | 34490m | 7m/s | -37.2°C | 0% | 0hPa | 2.6V | 18:12:15 | 02:11:46 | 00:00:00 | |
| HASLITAL | 2026-09-01 00:48:09 | 46.86694 | 7.80393 | 360° | 7km/h | 34528m | 7.5m/s | -37.0°C | 0.3% | 0hPa | 2.6V | 00:00:00 | 00:00:00 | 00:00:00 | |
| DM0DOS-11 | 2026-09-01 00:48:08 | 46.86665 | 7.80385 | 172° | 15km/h | 34490m | 7m/s | -37.2°C | 1.7% | 0hPa | 2.6V | 08:30:00 | 02:11:46 | 00:00:00 | |
| IW2NTF | 2026-09-01 00:48:02 | 46.86690 | 7.80367 | 61° | 22km/h | 34459m | 6.9m/s | -37.2°C | 1.7% | 0hPa | 2.7V | 08:30:00 | 02:11:40 | 00:00:00 | |
| BIOWL1-15 | 2026-09-01 00:47:55 | 46.86680 | 7.80352 | 36° | 35km/h | 34447m | 5m/s | -37.3°C | 0% | 0hPa | 2.6V | 18:12:15 | 02:11:38 | 00:00:00 | |
| IW2NTF | 2026-09-01 00:47:52 | 46.86672 | 7.80320 | 136° | 15km/h | 34403m | 5.4m/s | -37.4°C | 1.7% | 0hPa | 2.7V | 08:30:00 | 02:11:30 | 00:00:00 | |
| DO3MHA-11 | 2026-09-01 00:47:51 | 46.86661 | 7.80331 | 86° | 16km/h | 34427m | 6.0m/s | -37.3°C | 1.8% | 0hPa | 2.6V | 00:00:00 | 02:11:34 | 00:00:00 | |
| HASLITAL | 2026-09-01 00:47:48 | 46.86664 | 7.80326 | 158° | 15km/h | 34415m | 5.8m/s | -37.4°C | 0.3% | 0hPa | 2.6V | 00:00:00 | 00:00:00 | 00:00:00 | |
| DM0DOS-11 | 2026-09-01 00:47:47 | 46.86670 | 7.80298 | 49° | 22km/h | 34382m | 5.1m/s | -37.5°C | 1.8% | 0hPa | 2.6V | 08:30:00 | 02:11:26 | 00:00:00 | |
| BIOWL1-15 | 2026-09-01 00:47:45 | 46.86654 | 7.80278 | 43° | 7km/h | 34349m | 4.9m/s | -37.5°C | 0% | 0hPa | 2.7V | 18:12:15 | 02:11:20 | 00:00:00 | |
| IW2NTF | 2026-09-01 00:47:42 | 46.86654 | 7.80278 | 42° | 7km/h | 34349m | 4.9m/s | -37.5°C | 1.8% | 0hPa | 2.7V | 08:30:00 | 02:11:20 | 00:00:00 | |
| DL8DAS-14 | 2026-09-01 00:47:41 | 46.86659 | 7.80284 | 37° | 13km/h | 34365m | 6.0m/s | -37.5°C | 0.2% | -1.0hPa | 2.6V | 00:00:00 | 00:00:00 | 00:00:00 | |
| DF7PN | 2026-09-01 00:47:40 | 46.86657 | 7.80282 | 38° | 7km/h | 34359m | 5.7m/s | -37.5°C | 0.2% | -1.0hPa | 2.6V | 00:00:00 | 00:00:00 | 00:00:00 | |
| DM0DOS-11 | 2026-09-01 00:47:35 | 46.86643 | 7.80263 | 44° | 22km/h | 34325m | 5.5m/s | -37.5°C | 1.8% | 0hPa | 2.6V | 08:30:00 | 02:11:16 | 00:00:00 | |
| BIOWL1-15 | 2026-09-01 00:47:35 | 46.86643 | 7.80263 | 45° | 22km/h | 34325m | 5.5m/s | -37.5°C | 0% | 0hPa | 2.6V | 18:12:15 | 02:11:16 | 00:00:00 | |
| BIOWL1-15 | 2026-09-01 00:47:25 | 46.86616 | 7.80229 | 33° | 27km/h | 34267m | 5.3m/s | -37.3°C | 0% | 0hPa | 2.6V | 18:12:15 | 02:11:06 | 00:00:00 | |
| DM0DOS-11 | 2026-09-01 00:47:23 | 46.86611 | 7.80224 | 32° | 26km/h | 34263m | 4.5m/s | -37.3°C | 1.7% | 0hPa | 2.7V | 08:30:00 | 02:11:05 | 00:00:00 | |
| IW2NTF | 2026-09-01 00:47:22 | 46.86600 | 7.80218 | 267° | 4km/h | 34233m | 5.4m/s | -37.4°C | 1.7% | 0hPa | 2.7V | 08:30:00 | 02:11:00 | 00:00:00 | |
| DO3MHA-11 | 2026-09-01 00:47:20 | 46.86603 | 7.80217 | 28° | 11km/h | 34253m | 6.6m/s | -37.3°C | 1.7% | 0hPa | 2.7V | 00:00:00 | 02:11:03 | 00:00:00 | |
| DM0DOS-11 | 2026-09-01 00:47:18 | 46.86586 | 7.80218 | 8° | 22km/h | 34204m | 5.3m/s | -37.5°C | 1.7% | 0hPa | 2.7V | 08:30:00 | 02:10:55 | 00:00:00 | |
| BIOWL1-15 | 2026-09-01 00:47:13 | 46.86581 | 7.80217 | 4° | 20km/h | 34198m | 6.1m/s | -37.6°C | 0% | 0hPa | 2.7V | 18:12:15 | 02:10:54 | 00:00:00 | |
| IW2NTF | 2026-09-01 00:47:12 | 46.86565 | 7.80220 | 348° | 13km/h | 34174m | 5.4m/s | -37.9°C | 1.8% | 0hPa | 2.7V | 08:30:00 | 02:10:50 | 00:00:00 | |
| DL8DAS-14 | 2026-09-01 00:47:10 | 46.86572 | 7.80217 | 347° | 15km/h | 34185m | 6.1m/s | -37.7°C | 0.2% | -1.0hPa | 2.7V | 00:00:00 | 00:00:00 | 00:00:00 | |
| DF7PN | 2026-09-01 00:47:09 | 46.86568 | 7.80219 | 344° | 13km/h | 34180m | 5.4m/s | -37.8°C | 0.2% | -1.0hPa | 2.7V | 00:00:00 | 00:00:00 | 00:00:00 | |
| HASLITAL | 2026-09-01 00:47:06 | 46.86564 | 7.80220 | 349° | 13km/h | 34174m | 5.4m/s | -37.9°C | 0.3% | 0hPa | 2.7V | 00:00:00 | 00:00:00 | 00:00:00 | |
| DM0DOS-11 | 2026-09-01 00:47:05 | 46.86551 | 7.80217 | 12° | 5km/h | 34144m | 5.9m/s | -38°C | 1.8% | 0hPa | 2.7V | 08:30:00 | 02:10:45 | 00:00:00 | |
| IW2NTF | 2026-09-01 00:47:02 | 46.86546 | 7.80225 | 343° | 13km/h | 34115m | 5.7m/s | -38.3°C | 1.8% | 0hPa | 2.7V | 08:30:00 | 02:10:40 | 00:00:00 | |
| BIOWL1-15 | 2026-09-01 00:47:01 | 46.86549 | 7.80223 | 315° | 9km/h | 34120m | 4.6m/s | -38.2°C | 0% | 0hPa | 2.6V | 18:12:15 | 02:10:41 | 00:00:00 | |
| BIOWL9-15 | 2026-09-01 00:46:58 | 46.86546 | 7.80225 | 343° | 13km/h | 34115m | 5.7m/s | -38.3°C | 0.2% | -1.0hPa | 2.7V | 00:00:00 | 00:00:00 | 00:00:00 | |
| IW2NTF | 2026-09-01 00:46:52 | 46.86519 | 7.80230 | 191° | 13km/h | 34056m | 3.8m/s | -38.4°C | 1.9% | 0hPa | 2.7V | 08:30:00 | 02:10:30 | 00:00:00 | |
| BIOWL1-15 | 2026-09-01 00:46:49 | 46.86516 | 7.80228 | 204° | 15km/h | 34060m | 4.6m/s | -38.4°C | 0% | 0hPa | 2.6V | 18:12:15 | 02:10:31 | 00:00:00 | |
| DK5PH-5 | 2026-09-01 00:46:47 | 46.86519 | 7.80230 | 192° | 20km/h | 34056m | 3.7m/s | -38.4°C | 1.9% | 0hPa | 2.7V | 00:00:00 | 02:10:30 | 00:00:00 | |
| HASLITAL | 2026-09-01 00:46:45 | 46.86521 | 7.80230 | 163° | 7km/h | 34052m | 4.7m/s | -38.4°C | 0.3% | 0hPa | 2.7V | 00:00:00 | 00:00:00 | 00:00:00 | |
| DM0DOS-11 | 2026-09-01 00:46:43 | 46.86508 | 7.80217 | 16° | 33km/h | 34025m | 6.2m/s | -38.3°C | 1.9% | 0hPa | 2.7V | 08:30:00 | 02:10:25 | 00:00:00 | |
| IW2NTF | 2026-09-01 00:46:42 | 46.86483 | 7.80226 | 252° | 18km/h | 33996m | 6.5m/s | -38.3°C | 1.9% | 0hPa | 2.7V | 08:30:00 | 02:10:20 | 00:00:00 | |
| BIOWL1-15 | 2026-09-01 00:46:37 | 46.86485 | 7.80232 | 225° | 22km/h | 33990m | 6m/s | -38.3°C | 0% | 0hPa | 2.7V | 18:12:15 | 02:10:19 | 00:00:00 | |
| DM0DOS-11 | 2026-09-01 00:46:37 | 46.86507 | 7.80220 | 108° | 29km/h | 33960m | 6.5m/s | -38.3°C | 1.9% | 0hPa | 2.7V | 08:30:00 | 02:10:14 | 00:00:00 | |
| DO3MHA-12 | 2026-09-01 00:46:36 | 46.86485 | 7.80232 | 225° | 18km/h | 33991m | 5.9m/s | -38.2°C | 1.9% | 0hPa | 2.7V | 00:00:00 | 02:10:19 | 00:00:00 | |
| IW2NTF | 2026-09-01 00:46:32 | 46.86507 | 7.80178 | 68° | 24km/h | 33934m | 5.8m/s | -38.2°C | 1.9% | 0hPa | 2.7V | 08:30:00 | 02:10:10 | 00:00:00 | |
| BIOWL1-15 | 2026-09-01 00:46:27 | 46.86489 | 7.80157 | 23° | 13km/h | 33904m | 5.5m/s | -38°C | 0% | 0hPa | 2.7V | 18:12:15 | 02:10:05 | 00:00:00 | |
| BIOWL9-15 | 2026-09-01 00:46:27 | 46.86504 | 7.80170 | 53° | 20km/h | 33929m | 5.8m/s | -38.2°C | 0.3% | -1.0hPa | 2.7V | 00:00:00 | 00:00:00 | 00:00:00 | |
| HASLITAL | 2026-09-01 00:46:25 | 46.86504 | 7.80170 | 55° | 22km/h | 33929m | 5.8m/s | -38.2°C | 0.3% | 0hPa | 2.7V | 00:00:00 | 00:00:00 | 00:00:00 | |
| DM0DOS-11 | 2026-09-01 00:46:23 | 46.86489 | 7.80157 | 22° | 13km/h | 33904m | 5.5m/s | -38°C | 1.9% | 0hPa | 2.7V | 08:30:00 | 02:10:05 | 00:00:00 | |
| IW2NTF | 2026-09-01 00:46:22 | 46.86498 | 7.80143 | 153° | 27km/h | 33873m | 6.7m/s | -37.8°C | 1.9% | 0hPa | 2.7V | 08:30:00 | 02:10:00 | 00:00:00 | |
| DO3MHA-11 | 2026-09-01 00:46:20 | 46.86486 | 7.80153 | 121° | 29km/h | 33893m | 5.2m/s | -37.9°C | 1.9% | 0hPa | 2.7V | 00:00:00 | 02:10:03 | 00:00:00 | |
| DH7VM-15 | 2026-09-01 00:46:19 | 46.86486 | 7.80153 | 121° | 7km/h | 33893m | 5.3m/s | -37.9°C | 0.3% | 0hPa | 2.7V | 00:00:00 | 00:00:00 | 00:00:00 | |
| DM0DOS-11 | 2026-09-01 00:46:17 | 46.86510 | 7.80076 | 61° | 44km/h | 33837m | 5.6m/s | -37.5°C | 1.8% | 0hPa | 2.7V | 08:30:00 | 02:09:54 | 00:00:00 | |
| BIOWL1-15 | 2026-09-01 00:46:13 | 46.86493 | 7.80052 | 14° | 20km/h | 33822m | 6.8m/s | -37.5°C | 0% | 0hPa | 2.6V | 18:12:15 | 02:09:51 | 00:00:00 | |
| IW2NTF | 2026-09-01 00:46:13 | 46.86489 | 7.80052 | 323° | 11km/h | 33815m | 7.7m/s | -37.4°C | 1.8% | 0hPa | 2.7V | 08:30:00 | 02:09:50 | 00:00:00 | |
| DO3MHA-11 | 2026-09-01 00:46:10 | 46.86504 | 7.80064 | 49° | 26km/h | 33832m | 3.9m/s | -37.5°C | 1.8% | 0hPa | 2.6V | 00:00:00 | 02:09:53 | 00:00:00 | |
| OE5DXL-15 | 2026-09-01 00:46:09 | 46.86498 | 7.80055 | 34° | 22km/h | 33828m | 4.5m/s | -37.4°C | 1.8% | 0hPa | 2.6V | 00:00:00 | 00:00:00 | 00:00:00 | |
| DL1ZP-14 | 2026-09-01 00:46:08 | 46.86493 | 7.80052 | 14° | 18km/h | 33822m | 6.8m/s | -37.5°C | 0.2% | -1.0hPa | 2.6V | 00:00:00 | 00:00:00 | 00:00:00 | |
| DL8DAS-14 | 2026-09-01 00:46:07 | 46.86489 | 7.80052 | 323° | 9km/h | 33815m | 7.7m/s | -37.4°C | 0.2% | -1.0hPa | 2.7V | 00:00:00 | 00:00:00 | 00:00:00 | |
| DM0DOS-11 | 2026-09-01 00:46:06 | 46.86514 | 7.80041 | 107° | 42km/h | 33779m | 7m/s | -37.2°C | 1.8% | 0hPa | 2.7V | 08:30:00 | 02:09:44 | 00:00:00 | |
| HASLITAL | 2026-09-01 00:46:04 | 46.86492 | 7.80060 | 212° | 20km/h | 33802m | 5.0m/s | -37.3°C | 0.3% | 0hPa | 2.7V | 00:00:00 | 00:00:00 | 00:00:00 | |
| IW2NTF | 2026-09-01 00:46:03 | 46.86505 | 7.79976 | 55° | 38km/h | 33755m | 5.2m/s | -37.1°C | 1.8% | 0hPa | 2.7V | 08:30:00 | 02:09:40 | 00:00:00 | |
| BIOWL1-15 | 2026-09-01 00:46:01 | 46.86514 | 7.80007 | 78° | 49km/h | 33766m | 6.1m/s | -37.1°C | 0% | 0hPa | 2.6V | 18:12:15 | 02:09:42 | 00:00:00 | |
| BIOWL9-15 | 2026-09-01 00:45:56 | 46.86496 | 7.79962 | 36° | 13km/h | 33744m | 6.2m/s | -37.1°C | 0.2% | -1.0hPa | 2.7V | 00:00:00 | 00:00:00 | 00:00:00 | |
| IW2NTF | 2026-09-01 00:45:52 | 46.86513 | 7.79924 | 84° | 31km/h | 33693m | 6.2m/s | -36.8°C | 1.7% | 0hPa | 2.7V | 08:30:00 | 02:09:30 | 00:00:00 | |
| BIOWL1-15 | 2026-09-01 00:45:49 | 46.86513 | 7.79924 | 84° | 31km/h | 33693m | 6.2m/s | -36.8°C | 0% | 0hPa | 2.7V | 18:12:15 | 02:09:30 | 00:00:00 | |
| DK5PH-5 | 2026-09-01 00:45:47 | 46.86513 | 7.79924 | 85° | 26km/h | 33694m | 6.1m/s | -36.7°C | 1.7% | 0hPa | 2.7V | 00:00:00 | 02:09:30 | 00:00:00 | |
| DO3MHA-12 | 2026-09-01 00:45:46 | 46.86511 | 7.79913 | 71° | 22km/h | 33687m | 6.6m/s | -36.7°C | 1.7% | 0hPa | 2.7V | 00:00:00 | 02:09:29 | 00:00:00 | |
| DF3TZ-5 | 2026-09-01 00:45:44 | 46.86499 | 7.79887 | 49° | 22km/h | 33668m | 5.3m/s | -36.6°C | 0.2% | -1.0hPa | 2.7V | 00:00:00 | 00:00:00 | 00:00:00 | |
| IW2NTF | 2026-09-01 00:45:42 | 46.86497 | 7.79842 | 100° | 24km/h | 33632m | 5m/s | -36.4°C | 1.7% | 0hPa | 2.7V | 08:30:00 | 02:09:20 | 00:00:00 | |
| BIOWL1-15 | 2026-09-01 00:45:39 | 46.86498 | 7.79827 | 82° | 18km/h | 33621m | 6.8m/s | -36.4°C | 0% | 0hPa | 2.6V | 18:12:15 | 02:09:18 | 00:00:00 | |
| OE5DXL-15 | 2026-09-01 00:45:37 | 46.86497 | 7.79842 | 101° | 27km/h | 33633m | 5.0m/s | -36.4°C | 1.7% | 0hPa | 2.6V | 00:00:00 | 00:00:00 | 00:00:00 | |
| DL8DAS-14 | 2026-09-01 00:45:36 | 46.86498 | 7.79834 | 93° | 20km/h | 33627m | 5.7m/s | -36.4°C | -1.0% | -1.0hPa | 2.6V | 00:00:00 | 00:00:00 | 00:00:00 | |
| DM0DOS-11 | 2026-09-01 00:45:35 | 46.86488 | 7.79790 | 91° | 29km/h | 33583m | 7.3m/s | -36.3°C | 1.7% | 0hPa | 2.6V | 08:30:00 | 02:09:12 | 00:00:00 | |
| IW2NTF | 2026-09-01 00:45:33 | 46.86490 | 7.79765 | 94° | 38km/h | 33571m | 5m/s | -36.3°C | 1.7% | 0hPa | 2.7V | 08:30:00 | 02:09:10 | 00:00:00 | |
| BIOWL1-15 | 2026-09-01 00:45:26 | 46.86488 | 7.79728 | 71° | 29km/h | 33552m | 7.1m/s | -36.5°C | 0% | 0hPa | 2.6V | 18:12:15 | 02:09:07 | 00:00:00 | |
| DB0ND-19 | 2026-09-01 00:45:26 | 46.86488 | 7.79728 | 71° | 27km/h | 33553m | 7.1m/s | -36.5°C | 0.2% | -1.0hPa | 2.7V | 00:00:00 | 00:00:00 | 00:00:00 | |
| BIOWL9-15 | 2026-09-01 00:45:25 | 46.86488 | 7.79728 | 71° | 27km/h | 33553m | 7.1m/s | -36.5°C | 0.2% | -1.0hPa | 2.7V | 00:00:00 | 00:00:00 | 00:00:00 | |
| IW2NTF | 2026-09-01 00:45:22 | 46.86475 | 7.79664 | 90° | 33km/h | 33509m | 5.6m/s | -36.4°C | 1.7% | 0hPa | 2.7V | 08:30:00 | 02:09:00 | 00:00:00 | |
| BIOWL1-15 | 2026-09-01 00:45:15 | 46.86475 | 7.79546 | 121° | 20km/h | 33437m | 5.3m/s | -35.9°C | 0% | 0hPa | 2.6V | 18:12:15 | 02:08:48 | 00:00:00 | |
| DF3TZ-5 | 2026-09-01 00:45:13 | 46.86467 | 7.79612 | 67° | 26km/h | 33479m | 5.2m/s | -36.2°C | 0.2% | -1.0hPa | 2.7V | 00:00:00 | 00:00:00 | 00:00:00 | |
| IW2NTF | 2026-09-01 00:45:12 | 46.86469 | 7.79562 | 118° | 29km/h | 33448m | 5.6m/s | -36°C | 1.7% | 0hPa | 2.7V | 08:30:00 | 02:08:50 | 00:00:00 | |
| DM0DOS-11 | 2026-09-01 00:45:11 | 46.86465 | 7.79572 | 110° | 31km/h | 33454m | 6.5m/s | -36°C | 1.7% | 0hPa | 2.6V | 08:30:00 | 02:08:51 | 00:00:00 | |
| BIOWL1-15 | 2026-09-01 00:45:04 | 46.86477 | 7.79537 | 70° | 9km/h | 33424m | 7.6m/s | -35.9°C | 0% | 0hPa | 2.6V | 18:12:15 | 02:08:46 | 00:00:00 | |
| DM0DOS-11 | 2026-09-01 00:45:01 | 46.86469 | 7.79516 | 105° | 24km/h | 33396m | 7.1m/s | -35.9°C | 1.6% | 0hPa | 2.6V | 08:30:00 | 02:08:41 | 00:00:00 | |
| DO3MHA-11 | 2026-09-01 00:45:00 | 46.86470 | 7.79529 | 54° | 27km/h | 33407m | 3.9m/s | -35.8°C | 1.6% | 0hPa | 2.6V | 00:00:00 | 02:08:43 | 00:00:00 | |
| DO3MHA-12 | 2026-09-01 00:44:59 | 46.86469 | 7.79523 | 84° | 29km/h | 33402m | 5.1m/s | -35.8°C | 1.6% | 0hPa | 2.6V | 00:00:00 | 02:08:42 | 00:00:00 | |
| HASLITAL | 2026-09-01 00:44:58 | 46.86469 | 7.79523 | 85° | 18km/h | 33402m | 5.2m/s | -35.9°C | 0.3% | 0hPa | 2.7V | 00:00:00 | 00:00:00 | 00:00:00 | |
| BIOWL1-15 | 2026-09-01 00:44:55 | 46.86513 | 7.79416 | 103° | 18km/h | 33292m | 7m/s | -36.5°C | 0% | 0hPa | 2.7V | 18:12:15 | 02:08:24 | 00:00:00 | |
| BIOWL9-15 | 2026-09-01 00:44:54 | 46.86494 | 7.79459 | 119° | 29km/h | 33366m | 5.7m/s | -36.0°C | 0.2% | -1.0hPa | 2.6V | 00:00:00 | 00:00:00 | 00:00:00 | |
| DM0DOS-11 | 2026-09-01 00:44:51 | 46.86495 | 7.79438 | 40° | 2km/h | 33335m | 6.3m/s | -36.1°C | 1.7% | 0hPa | 2.6V | 08:30:00 | 02:08:31 | 00:00:00 | |
| IW2NTF | 2026-09-01 00:44:50 | 46.86501 | 7.79435 | 156° | 16km/h | 33316m | 5.6m/s | -36.3°C | 1.7% | 0hPa | 2.6V | 08:30:00 | 02:08:28 | 00:00:00 | |
| DO3MHA-11 | 2026-09-01 00:44:50 | 46.86497 | 7.79441 | 53° | 13km/h | 33348m | 6.1m/s | -36.0°C | 1.7% | 0hPa | 2.6V | 00:00:00 | 02:08:33 | 00:00:00 | |
| DO3MHA-12 | 2026-09-01 00:44:49 | 46.86496 | 7.79439 | 27° | 13km/h | 33342m | 5.7m/s | -36.0°C | 1.6% | 0hPa | 2.6V | 00:00:00 | 02:08:32 | 00:00:00 | |
| DK5PH-5 | 2026-09-01 00:44:47 | 46.86495 | 7.79438 | 158° | 16km/h | 33329m | 6.5m/s | -36.2°C | 1.7% | 0hPa | 2.6V | 00:00:00 | 02:08:30 | 00:00:00 | |
| DF3TZ-5 | 2026-09-01 00:44:42 | 46.86513 | 7.79416 | 102° | 16km/h | 33292m | 7.0m/s | -36.5°C | 0.2% | -1.0hPa | 2.6V | 00:00:00 | 00:00:00 | 00:00:00 | |
| DM0DOS-11 | 2026-09-01 00:44:41 | 46.86513 | 7.79397 | 89° | 16km/h | 33273m | 5.1m/s | -36.5°C | 1.7% | 0hPa | 2.6V | 08:30:00 | 02:08:21 | 00:00:00 | |
| IW2NTF | 2026-09-01 00:44:40 | 46.86519 | 7.79383 | 154° | 20km/h | 33256m | 7.1m/s | -36.5°C | 1.7% | 0hPa | 2.6V | 08:30:00 | 02:08:18 | 00:00:00 | |
| BIOWL1-15 | 2026-09-01 00:44:35 | 46.86519 | 7.79383 | 155° | 20km/h | 33256m | 7.1m/s | -36.6°C | 0% | 0hPa | 2.6V | 18:12:15 | 02:08:18 | 00:00:00 | |
| DL1ZP-14 | 2026-09-01 00:44:35 | 46.86519 | 7.79383 | 154° | 20km/h | 33256m | 7.1m/s | -36.6°C | 0.2% | -1.0hPa | 2.6V | 00:00:00 | 00:00:00 | 00:00:00 | |
| DL8DAS-14 | 2026-09-01 00:44:34 | 46.86525 | 7.79381 | 169° | 24km/h | 33249m | 6.0m/s | 0°C | -1.0% | -1.0hPa | 2.6V | 00:00:00 | 00:00:00 | 00:00:00 | |
| DF7PN | 2026-09-01 00:44:33 | 46.86531 | 7.79380 | 179° | 24km/h | 33244m | 4.9m/s | -36.5°C | 0.2% | -1.0hPa | 2.6V | 00:00:00 | 00:00:00 | 00:00:00 | |
| DM0DOS-11 | 2026-09-01 00:44:31 | 46.86539 | 7.79383 | 27° | 13km/h | 33215m | 4.7m/s | -36.4°C | 1.7% | 0hPa | 2.6V | 08:30:00 | 02:08:11 | 00:00:00 | |
| IW2NTF | 2026-09-01 00:44:31 | 46.86534 | 7.79366 | 97° | 24km/h | 33198m | 6.9m/s | -36.4°C | 1.7% | 0hPa | 2.6V | 08:30:00 | 02:08:08 | 00:00:00 | |
| BIOWL1-15 | 2026-09-01 00:44:25 | 46.86534 | 7.79366 | 98° | 24km/h | 33198m | 6.9m/s | -36.4°C | 0% | 0hPa | 2.6V | 18:12:15 | 02:08:08 | 00:00:00 | |
| DB0ND-19 | 2026-09-01 00:44:24 | 46.86540 | 7.79348 | 124° | 29km/h | 33185m | 5.4m/s | -36.4°C | 0.2% | -1.0hPa | 2.6V | 00:00:00 | 00:00:00 | 00:00:00 | |
| BIOWL9-15 | 2026-09-01 00:44:22 | 46.86544 | 7.79339 | 133° | 27km/h | 33180m | 4.5m/s | -36.4°C | 0.2% | -1.0hPa | 2.6V | 00:00:00 | 00:00:00 | 00:00:00 | |
| DM0DOS-11 | 2026-09-01 00:44:21 | 46.86555 | 7.79330 | 276° | 9km/h | 33157m | 5.9m/s | -36.5°C | 1.7% | 0hPa | 2.6V | 08:30:00 | 02:08:01 | 00:00:00 | |
| BIOWL1-15 | 2026-09-01 00:44:15 | 46.86556 | 7.79338 | 44° | 9km/h | 33098m | 5.7m/s | -36.3°C | 0% | 0hPa | 2.6V | 18:12:15 | 02:07:51 | 00:00:00 | |
| DM0DOS-11 | 2026-09-01 00:44:11 | 46.86555 | 7.79338 | 43° | 9km/h | 33098m | 5.7m/s | -36.3°C | 1.7% | 0hPa | 2.6V | 08:30:00 | 02:07:51 | 00:00:00 | |
| DF3TZ-5 | 2026-09-01 00:44:11 | 46.86557 | 7.79343 | 87° | 7km/h | 33111m | 6.6m/s | -36.3°C | 0.3% | -1.0hPa | 2.6V | 00:00:00 | 00:00:00 | 00:00:00 | |
| IW2NTF | 2026-09-01 00:44:10 | 46.86554 | 7.79334 | 169° | 7km/h | 33082m | 5.9m/s | -36.3°C | 1.7% | 0hPa | 2.6V | 08:30:00 | 02:07:48 | 00:00:00 | |
| DO3MHA-11 | 2026-09-01 00:44:10 | 46.86557 | 7.79343 | 88° | 11km/h | 33111m | 6.6m/s | -36.2°C | 1.7% | 0hPa | 2.6V | 00:00:00 | 02:07:53 | 00:00:00 | |
| DO3MHA-12 | 2026-09-01 00:44:09 | 46.86557 | 7.79340 | 61° | 9km/h | 33104m | 6.2m/s | -36.2°C | 1.7% | 0hPa | 2.6V | 00:00:00 | 02:07:52 | 00:00:00 | |
| OE5DXL-15 | 2026-09-01 00:44:08 | 46.86553 | 7.79334 | 96° | 18km/h | 33088m | 4.5m/s | -36.2°C | 1.7% | 0hPa | 2.6V | 00:00:00 | 00:00:00 | 00:00:00 | |
| DL1ZP-14 | 2026-09-01 00:44:04 | 46.86557 | 7.79334 | 176° | 13km/h | 33076m | 7.3m/s | -36.3°C | 0.2% | -1.0hPa | 2.6V | 00:00:00 | 00:00:00 | 00:00:00 | |
| DF7PN | 2026-09-01 00:44:02 | 46.86566 | 7.79333 | 175° | 18km/h | 33063m | 4.9m/s | -36.3°C | 0.2% | -1.0hPa | 2.6V | 00:00:00 | 00:00:00 | 00:00:00 | |
| DM0DOS-11 | 2026-09-01 00:44:01 | 46.86571 | 7.79328 | 26° | 15km/h | 33040m | 6.9m/s | -36.4°C | 1.7% | 0hPa | 2.6V | 08:30:00 | 02:07:41 | 00:00:00 | |
| BIOWL1-15 | 2026-09-01 00:44:01 | 46.86573 | 7.79330 | 51° | 5km/h | 33047m | 6.9m/s | -36.4°C | 0% | 0hPa | 2.6V | 18:12:15 | 02:07:42 | 00:00:00 | |
| IW2NTF | 2026-09-01 00:44:01 | 46.86557 | 7.79315 | 51° | 22km/h | 33024m | 3.9m/s | -36.3°C | 1.7% | 0hPa | 2.6V | 08:30:00 | 02:07:38 | 00:00:00 | |
| BIOWL9-15 | 2026-09-01 00:43:51 | 46.86562 | 7.79283 | 135° | 29km/h | 33000m | 5.6m/s | -36.2°C | 0.2% | -1.0hPa | 2.6V | 00:00:00 | 00:00:00 | 00:00:00 | |
| IW2NTF | 2026-09-01 00:43:50 | 46.86567 | 7.79252 | 22° | 26km/h | 32967m | 5m/s | -36.1°C | 1.7% | 0hPa | 2.6V | 08:30:00 | 02:07:28 | 00:00:00 | |
| BIOWL1-15 | 2026-09-01 00:43:49 | 46.86575 | 7.79264 | 114° | 15km/h | 32985m | 5.7m/s | -36.2°C | 0% | 0hPa | 2.6V | 18:12:15 | 02:07:31 | 00:00:00 | |
| DO3MHA-12 | 2026-09-01 00:43:49 | 46.86572 | 7.79269 | 135° | 20km/h | 32990m | 4.4m/s | -36.1°C | 1.7% | 0hPa | 2.7V | 00:00:00 | 02:07:32 | 00:00:00 | |
| DK5PH-5 | 2026-09-01 00:43:47 | 46.86575 | 7.79260 | 61° | 15km/h | 32979m | 6.3m/s | -36.1°C | 1.7% | 0hPa | 2.7V | 00:00:00 | 02:07:30 | 00:00:00 | |
| IW2NTF | 2026-09-01 00:43:40 | 46.86562 | 7.79208 | 59° | 7km/h | 32910m | 6m/s | -35.8°C | 1.6% | 0hPa | 2.6V | 08:30:00 | 02:07:18 | 00:00:00 | |
| DO3MHA-11 | 2026-09-01 00:43:40 | 46.86551 | 7.79229 | 122° | 13km/h | 32940m | 5.7m/s | -35.9°C | 1.7% | 0hPa | 2.6V | 00:00:00 | 02:07:23 | 00:00:00 | |
| DM0DOS-11 | 2026-09-01 00:43:39 | 46.86557 | 7.79219 | 136° | 18km/h | 32928m | 5.8m/s | -35.8°C | 1.6% | 0hPa | 2.6V | 08:30:00 | 02:07:21 | 00:00:00 | |
| BIOWL1-15 | 2026-09-01 00:43:37 | 46.86556 | 7.79205 | 16° | 9km/h | 32893m | 5.8m/s | -35.7°C | 0% | 0hPa | 2.7V | 18:12:15 | 02:07:15 | 00:00:00 | |
| HASLITAL | 2026-09-01 00:43:36 | 46.86560 | 7.79214 | 133° | 15km/h | 32922m | 6.1m/s | -35.8°C | 0.3% | 0hPa | 2.6V | 00:00:00 | 00:00:00 | 00:00:00 | |
| DL1ZP-14 | 2026-09-01 00:43:33 | 46.86558 | 7.79206 | 12° | 9km/h | 32899m | 5.3m/s | -35.7°C | 0.2% | -1.0hPa | 2.6V | 00:00:00 | 00:00:00 | 00:00:00 | |
| DM0DOS-11 | 2026-09-01 00:43:31 | 46.86553 | 7.79194 | 85° | 13km/h | 32871m | 5.2m/s | -35.8°C | 1.6% | 0hPa | 2.6V | 08:30:00 | 02:07:11 | 00:00:00 | |
| DF7PN | 2026-09-01 00:43:31 | 46.86554 | 7.79204 | 35° | 5km/h | 32888m | 6.1m/s | -35.7°C | 0.2% | -1.0hPa | 2.6V | 00:00:00 | 00:00:00 | 00:00:00 | |
| IW2NTF | 2026-09-01 00:43:30 | 46.86549 | 7.79179 | 49° | 16km/h | 32853m | 6m/s | -35.9°C | 1.6% | 0hPa | 2.6V | 08:30:00 | 02:07:08 | 00:00:00 | |
| BIOWL1-15 | 2026-09-01 00:43:26 | 46.86551 | 7.79184 | 64° | 15km/h | 32859m | 6.3m/s | -35.9°C | 0% | 0hPa | 2.7V | 18:12:15 | 02:07:09 | 00:00:00 | |
| DB0ND-19 | 2026-09-01 00:43:22 | 46.86545 | 7.79172 | 205° | 15km/h | 32819m | 5.8m/s | -36.2°C | 0.2% | -1.0hPa | 2.7V | 00:00:00 | 00:00:00 | 00:00:00 | |
| DM0DOS-11 | 2026-09-01 00:43:21 | 46.86551 | 7.79179 | 234° | 13km/h | 32809m | 4.8m/s | -36.2°C | 1.7% | 0hPa | 2.7V | 08:30:00 | 02:07:00 | 00:00:00 | |
| IW2NTF | 2026-09-01 00:43:20 | 46.86551 | 7.79186 | 311° | 15km/h | 32797m | 6.4m/s | -36.2°C | 1.7% | 0hPa | 2.6V | 08:30:00 | 02:06:58 | 00:00:00 | |
| BIOWL1-15 | 2026-09-01 00:43:15 | 46.86551 | 7.79186 | 312° | 15km/h | 32797m | 6.4m/s | -36.2°C | 0% | 0hPa | 2.6V | 18:12:15 | 02:06:58 | 00:00:00 | |
| IW2NTF | 2026-09-01 00:43:11 | 46.86535 | 7.79201 | 313° | 11km/h | 32742m | 6.1m/s | -36.4°C | 1.7% | 0hPa | 2.6V | 08:30:00 | 02:06:48 | 00:00:00 | |
| DM0DOS-11 | 2026-09-01 00:43:11 | 46.86535 | 7.79198 | 269° | 5km/h | 32748m | 6.1m/s | -36.4°C | 1.7% | 0hPa | 2.7V | 08:30:00 | 02:06:49 | 00:00:00 | |
| BIOWL1-15 | 2026-09-01 00:43:07 | 46.86534 | 7.79201 | 314° | 11km/h | 32742m | 6.1m/s | -36.4°C | 0% | 0hPa | 2.6V | 18:12:15 | 02:06:48 | 00:00:00 | |
| OE5DXL-15 | 2026-09-01 00:43:06 | 46.86534 | 7.79201 | 314° | 16km/h | 32743m | 6.0m/s | -36.4°C | 1.7% | 0hPa | 2.7V | 00:00:00 | 00:00:00 | 00:00:00 | |
| DL1ZP-14 | 2026-09-01 00:43:02 | 46.86523 | 7.79208 | 348° | 18km/h | 32725m | 5.0m/s | -36.5°C | 0.3% | -1.0hPa | 2.7V | 00:00:00 | 00:00:00 | 00:00:00 | |
| DM0DOS-11 | 2026-09-01 00:43:01 | 46.86502 | 7.79192 | 41° | 22km/h | 32691m | 6.5m/s | -36.6°C | 1.7% | 0hPa | 2.7V | 08:30:00 | 02:06:39 | 00:00:00 | |
| IW2NTF | 2026-09-01 00:43:00 | 46.86497 | 7.79187 | 34° | 24km/h | 32685m | 5.6m/s | -36.6°C | 1.7% | 0hPa | 2.6V | 08:30:00 | 02:06:38 | 00:00:00 | |
| DO3MHA-11 | 2026-09-01 00:43:00 | 46.86515 | 7.79208 | 18° | 18km/h | 32714m | 6.0m/s | -36.5°C | 1.7% | 0hPa | 2.6V | 00:00:00 | 02:06:43 | 00:00:00 | |
| DO3MHA-12 | 2026-09-01 00:42:59 | 46.86512 | 7.79206 | 39° | 16km/h | 32708m | 5.1m/s | -36.5°C | 1.7% | 0hPa | 2.6V | 00:00:00 | 02:06:42 | 08:30:00 | |
| BIOWL1-15 | 2026-09-01 00:42:54 | 46.86422 | 7.79151 | 13° | 24km/h | 32568m | 5.1m/s | -37.2°C | 0% | 0hPa | 2.7V | 18:12:15 | 02:06:17 | 00:00:00 | |
| HASLITAL | 2026-09-01 00:42:54 | 46.86497 | 7.79187 | 36° | 24km/h | 32686m | 5.6m/s | -36.6°C | 0.3% | 0hPa | 2.7V | 00:00:00 | 00:00:00 | 00:00:00 | |
| DM0DOS-11 | 2026-09-01 00:42:51 | 46.86438 | 7.79150 | 287° | 4km/h | 32596m | 5.1m/s | -37°C | 1.8% | 0hPa | 2.7V | 08:30:00 | 02:06:22 | 00:00:00 | |
| DB0ND-19 | 2026-09-01 00:42:51 | 46.86479 | 7.79172 | 28° | 5km/h | 32657m | 5.4m/s | -36.7°C | 0.2% | -1.0hPa | 2.7V | 00:00:00 | 00:00:00 | 00:00:00 | |
| IW2NTF | 2026-09-01 00:42:50 | 46.86438 | 7.79150 | 287° | 4km/h | 32596m | 5.1m/s | -37°C | 1.8% | 0hPa | 2.7V | 08:30:00 | 02:06:22 | 00:00:00 | |
| DO3MHA-11 | 2026-09-01 00:42:50 | 46.86479 | 7.79172 | 29° | 18km/h | 32658m | 5.3m/s | -36.7°C | 1.7% | 0hPa | 2.7V | 00:00:00 | 02:06:33 | 00:00:00 | |
| DO3MHA-12 | 2026-09-01 00:42:49 | 46.86477 | 7.79171 | 30° | 16km/h | 32653m | 4.4m/s | -36.7°C | 1.7% | 0hPa | 2.7V | 00:00:00 | 02:06:32 | 00:00:00 | |
| DK5PH-5 | 2026-09-01 00:42:48 | 46.86471 | 7.79167 | 24° | 16km/h | 32642m | 6.5m/s | -36.7°C | 1.7% | 0hPa | 2.7V | 00:00:00 | 02:06:30 | 00:00:00 | |
| DO3MHA-12 | 2026-09-01 00:42:47 | 46.86438 | 7.79150 | 288° | 16km/h | 32597m | 5.1m/s | -37.0°C | 1.8% | 0hPa | 2.7V | 00:00:00 | 02:06:22 | 00:00:00 | |
| DF3TZ-5 | 2026-09-01 00:42:46 | 46.86432 | 7.79153 | 359° | 16km/h | 32579m | 5.8m/s | -37.1°C | 0.2% | -1.0hPa | 2.7V | 00:00:00 | 00:00:00 | 00:00:00 | |
| IW2NTF | 2026-09-01 00:42:44 | 46.86416 | 7.79149 | 18° | 24km/h | 32562m | 6.2m/s | -37.2°C | 1.8% | 0hPa | 2.7V | 08:30:00 | 02:06:16 | 00:00:00 | |
| BIOWL1-15 | 2026-09-01 00:42:37 | 46.86416 | 7.79149 | 18° | 24km/h | 32562m | 6.2m/s | -37.2°C | 0% | 0hPa | 2.7V | 18:12:15 | 02:06:16 | 00:00:00 | |
| DM0DOS-11 | 2026-09-01 00:42:33 | 46.86411 | 7.79146 | 24° | 22km/h | 32556m | 6.4m/s | -37.2°C | 1.8% | 0hPa | 2.6V | 08:30:00 | 02:06:15 | 00:00:00 | |
| HASLITAL | 2026-09-01 00:42:33 | 46.86422 | 7.79151 | 14° | 24km/h | 32568m | 5.1m/s | -37.2°C | 0.3% | 0hPa | 2.6V | 00:00:00 | 00:00:00 | 00:00:00 | |
| OE5DXL-15 | 2026-09-01 00:42:32 | 46.86406 | 7.79142 | 28° | 20km/h | 32551m | 5.6m/s | -37.2°C | 1.8% | 0hPa | 2.6V | 00:00:00 | 00:00:00 | 00:00:00 | |
| DL1ZP-14 | 2026-09-01 00:42:31 | 46.86406 | 7.79143 | 27° | 18km/h | 32551m | 5.7m/s | -37.2°C | 0.3% | -1.0hPa | 2.6V | 00:00:00 | 00:00:00 | 00:00:00 | |
| DO3MHA-11 | 2026-09-01 00:42:30 | 46.86402 | 7.79140 | 25° | 16km/h | 32545m | 5.3m/s | -37.2°C | 1.8% | 0hPa | 2.6V | 00:00:00 | 02:06:13 | 08:30:00 | |
| DB0UT-7 | 2026-09-01 00:42:29 | 46.86398 | 7.79137 | 15° | 16km/h | 32540m | 5.1m/s | -37.3°C | 1.8% | 0hPa | 2.7V | 00:00:00 | 02:06:12 | 08:30:00 | |
| IW2NTF | 2026-09-01 00:42:28 | 46.86370 | 7.79145 | 315° | 11km/h | 32504m | 6.8m/s | -37.4°C | 1.8% | 0hPa | 2.7V | 08:30:00 | 02:06:06 | 00:00:00 | |
| DM0DOS-11 | 2026-09-01 00:42:27 | 46.86368 | 7.79148 | 302° | 7km/h | 32498m | 5.4m/s | -37.4°C | 1.8% | 0hPa | 2.6V | 08:30:00 | 02:06:05 | 00:00:00 | |
| BIOWL1-15 | 2026-09-01 00:42:23 | 46.86370 | 7.79145 | 315° | 11km/h | 32504m | 6.8m/s | -37.4°C | 0% | 0hPa | 2.7V | 18:12:15 | 02:06:06 | 00:00:00 | |
| DO3MHA-11 | 2026-09-01 00:42:20 | 46.86365 | 7.79152 | 339° | 15km/h | 32488m | 5.9m/s | -37.4°C | 1.8% | 0hPa | 2.7V | 00:00:00 | 02:06:03 | 00:00:00 | |
| DO3MHA-12 | 2026-09-01 00:42:19 | 46.86362 | 7.79153 | 351° | 15km/h | 32482m | 6.5m/s | -37.4°C | 1.8% | 0hPa | 2.7V | 00:00:00 | 02:06:02 | 00:00:00 | |
| BIOWL9-15 | 2026-09-01 00:42:18 | 46.86359 | 7.79154 | 355° | 16km/h | 32476m | 5.4m/s | -37.5°C | 0.3% | -1.0hPa | 2.7V | 00:00:00 | 00:00:00 | 00:00:00 | |
| DM0DOS-11 | 2026-09-01 00:42:17 | 46.86339 | 7.79163 | 299° | 13km/h | 32441m | 4.9m/s | -37.5°C | 1.8% | 0hPa | 2.7V | 08:30:00 | 02:05:55 | 00:00:00 | |
| BIOWL1-15 | 2026-09-01 00:42:12 | 46.86339 | 7.79163 | 300° | 13km/h | 32441m | 4.9m/s | -37.5°C | 0% | 0hPa | 2.7V | 18:12:15 | 02:05:55 | 00:00:00 | |
| DO3MHA-11 | 2026-09-01 00:42:10 | 46.86334 | 7.79173 | 316° | 20km/h | 32432m | 5.0m/s | -37.5°C | 1.8% | 0hPa | 2.6V | 00:00:00 | 02:05:53 | 00:00:00 | |
| DO3MHA-12 | 2026-09-01 00:42:09 | 46.86329 | 7.79178 | 325° | 18km/h | 32426m | 7.2m/s | -37.5°C | 1.8% | 0hPa | 2.6V | 00:00:00 | 02:05:52 | 00:00:00 | |
| IW2NTF | 2026-09-01 00:42:08 | 46.86297 | 7.79203 | 278° | 5km/h | 32391m | 8m/s | -37.8°C | 1.8% | 0hPa | 2.6V | 08:30:00 | 02:05:46 | 00:00:00 | |
| BIOWL1-15 | 2026-09-01 00:42:05 | 46.86300 | 7.79203 | 351° | 24km/h | 32357m | 6.9m/s | -38.1°C | 0% | 0hPa | 2.6V | 18:12:15 | 02:05:40 | 00:00:00 | |
| OE5DXL-15 | 2026-09-01 00:42:01 | 46.86301 | 7.79204 | 176° | 22km/h | 32378m | 4.8m/s | -37.9°C | 1.8% | 0hPa | 2.7V | 00:00:00 | 00:00:00 | 00:00:00 | |
| DO3MHA-11 | 2026-09-01 00:42:00 | 46.86304 | 7.79204 | 167° | 22km/h | 32374m | 3.6m/s | -37.9°C | 1.8% | 0hPa | 2.7V | 00:00:00 | 02:05:43 | 00:00:00 | |
| DB0UT-7 | 2026-09-01 00:41:59 | 46.86305 | 7.79203 | 107° | 20km/h | 32369m | 4.8m/s | -38.0°C | 1.8% | 0hPa | 2.6V | 00:00:00 | 00:00:00 | 00:00:00 | |
| IW2NTF | 2026-09-01 00:41:58 | 46.86267 | 7.79221 | 330° | 31km/h | 32333m | 5.5m/s | -38.4°C | 1.9% | 0hPa | 2.6V | 08:30:00 | 02:05:36 | 00:00:00 | |
| DF7PN | 2026-09-01 00:41:58 | 46.86300 | 7.79203 | 350° | 24km/h | 32357m | 6.9m/s | -38.1°C | 0.3% | -1.0hPa | 2.6V | 00:00:00 | 00:00:00 | 00:00:00 | |
| DM0DOS-11 | 2026-09-01 00:41:57 | 46.86261 | 7.79226 | 324° | 20km/h | 32327m | 5.4m/s | -38.4°C | 1.9% | 0hPa | 2.6V | 08:30:00 | 02:05:35 | 00:00:00 | |
| HASLITAL | 2026-09-01 00:41:53 | 46.86275 | 7.79215 | 337° | 38km/h | 32339m | 5.7m/s | -38.3°C | 0.3% | 0hPa | 2.6V | 00:00:00 | 00:00:00 | 00:00:00 | |
| DO3MHA-11 | 2026-09-01 00:41:50 | 46.86258 | 7.79230 | 151° | 13km/h | 32316m | 6.5m/s | -38.3°C | 1.9% | 0hPa | 2.6V | 00:00:00 | 02:05:33 | 00:00:00 | |
| DO3MHA-12 | 2026-09-01 00:41:49 | 46.86259 | 7.79229 | 130° | 15km/h | 32309m | 7.2m/s | -38.3°C | 1.9% | 0hPa | 2.6V | 00:00:00 | 02:05:32 | 00:00:00 | |
| IW2NTF | 2026-09-01 00:41:48 | 46.86268 | 7.79206 | 356° | 5km/h | 32273m | 5.4m/s | -38.3°C | 1.9% | 0hPa | 2.6V | 08:30:00 | 02:05:26 | 00:00:00 | |
| DM0DOS-11 | 2026-09-01 00:41:47 | 46.86265 | 7.79206 | 350° | 15km/h | 32268m | 5.6m/s | -38.3°C | 1.9% | 0hPa | 2.6V | 08:30:00 | 02:05:25 | 00:00:00 | |
| BIOWL1-15 | 2026-09-01 00:41:47 | 46.86265 | 7.79214 | 120° | 16km/h | 32291m | 4.9m/s | -38.4°C | 0% | 0hPa | 2.7V | 18:12:15 | 02:05:29 | 00:00:00 | |
| DO3MHA-11 | 2026-09-01 00:41:40 | 46.86253 | 7.79207 | 3° | 26km/h | 32255m | 7.2m/s | -38.3°C | 1.9% | 0hPa | 2.6V | 00:00:00 | 02:05:23 | 00:00:00 | |
| DO3MHA-12 | 2026-09-01 00:41:39 | 46.86246 | 7.79205 | 13° | 24km/h | 32249m | 5.6m/s | -38.3°C | 1.9% | 0hPa | 2.6V | 00:00:00 | 02:05:22 | 00:00:00 | |
| IW2NTF | 2026-09-01 00:41:38 | 46.86242 | 7.79177 | 147° | 29km/h | 32212m | 5m/s | -38.3°C | 1.9% | 0hPa | 2.6V | 08:30:00 | 02:05:16 | 00:00:00 | |
| DM0DOS-11 | 2026-09-01 00:41:37 | 46.86248 | 7.79170 | 140° | 29km/h | 32208m | 4.7m/s | -38.3°C | 1.8% | 0hPa | 2.6V | 08:30:00 | 02:05:15 | 00:00:00 | |
| BIOWL1-15 | 2026-09-01 00:41:36 | 46.86236 | 7.79182 | 145° | 26km/h | 32218m | 6.3m/s | -38.3°C | 0% | 0hPa | 2.6V | 18:12:15 | 02:05:17 | 00:00:00 | |
| DF3TZ-5 | 2026-09-01 00:41:36 | 46.86232 | 7.79187 | 124° | 16km/h | 32225m | 7.4m/s | -38.3°C | -1.0% | -1.0hPa | 2.7V | 00:00:00 | 00:00:00 | 00:00:00 | |
| HASLITAL | 2026-09-01 00:41:33 | 46.86236 | 7.79182 | 146° | 26km/h | 32219m | 6.3m/s | -38.3°C | 0.4% | 0hPa | 2.7V | 00:00:00 | 00:00:00 | 00:00:00 | |
| OE5DXL-15 | 2026-09-01 00:41:31 | 46.86255 | 7.79155 | 99° | 20km/h | 32198m | 5.5m/s | -38.3°C | 1.9% | 0hPa | 2.7V | 00:00:00 | 00:00:00 | 00:00:00 | |
| DO3MHA-11 | 2026-09-01 00:41:30 | 46.86255 | 7.79155 | 99° | 20km/h | 32198m | 5.5m/s | -38.3°C | 1.9% | 0hPa | 2.7V | 00:00:00 | 02:05:13 | 00:00:00 | |
| DL1ZP-14 | 2026-09-01 00:41:29 | 46.86251 | 7.79143 | 30° | 22km/h | 32185m | 6.7m/s | -38.4°C | 0.3% | -1.0hPa | 2.6V | 00:00:00 | 00:00:00 | 00:00:00 | |
| IW2NTF | 2026-09-01 00:41:27 | 46.86225 | 7.79141 | 55° | 5km/h | 32159m | 4.9m/s | -38.5°C | 1.9% | 0hPa | 2.6V | 08:30:00 | 02:05:06 | 00:00:00 | |
| DM0DOS-11 | 2026-09-01 00:41:27 | 46.86225 | 7.79138 | 108° | 15km/h | 32152m | 7.1m/s | -38.6°C | 1.9% | 0hPa | 2.6V | 08:30:00 | 02:05:05 | 00:00:00 | |
| BIOWL1-15 | 2026-09-01 00:41:26 | 46.86225 | 7.79141 | 56° | 5km/h | 32159m | 4.9m/s | -38.5°C | 0% | 0hPa | 2.6V | 18:12:15 | 02:05:06 | 00:00:00 | |
| DO3MHA-11 | 2026-09-01 00:41:20 | 46.86230 | 7.79120 | 117° | 22km/h | 32138m | 7.0m/s | -38.6°C | 1.9% | 0hPa | 2.6V | 00:00:00 | 02:05:03 | 00:00:00 | |
| DO3MHA-12 | 2026-09-01 00:41:19 | 46.86235 | 7.79107 | 116° | 24km/h | 32132m | 5.1m/s | -38.6°C | 1.9% | 0hPa | 2.6V | 00:00:00 | 02:05:02 | 00:00:00 | |
| DM0DOS-11 | 2026-09-01 00:41:17 | 46.86239 | 7.79070 | 349° | 16km/h | 32092m | 4.4m/s | -38.7°C | 1.9% | 0hPa | 2.6V | 08:30:00 | 02:04:55 | 00:00:00 | |
| DK5PH-5 | 2026-09-01 00:41:17 | 46.86242 | 7.79082 | 112° | 20km/h | 32123m | 4.8m/s | -38.7°C | 1.9% | 0hPa | 2.6V | 00:00:00 | 02:05:00 | 00:00:00 | |
| BIOWL9-15 | 2026-09-01 00:41:16 | 46.86244 | 7.79074 | 108° | 18km/h | 32117m | 6.2m/s | -38.8°C | 0.3% | -1.0hPa | 2.6V | 00:00:00 | 00:00:00 | 00:00:00 | |
| IW2NTF | 2026-09-01 00:41:14 | 46.86235 | 7.79070 | 11° | 18km/h | 32087m | 5.2m/s | -38.7°C | 1.9% | 0hPa | 2.6V | 08:30:00 | 02:04:54 | 00:00:00 | |
| BIOWL1-15 | 2026-09-01 00:41:13 | 46.86237 | 7.79009 | 146° | 22km/h | 32046m | 6.1m/s | -38.7°C | 0% | 0hPa | 2.7V | 18:12:15 | 02:04:47 | 00:00:00 | |
| HASLITAL | 2026-09-01 00:41:12 | 46.86243 | 7.79069 | 337° | 13km/h | 32097m | 5.5m/s | -38.7°C | 0.3% | 0hPa | 2.6V | 00:00:00 | 00:00:00 | 00:00:00 | |
| DO3MHA-11 | 2026-09-01 00:41:10 | 46.86230 | 7.79067 | 42° | 22km/h | 32082m | 6.2m/s | -38.7°C | 1.9% | 0hPa | 2.6V | 00:00:00 | 02:04:53 | 00:00:00 | |
| DO3MHA-12 | 2026-09-01 00:41:09 | 46.86227 | 7.79060 | 67° | 22km/h | 32075m | 6.2m/s | -38.7°C | 1.9% | 0hPa | 2.6V | 00:00:00 | 02:04:52 | 00:00:00 | |
| DM0DOS-11 | 2026-09-01 00:41:07 | 46.86244 | 7.79006 | 207° | 5km/h | 32034m | 5.1m/s | -38.7°C | 1.9% | 0hPa | 2.6V | 08:30:00 | 02:04:45 | 00:00:00 | |
| BIOWL1-15 | 2026-09-01 00:41:02 | 46.86244 | 7.79007 | 326° | 5km/h | 32029m | 5.5m/s | -38.7°C | 0% | 0hPa | 2.6V | 18:12:15 | 02:04:44 | 00:00:00 | |
| IW2NTF | 2026-09-01 00:41:02 | 46.86244 | 7.79007 | 325° | 5km/h | 32029m | 5.5m/s | -38.6°C | 1.9% | 0hPa | 2.6V | 08:30:00 | 02:04:44 | 00:00:00 | |
| DL1ZP-14 | 2026-09-01 00:40:58 | 46.86225 | 7.78995 | 42° | 33km/h | 32004m | 5.4m/s | -38.6°C | 0.3% | -1.0hPa | 2.6V | 00:00:00 | 00:00:00 | 00:00:00 | |
| DM0DOS-11 | 2026-09-01 00:40:57 | 46.86212 | 7.78961 | 151° | 7km/h | 31975m | 6.9m/s | -38.6°C | 1.9% | 0hPa | 2.6V | 08:30:00 | 02:04:35 | 00:00:00 | |
| DF7PN | 2026-09-01 00:40:56 | 46.86215 | 7.78977 | 60° | 26km/h | 31995m | 4.8m/s | -38.6°C | 0.3% | -1.0hPa | 2.6V | 00:00:00 | 00:00:00 | 00:00:00 | |
| IW2NTF | 2026-09-01 00:40:52 | 46.86214 | 7.78961 | 192° | 11km/h | 31969m | 6.1m/s | -38.6°C | 1.9% | 0hPa | 2.6V | 08:30:00 | 02:04:34 | 00:00:00 | |
| BIOWL1-15 | 2026-09-01 00:40:51 | 46.86214 | 7.78961 | 192° | 11km/h | 31969m | 6.1m/s | -38.6°C | 0% | 0hPa | 2.6V | 18:12:15 | 02:04:34 | 00:00:00 | |
| DO3MHA-11 | 2026-09-01 00:40:50 | 46.86217 | 7.78962 | 195° | 20km/h | 31964m | 4.6m/s | -38.6°C | 1.9% | 0hPa | 2.6V | 00:00:00 | 02:04:33 | 00:00:00 | |
| DO3MHA-12 | 2026-09-01 00:40:49 | 46.86220 | 7.78962 | 177° | 22km/h | 31959m | 4.5m/s | -38.6°C | 1.9% | 0hPa | 2.6V | 00:00:00 | 02:04:32 | 00:00:00 | |
| DK5PH-5 | 2026-09-01 00:40:47 | 46.86225 | 7.78956 | 110° | 18km/h | 31948m | 6.4m/s | -38.6°C | 1.9% | 0hPa | 2.6V | 00:00:00 | 02:04:30 | 08:30:00 | |
| DM0DOS-11 | 2026-09-01 00:40:46 | 46.86213 | 7.78918 | 28° | 24km/h | 31918m | 6.6m/s | -38.9°C | 1.9% | 0hPa | 2.6V | 08:30:00 | 02:04:25 | 00:00:00 | |
| BIOWL9-15 | 2026-09-01 00:40:45 | 46.86224 | 7.78941 | 73° | 26km/h | 31936m | 5.4m/s | -38.8°C | 0.3% | -1.0hPa | 2.6V | 00:00:00 | 00:00:00 | 00:00:00 | |
| IW2NTF | 2026-09-01 00:40:41 | 46.86207 | 7.78915 | 8° | 22km/h | 31911m | 6.7m/s | -38.9°C | 1.9% | 0hPa | 2.6V | 08:30:00 | 02:04:24 | 00:00:00 | |
| BIOWL1-15 | 2026-09-01 00:40:41 | 46.86202 | 7.78915 | 352° | 20km/h | 31905m | 5.7m/s | -38.9°C | 0% | 0hPa | 2.6V | 18:12:15 | 02:04:23 | 00:00:00 | |
| DO3MHA-11 | 2026-09-01 00:40:40 | 46.86202 | 7.78915 | 353° | 15km/h | 31906m | 5.7m/s | -38.8°C | 1.9% | 0hPa | 2.6V | 00:00:00 | 02:04:23 | 00:00:00 | |
| DO3MHA-12 | 2026-09-01 00:40:39 | 46.86198 | 7.78916 | 347° | 13km/h | 31900m | 4.9m/s | -38.9°C | 1.9% | 0hPa | 2.6V | 00:00:00 | 02:04:22 | 00:00:00 | |
| IW2NTF | 2026-09-01 00:40:33 | 46.86193 | 7.78885 | 92° | 7km/h | 31852m | 6.2m/s | -39°C | 2% | 0hPa | 2.6V | 08:30:00 | 02:04:14 | 00:00:00 | |
| DM0DOS-11 | 2026-09-01 00:40:33 | 46.86193 | 7.78888 | 102° | 13km/h | 31858m | 6.2m/s | -39.1°C | 2% | 0hPa | 2.7V | 08:30:00 | 02:04:15 | 00:00:00 | |
| DO3MHA-11 | 2026-09-01 00:40:30 | 46.86192 | 7.78883 | 34° | 20km/h | 31847m | 5.2m/s | -39.0°C | 1.9% | 0hPa | 2.6V | 00:00:00 | 02:04:13 | 00:00:00 | |
| DB0UT-7 | 2026-09-01 00:40:29 | 46.86191 | 7.78882 | 9° | 15km/h | 31841m | 5.2m/s | -39.0°C | 1.9% | 0hPa | 2.7V | 00:00:00 | 02:04:12 | 00:00:00 | |
| DM0DOS-11 | 2026-09-01 00:40:27 | 46.86153 | 7.78869 | 356° | 22km/h | 31799m | 6.6m/s | -39°C | 1.9% | 0hPa | 2.7V | 08:30:00 | 02:04:05 | 00:00:00 | |
| DL1ZP-14 | 2026-09-01 00:40:26 | 46.86179 | 7.78877 | 20° | 24km/h | 31822m | 6.6m/s | -39.0°C | 0.3% | -1.0hPa | 2.6V | 00:00:00 | 00:00:00 | 00:00:00 | |
| DF7PN | 2026-09-01 00:40:24 | 46.86166 | 7.78871 | 15° | 27km/h | 31810m | 5.0m/s | -39.0°C | 0.3% | -1.0hPa | 2.6V | 00:00:00 | 00:00:00 | 00:00:00 | |
| LOEBOVI | 2026-09-01 00:40:23 | 46.86166 | 7.78871 | 16° | 27km/h | 31811m | 5.0m/s | 0°C | 0% | 0hPa | 2.6V | 00:00:00 | 00:00:00 | 00:00:00 | |
| BIOWL1-15 | 2026-09-01 00:40:16 | 46.86109 | 7.78841 | 333° | 13km/h | 31693m | 7.3m/s | -39.1°C | 0% | 0hPa | 2.6V | 18:12:15 | 02:03:48 | 00:00:00 | |
| DM0DOS-11 | 2026-09-01 00:40:16 | 46.86133 | 7.78846 | 55° | 9km/h | 31736m | 6.1m/s | -39°C | 1.9% | 0hPa | 2.7V | 08:30:00 | 02:03:55 | 00:00:00 | |
| DB0ND-19 | 2026-09-01 00:40:15 | 46.86136 | 7.78862 | 76° | 18km/h | 31756m | 5.7m/s | -39.0°C | 0.3% | -1.0hPa | 2.6V | 00:00:00 | 00:00:00 | 00:00:00 | |
| BIOWL9-15 | 2026-09-01 00:40:14 | 46.86135 | 7.78855 | 75° | 16km/h | 31749m | 6.1m/s | -39.0°C | 0.3% | -1.0hPa | 2.6V | 00:00:00 | 00:00:00 | 00:00:00 | |
| IW2NTF | 2026-09-01 00:40:12 | 46.86131 | 7.78844 | 29° | 11km/h | 31730m | 5.6m/s | -39°C | 2% | 0hPa | 2.6V | 08:30:00 | 02:03:54 | 00:00:00 | |
| DO3MHA-11 | 2026-09-01 00:40:10 | 46.86128 | 7.78842 | 18° | 11km/h | 31725m | 6.4m/s | -39.0°C | 1.9% | 0hPa | 2.7V | 00:00:00 | 02:03:53 | 00:00:00 | |
| DO3MHA-12 | 2026-09-01 00:40:09 | 46.86125 | 7.78840 | 12° | 11km/h | 31718m | 7.0m/s | -39.0°C | 1.9% | 0hPa | 2.7V | 00:00:00 | 02:03:52 | 00:00:00 | |
| DM0DOS-11 | 2026-09-01 00:40:03 | 46.86106 | 7.78844 | 108° | 5km/h | 31675m | 5.5m/s | -39.2°C | 2% | 0hPa | 2.7V | 08:30:00 | 02:03:45 | 00:00:00 | |
| IW2NTF | 2026-09-01 00:40:02 | 46.86107 | 7.78841 | 96° | 11km/h | 31669m | 7.4m/s | -39.2°C | 2% | 0hPa | 2.7V | 08:30:00 | 02:03:44 | 00:00:00 | |
| BIOWL1-15 | 2026-09-01 00:39:59 | 46.86107 | 7.78828 | 88° | 24km/h | 31656m | 5.5m/s | -39.3°C | 0% | 0hPa | 2.6V | 18:12:15 | 02:03:42 | 00:00:00 | |
| DB0UT-7 | 2026-09-01 00:39:59 | 46.86107 | 7.78828 | 88° | 15km/h | 31656m | 5.4m/s | -39.3°C | 2.0% | 0hPa | 2.7V | 00:00:00 | 00:00:00 | 00:00:00 | |
| DM0DOS-11 | 2026-09-01 00:39:58 | 46.86104 | 7.78825 | 283° | 18km/h | 31616m | 4.2m/s | -39.5°C | 2% | 0hPa | 2.7V | 08:30:00 | 02:03:35 | 00:00:00 | |
| DL1ZP-14 | 2026-09-01 00:39:55 | 46.86106 | 7.78809 | 285° | 4km/h | 31635m | 7.5m/s | -39.5°C | 0.3% | -1.0hPa | 2.6V | 00:00:00 | 00:00:00 | 00:00:00 | |
| DF7PN | 2026-09-01 00:39:53 | 46.86105 | 7.78818 | 277° | 20km/h | 31621m | 5.5m/s | -39.5°C | 0.3% | -1.0hPa | 2.7V | 00:00:00 | 00:00:00 | 00:00:00 | |
| IW2NTF | 2026-09-01 00:39:52 | 46.86103 | 7.78831 | 294° | 13km/h | 31611m | 5.4m/s | -39.5°C | 2% | 0hPa | 2.7V | 08:30:00 | 02:03:34 | 00:00:00 | |
| BIOWL1-15 | 2026-09-01 00:39:48 | 46.86099 | 7.78827 | 83° | 20km/h | 31593m | 6m/s | -39.5°C | 0% | 0hPa | 2.6V | 18:12:15 | 02:03:31 | 00:00:00 | |
| DB0ND-19 | 2026-09-01 00:39:44 | 46.86104 | 7.78794 | 117° | 20km/h | 31568m | 5.7m/s | -39.6°C | 0.3% | -1.0hPa | 2.7V | 00:00:00 | 00:00:00 | 00:00:00 | |
| IW2NTF | 2026-09-01 00:39:42 | 46.86109 | 7.78780 | 102° | 9km/h | 31551m | 6.3m/s | -39.6°C | 2% | 0hPa | 2.7V | 08:30:00 | 02:03:24 | 00:00:00 | |
| DM0DOS-11 | 2026-09-01 00:39:40 | 46.86109 | 7.78774 | 66° | 9km/h | 31538m | 6m/s | -39.7°C | 2% | 0hPa | 2.6V | 08:30:00 | 02:03:22 | 00:00:00 | |
| BIOWL1-15 | 2026-09-01 00:39:37 | 46.86109 | 7.78765 | 97° | 7km/h | 31508m | 4.9m/s | -39.8°C | 0% | 0hPa | 2.6V | 18:12:15 | 02:03:17 | 00:00:00 | |
| IW2NTF | 2026-09-01 00:39:33 | 46.86105 | 7.78751 | 56° | 22km/h | 31489m | 6.4m/s | -39.8°C | 2% | 0hPa | 2.7V | 08:30:00 | 02:03:14 | 00:00:00 | |
| DM0DOS-11 | 2026-09-01 00:39:30 | 46.86098 | 7.78739 | 51° | 18km/h | 31478m | 4.8m/s | -39.8°C | 2% | 0hPa | 2.6V | 08:30:00 | 02:03:12 | 00:00:00 | |
| BIOWL1-15 | 2026-09-01 00:39:26 | 46.86097 | 7.78732 | 63° | 9km/h | 31436m | 7.2m/s | -39.9°C | 0% | 0hPa | 2.6V | 18:12:15 | 02:03:05 | 00:00:00 | |
| DL1ZP-14 | 2026-09-01 00:39:24 | 46.86097 | 7.78734 | 213° | 4km/h | 31449m | 4.7m/s | -39.9°C | 0.3% | -1.0hPa | 2.7V | 00:00:00 | 00:00:00 | 00:00:00 | |
| DH7VM-15 | 2026-09-01 00:39:23 | 46.86097 | 7.78734 | 215° | 4km/h | 31449m | 4.7m/s | -39.9°C | 0.4% | 0hPa | 2.6V | 00:00:00 | 00:00:00 | 00:00:00 | |
| IW2NTF | 2026-09-01 00:39:22 | 46.86096 | 7.78728 | 60° | 18km/h | 31429m | 6.8m/s | -39.9°C | 2% | 0hPa | 2.6V | 08:30:00 | 02:03:04 | 00:00:00 | |
| DM0DOS-11 | 2026-09-01 00:39:20 | 46.86091 | 7.78713 | 69° | 26km/h | 31417m | 6.7m/s | -39.9°C | 2.1% | 0hPa | 2.7V | 08:30:00 | 02:03:02 | 00:00:00 | |
| BIOWL1-15 | 2026-09-01 00:39:16 | 46.86088 | 7.78688 | 85° | 22km/h | 31399m | 5m/s | -39.9°C | 0% | 0hPa | 2.6V | 18:12:15 | 02:02:59 | 00:00:00 | |
| DM0DOS-11 | 2026-09-01 00:39:15 | 46.86079 | 7.78662 | 213° | 4km/h | 31356m | 6.5m/s | -39.9°C | 2% | 0hPa | 2.7V | 08:30:00 | 02:02:52 | 00:00:00 | |
| BIOWL1-15 | 2026-09-01 00:39:06 | 46.86072 | 7.78628 | 75° | 27km/h | 31308m | 6.6m/s | -40.2°C | 0% | 0hPa | 2.6V | 18:12:15 | 02:02:44 | 00:00:00 | |
| DM0DOS-11 | 2026-09-01 00:39:04 | 46.86070 | 7.78610 | 83° | 22km/h | 31297m | 5.2m/s | -40.2°C | 2% | 0hPa | 2.7V | 08:30:00 | 02:02:42 | 00:00:00 | |
| IW2NTF | 2026-09-01 00:39:02 | 46.86072 | 7.78628 | 74° | 27km/h | 31308m | 6.5m/s | -40.2°C | 2% | 0hPa | 2.6V | 08:30:00 | 02:02:44 | 00:00:00 | |
| BIOWL1-15 | 2026-09-01 00:38:57 | 46.86067 | 7.78589 | 76° | 7km/h | 31272m | 5.3m/s | -40.5°C | 0% | 0hPa | 2.6V | 18:12:15 | 02:02:38 | 00:00:00 | |
| IW2NTF | 2026-09-01 00:38:56 | 46.86073 | 7.78578 | 134° | 16km/h | 31249m | 4.9m/s | -40.6°C | 2.1% | 0hPa | 2.6V | 08:30:00 | 02:02:34 | 00:00:00 | |
| DM0DOS-11 | 2026-09-01 00:38:53 | 46.86076 | 7.78567 | 91° | 18km/h | 31238m | 6.5m/s | -40.7°C | 2.1% | 0hPa | 2.6V | 08:30:00 | 02:02:32 | 00:00:00 | |
| DL1ZP-14 | 2026-09-01 00:38:53 | 46.86068 | 7.78584 | 137° | 9km/h | 31261m | 7.0m/s | -40.6°C | 0.4% | -1.0hPa | 2.7V | 00:00:00 | 00:00:00 | 00:00:00 | |
| DF7PN | 2026-09-01 00:38:51 | 46.86073 | 7.78578 | 134° | 15km/h | 31249m | 4.9m/s | -40.7°C | 0.3% | -1.0hPa | 2.7V | 00:00:00 | 00:00:00 | 00:00:00 | |
| BIOWL1-15 | 2026-09-01 00:38:48 | 46.86059 | 7.78530 | 50° | 2km/h | 31196m | 5.4m/s | -40.8°C | 0% | 0hPa | 2.7V | 18:12:15 | 02:02:25 | 00:00:00 | |
| DK5PH-5 | 2026-09-01 00:38:47 | 46.86073 | 7.78553 | 55° | 16km/h | 31225m | 6.1m/s | -40.6°C | 2.1% | 0hPa | 2.6V | 00:00:00 | 02:02:30 | 00:00:00 | |
| IW2NTF | 2026-09-01 00:38:46 | 46.86059 | 7.78530 | 283° | 2km/h | 31190m | 5.7m/s | -40.9°C | 2.1% | 0hPa | 2.6V | 08:30:00 | 02:02:24 | 00:00:00 | |
| DM0DOS-11 | 2026-09-01 00:38:43 | 46.86058 | 7.78532 | 341° | 5km/h | 31178m | 5.6m/s | -41°C | 2.1% | 0hPa | 2.6V | 08:30:00 | 02:02:22 | 00:00:00 | |
| DB0ND-19 | 2026-09-01 00:38:42 | 46.86059 | 7.78530 | 49° | 2km/h | 31196m | 5.4m/s | -40.8°C | 0.4% | -1.0hPa | 2.6V | 00:00:00 | 00:00:00 | 00:00:00 | |
| BIOWL9-15 | 2026-09-01 00:38:41 | 46.86059 | 7.78530 | 283° | 2km/h | 31190m | 5.7m/s | -40.9°C | 0.4% | -1.0hPa | 2.6V | 00:00:00 | 00:00:00 | 00:00:00 | |
| DO3MHA-11 | 2026-09-01 00:38:40 | 46.86059 | 7.78531 | 304° | 20km/h | 31184m | 6.7m/s | -40.9°C | 2.1% | 0hPa | 2.6V | 00:00:00 | 02:02:23 | 00:00:00 | |
| DO3MHA-12 | 2026-09-01 00:38:38 | 46.86056 | 7.78531 | 30° | 26km/h | 31173m | 4.9m/s | -41.0°C | 2.1% | 0hPa | 2.6V | 00:00:00 | 02:02:21 | 00:00:00 | |
| IW2NTF | 2026-09-01 00:38:36 | 46.86042 | 7.78475 | 50° | 31km/h | 31132m | 6.7m/s | -41.2°C | 2.1% | 0hPa | 2.6V | 08:30:00 | 02:02:14 | 00:00:00 | |
| DM0DOS-11 | 2026-09-01 00:38:33 | 46.86031 | 7.78462 | 21° | 26km/h | 31120m | 4.8m/s | -41.2°C | 2.1% | 0hPa | 2.6V | 08:30:00 | 02:02:12 | 00:00:00 | |
| BIOWL1-15 | 2026-09-01 00:38:31 | 46.86042 | 7.78475 | 50° | 31km/h | 31132m | 6.7m/s | -41.2°C | 0% | 0hPa | 2.6V | 18:12:15 | 02:02:14 | 00:00:00 | |
| DO3MHA-11 | 2026-09-01 00:38:30 | 46.86036 | 7.78467 | 36° | 13km/h | 31126m | 5.8m/s | -41.1°C | 2.1% | 0hPa | 2.6V | 00:00:00 | 02:02:13 | 00:00:00 | |
| DB0UT-7 | 2026-09-01 00:38:29 | 46.86030 | 7.78462 | 22° | 15km/h | 31121m | 4.7m/s | -41.2°C | 2.1% | 0hPa | 2.6V | 00:00:00 | 02:02:12 | 00:00:00 | |
| DO3MHA-12 | 2026-09-01 00:38:28 | 46.86025 | 7.78460 | 12° | 11km/h | 31116m | 5.2m/s | -41.2°C | 2.1% | 0hPa | 2.6V | 00:00:00 | 02:02:11 | 08:30:00 | |
| HASLITAL | 2026-09-01 00:38:27 | 46.86025 | 7.78460 | 12° | 18km/h | 31116m | 5.2m/s | -41.2°C | 0.4% | 0hPa | 2.6V | 00:00:00 | 00:00:00 | 00:00:00 | |
| DM0DOS-11 | 2026-09-01 00:38:23 | 46.86018 | 7.78451 | 25° | 26km/h | 31063m | 6.2m/s | -41.4°C | 2.1% | 0hPa | 2.6V | 08:30:00 | 02:02:02 | 00:00:00 | |
| BIOWL1-15 | 2026-09-01 00:38:20 | 46.86012 | 7.78447 | 27° | 29km/h | 31057m | 5.6m/s | -41.4°C | 0% | 0hPa | 2.6V | 18:12:15 | 02:02:01 | 00:00:00 | |
| DO3MHA-11 | 2026-09-01 00:38:20 | 46.86023 | 7.78455 | 29° | 16km/h | 31070m | 6.6m/s | -41.3°C | 2.2% | 0hPa | 2.7V | 00:00:00 | 02:02:03 | 00:00:00 | |
| DK5PH-5 | 2026-09-01 00:38:17 | 46.86005 | 7.78442 | 31° | 13km/h | 31052m | 6.0m/s | -41.4°C | 2.1% | 0hPa | 2.7V | 00:00:00 | 02:02:00 | 00:00:00 | |
| IW2NTF | 2026-09-01 00:38:12 | 46.85992 | 7.78426 | 289° | 4km/h | 31016m | 6.1m/s | -41.8°C | 2.2% | 0hPa | 2.7V | 08:30:00 | 02:01:54 | 00:00:00 | |
| DM0DOS-11 | 2026-09-01 00:38:12 | 46.85992 | 7.78430 | 236° | 7km/h | 31005m | 5.6m/s | -42°C | 2.2% | 0hPa | 2.6V | 08:30:00 | 02:01:52 | 00:00:00 | |
| BIOWL1-15 | 2026-09-01 00:38:07 | 46.85996 | 7.78427 | 65° | 11km/h | 30984m | 5.1m/s | -42.2°C | 0% | 0hPa | 2.7V | 18:12:15 | 02:01:48 | 00:00:00 | |
| HASLITAL | 2026-09-01 00:38:06 | 46.85995 | 7.78432 | 170° | 7km/h | 30993m | 5.5m/s | -42.1°C | 0.4% | 0hPa | 2.6V | 00:00:00 | 00:00:00 | 00:00:00 | |
| DM0DOS-11 | 2026-09-01 00:38:01 | 46.85969 | 7.78397 | 53° | 15km/h | 30947m | 6.2m/s | -42.6°C | 2.3% | 0hPa | 2.6V | 08:30:00 | 02:01:42 | 00:00:00 | |
| BIOWL1-15 | 2026-09-01 00:37:57 | 46.85971 | 7.78391 | 195° | 9km/h | 30930m | 5.6m/s | -42.7°C | 0% | 0hPa | 2.6V | 18:12:15 | 02:01:39 | 00:00:00 | |
| IW2NTF | 2026-09-01 00:37:53 | 46.85971 | 7.78394 | 42° | 9km/h | 30902m | 5.3m/s | -42.8°C | 2.3% | 0hPa | 2.6V | 08:30:00 | 02:01:34 | 00:00:00 | |
| DM0DOS-11 | 2026-09-01 00:37:51 | 46.85968 | 7.78386 | 80° | 15km/h | 30891m | 6.3m/s | -42.8°C | 2.3% | 0hPa | 2.7V | 08:30:00 | 02:01:32 | 00:00:00 | |
| DL1ZP-14 | 2026-09-01 00:37:51 | 46.85971 | 7.78394 | 42° | 9km/h | 30903m | 5.3m/s | -42.8°C | 0.4% | -1.0hPa | 2.6V | 00:00:00 | 00:00:00 | 00:00:00 | |
| DF7PN | 2026-09-01 00:37:49 | 46.85968 | 7.78387 | 80° | 13km/h | 30891m | 6.3m/s | -42.8°C | 0.4% | -1.0hPa | 2.6V | 00:00:00 | 00:00:00 | 00:00:00 | |
| DK5PH-5 | 2026-09-01 00:37:47 | 46.85967 | 7.78376 | 84° | 13km/h | 30880m | 5.0m/s | -42.7°C | 2.3% | 0hPa | 2.6V | 00:00:00 | 02:01:30 | 00:00:00 | |
| IW2NTF | 2026-09-01 00:37:46 | 46.85959 | 7.78371 | 41° | 2km/h | 30843m | 6.8m/s | -42.8°C | 2.3% | 0hPa | 2.6V | 08:30:00 | 02:01:24 | 00:00:00 | |
| BIOWL1-15 | 2026-09-01 00:37:46 | 46.85966 | 7.78370 | 32° | 7km/h | 30867m | 7.2m/s | -42.7°C | 0% | 0hPa | 2.7V | 18:12:15 | 02:01:28 | 00:00:00 | |
| DM0DOS-11 | 2026-09-01 00:37:41 | 46.85960 | 7.78367 | 104° | 9km/h | 30831m | 5.2m/s | -42.8°C | 2.3% | 0hPa | 2.7V | 08:30:00 | 02:01:22 | 00:00:00 | |
| DO3MHA-11 | 2026-09-01 00:37:40 | 46.85959 | 7.78370 | 108° | 13km/h | 30838m | 5.8m/s | -42.7°C | 2.3% | 0hPa | 2.7V | 00:00:00 | 02:01:23 | 00:00:00 | |
| BIOWL1-15 | 2026-09-01 00:37:38 | 46.85940 | 7.78293 | 89° | 24km/h | 30732m | 5.2m/s | -42.8°C | 0% | 0hPa | 2.7V | 18:12:15 | 02:01:05 | 00:00:00 | |
| DM0DOS-11 | 2026-09-01 00:37:31 | 46.85949 | 7.78323 | 63° | 11km/h | 30773m | 6.7m/s | -42.9°C | 2.4% | 0hPa | 2.7V | 08:30:00 | 02:01:12 | 00:00:00 | |
| DO3MHA-11 | 2026-09-01 00:37:30 | 46.85950 | 7.78327 | 79° | 15km/h | 30779m | 4.8m/s | -43.0°C | 2.4% | 0hPa | 2.6V | 00:00:00 | 02:01:13 | 00:00:00 | |
| DB0UT-7 | 2026-09-01 00:37:29 | 46.85949 | 7.78323 | 64° | 15km/h | 30774m | 6.6m/s | -42.9°C | 2.4% | 0hPa | 2.6V | 00:00:00 | 02:01:12 | 00:00:00 | |
| HASLITAL | 2026-09-01 00:37:26 | 46.85945 | 7.78319 | 30° | 11km/h | 30761m | 5.1m/s | -42.9°C | 0.5% | 0hPa | 2.6V | 00:00:00 | 00:00:00 | 00:00:00 | |
| IW2NTF | 2026-09-01 00:37:20 | 46.85936 | 7.78270 | 52° | 18km/h | 30714m | 6.5m/s | -42.8°C | 2.4% | 0hPa | 2.6V | 08:30:00 | 02:01:02 | 00:00:00 | |
| DO3MHA-11 | 2026-09-01 00:37:20 | 46.85938 | 7.78276 | 71° | 13km/h | 30721m | 6.4m/s | -42.8°C | 2.4% | 0hPa | 2.6V | 00:00:00 | 02:01:03 | 00:00:00 | |
| DF7PN | 2026-09-01 00:37:18 | 46.85932 | 7.78266 | 33° | 16km/h | 30709m | 5.1m/s | -42.8°C | 0.4% | -1.0hPa | 2.6V | 00:00:00 | 00:00:00 | 00:00:00 | |
| BIOWL1-15 | 2026-09-01 00:37:15 | 46.85905 | 7.78203 | 51° | 22km/h | 30606m | 5.6m/s | -42.6°C | 0% | 0hPa | 2.6V | 18:12:15 | 02:00:43 | 00:00:00 | |
| IW2NTF | 2026-09-01 00:37:10 | 46.85925 | 7.78240 | 6° | 7km/h | 30659m | 6.2m/s | -42.6°C | 2.3% | 0hPa | 2.6V | 08:30:00 | 02:00:52 | 00:00:00 | |
| DO3MHA-11 | 2026-09-01 00:37:10 | 46.85925 | 7.78241 | 68° | 16km/h | 30665m | 6.0m/s | -42.6°C | 2.3% | 0hPa | 2.6V | 00:00:00 | 02:00:53 | 00:00:00 | |
| DB0ND-19 | 2026-09-01 00:37:09 | 46.85924 | 7.78240 | 6° | 5km/h | 30659m | 6.2m/s | -42.6°C | 0.4% | -1.0hPa | 2.6V | 00:00:00 | 00:00:00 | 00:00:00 | |
| BIOWL9-15 | 2026-09-01 00:37:08 | 46.85919 | 7.78240 | 5° | 11km/h | 30648m | 4.7m/s | -42.6°C | 0.4% | -1.0hPa | 2.6V | 00:00:00 | 00:00:00 | 00:00:00 | |
| HASLITAL | 2026-09-01 00:37:05 | 46.85917 | 7.78239 | 26° | 11km/h | 30643m | 5.3m/s | -42.6°C | 0.5% | 0hPa | 2.6V | 00:00:00 | 00:00:00 | 00:00:00 | |
| IW2NTF | 2026-09-01 00:37:00 | 46.85901 | 7.78197 | 42° | 20km/h | 30600m | 4.8m/s | -42.6°C | 2.3% | 0hPa | 2.6V | 08:30:00 | 02:00:42 | 00:00:00 | |
| BIOWL1-15 | 2026-09-01 00:36:53 | 46.85860 | 7.78175 | 18° | 31km/h | 30539m | 4.8m/s | -43°C | 0% | 0hPa | 2.6V | 18:12:15 | 02:00:31 | 00:00:00 | |
| DM0DOS-11 | 2026-09-01 00:36:51 | 46.85868 | 7.78178 | 9° | 33km/h | 30544m | 4.8m/s | -43°C | 2.3% | 0hPa | 2.6V | 08:30:00 | 02:00:32 | 00:00:00 | |
| DL1ZP-14 | 2026-09-01 00:36:49 | 46.85868 | 7.78178 | 9° | 31km/h | 30544m | 4.8m/s | -43.0°C | 0.4% | -1.0hPa | 2.6V | 00:00:00 | 00:00:00 | 00:00:00 | |
| DF7PN | 2026-09-01 00:36:47 | 46.85853 | 7.78171 | 28° | 26km/h | 30534m | 6.4m/s | -43.1°C | 0.4% | -1.0hPa | 2.6V | 00:00:00 | 00:00:00 | 00:00:00 | |
| BIOWL1-15 | 2026-09-01 00:36:41 | 46.85827 | 7.78165 | 326° | 27km/h | 30489m | 5m/s | -43.4°C | 0% | 0hPa | 2.6V | 18:12:15 | 02:00:22 | 00:00:00 | |
| DL6DJ-15 | 2026-09-01 00:36:41 | 46.85827 | 7.78165 | 326° | 26km/h | 30489m | 5.0m/s | -43.4°C | 0.4% | -1.0hPa | 2.7V | 00:00:00 | 00:00:00 | 00:00:00 | |
| DO3MHA-11 | 2026-09-01 00:36:39 | 46.85827 | 7.78165 | 327° | 22km/h | 30489m | 4.9m/s | -43.4°C | 2.4% | 0hPa | 2.7V | 00:00:00 | 02:00:22 | 00:00:00 | |
| BIOWL9-15 | 2026-09-01 00:36:37 | 46.85810 | 7.78177 | 341° | 18km/h | 30472m | 5.6m/s | -43.6°C | 0.4% | -1.0hPa | 2.7V | 00:00:00 | 00:00:00 | 00:00:00 | |
| IW2NTF | 2026-09-01 00:36:30 | 46.85775 | 7.78181 | 20° | 20km/h | 30432m | 7m/s | -43.6°C | 2.5% | 0hPa | 2.7V | 08:30:00 | 02:00:12 | 00:00:00 | |
| BIOWL1-15 | 2026-09-01 00:36:29 | 46.85740 | 7.78174 | 340° | 35km/h | 30396m | 6.1m/s | -43.5°C | 0% | 0hPa | 2.6V | 18:12:15 | 02:00:06 | 00:00:00 | |
| DB0UT-7 | 2026-09-01 00:36:29 | 46.85775 | 7.78180 | 21° | 22km/h | 30432m | 6.9m/s | -43.5°C | 2.5% | 0hPa | 2.7V | 00:00:00 | 02:00:12 | 00:00:00 | |
| HASLITAL | 2026-09-01 00:36:24 | 46.85755 | 7.78169 | 2° | 26km/h | 30410m | 6.5m/s | -43.5°C | 0.5% | 0hPa | 2.7V | 00:00:00 | 00:00:00 | 00:00:00 | |
| DM0DOS-11 | 2026-09-01 00:36:21 | 46.85710 | 7.78186 | 8° | 26km/h | 30373m | 5.9m/s | -43.5°C | 2.5% | 0hPa | 2.7V | 08:30:00 | 02:00:02 | 00:00:00 | |
| BIOWL1-15 | 2026-09-01 00:36:12 | 46.85656 | 7.78187 | 343° | 27km/h | 30304m | 6.6m/s | -43.4°C | 0% | 0hPa | 2.6V | 18:12:15 | 01:59:50 | 00:00:00 | |
| IW2NTF | 2026-09-01 00:36:11 | 46.85667 | 7.78182 | 344° | 18km/h | 30314m | 5.1m/s | -43.4°C | 2.5% | 0hPa | 2.7V | 08:30:00 | 01:59:52 | 00:00:00 | |
| DO3MHA-11 | 2026-09-01 00:36:07 | 46.85656 | 7.78187 | 343° | 18km/h | 30304m | 6.5m/s | -43.3°C | 2.4% | 0hPa | 2.6V | 00:00:00 | 01:59:50 | 00:00:00 | |
| BIOWL9-15 | 2026-09-01 00:36:06 | 46.85642 | 7.78193 | 347° | 31km/h | 30292m | 4.5m/s | -43.3°C | 0.5% | -1.0hPa | 2.6V | 00:00:00 | 00:00:00 | 00:00:00 | |
| HASLITAL | 2026-09-01 00:36:05 | 46.85642 | 7.78193 | 348° | 31km/h | 30292m | 4.5m/s | -43.3°C | 0.5% | 0hPa | 2.6V | 00:00:00 | 00:00:00 | 00:00:00 | |
| DM0DOS-11 | 2026-09-01 00:36:01 | 46.85616 | 7.78186 | 20° | 2km/h | 30258m | 5.9m/s | -43.1°C | 2.4% | 0hPa | 2.6V | 08:30:00 | 01:59:42 | 00:00:00 | |
| BIOWL1-15 | 2026-09-01 00:35:57 | 46.85574 | 7.78204 | 339° | 13km/h | 30185m | 4.8m/s | -43°C | 0% | 0hPa | 2.7V | 18:12:15 | 01:59:29 | 00:00:00 | |
| BIOWL1-15 | 2026-09-01 00:35:50 | 46.85571 | 7.78205 | 21° | 2km/h | 30174m | 6.5m/s | -42.9°C | 0% | 0hPa | 2.6V | 18:12:15 | 01:59:27 | 00:00:00 | |
| DK5PH-5 | 2026-09-01 00:35:47 | 46.85578 | 7.78202 | 345° | 11km/h | 30190m | 4.7m/s | -42.9°C | 2.4% | 0hPa | 2.6V | 00:00:00 | 01:59:30 | 00:00:00 | |
| DO3MHA-11 | 2026-09-01 00:35:45 | 46.85572 | 7.78205 | 340° | 11km/h | 30180m | 6.1m/s | -42.9°C | 2.4% | 0hPa | 2.6V | 00:00:00 | 01:59:28 | 00:00:00 | |
| HASLITAL | 2026-09-01 00:35:43 | 46.85571 | 7.78205 | 22° | 2km/h | 30174m | 6.5m/s | -42.9°C | 0.5% | 0hPa | 2.6V | 00:00:00 | 00:00:00 | 00:00:00 | |
| DM0DOS-11 | 2026-09-01 00:35:42 | 46.85567 | 7.78206 | 334° | 11km/h | 30145m | 5.2m/s | -43°C | 2.3% | 0hPa | 2.6V | 08:30:00 | 01:59:22 | 00:00:00 | |
| IW2NTF | 2026-09-01 00:35:38 | 46.85553 | 7.78203 | 39° | 18km/h | 30122m | 6.1m/s | -43.1°C | 2.4% | 0hPa | 2.7V | 08:30:00 | 01:59:18 | 00:00:00 | |
| BIOWL1-15 | 2026-09-01 00:35:33 | 46.85547 | 7.78193 | 47° | 16km/h | 30112m | 4.4m/s | -43.2°C | 0% | 0hPa | 2.6V | 18:12:15 | 01:59:16 | 00:00:00 | |
| DM0DOS-11 | 2026-09-01 00:35:30 | 46.85538 | 7.78191 | 293° | 7km/h | 30089m | 5m/s | -43.3°C | 2.4% | 0hPa | 2.6V | 08:30:00 | 01:59:12 | 00:00:00 | |
| IW2NTF | 2026-09-01 00:35:29 | 46.85541 | 7.78196 | 182° | 4km/h | 30065m | 5.2m/s | -43.4°C | 2.4% | 0hPa | 2.7V | 08:30:00 | 01:59:08 | 00:00:00 | |
| DB0UT-7 | 2026-09-01 00:35:29 | 46.85538 | 7.78190 | 294° | 9km/h | 30090m | 5.0m/s | -43.2°C | 2.4% | 0hPa | 2.7V | 00:00:00 | 01:59:12 | 00:00:00 | |
| DO3MHA-11 | 2026-09-01 00:35:24 | 46.85542 | 7.78196 | 187° | 11km/h | 30060m | 6.5m/s | -43.3°C | 2.4% | 0hPa | 2.7V | 00:00:00 | 01:59:07 | 00:00:00 | |
| DM0DOS-11 | 2026-09-01 00:35:23 | 46.85531 | 7.78184 | 47° | 20km/h | 30030m | 5.5m/s | -43.4°C | 2.4% | 0hPa | 2.7V | 08:30:00 | 01:59:02 | 00:00:00 | |
| HASLITAL | 2026-09-01 00:35:22 | 46.85542 | 7.78196 | 13° | 4km/h | 30054m | 5.7m/s | -43.4°C | 0.5% | 0hPa | 2.7V | 00:00:00 | 00:00:00 | 00:00:00 | |
| IW2NTF | 2026-09-01 00:35:19 | 46.85520 | 7.78177 | 312° | 11km/h | 30007m | 6.2m/s | -43.5°C | 2.4% | 0hPa | 2.7V | 08:30:00 | 01:58:58 | 00:00:00 | |
| DK5PH-5 | 2026-09-01 00:35:17 | 46.85525 | 7.78176 | 27° | 13km/h | 30019m | 5.6m/s | -43.4°C | 2.5% | 0hPa | 2.6V | 00:00:00 | 01:59:00 | 00:00:00 | |
| DL1ZP-14 | 2026-09-01 00:35:16 | 46.85522 | 7.78175 | 353° | 9km/h | 30013m | 6.7m/s | -43.4°C | 0.4% | -1.0hPa | 2.6V | 00:00:00 | 00:00:00 | 00:00:00 | |
| DH7VM-15 | 2026-09-01 00:35:15 | 46.85522 | 7.78175 | 354° | 11km/h | 30013m | 6.7m/s | -43.4°C | 0.5% | 0hPa | 2.7V | 00:00:00 | 00:00:00 | 00:00:00 | |
| DO3MHA-11 | 2026-09-01 00:35:14 | 46.85518 | 7.78181 | 281° | 9km/h | 30001m | 5.0m/s | -43.4°C | 2.4% | 0hPa | 2.7V | 00:00:00 | 01:58:57 | 00:00:00 | |
| DM0DOS-11 | 2026-09-01 00:35:12 | 46.85527 | 7.78190 | 160° | 7km/h | 29972m | 6.2m/s | -43.6°C | 2.4% | 0hPa | 2.7V | 08:30:00 | 01:58:52 | 00:00:00 | |
| IW2NTF | 2026-09-01 00:35:09 | 46.85524 | 7.78182 | 54° | 13km/h | 29949m | 5.9m/s | -43.6°C | 2.4% | 0hPa | 2.6V | 08:30:00 | 01:58:48 | 00:00:00 | |
| BIOWL9-15 | 2026-09-01 00:35:04 | 46.85522 | 7.78174 | 72° | 9km/h | 29937m | 5.1m/s | -43.7°C | 0.4% | -1.0hPa | 2.6V | 00:00:00 | 00:00:00 | 00:00:00 | |
| HASLITAL | 2026-09-01 00:35:01 | 46.85521 | 7.78172 | 91° | 4km/h | 29933m | 4.7m/s | -43.7°C | 0.5% | 0hPa | 2.6V | 00:00:00 | 00:00:00 | 00:00:00 | |
| DM0DOS-11 | 2026-09-01 00:35:00 | 46.85524 | 7.78181 | 243° | 22km/h | 29914m | 5.8m/s | -43.7°C | 2.5% | 0hPa | 2.6V | 08:30:00 | 01:58:42 | 00:00:00 | |
| IW2NTF | 2026-09-01 00:34:59 | 46.85544 | 7.78204 | 189° | 26km/h | 29891m | 4.9m/s | -43.6°C | 2.4% | 0hPa | 2.6V | 08:30:00 | 01:58:38 | 00:00:00 | |
| OE5DXL-15 | 2026-09-01 00:34:59 | 46.85532 | 7.78195 | 221° | 13km/h | 29903m | 6.1m/s | -43.6°C | 2.5% | 0hPa | 2.6V | 00:00:00 | 00:00:00 | 00:00:00 | |
| DO3MHA-11 | 2026-09-01 00:34:54 | 46.85550 | 7.78204 | 174° | 11km/h | 29887m | 4.8m/s | -43.6°C | 2.4% | 0hPa | 2.6V | 00:00:00 | 01:58:37 | 08:30:00 | |
| DM0DOS-11 | 2026-09-01 00:34:53 | 46.85554 | 7.78194 | 33° | 7km/h | 29857m | 4.2m/s | -43.7°C | 2.5% | 0hPa | 2.6V | 08:30:00 | 01:58:32 | 00:00:00 | |
| BIOWL1-15 | 2026-09-01 00:34:51 | 46.85572 | 7.78198 | 213° | 16km/h | 29818m | 5.5m/s | -43.8°C | 0% | 0hPa | 2.7V | 18:12:15 | 01:58:25 | 00:00:00 | |
| IW2NTF | 2026-09-01 00:34:48 | 46.85559 | 7.78191 | 190° | 16km/h | 29836m | 4.9m/s | -43.7°C | 2.5% | 0hPa | 2.6V | 08:30:00 | 01:58:28 | 00:00:00 | |
| DL1ZP-14 | 2026-09-01 00:34:45 | 46.85559 | 7.78191 | 190° | 16km/h | 29836m | 4.9m/s | -43.7°C | 0.5% | -1.0hPa | 2.6V | 00:00:00 | 00:00:00 | 00:00:00 | |
| BIOWL1-15 | 2026-09-01 00:34:44 | 46.85578 | 7.78203 | 188° | 11km/h | 29807m | 5.1m/s | -43.8°C | 0% | 0hPa | 2.6V | 18:12:15 | 01:58:23 | 00:00:00 | |
| DO3MHA-11 | 2026-09-01 00:34:44 | 46.85564 | 7.78192 | 198° | 15km/h | 29830m | 6.1m/s | -43.7°C | 2.4% | 0hPa | 2.6V | 00:00:00 | 01:58:27 | 00:00:00 | |
| DF7PN | 2026-09-01 00:34:43 | 46.85568 | 7.78195 | 206° | 18km/h | 29824m | 6.5m/s | -43.7°C | 0.4% | -1.0hPa | 2.6V | 00:00:00 | 00:00:00 | 00:00:00 | |
| DM0DOS-11 | 2026-09-01 00:34:42 | 46.85583 | 7.78199 | 133° | 15km/h | 29795m | 6.8m/s | -43.8°C | 2.5% | 0hPa | 2.6V | 08:30:00 | 01:58:21 | 00:00:00 | |
| HASLITAL | 2026-09-01 00:34:40 | 46.85575 | 7.78201 | 209° | 13km/h | 29813m | 5.1m/s | -43.8°C | 0.5% | 0hPa | 2.6V | 00:00:00 | 00:00:00 | 00:00:00 | |
| IW2NTF | 2026-09-01 00:34:37 | 46.85589 | 7.78186 | 113° | 9km/h | 29779m | 5.8m/s | -43.8°C | 2.5% | 0hPa | 2.6V | 08:30:00 | 01:58:18 | 00:00:00 | |
| BIOWL1-15 | 2026-09-01 00:34:34 | 46.85614 | 7.78214 | 184° | 13km/h | 29729m | 5.9m/s | -43.9°C | 0% | 0hPa | 2.7V | 18:12:15 | 01:58:09 | 00:00:00 | |
| BIOWL9-15 | 2026-09-01 00:34:33 | 46.85591 | 7.78190 | 248° | 15km/h | 29762m | 5.2m/s | -43.9°C | 0.5% | -1.0hPa | 2.6V | 00:00:00 | 00:00:00 | 00:00:00 | |
| DM0DOS-11 | 2026-09-01 00:34:29 | 46.85606 | 7.78211 | 203° | 22km/h | 29739m | 4.6m/s | -43.9°C | 2.5% | 0hPa | 2.6V | 08:30:00 | 01:58:11 | 00:00:00 | |
| DB0UT-7 | 2026-09-01 00:34:29 | 46.85601 | 7.78207 | 214° | 15km/h | 29745m | 4.8m/s | -43.8°C | 2.5% | 0hPa | 2.6V | 00:00:00 | 01:58:12 | 00:00:00 | |
| IW2NTF | 2026-09-01 00:34:27 | 46.85619 | 7.78212 | 137° | 9km/h | 29717m | 5.1m/s | -44°C | 2.5% | 0hPa | 2.6V | 08:30:00 | 01:58:07 | 00:00:00 | |
| OE5DXL-15 | 2026-09-01 00:34:27 | 46.85614 | 7.78214 | 185° | 13km/h | 29729m | 5.9m/s | -43.9°C | 2.5% | 0hPa | 2.6V | 00:00:00 | 00:00:00 | 00:00:00 | |
| DM0DOS-11 | 2026-09-01 00:34:24 | 46.85638 | 7.78195 | 177° | 11km/h | 29683m | 6.9m/s | -44°C | 2.4% | 0hPa | 2.6V | 08:30:00 | 01:58:01 | 00:00:00 | |
| DO3MHA-11 | 2026-09-01 00:34:24 | 46.85619 | 7.78212 | 138° | 13km/h | 29717m | 5.0m/s | -43.9°C | 2.5% | 0hPa | 2.6V | 00:00:00 | 01:58:07 | 00:00:00 | |
| HASLITAL | 2026-09-01 00:34:20 | 46.85627 | 7.78201 | 146° | 18km/h | 29700m | 5.6m/s | -43.9°C | 0.5% | 0hPa | 2.6V | 00:00:00 | 00:00:00 | 00:00:00 | |
| IW2NTF | 2026-09-01 00:34:17 | 46.85656 | 7.78207 | 182° | 22km/h | 29649m | 4.2m/s | -44.1°C | 2.5% | 0hPa | 2.6V | 08:30:00 | 01:57:55 | 00:00:00 | |
| BIOWL1-15 | 2026-09-01 00:34:17 | 46.85644 | 7.78200 | 220° | 13km/h | 29666m | 5.1m/s | -44.2°C | 0% | 0hPa | 2.7V | 18:12:15 | 01:57:58 | 00:00:00 | |
| DO3MHA-11 | 2026-09-01 00:34:14 | 46.85647 | 7.78203 | 208° | 15km/h | 29660m | 6.4m/s | -44.1°C | 2.5% | 0hPa | 2.6V | 00:00:00 | 01:57:57 | 00:00:00 | |
| DM0DOS-11 | 2026-09-01 00:34:13 | 46.85669 | 7.78199 | 98° | 11km/h | 29625m | 6.5m/s | -44.1°C | 2.5% | 0hPa | 2.6V | 08:30:00 | 01:57:51 | 00:00:00 | |
| DF7PN | 2026-09-01 00:34:12 | 46.85661 | 7.78206 | 171° | 16km/h | 29645m | 4.1m/s | -44.1°C | 0.5% | -1.0hPa | 2.6V | 00:00:00 | 00:00:00 | 00:00:00 | |
| IW2NTF | 2026-09-01 00:34:07 | 46.85681 | 7.78176 | 167° | 22km/h | 29592m | 3.7m/s | -44.3°C | 2.5% | 0hPa | 2.6V | 08:30:00 | 01:57:45 | 00:00:00 | |
| BIOWL1-15 | 2026-09-01 00:34:04 | 46.85690 | 7.78175 | 185° | 15km/h | 29582m | 6.3m/s | -44.4°C | 0% | 0hPa | 2.6V | 18:12:15 | 01:57:43 | 00:00:00 | |
| BIOWL9-15 | 2026-09-01 00:34:01 | 46.85686 | 7.78175 | 175° | 18km/h | 29588m | 4.0m/s | -44.4°C | 0.5% | -1.0hPa | 2.7V | 00:00:00 | 00:00:00 | 00:00:00 | |
| DB0UT-7 | 2026-09-01 00:33:59 | 46.85693 | 7.78175 | 204° | 11km/h | 29576m | 6.4m/s | -44.3°C | 2.5% | 0hPa | 2.7V | 00:00:00 | 00:00:00 | 00:00:00 | |
| IW2NTF | 2026-09-01 00:33:57 | 46.85695 | 7.78161 | 125° | 15km/h | 29537m | 5m/s | -44.5°C | 2.5% | 0hPa | 2.7V | 08:30:00 | 01:57:35 | 00:00:00 | |
| OE5DXL-15 | 2026-09-01 00:33:57 | 46.85692 | 7.78176 | 42° | 13km/h | 29560m | 5.7m/s | -44.3°C | 2.5% | 0hPa | 2.6V | 00:00:00 | 00:00:00 | 08:30:00 | |
| DH7VM-15 | 2026-09-01 00:33:54 | 46.85691 | 7.78174 | 87° | 7km/h | 29554m | 6.1m/s | -44.4°C | 0.5% | 0hPa | 2.7V | 00:00:00 | 00:00:00 | 00:00:00 | |
| DM0DOS-11 | 2026-09-01 00:33:53 | 46.85704 | 7.78151 | 166° | 13km/h | 29514m | 5.5m/s | -44.6°C | 2.5% | 0hPa | 2.7V | 08:30:00 | 01:57:31 | 00:00:00 | |
| BIOWL1-15 | 2026-09-01 00:33:53 | 46.85693 | 7.78166 | 120° | 15km/h | 29542m | 5.3m/s | -44.5°C | 0% | 0hPa | 2.7V | 18:12:15 | 01:57:36 | 00:00:00 | |
| IW2NTF | 2026-09-01 00:33:47 | 46.85720 | 7.78136 | 80° | 11km/h | 29480m | 6.6m/s | -44.9°C | 2.5% | 0hPa | 2.7V | 08:30:00 | 01:57:25 | 00:00:00 | |
| DK5PH-5 | 2026-09-01 00:33:47 | 46.85708 | 7.78150 | 168° | 13km/h | 29508m | 6.6m/s | -44.6°C | 2.5% | 0hPa | 2.6V | 00:00:00 | 01:57:30 | 00:00:00 | |
| DM0DOS-11 | 2026-09-01 00:33:43 | 46.85722 | 7.78120 | 144° | 15km/h | 29457m | 6.4m/s | -45.1°C | 2.6% | 0hPa | 2.6V | 08:30:00 | 01:57:21 | 00:00:00 | |
| BIOWL1-15 | 2026-09-01 00:33:42 | 46.85720 | 7.78136 | 81° | 11km/h | 29480m | 6.6m/s | -44.9°C | 0% | 0hPa | 2.7V | 18:12:15 | 01:57:25 | 00:00:00 | |
| DF7PN | 2026-09-01 00:33:41 | 46.85719 | 7.78127 | 87° | 11km/h | 29470m | 4.5m/s | -45.0°C | 0.5% | -1.0hPa | 2.6V | 00:00:00 | 00:00:00 | 00:00:00 | |
| HASLITAL | 2026-09-01 00:33:38 | 46.85720 | 7.78123 | 115° | 11km/h | 29464m | 6.4m/s | -45.1°C | 0.6% | 0hPa | 2.6V | 00:00:00 | 00:00:00 | 00:00:00 | |
| IW2NTF | 2026-09-01 00:33:37 | 46.85743 | 7.78119 | 195° | 11km/h | 29422m | 6m/s | -45.4°C | 2.6% | 0hPa | 2.6V | 08:30:00 | 01:57:15 | 00:00:00 | |
| BIOWL1-15 | 2026-09-01 00:33:34 | 46.85748 | 7.78120 | 171° | 9km/h | 29411m | 4.8m/s | -45.6°C | 0% | 0hPa | 2.7V | 18:12:15 | 01:57:13 | 00:00:00 | |
| DM0DOS-11 | 2026-09-01 00:33:33 | 46.85749 | 7.78117 | 67° | 7km/h | 29400m | 6.9m/s | -45.6°C | 2.6% | 0hPa | 2.6V | 08:30:00 | 01:57:11 | 00:00:00 | |
| BIOWL9-15 | 2026-09-01 00:33:30 | 46.85748 | 7.78120 | 171° | 7km/h | 29411m | 4.8m/s | -45.6°C | 0.5% | -1.0hPa | 2.6V | 00:00:00 | 00:00:00 | 00:00:00 | |
| DB0UT-7 | 2026-09-01 00:33:29 | 46.85749 | 7.78119 | 126° | 13km/h | 29406m | 5.0m/s | -45.6°C | 2.7% | 0hPa | 2.6V | 00:00:00 | 01:57:12 | 08:30:00 | |
| IW2NTF | 2026-09-01 00:33:28 | 46.85746 | 7.78096 | 151° | 15km/h | 29364m | 5.6m/s | -45.6°C | 2.7% | 0hPa | 2.6V | 08:30:00 | 01:57:05 | 00:00:00 | |
| OE5DXL-15 | 2026-09-01 00:33:26 | 46.85743 | 7.78107 | 61° | 11km/h | 29382m | 4.4m/s | -45.6°C | 2.7% | 0hPa | 2.6V | 00:00:00 | 00:00:00 | 00:00:00 | |
| DM0DOS-11 | 2026-09-01 00:33:23 | 46.85758 | 7.78092 | 172° | 7km/h | 29340m | 5m/s | -45.6°C | 2.7% | 0hPa | 2.6V | 08:30:00 | 01:57:01 | 00:00:00 | |
| BIOWL1-15 | 2026-09-01 00:33:19 | 46.85762 | 7.78079 | 80° | 15km/h | 29313m | 4.6m/s | -45.8°C | 0% | 0hPa | 2.6V | 18:12:15 | 01:56:56 | 00:00:00 | |
| IW2NTF | 2026-09-01 00:33:17 | 46.85760 | 7.78073 | 65° | 16km/h | 29308m | 5.6m/s | -45.9°C | 2.7% | 0hPa | 2.6V | 08:30:00 | 01:56:55 | 00:00:00 | |
| DK5PH-5 | 2026-09-01 00:33:17 | 46.85759 | 7.78091 | 151° | 15km/h | 29336m | 5.3m/s | -45.6°C | 2.7% | 0hPa | 2.6V | 00:00:00 | 01:57:00 | 00:00:00 | |
| DM0DOS-11 | 2026-09-01 00:33:13 | 46.85752 | 7.78053 | 91° | 9km/h | 29287m | 5.1m/s | 0°C | 0% | 0hPa | 2.7V | 08:30:00 | 01:56:51 | 00:00:00 | |
| BIOWL1-15 | 2026-09-01 00:33:10 | 46.85752 | 7.78053 | 92° | 9km/h | 29287m | 5.1m/s | -46°C | 0% | 0hPa | 2.7V | 18:12:15 | 01:56:51 | 00:00:00 | |
| DF7PN | 2026-09-01 00:33:10 | 46.85753 | 7.78057 | 58° | 13km/h | 29292m | 4.1m/s | -45.9°C | 0.5% | -1.0hPa | 2.6V | 00:00:00 | 00:00:00 | 00:00:00 | |
| IW2NTF | 2026-09-01 00:33:07 | 46.85780 | 7.78059 | 217° | 18km/h | 29250m | 5.5m/s | -45.9°C | 2.7% | 0hPa | 2.6V | 08:30:00 | 01:56:45 | 00:00:00 | |
| DL6DJ-15 | 2026-09-01 00:33:04 | 46.85782 | 7.78062 | 226° | 9km/h | 29246m | 4.6m/s | -45.9°C | 0.5% | -1.0hPa | 2.7V | 00:00:00 | 00:00:00 | 00:00:00 | |
| DM0DOS-11 | 2026-09-01 00:33:03 | 46.85784 | 7.78062 | 82° | 11km/h | 29228m | 5.9m/s | -46°C | 2.7% | 0hPa | 2.7V | 08:30:00 | 01:56:41 | 00:00:00 | |
| BIOWL1-15 | 2026-09-01 00:32:58 | 46.85784 | 7.78062 | 83° | 11km/h | 29228m | 5.9m/s | -46°C | 0% | 0hPa | 2.7V | 18:12:15 | 01:56:41 | 00:00:00 | |
| IW2NTF | 2026-09-01 00:32:57 | 46.85778 | 7.78037 | 124° | 5km/h | 29195m | 4.8m/s | -46.1°C | 2.7% | 0hPa | 2.7V | 08:30:00 | 01:56:35 | 00:00:00 | |
| HASLITAL | 2026-09-01 00:32:56 | 46.85784 | 7.78057 | 78° | 15km/h | 29223m | 5.0m/s | -46.0°C | 0.6% | 0hPa | 2.6V | 00:00:00 | 00:00:00 | 00:00:00 | |
| DM0DOS-11 | 2026-09-01 00:32:53 | 46.85794 | 7.78031 | 168° | 26km/h | 29171m | 4.7m/s | -46°C | 2.7% | 0hPa | 2.6V | 08:30:00 | 01:56:31 | 00:00:00 | |
| OE5DXL-15 | 2026-09-01 00:32:52 | 46.85779 | 7.78035 | 165° | 15km/h | 29190m | 5.8m/s | -46.0°C | 2.7% | 0hPa | 2.7V | 00:00:00 | 00:00:00 | 00:00:00 | |
| IW2NTF | 2026-09-01 00:32:47 | 46.85801 | 7.78017 | 52° | 16km/h | 29138m | 5.8m/s | -46.1°C | 2.7% | 0hPa | 2.7V | 08:30:00 | 01:56:25 | 00:00:00 | |
| BIOWL1-15 | 2026-09-01 00:32:47 | 46.85800 | 7.78029 | 167° | 22km/h | 29166m | 4.5m/s | -46°C | 0% | 0hPa | 2.7V | 18:12:15 | 01:56:30 | 00:00:00 | |
| DK5PH-5 | 2026-09-01 00:32:47 | 46.85800 | 7.78029 | 167° | 11km/h | 29166m | 4.4m/s | -46.0°C | 2.7% | 0hPa | 2.7V | 00:00:00 | 01:56:30 | 00:00:00 | |
| DL1ZP-14 | 2026-09-01 00:32:41 | 46.85799 | 7.78012 | 69° | 15km/h | 29132m | 6.0m/s | -46.2°C | 0.5% | -1.0hPa | 2.7V | 00:00:00 | 00:00:00 | 00:00:00 | |
| DM0DOS-11 | 2026-09-01 00:32:38 | 46.85803 | 7.78000 | 166° | 15km/h | 29116m | 5.2m/s | -46.3°C | 2.8% | 0hPa | 2.6V | 08:30:00 | 01:56:21 | 00:00:00 | |
| IW2NTF | 2026-09-01 00:32:37 | 46.85819 | 7.78023 | 242° | 9km/h | 29082m | 5m/s | -46.6°C | 2.8% | 0hPa | 2.6V | 08:30:00 | 01:56:15 | 00:00:00 | |
| BIOWL1-15 | 2026-09-01 00:32:37 | 46.85826 | 7.78009 | 270° | 5km/h | 29034m | 5.5m/s | -46.7°C | 0% | 0hPa | 2.7V | 18:12:15 | 01:56:07 | 00:00:00 | |
| HASLITAL | 2026-09-01 00:32:36 | 46.85807 | 7.78000 | 193° | 16km/h | 29111m | 6.0m/s | -46.4°C | 0.6% | 0hPa | 2.6V | 00:00:00 | 00:00:00 | 00:00:00 | |
| DH7VM-15 | 2026-09-01 00:32:32 | 46.85818 | 7.78019 | 251° | 15km/h | 29088m | 4.3m/s | -46.6°C | 0.6% | 0hPa | 2.6V | 00:00:00 | 00:00:00 | 00:00:00 | |
| DB0UT-7 | 2026-09-01 00:32:29 | 46.85823 | 7.78020 | 116° | 9km/h | 29064m | 6.1m/s | -46.6°C | 2.8% | 0hPa | 2.6V | 00:00:00 | 01:56:12 | 00:00:00 | |
| DM0DOS-11 | 2026-09-01 00:32:28 | 46.85825 | 7.78011 | 110° | 11km/h | 29052m | 5.7m/s | -46.7°C | 2.8% | 0hPa | 2.6V | 08:30:00 | 01:56:10 | 00:00:00 | |
| IW2NTF | 2026-09-01 00:32:28 | 46.85827 | 7.78013 | 229° | 4km/h | 29022m | 6.8m/s | -46.7°C | 2.8% | 0hPa | 2.6V | 08:30:00 | 01:56:05 | 00:00:00 | |
| BIOWL1-15 | 2026-09-01 00:32:27 | 46.85828 | 7.78013 | 155° | 2km/h | 29010m | 5.4m/s | -46.7°C | 0% | 0hPa | 2.7V | 18:12:15 | 01:56:03 | 00:00:00 | |
| OE5DXL-15 | 2026-09-01 00:32:23 | 46.85827 | 7.78013 | 179° | 7km/h | 29016m | 5.7m/s | -46.7°C | 2.9% | 0hPa | 2.6V | 00:00:00 | 00:00:00 | 00:00:00 | |
| DM0DOS-11 | 2026-09-01 00:32:22 | 46.85828 | 7.78011 | 64° | 5km/h | 28992m | 5.4m/s | -46.8°C | 2.9% | 0hPa | 2.6V | 08:30:00 | 01:56:00 | 00:00:00 | |
| IW2NTF | 2026-09-01 00:32:17 | 46.85830 | 7.77988 | 108° | 11km/h | 28964m | 4.4m/s | -46.7°C | 2.8% | 0hPa | 2.6V | 08:30:00 | 01:55:55 | 00:00:00 | |
| BIOWL1-15 | 2026-09-01 00:32:12 | 46.85831 | 7.77987 | 265° | 9km/h | 28945m | 6.3m/s | -46.8°C | 0% | 0hPa | 2.7V | 18:12:15 | 01:55:52 | 00:00:00 | |
| DL1ZP-14 | 2026-09-01 00:32:10 | 46.85831 | 7.77985 | 245° | 2km/h | 28952m | 7.2m/s | -46.8°C | 0.6% | -1.0hPa | 2.6V | 00:00:00 | 00:00:00 | 00:00:00 | |
| DM0DOS-11 | 2026-09-01 00:32:09 | 46.85836 | 7.77995 | 119° | 15km/h | 28917m | 5.6m/s | -46.8°C | 2.8% | 0hPa | 2.6V | 08:30:00 | 01:55:47 | 00:00:00 | |
| IW2NTF | 2026-09-01 00:32:07 | 46.85839 | 7.77983 | 94° | 18km/h | 28905m | 6.4m/s | -46.8°C | 2.9% | 0hPa | 2.7V | 08:30:00 | 01:55:45 | 00:00:00 | |
| BIOWL1-15 | 2026-09-01 00:32:01 | 46.85838 | 7.77975 | 332° | 5km/h | 28841m | 5m/s | -47°C | 0% | 0hPa | 2.7V | 18:12:15 | 01:55:34 | 00:00:00 | |
| DM0DOS-11 | 2026-09-01 00:31:59 | 46.85840 | 7.77970 | 285° | 9km/h | 28853m | 7.2m/s | -47°C | 2.8% | 0hPa | 2.6V | 08:30:00 | 01:55:36 | 00:00:00 | |
| DB0UT-7 | 2026-09-01 00:31:59 | 46.85838 | 7.77968 | 75° | 9km/h | 28888m | 5.2m/s | -46.8°C | 2.8% | 0hPa | 2.6V | 00:00:00 | 00:00:00 | 00:00:00 | |
| IW2NTF | 2026-09-01 00:31:57 | 46.85839 | 7.77974 | 306° | 9km/h | 28847m | 5.7m/s | -47°C | 2.8% | 0hPa | 2.7V | 08:30:00 | 01:55:35 | 00:00:00 | |
| BIOWL9-15 | 2026-09-01 00:31:57 | 46.85838 | 7.77965 | 146° | 4km/h | 28876m | 6.2m/s | -46.9°C | 0.6% | -1.0hPa | 2.6V | 00:00:00 | 00:00:00 | 00:00:00 | |
| HASLITAL | 2026-09-01 00:31:55 | 46.85839 | 7.77965 | 187° | 5km/h | 28870m | 5.7m/s | -46.9°C | 0.6% | 0hPa | 2.6V | 00:00:00 | 00:00:00 | 00:00:00 | |
| OE5DXL-15 | 2026-09-01 00:31:51 | 46.85837 | 7.77975 | 53° | 11km/h | 28836m | 6.0m/s | -47.0°C | 2.8% | 0hPa | 2.6V | 00:00:00 | 00:00:00 | 00:00:00 | |
| DM0DOS-11 | 2026-09-01 00:31:48 | 46.85850 | 7.77952 | 228° | 7km/h | 28795m | 6.3m/s | -47.2°C | 2.8% | 0hPa | 2.6V | 08:30:00 | 01:55:26 | 00:00:00 | |
| BIOWL1-15 | 2026-09-01 00:31:43 | 46.85852 | 7.77959 | 255° | 11km/h | 28783m | 5.5m/s | -47.3°C | 0% | 0hPa | 2.7V | 18:12:15 | 01:55:24 | 00:00:00 | |
| IW2NTF | 2026-09-01 00:31:43 | 46.85851 | 7.77955 | 252° | 11km/h | 28789m | 5.2m/s | -47.2°C | 2.9% | 0hPa | 2.6V | 08:30:00 | 01:55:25 | 00:00:00 | |
| DL1ZP-14 | 2026-09-01 00:31:39 | 46.85854 | 7.77964 | 211° | 5km/h | 28772m | 5.9m/s | -47.3°C | 0.5% | -1.0hPa | 2.6V | 00:00:00 | 00:00:00 | 00:00:00 | |
| DM0DOS-11 | 2026-09-01 00:31:38 | 46.85866 | 7.77960 | 155° | 13km/h | 28737m | 5.1m/s | -47.7°C | 2.9% | 0hPa | 2.6V | 08:30:00 | 01:55:16 | 00:00:00 | |
| IW2NTF | 2026-09-01 00:31:37 | 46.85869 | 7.77957 | 149° | 18km/h | 28730m | 7m/s | -47.7°C | 2.9% | 0hPa | 2.6V | 08:30:00 | 01:55:15 | 00:00:00 | |
| BIOWL1-15 | 2026-09-01 00:31:30 | 46.85877 | 7.77950 | 147° | 18km/h | 28719m | 4.2m/s | -47.8°C | 0% | 0hPa | 2.7V | 18:12:15 | 01:55:13 | 00:00:00 | |
| DB0UT-7 | 2026-09-01 00:31:29 | 46.85880 | 7.77947 | 154° | 5km/h | 28715m | 5.1m/s | -47.7°C | 3.0% | 0hPa | 2.6V | 00:00:00 | 01:55:12 | 00:00:00 | |
| DM0DOS-11 | 2026-09-01 00:31:28 | 46.85886 | 7.77948 | 122° | 7km/h | 28679m | 5.9m/s | -47.7°C | 3% | 0hPa | 2.6V | 08:30:00 | 01:55:06 | 00:00:00 | |
| BIOWL9-15 | 2026-09-01 00:31:26 | 46.85885 | 7.77948 | 259° | 4km/h | 28696m | 4.9m/s | -47.8°C | 0.6% | -1.0hPa | 2.6V | 00:00:00 | 00:00:00 | 00:00:00 | |
| IW2NTF | 2026-09-01 00:31:24 | 46.85887 | 7.77945 | 120° | 11km/h | 28673m | 5.6m/s | -47.7°C | 2.9% | 0hPa | 2.6V | 08:30:00 | 01:55:05 | 00:00:00 | |
| BIOWL1-15 | 2026-09-01 00:31:19 | 46.85894 | 7.77933 | 118° | 5km/h | 28632m | 5.9m/s | -47.7°C | 0% | 0hPa | 2.6V | 18:12:15 | 01:54:58 | 00:00:00 | |
| DM0DOS-11 | 2026-09-01 00:31:18 | 46.85894 | 7.77928 | 85° | 5km/h | 28622m | 5.4m/s | -47.8°C | 3% | 0hPa | 2.7V | 08:30:00 | 01:54:56 | 00:00:00 | |
| IW2NTF | 2026-09-01 00:31:17 | 46.85894 | 7.77927 | 48° | 4km/h | 28616m | 6.8m/s | -47.8°C | 2.9% | 0hPa | 2.6V | 08:30:00 | 01:54:55 | 00:00:00 | |
| BIOWL1-15 | 2026-09-01 00:31:05 | 46.85900 | 7.77918 | 205° | 4km/h | 28551m | 6.7m/s | -48.1°C | 0% | 0hPa | 2.6V | 18:12:15 | 01:54:44 | 00:00:00 | |
| IW2NTF | 2026-09-01 00:31:03 | 46.85899 | 7.77917 | 218° | 5km/h | 28556m | 5.2m/s | -48.1°C | 3% | 0hPa | 2.7V | 08:30:00 | 01:54:45 | 00:00:00 | |
| DB0UT-7 | 2026-09-01 00:30:59 | 46.85901 | 7.77918 | 35° | 7km/h | 28539m | 5.3m/s | -48.1°C | 3.0% | 0hPa | 2.7V | 00:00:00 | 00:00:00 | 00:00:00 | |
| IW2NTF | 2026-09-01 00:30:57 | 46.85889 | 7.77912 | 106° | 7km/h | 28499m | 5.3m/s | -48.2°C | 3% | 0hPa | 2.7V | 08:30:00 | 01:54:35 | 00:00:00 | |
| DM0DOS-11 | 2026-09-01 00:30:57 | 46.85889 | 7.77915 | 68° | 7km/h | 28505m | 6.3m/s | -48.2°C | 3% | 0hPa | 2.6V | 08:30:00 | 01:54:36 | 00:00:00 | |
| BIOWL1-15 | 2026-09-01 00:30:50 | 46.85894 | 7.77915 | 266° | 11km/h | 28472m | 5.7m/s | -48.3°C | 0% | 0hPa | 2.6V | 18:12:15 | 01:54:30 | 00:00:00 | |
| DM0DOS-11 | 2026-09-01 00:30:47 | 46.85896 | 7.77921 | 125° | 5km/h | 28448m | 5.8m/s | -48.4°C | 3% | 0hPa | 2.6V | 08:30:00 | 01:54:26 | 00:00:00 | |
| DK5PH-5 | 2026-09-01 00:30:47 | 46.85894 | 7.77915 | 267° | 7km/h | 28472m | 5.6m/s | -48.2°C | 3.0% | 0hPa | 2.6V | 00:00:00 | 01:54:30 | 00:00:00 | |
| IW2NTF | 2026-09-01 00:30:43 | 46.85896 | 7.77919 | 120° | 5km/h | 28442m | 5.8m/s | -48.4°C | 3% | 0hPa | 2.6V | 08:30:00 | 01:54:25 | 00:00:00 | |
| BIOWL1-15 | 2026-09-01 00:30:37 | 46.85901 | 7.77921 | 219° | 7km/h | 28402m | 5.1m/s | -48.7°C | 0% | 0hPa | 2.7V | 18:12:15 | 01:54:18 | 00:00:00 | |
| IW2NTF | 2026-09-01 00:30:37 | 46.85903 | 7.77932 | 280° | 15km/h | 28384m | 6m/s | -48.7°C | 3.1% | 0hPa | 2.6V | 08:30:00 | 01:54:15 | 00:00:00 | |
| DM0DOS-11 | 2026-09-01 00:30:37 | 46.85903 | 7.77927 | 269° | 11km/h | 28390m | 6.9m/s | -48.7°C | 3.1% | 0hPa | 2.6V | 08:30:00 | 01:54:16 | 00:00:00 | |
| DL1ZP-14 | 2026-09-01 00:30:37 | 46.85900 | 7.77920 | 196° | 5km/h | 28408m | 5.3m/s | -48.6°C | 0.6% | -1.0hPa | 2.6V | 00:00:00 | 00:00:00 | 00:00:00 | |
| DF7PN | 2026-09-01 00:30:34 | 46.85903 | 7.77923 | 245° | 7km/h | 28397m | 6.1m/s | -48.7°C | 0.6% | -1.0hPa | 2.7V | 00:00:00 | 00:00:00 | 00:00:00 | |
| HASLITAL | 2026-09-01 00:30:31 | 46.85903 | 7.77932 | 282° | 15km/h | 28384m | 6.0m/s | -48.7°C | 0.7% | 0hPa | 2.7V | 00:00:00 | 00:00:00 | 00:00:00 | |
| DB0UT-7 | 2026-09-01 00:30:29 | 46.85901 | 7.77944 | 279° | 9km/h | 28368m | 6.7m/s | -48.7°C | 3.2% | 0hPa | 2.7V | 00:00:00 | 01:54:12 | 00:00:00 | |
| DL6DJ-15 | 2026-09-01 00:30:28 | 46.85901 | 7.77944 | 125° | 2km/h | 28362m | 6.4m/s | 0°C | -1.0% | -1.0hPa | 2.7V | 00:00:00 | 00:00:00 | 00:00:00 | |
| DB0ND-19 | 2026-09-01 00:30:26 | 46.85902 | 7.77941 | 95° | 4km/h | 28350m | 5.7m/s | -48.8°C | 0.6% | -1.0hPa | 2.7V | 00:00:00 | 00:00:00 | 00:00:00 | |
| BIOWL1-15 | 2026-09-01 00:30:24 | 46.85908 | 7.77989 | 279° | 9km/h | 28245m | 5.3m/s | -48.3°C | 0% | 0hPa | 2.7V | 18:12:15 | 01:53:51 | 00:00:00 | |
| IW2NTF | 2026-09-01 00:30:23 | 46.85899 | 7.77946 | 271° | 9km/h | 28327m | 5.9m/s | -48.7°C | 3.2% | 0hPa | 2.6V | 08:30:00 | 01:54:05 | 00:00:00 | |
| OE5DXL-15 | 2026-09-01 00:30:18 | 46.85903 | 7.77983 | 273° | 7km/h | 28286m | 4.9m/s | -48.4°C | 3.1% | 0hPa | 2.7V | 00:00:00 | 00:00:00 | 00:00:00 | |
| DM0DOS-11 | 2026-09-01 00:30:12 | 46.85905 | 7.77987 | 156° | 5km/h | 28268m | 5.1m/s | -48.4°C | 3.1% | 0hPa | 2.7V | 08:30:00 | 01:53:55 | 00:00:00 | |
| BIOWL1-15 | 2026-09-01 00:30:11 | 46.85908 | 7.77993 | 274° | 11km/h | 28240m | 4.4m/s | -48.3°C | 0% | 0hPa | 2.7V | 18:12:15 | 01:53:50 | 00:00:00 | |
| DL1ZP-14 | 2026-09-01 00:30:06 | 46.85908 | 7.78000 | 237° | 9km/h | 28230m | 6.4m/s | -48.3°C | 0.6% | -1.0hPa | 2.6V | 00:00:00 | 00:00:00 | 00:00:00 | |
| IW2NTF | 2026-09-01 00:30:03 | 46.85916 | 7.78005 | 193° | 11km/h | 28212m | 4.9m/s | -48.3°C | 3.1% | 0hPa | 2.7V | 08:30:00 | 01:53:45 | 00:00:00 | |
| BIOWL1-15 | 2026-09-01 00:30:00 | 46.85950 | 7.77996 | 167° | 13km/h | 28126m | 5m/s | -48.3°C | 0% | 0hPa | 2.6V | 18:12:15 | 01:53:30 | 00:00:00 | |
| DL6DJ-15 | 2026-09-01 00:29:57 | 46.85929 | 7.78011 | 142° | 11km/h | 28172m | 5.8m/s | 0°C | -1.0% | -1.0hPa | 2.6V | 00:00:00 | 00:00:00 | 00:00:00 | |
| DB0ND-19 | 2026-09-01 00:29:55 | 46.85929 | 7.78011 | 142° | 11km/h | 28172m | 5.8m/s | -48.3°C | 0.6% | -1.0hPa | 2.6V | 00:00:00 | 00:00:00 | 00:00:00 | |
| DM0DOS-11 | 2026-09-01 00:29:53 | 46.85935 | 7.78004 | 153° | 9km/h | 28154m | 5.5m/s | -48.3°C | 3% | 0hPa | 2.6V | 08:30:00 | 01:53:35 | 00:00:00 | |
| BIOWL1-15 | 2026-09-01 00:29:44 | 46.85955 | 7.77998 | 257° | 7km/h | 28108m | 5.6m/s | -48.4°C | 0% | 0hPa | 2.6V | 18:12:15 | 01:53:27 | 00:00:00 | |
| DM0DOS-11 | 2026-09-01 00:29:43 | 46.85955 | 7.78003 | 270° | 4km/h | 28099m | 5.6m/s | -48.4°C | 3% | 0hPa | 2.6V | 08:30:00 | 01:53:25 | 00:00:00 | |
| BIOWL1-15 | 2026-09-01 00:29:33 | 46.85968 | 7.77991 | 156° | 9km/h | 28045m | 6m/s | -48.5°C | 0% | 0hPa | 2.6V | 18:12:15 | 01:53:16 | 00:00:00 | |
| DM0DOS-11 | 2026-09-01 00:29:33 | 46.85970 | 7.77990 | 158° | 7km/h | 28039m | 4.7m/s | -48.4°C | 3.1% | 0hPa | 2.6V | 08:30:00 | 01:53:15 | 00:00:00 | |
| BIOWL1-15 | 2026-09-01 00:29:25 | 46.85969 | 7.77988 | 90° | 5km/h | 27989m | 5.2m/s | -48.3°C | 0% | 0hPa | 2.7V | 18:12:15 | 01:53:06 | 00:00:00 | |
| DB0ND-19 | 2026-09-01 00:29:24 | 46.85969 | 7.77990 | 90° | 5km/h | 27994m | 4.4m/s | -48.3°C | 0.6% | -1.0hPa | 2.6V | 00:00:00 | 00:00:00 | 00:00:00 | |
| DM0DOS-11 | 2026-09-01 00:29:23 | 46.85969 | 7.77987 | 52° | 0km/h | 27983m | 6.2m/s | -48.3°C | 3% | 0hPa | 2.6V | 08:30:00 | 01:53:05 | 00:00:00 | |
| BIOWL9-15 | 2026-09-01 00:29:22 | 46.85969 | 7.77987 | 52° | 0km/h | 27984m | 6.2m/s | -48.3°C | 0.6% | -1.0hPa | 2.7V | 00:00:00 | 00:00:00 | 00:00:00 | |
| DK5PH-5 | 2026-09-01 00:29:17 | 46.85963 | 7.77991 | 8° | 11km/h | 27954m | 5.5m/s | -48.3°C | 3.0% | 0hPa | 2.7V | 00:00:00 | 01:53:00 | 00:00:00 | |
| DM0DOS-11 | 2026-09-01 00:29:15 | 46.85958 | 7.78002 | 274° | 13km/h | 27926m | 5m/s | -48.4°C | 3% | 0hPa | 2.7V | 08:30:00 | 01:52:55 | 00:00:00 | |
| BIOWL1-15 | 2026-09-01 00:29:13 | 46.85955 | 7.78010 | 27° | 5km/h | 27903m | 5.3m/s | -48.5°C | 0% | 0hPa | 2.6V | 18:12:15 | 01:52:51 | 00:00:00 | |
| HASLITAL | 2026-09-01 00:29:08 | 46.85956 | 7.78010 | 355° | 4km/h | 27909m | 6.2m/s | -48.4°C | 0.7% | 0hPa | 2.7V | 00:00:00 | 00:00:00 | 00:00:00 | |
| IW2NTF | 2026-09-01 00:29:03 | 46.85944 | 7.78014 | 338° | 13km/h | 27868m | 6.7m/s | -48.6°C | 3.1% | 0hPa | 2.7V | 08:30:00 | 01:52:45 | 00:00:00 | |
| BIOWL1-15 | 2026-09-01 00:29:02 | 46.85933 | 7.78026 | 298° | 16km/h | 27845m | 6.9m/s | -48.6°C | 0% | 0hPa | 2.6V | 18:12:15 | 01:52:41 | 00:00:00 | |
| DF7PN | 2026-09-01 00:29:01 | 46.85941 | 7.78016 | 340° | 13km/h | 27863m | 5.7m/s | -48.6°C | 0.7% | -1.0hPa | 2.6V | 00:00:00 | 00:00:00 | 00:00:00 | |
| DB0UT-7 | 2026-09-01 00:28:59 | 46.85935 | 7.78021 | 314° | 15km/h | 27852m | 6.0m/s | -48.6°C | 3.2% | 0hPa | 2.6V | 00:00:00 | 00:00:00 | 08:30:00 | |
| HEMX73-6 | 2026-09-01 00:28:58 | 46.85932 | 7.78026 | 299° | 13km/h | 27846m | 6.9m/s | 0°C | 0% | 0hPa | 2.6V | 00:00:00 | 01:52:41 | 00:00:00 | |
| DM0DOS-11 | 2026-09-01 00:28:53 | 46.85922 | 7.78051 | 339° | 13km/h | 27811m | 5m/s | -48.5°C | 3.1% | 0hPa | 2.6V | 08:30:00 | 01:52:35 | 00:00:00 | |
| BIOWL1-15 | 2026-09-01 00:28:48 | 46.85909 | 7.78067 | 311° | 22km/h | 27788m | 5m/s | -48.5°C | 0% | 0hPa | 2.6V | 18:12:15 | 01:52:31 | 00:00:00 | |
| DK5PH-5 | 2026-09-01 00:28:47 | 46.85905 | 7.78073 | 314° | 13km/h | 27783m | 6.2m/s | -48.4°C | 3.1% | 0hPa | 2.6V | 00:00:00 | 01:52:30 | 00:00:00 | |
| OE5DXL-15 | 2026-09-01 00:28:45 | 46.85896 | 7.78087 | 312° | 11km/h | 27765m | 5.4m/s | -48.4°C | 3.1% | 0hPa | 2.6V | 00:00:00 | 00:00:00 | 00:00:00 | |
| IW2NTF | 2026-09-01 00:28:43 | 46.85892 | 7.78097 | 293° | 16km/h | 27752m | 6.1m/s | -48.4°C | 3.1% | 0hPa | 2.6V | 08:30:00 | 01:52:25 | 00:00:00 | |
| BIOWL1-15 | 2026-09-01 00:28:39 | 46.85883 | 7.78114 | 335° | 11km/h | 27724m | 4.9m/s | -48.3°C | 0% | 0hPa | 2.6V | 18:12:15 | 01:52:20 | 00:00:00 | |
| DM0DOS-11 | 2026-09-01 00:28:33 | 46.85868 | 7.78132 | 318° | 15km/h | 27694m | 6.4m/s | -48.3°C | 3.1% | 0hPa | 2.6V | 08:30:00 | 01:52:15 | 00:00:00 | |
| BIOWL1-15 | 2026-09-01 00:28:27 | 46.85865 | 7.78150 | 242° | 13km/h | 27665m | 5.3m/s | -48.3°C | 0% | 0hPa | 2.6V | 18:12:15 | 01:52:10 | 00:00:00 | |
| DH7VM-15 | 2026-09-01 00:28:25 | 46.85866 | 7.78153 | 236° | 9km/h | 27661m | 4.8m/s | -48.3°C | 0.7% | 0hPa | 2.7V | 00:00:00 | 00:00:00 | 00:00:00 | |
| DM0DOS-11 | 2026-09-01 00:28:23 | 46.85865 | 7.78156 | 0° | 9km/h | 27637m | 5.1m/s | -48.3°C | 3.1% | 0hPa | 2.7V | 08:30:00 | 01:52:05 | 00:00:00 | |
| DB0ND-19 | 2026-09-01 00:28:22 | 46.85863 | 7.78156 | 337° | 7km/h | 27632m | 6.1m/s | -48.3°C | -1.0% | -1.0hPa | 2.7V | 00:00:00 | 00:00:00 | 00:00:00 | |
| BIOWL9-15 | 2026-09-01 00:28:20 | 46.85860 | 7.78162 | 284° | 11km/h | 27620m | 5.4m/s | -48.3°C | 0.6% | -1.0hPa | 2.7V | 00:00:00 | 00:00:00 | 00:00:00 | |
| DM0DOS-11 | 2026-09-01 00:28:17 | 46.85860 | 7.78186 | 254° | 9km/h | 27581m | 6.2m/s | -48.5°C | 3.1% | 0hPa | 2.7V | 08:30:00 | 01:51:55 | 00:00:00 | |
| BIOWL1-15 | 2026-09-01 00:28:17 | 46.85860 | 7.78195 | 20° | 2km/h | 27553m | 5m/s | -48.5°C | 0% | 0hPa | 2.7V | 18:12:15 | 01:51:50 | 00:00:00 | |
| IW2NTF | 2026-09-01 00:28:13 | 46.85861 | 7.78190 | 256° | 9km/h | 27575m | 4.8m/s | -48.5°C | 3.1% | 0hPa | 2.7V | 08:30:00 | 01:51:54 | 00:00:00 | |
| DM0DOS-11 | 2026-09-01 00:28:07 | 46.85860 | 7.78205 | 279° | 7km/h | 27525m | 5.9m/s | -48.6°C | 3.1% | 0hPa | 2.6V | 08:30:00 | 01:51:45 | 00:00:00 | |
| HASLITAL | 2026-09-01 00:28:06 | 46.85860 | 7.78195 | 21° | 2km/h | 27553m | 5.0m/s | -48.5°C | 0.7% | 0hPa | 2.7V | 00:00:00 | 00:00:00 | 00:00:00 | |
| IW2NTF | 2026-09-01 00:28:03 | 46.85859 | 7.78207 | 300° | 7km/h | 27519m | 6.1m/s | -48.6°C | 3.1% | 0hPa | 2.7V | 08:30:00 | 01:51:44 | 00:00:00 | |
| BIOWL1-15 | 2026-09-01 00:28:01 | 46.85859 | 7.78207 | 301° | 7km/h | 27519m | 6.1m/s | -48.6°C | 0% | 0hPa | 2.7V | 18:12:15 | 01:51:44 | 00:00:00 | |
| DB0UT-7 | 2026-09-01 00:27:59 | 46.85857 | 7.78210 | 321° | 9km/h | 27509m | 4.6m/s | -48.6°C | 3.1% | 0hPa | 2.6V | 00:00:00 | 00:00:00 | 00:00:00 | |
| DM0DOS-11 | 2026-09-01 00:27:57 | 46.85857 | 7.78235 | 306° | 9km/h | 27468m | 5.6m/s | -48.8°C | 3.2% | 0hPa | 2.6V | 08:30:00 | 01:51:35 | 00:00:00 | |
| IW2NTF | 2026-09-01 00:27:53 | 46.85855 | 7.78237 | 316° | 9km/h | 27463m | 4.8m/s | -48.8°C | 3.2% | 0hPa | 2.6V | 08:30:00 | 01:51:34 | 00:00:00 | |
| BIOWL1-15 | 2026-09-01 00:27:51 | 46.85853 | 7.78242 | 291° | 7km/h | 27452m | 6.7m/s | -48.8°C | 0% | 0hPa | 2.7V | 18:12:15 | 01:51:32 | 00:00:00 | |
| BIOWL9-15 | 2026-09-01 00:27:49 | 46.85853 | 7.78242 | 291° | 7km/h | 27452m | 6.7m/s | -48.8°C | 0.7% | -1.0hPa | 2.6V | 00:00:00 | 00:00:00 | 00:00:00 | |
| DM0DOS-11 | 2026-09-01 00:27:47 | 46.85839 | 7.78263 | 327° | 13km/h | 27406m | 6.7m/s | -48.8°C | 3.1% | 0hPa | 2.6V | 08:30:00 | 01:51:24 | 00:00:00 | |
| DK5PH-5 | 2026-09-01 00:27:47 | 46.85853 | 7.78248 | 268° | 9km/h | 27441m | 4.9m/s | -48.8°C | 3.2% | 0hPa | 2.6V | 00:00:00 | 01:51:30 | 00:00:00 | |
| HASLITAL | 2026-09-01 00:27:45 | 46.85852 | 7.78252 | 284° | 9km/h | 27436m | 5.0m/s | -48.8°C | 0.7% | 0hPa | 2.6V | 00:00:00 | 00:00:00 | 00:00:00 | |
| IW2NTF | 2026-09-01 00:27:44 | 46.85837 | 7.78265 | 311° | 11km/h | 27400m | 5.8m/s | -48.8°C | 3.1% | 0hPa | 2.6V | 08:30:00 | 01:51:23 | 00:00:00 | |
| BIOWL1-15 | 2026-09-01 00:27:39 | 46.85835 | 7.78268 | 304° | 11km/h | 27395m | 4.8m/s | -48.8°C | 0% | 0hPa | 2.7V | 18:12:15 | 01:51:22 | 00:00:00 | |
| DM0DOS-11 | 2026-09-01 00:27:36 | 46.85831 | 7.78277 | 286° | 0km/h | 27350m | 5.2m/s | -48.7°C | 3.1% | 0hPa | 2.6V | 08:30:00 | 01:51:14 | 00:00:00 | |
| DO3MHA-11 | 2026-09-01 00:27:34 | 46.85830 | 7.78275 | 252° | 7km/h | 27367m | 6.8m/s | -48.7°C | 3.2% | 0hPa | 2.6V | 00:00:00 | 01:51:17 | 00:00:00 | |
| IW2NTF | 2026-09-01 00:27:32 | 46.85831 | 7.78277 | 4° | 5km/h | 27344m | 6.6m/s | -48.7°C | 3.2% | 0hPa | 2.6V | 08:30:00 | 01:51:13 | 00:00:00 | |
| BIOWL1-15 | 2026-09-01 00:27:28 | 46.85820 | 7.78280 | 291° | 5km/h | 27315m | 5.6m/s | -48.7°C | 0% | 0hPa | 2.6V | 18:12:15 | 01:51:08 | 00:00:00 | |
| DF7PN | 2026-09-01 00:27:28 | 46.85823 | 7.78278 | 346° | 9km/h | 27327m | 5.5m/s | -48.7°C | 0.7% | -1.0hPa | 2.7V | 00:00:00 | 00:00:00 | 00:00:00 | |
| DM0DOS-11 | 2026-09-01 00:27:26 | 46.85821 | 7.78280 | 81° | 7km/h | 27293m | 6m/s | -48.6°C | 3.1% | 0hPa | 2.7V | 08:30:00 | 01:51:04 | 00:00:00 | |
| DO3MHA-11 | 2026-09-01 00:27:24 | 46.85820 | 7.78282 | 245° | 5km/h | 27310m | 4.7m/s | -48.6°C | 3.2% | 0hPa | 2.6V | 00:00:00 | 01:51:07 | 00:00:00 | |
| IW2NTF | 2026-09-01 00:27:22 | 46.85820 | 7.78277 | 73° | 9km/h | 27288m | 4.8m/s | -48.6°C | 3.1% | 0hPa | 2.6V | 08:30:00 | 01:51:03 | 00:00:00 | |
| DB0ND-19 | 2026-09-01 00:27:20 | 46.85819 | 7.78272 | 78° | 4km/h | 27277m | 5.9m/s | -48.6°C | -1.0% | -1.0hPa | 2.7V | 00:00:00 | 00:00:00 | 00:00:00 | |
| BIOWL9-15 | 2026-09-01 00:27:18 | 46.85819 | 7.78272 | 78° | 4km/h | 27277m | 5.9m/s | -48.6°C | 0.6% | -1.0hPa | 2.7V | 00:00:00 | 00:00:00 | 00:00:00 | |
| DK5PH-5 | 2026-09-01 00:27:17 | 46.85819 | 7.78271 | 72° | 7km/h | 27272m | 5.7m/s | -48.6°C | 3.1% | 0hPa | 2.7V | 00:00:00 | 01:51:00 | 08:30:00 | |
| DM0DOS-11 | 2026-09-01 00:27:16 | 46.85812 | 7.78275 | 139° | 7km/h | 27227m | 6.2m/s | -48.9°C | 3.2% | 0hPa | 2.6V | 08:30:00 | 01:50:52 | 00:00:00 | |
| BIOWL1-15 | 2026-09-01 00:27:15 | 46.85817 | 7.78260 | 263° | 5km/h | 27178m | 4.8m/s | -49°C | 0% | 0hPa | 2.7V | 18:12:15 | 01:50:43 | 00:00:00 | |
| OE5DXL-15 | 2026-09-01 00:27:13 | 46.85813 | 7.78277 | 355° | 7km/h | 27244m | 4.8m/s | -48.7°C | 3.1% | 0hPa | 2.7V | 00:00:00 | 00:00:00 | 00:00:00 | |
| DO3MHA-11 | 2026-09-01 00:27:12 | 46.85813 | 7.78277 | 355° | 7km/h | 27244m | 4.8m/s | -48.7°C | 3.1% | 0hPa | 2.7V | 00:00:00 | 01:50:55 | 00:00:00 | |
| IW2NTF | 2026-09-01 00:27:11 | 46.85811 | 7.78277 | 93° | 4km/h | 27233m | 6.5m/s | -48.8°C | 3.1% | 0hPa | 2.7V | 08:30:00 | 01:50:53 | 00:00:00 | |
| IW2NTF | 2026-09-01 00:27:03 | 46.85817 | 7.78260 | 262° | 5km/h | 27178m | 4.8m/s | -49°C | 3.2% | 0hPa | 2.7V | 08:30:00 | 01:50:43 | 00:00:00 | |
| BIOWL1-15 | 2026-09-01 00:27:01 | 46.85817 | 7.78261 | 250° | 4km/h | 27174m | 3.8m/s | -49°C | 0% | 0hPa | 2.7V | 18:12:15 | 01:50:42 | 00:00:00 | |
| DL1ZP-14 | 2026-09-01 00:27:00 | 46.85817 | 7.78261 | 250° | 4km/h | 27174m | 3.8m/s | -49.0°C | 0.7% | -1.0hPa | 2.7V | 00:00:00 | 00:00:00 | 00:00:00 | |
| DF7PN | 2026-09-01 00:26:57 | 46.85816 | 7.78248 | 98° | 15km/h | 27146m | 5.7m/s | -48.8°C | 0.7% | -1.0hPa | 2.6V | 00:00:00 | 00:00:00 | 00:00:00 | |
| DM0DOS-11 | 2026-09-01 00:26:54 | 46.85824 | 7.78232 | 133° | 11km/h | 27124m | 5.6m/s | -48.8°C | 3.1% | 0hPa | 2.6V | 08:30:00 | 01:50:33 | 00:00:00 | |
| BIOWL1-15 | 2026-09-01 00:26:50 | 46.85824 | 7.78232 | 134° | 11km/h | 27124m | 5.6m/s | -48.8°C | 0% | 0hPa | 2.6V | 18:12:15 | 01:50:33 | 00:00:00 | |
| DB0ND-19 | 2026-09-01 00:26:49 | 46.85827 | 7.78221 | 91° | 4km/h | 27102m | 6.1m/s | -48.8°C | -1.0% | -1.0hPa | 2.7V | 00:00:00 | 00:00:00 | 00:00:00 | |
| BIOWL9-15 | 2026-09-01 00:26:47 | 46.85827 | 7.78221 | 91° | 4km/h | 27102m | 6.1m/s | -48.8°C | 0.7% | -1.0hPa | 2.7V | 00:00:00 | 00:00:00 | 00:00:00 | |
| DK5PH-5 | 2026-09-01 00:26:45 | 46.85827 | 7.78219 | 114° | 11km/h | 27096m | 6.3m/s | -48.7°C | 3.1% | 0hPa | 2.7V | 00:00:00 | 01:50:28 | 00:00:00 | |
| HASLITAL | 2026-09-01 00:26:43 | 46.85827 | 7.78219 | 123° | 2km/h | 27090m | 5.3m/s | -48.8°C | 0.8% | 0hPa | 2.7V | 00:00:00 | 00:00:00 | 00:00:00 | |
| BIOWL1-15 | 2026-09-01 00:26:36 | 46.85813 | 7.78152 | 68° | 18km/h | 26988m | 5.9m/s | -48.9°C | 0% | 0hPa | 2.7V | 18:12:15 | 01:50:09 | 00:00:00 | |
| IW2NTF | 2026-09-01 00:26:30 | 46.85819 | 7.78173 | 62° | 15km/h | 27011m | 6.5m/s | -48.8°C | 3.1% | 0hPa | 2.6V | 08:30:00 | 01:50:13 | 00:00:00 | |
| BIOWL1-15 | 2026-09-01 00:26:26 | 46.85810 | 7.78141 | 68° | 15km/h | 26978m | 4.9m/s | -48.9°C | 0% | 0hPa | 2.6V | 18:12:15 | 01:50:07 | 00:00:00 | |
| DO3MHA-11 | 2026-09-01 00:26:26 | 46.85813 | 7.78152 | 68° | 11km/h | 26988m | 5.9m/s | -48.8°C | 3.2% | 0hPa | 2.7V | 00:00:00 | 01:50:09 | 00:00:00 | |
| HASLITAL | 2026-09-01 00:26:22 | 46.85809 | 7.78136 | 74° | 9km/h | 26972m | 6.4m/s | -48.9°C | 0.8% | 0hPa | 2.7V | 00:00:00 | 00:00:00 | 00:00:00 | |
| IW2NTF | 2026-09-01 00:26:20 | 46.85807 | 7.78131 | 24° | 7km/h | 26955m | 4.6m/s | -48.9°C | 3.2% | 0hPa | 2.7V | 08:30:00 | 01:50:03 | 00:00:00 | |
| BIOWL1-15 | 2026-09-01 00:26:13 | 46.85783 | 7.78107 | 42° | 13km/h | 26905m | 6.4m/s | -49°C | 0% | 0hPa | 2.6V | 18:12:15 | 01:49:54 | 00:00:00 | |
| DK5PH-5 | 2026-09-01 00:26:12 | 46.85785 | 7.78109 | 47° | 13km/h | 26911m | 5.2m/s | -48.9°C | 3.2% | 0hPa | 2.7V | 00:00:00 | 01:49:55 | 00:00:00 | |
| IW2NTF | 2026-09-01 00:26:11 | 46.85780 | 7.78104 | 35° | 13km/h | 26899m | 5.7m/s | -48.9°C | 3.2% | 0hPa | 2.7V | 08:30:00 | 01:49:53 | 00:00:00 | |
| BIOWL1-15 | 2026-09-01 00:26:03 | 46.85758 | 7.78107 | 16° | 15km/h | 26850m | 5m/s | -48.9°C | 0% | 0hPa | 2.6V | 18:12:15 | 01:49:44 | 00:00:00 | |
| HASLITAL | 2026-09-01 00:26:01 | 46.85761 | 7.78108 | 4° | 15km/h | 26855m | 5.3m/s | -48.9°C | 0.8% | 0hPa | 2.6V | 00:00:00 | 00:00:00 | 00:00:00 | |
| BIOWL1-15 | 2026-09-01 00:25:51 | 46.85711 | 7.78089 | 346° | 22km/h | 26756m | 4.8m/s | -49.2°C | 0% | 0hPa | 2.6V | 18:12:15 | 01:49:27 | 00:00:00 | |
| BIOWL9-15 | 2026-09-01 00:25:45 | 46.85711 | 7.78089 | 346° | 22km/h | 26756m | 4.8m/s | -49.2°C | 0.7% | -1.0hPa | 2.6V | 00:00:00 | 00:00:00 | 00:00:00 | |
| DM0DOS-11 | 2026-09-01 00:25:42 | 46.85692 | 7.78090 | 8° | 15km/h | 26733m | 5.2m/s | -49.3°C | 3.3% | 0hPa | 2.6V | 08:30:00 | 01:49:23 | 00:00:00 | |
| DK5PH-5 | 2026-09-01 00:25:42 | 46.85700 | 7.78090 | 360° | 13km/h | 26745m | 6.4m/s | -49.2°C | 3.2% | 0hPa | 2.7V | 00:00:00 | 01:49:25 | 00:00:00 | |
| IW2NTF | 2026-09-01 00:25:40 | 46.85684 | 7.78089 | 1° | 18km/h | 26722m | 6.5m/s | -49.4°C | 3.3% | 0hPa | 2.6V | 08:30:00 | 01:49:21 | 00:00:00 | |
| HASLITAL | 2026-09-01 00:25:40 | 46.85696 | 7.78090 | 7° | 16km/h | 26739m | 5.5m/s | -49.3°C | 0.8% | 0hPa | 2.7V | 00:00:00 | 00:00:00 | 00:00:00 | |
| DO3MHA-12 | 2026-09-01 00:25:38 | 46.85684 | 7.78088 | 2° | 15km/h | 26722m | 6.4m/s | -49.3°C | 3.3% | 0hPa | 2.7V | 00:00:00 | 01:49:21 | 00:00:00 | |
| DH7VM-15 | 2026-09-01 00:25:36 | 46.85680 | 7.78089 | 356° | 20km/h | 26716m | 5.7m/s | -49.4°C | 0.8% | 0hPa | 2.7V | 00:00:00 | 00:00:00 | 00:00:00 | |
| DO3MHA-11 | 2026-09-01 00:25:35 | 46.85671 | 7.78091 | 345° | 13km/h | 26706m | 5.4m/s | -49.4°C | 3.3% | 0hPa | 2.7V | 00:00:00 | 01:49:18 | 00:00:00 | |
| DM0DOS-11 | 2026-09-01 00:25:34 | 46.85655 | 7.78099 | 356° | 16km/h | 26675m | 5.7m/s | -49.3°C | 3.3% | 0hPa | 2.7V | 08:30:00 | 01:49:13 | 00:00:00 | |
| BIOWL1-15 | 2026-09-01 00:25:34 | 46.85667 | 7.78093 | 337° | 13km/h | 26699m | 6.9m/s | -49.4°C | 0% | 0hPa | 2.6V | 18:12:15 | 01:49:17 | 00:00:00 | |
| IW2NTF | 2026-09-01 00:25:30 | 46.85647 | 7.78098 | 6° | 15km/h | 26665m | 5m/s | -49.3°C | 3.3% | 0hPa | 2.6V | 08:30:00 | 01:49:11 | 00:00:00 | |
| BIOWL1-15 | 2026-09-01 00:25:24 | 46.85634 | 7.78111 | 265° | 11km/h | 26608m | 5.5m/s | -49.2°C | 0% | 0hPa | 2.7V | 18:12:15 | 01:49:01 | 00:00:00 | |
| DF7PN | 2026-09-01 00:25:24 | 46.85634 | 7.78104 | 293° | 7km/h | 26621m | 5.9m/s | -49.3°C | 0.7% | -1.0hPa | 2.6V | 00:00:00 | 00:00:00 | 00:00:00 | |
| HASLITAL | 2026-09-01 00:25:19 | 46.85634 | 7.78104 | 294° | 9km/h | 26621m | 5.9m/s | -49.3°C | 0.8% | 0hPa | 2.6V | 00:00:00 | 00:00:00 | 00:00:00 | |
| DO3MHA-12 | 2026-09-01 00:25:17 | 46.85634 | 7.78115 | 275° | 9km/h | 26603m | 4.8m/s | -49.2°C | 3.2% | 0hPa | 2.6V | 00:00:00 | 01:49:00 | 00:00:00 | |
| DO3MHA-11 | 2026-09-01 00:25:15 | 46.85631 | 7.78122 | 312° | 7km/h | 26591m | 6.2m/s | -49.1°C | 3.3% | 0hPa | 2.6V | 00:00:00 | 01:48:58 | 08:30:00 | |
| DM0DOS-11 | 2026-09-01 00:25:14 | 46.85625 | 7.78134 | 262° | 5km/h | 26562m | 5.5m/s | -49.2°C | 3.2% | 0hPa | 2.6V | 08:30:00 | 01:48:53 | 00:00:00 | |
| BIOWL1-15 | 2026-09-01 00:25:12 | 46.85632 | 7.78148 | 211° | 13km/h | 26526m | 5.1m/s | -49.1°C | 0% | 0hPa | 2.6V | 18:12:15 | 01:48:47 | 00:00:00 | |
| DK5PH-5 | 2026-09-01 00:25:12 | 46.85626 | 7.78130 | 302° | 7km/h | 26574m | 6.6m/s | -49.1°C | 3.2% | 0hPa | 2.7V | 00:00:00 | 01:48:55 | 00:00:00 | |
| IW2NTF | 2026-09-01 00:25:10 | 46.85625 | 7.78138 | 264° | 7km/h | 26550m | 5.4m/s | -49.2°C | 3.2% | 0hPa | 2.7V | 08:30:00 | 01:48:51 | 00:00:00 | |
| BIOWL1-15 | 2026-09-01 00:25:06 | 46.85636 | 7.78153 | 238° | 7km/h | 26516m | 6.4m/s | -49.1°C | 0% | 0hPa | 2.7V | 18:12:15 | 01:48:45 | 00:00:00 | |
| DO3MHA-11 | 2026-09-01 00:25:05 | 46.85629 | 7.78146 | 216° | 7km/h | 26533m | 6.4m/s | -49.1°C | 3.2% | 0hPa | 2.6V | 00:00:00 | 01:48:48 | 00:00:00 | |
| DM0DOS-11 | 2026-09-01 00:25:04 | 46.85635 | 7.78156 | 325° | 5km/h | 26504m | 5.1m/s | -49°C | 3.2% | 0hPa | 2.6V | 08:30:00 | 01:48:43 | 00:00:00 | |
| IW2NTF | 2026-09-01 00:25:00 | 46.85633 | 7.78158 | 316° | 2km/h | 26494m | 6.6m/s | -49°C | 3.2% | 0hPa | 2.6V | 08:30:00 | 01:48:41 | 00:00:00 | |
| DB0UT-7 | 2026-09-01 00:24:59 | 46.85634 | 7.78157 | 330° | 11km/h | 26500m | 4.9m/s | -49.0°C | 3.2% | 0hPa | 2.7V | 00:00:00 | 00:00:00 | 00:00:00 | |
| DO3MHA-12 | 2026-09-01 00:24:56 | 46.85635 | 7.78158 | 174° | 11km/h | 26482m | 5.5m/s | -49.0°C | 3.2% | 0hPa | 2.7V | 00:00:00 | 01:48:39 | 00:00:00 | |
| DO3MHA-11 | 2026-09-01 00:24:55 | 46.85637 | 7.78158 | 180° | 11km/h | 26476m | 6.3m/s | -49.0°C | 3.2% | 0hPa | 2.7V | 00:00:00 | 01:48:38 | 00:00:00 | |
| DM0DOS-11 | 2026-09-01 00:24:53 | 46.85651 | 7.78165 | 202° | 16km/h | 26447m | 6m/s | -49°C | 3.2% | 0hPa | 2.7V | 08:30:00 | 01:48:33 | 00:00:00 | |
| BIOWL1-15 | 2026-09-01 00:24:52 | 46.85657 | 7.78166 | 62° | 9km/h | 26420m | 4.6m/s | -49.2°C | 0% | 0hPa | 2.7V | 18:12:15 | 01:48:28 | 00:00:00 | |
| IW2NTF | 2026-09-01 00:24:50 | 46.85657 | 7.78168 | 201° | 7km/h | 26437m | 5m/s | -49.1°C | 3.2% | 0hPa | 2.6V | 08:30:00 | 01:48:31 | 00:00:00 | |
| DO3MHA-12 | 2026-09-01 00:24:46 | 46.85658 | 7.78168 | 51° | 13km/h | 26426m | 5.7m/s | -49.1°C | 3.2% | 0hPa | 2.7V | 00:00:00 | 01:48:29 | 00:00:00 | |
| DO3MHA-11 | 2026-09-01 00:24:45 | 46.85657 | 7.78166 | 62° | 13km/h | 26420m | 4.5m/s | -49.1°C | 3.2% | 0hPa | 2.7V | 00:00:00 | 01:48:28 | 00:00:00 | |
| DM0DOS-11 | 2026-09-01 00:24:43 | 46.85666 | 7.78151 | 170° | 18km/h | 26394m | 4.9m/s | -49.2°C | 3.2% | 0hPa | 2.7V | 08:30:00 | 01:48:23 | 00:00:00 | |
| BIOWL9-15 | 2026-09-01 00:24:43 | 46.85658 | 7.78155 | 141° | 13km/h | 26405m | 5.8m/s | -49.2°C | 0.7% | -1.0hPa | 2.6V | 00:00:00 | 00:00:00 | 00:00:00 | |
| DK5PH-5 | 2026-09-01 00:24:42 | 46.85658 | 7.78155 | 142° | 15km/h | 26405m | 5.8m/s | -49.1°C | 3.2% | 0hPa | 2.6V | 00:00:00 | 01:48:25 | 00:00:00 | |
| IW2NTF | 2026-09-01 00:24:40 | 46.85675 | 7.78149 | 172° | 13km/h | 26383m | 5.8m/s | -49.2°C | 3.2% | 0hPa | 2.6V | 08:30:00 | 01:48:21 | 00:00:00 | |
| BIOWL1-15 | 2026-09-01 00:24:35 | 46.85692 | 7.78101 | 107° | 15km/h | 26323m | 6.4m/s | -49.2°C | 0% | 0hPa | 2.6V | 18:12:15 | 01:48:10 | 00:00:00 | |
| DO3MHA-11 | 2026-09-01 00:24:35 | 46.85682 | 7.78143 | 130° | 16km/h | 26368m | 5.5m/s | -49.2°C | 3.3% | 0hPa | 2.6V | 00:00:00 | 01:48:18 | 00:00:00 | |
| DM0DOS-11 | 2026-09-01 00:24:33 | 46.85691 | 7.78116 | 94° | 15km/h | 26340m | 6.5m/s | -49.2°C | 3.3% | 0hPa | 2.6V | 08:30:00 | 01:48:13 | 00:00:00 | |
| OE5DXL-15 | 2026-09-01 00:24:32 | 46.85692 | 7.78116 | 95° | 18km/h | 26340m | 6.4m/s | -49.2°C | 3.3% | 0hPa | 2.6V | 00:00:00 | 00:00:00 | 08:30:00 | |
| IW2NTF | 2026-09-01 00:24:30 | 46.85691 | 7.78106 | 93° | 15km/h | 26329m | 4.4m/s | -49.2°C | 3.2% | 0hPa | 2.7V | 08:30:00 | 01:48:11 | 00:00:00 | |
| DB0UT-7 | 2026-09-01 00:24:29 | 46.85692 | 7.78111 | 86° | 18km/h | 26334m | 5.2m/s | -49.2°C | 3.2% | 0hPa | 2.7V | 00:00:00 | 01:48:12 | 08:30:00 | |
| DO3MHA-11 | 2026-09-01 00:24:25 | 46.85696 | 7.78089 | 121° | 15km/h | 26312m | 4.5m/s | -49.2°C | 3.3% | 0hPa | 2.6V | 00:00:00 | 01:48:08 | 00:00:00 | |
| DL1ZP-14 | 2026-09-01 00:24:24 | 46.85699 | 7.78082 | 119° | 22km/h | 26308m | 4.5m/s | -49.2°C | 0.7% | -1.0hPa | 2.6V | 00:00:00 | 00:00:00 | 00:00:00 | |
| DM0DOS-11 | 2026-09-01 00:24:23 | 46.85704 | 7.78059 | 90° | 11km/h | 26285m | 4.9m/s | -49.2°C | 3.2% | 0hPa | 2.6V | 08:30:00 | 01:48:03 | 00:00:00 | |
| BIOWL1-15 | 2026-09-01 00:24:22 | 46.85704 | 7.78059 | 91° | 11km/h | 26286m | 4.9m/s | -49.2°C | 0% | 0hPa | 2.6V | 18:12:15 | 01:48:03 | 00:00:00 | |
| DF7PN | 2026-09-01 00:24:21 | 46.85704 | 7.78063 | 95° | 13km/h | 26291m | 5.1m/s | -49.2°C | 0.7% | -1.0hPa | 2.7V | 00:00:00 | 00:00:00 | 00:00:00 | |
| IW2NTF | 2026-09-01 00:24:19 | 46.85705 | 7.78052 | 117° | 11km/h | 26275m | 5.9m/s | -49.2°C | 3.2% | 0hPa | 2.7V | 08:30:00 | 01:48:01 | 00:00:00 | |
| HASLITAL | 2026-09-01 00:24:18 | 46.85704 | 7.78055 | 102° | 9km/h | 26281m | 5.4m/s | -49.2°C | 0.8% | 0hPa | 2.6V | 00:00:00 | 00:00:00 | 00:00:00 | |
| DO3MHA-11 | 2026-09-01 00:24:15 | 46.85710 | 7.78042 | 115° | 22km/h | 26260m | 5.1m/s | -49.2°C | 3.2% | 0hPa | 2.6V | 00:00:00 | 01:47:58 | 00:00:00 | |
| DM0DOS-11 | 2026-09-01 00:24:13 | 46.85706 | 7.78011 | 82° | 27km/h | 26231m | 7m/s | -49.2°C | 3.2% | 0hPa | 2.6V | 08:30:00 | 01:47:53 | 00:00:00 | |
| BIOWL1-15 | 2026-09-01 00:24:11 | 46.85708 | 7.78020 | 75° | 24km/h | 26237m | 5.1m/s | -49.2°C | 0% | 0hPa | 2.7V | 18:12:15 | 01:47:54 | 00:00:00 | |
| IW2NTF | 2026-09-01 00:24:09 | 46.85706 | 7.77989 | 88° | 31km/h | 26219m | 5m/s | -49.2°C | 3.2% | 0hPa | 2.6V | 08:30:00 | 01:47:51 | 00:00:00 | |
| BIOWL1-15 | 2026-09-01 00:24:05 | 46.85702 | 7.77927 | 94° | 20km/h | 26180m | 5m/s | -49.2°C | 0% | 0hPa | 2.7V | 18:12:15 | 01:47:44 | 00:00:00 | |
| DO3MHA-11 | 2026-09-01 00:24:05 | 46.85703 | 7.77958 | 79° | 22km/h | 26202m | 5.1m/s | -49.1°C | 3.2% | 0hPa | 2.7V | 00:00:00 | 01:47:48 | 00:00:00 | |
| DM0DOS-11 | 2026-09-01 00:24:03 | 46.85702 | 7.77919 | 86° | 20km/h | 26175m | 4.2m/s | -49.2°C | 3.2% | 0hPa | 2.7V | 08:30:00 | 01:47:43 | 00:00:00 | |
| OE5DXL-15 | 2026-09-01 00:24:02 | 46.85701 | 7.77927 | 95° | 20km/h | 26180m | 4.9m/s | -49.2°C | 3.2% | 0hPa | 2.7V | 00:00:00 | 00:00:00 | 00:00:00 | |
| DB0UT-7 | 2026-09-01 00:23:59 | 46.85701 | 7.77912 | 76° | 20km/h | 26170m | 5.9m/s | -49.2°C | 3.2% | 0hPa | 2.7V | 00:00:00 | 00:00:00 | 00:00:00 | |
| HASLITAL | 2026-09-01 00:23:57 | 46.85699 | 7.77906 | 62° | 20km/h | 26164m | 6.3m/s | -49.3°C | 0.8% | 0hPa | 2.7V | 00:00:00 | 00:00:00 | 00:00:00 | |
| DO3MHA-12 | 2026-09-01 00:23:55 | 46.85690 | 7.77886 | 61° | 24km/h | 26146m | 6.4m/s | -49.2°C | 3.2% | 0hPa | 2.7V | 00:00:00 | 01:47:38 | 00:00:00 | |
| DM0DOS-11 | 2026-09-01 00:23:53 | 46.85676 | 7.77842 | 55° | 22km/h | 26118m | 5.4m/s | -49.2°C | 3.2% | 0hPa | 2.6V | 08:30:00 | 01:47:33 | 00:00:00 | |
| BIOWL1-15 | 2026-09-01 00:23:51 | 46.85651 | 7.77789 | 39° | 26km/h | 26075m | 5.2m/s | -49.5°C | 0% | 0hPa | 2.6V | 18:12:15 | 01:47:25 | 00:00:00 | |
| IW2NTF | 2026-09-01 00:23:50 | 46.85670 | 7.77829 | 60° | 20km/h | 26107m | 5.8m/s | -49.2°C | 3.2% | 0hPa | 2.7V | 08:30:00 | 01:47:31 | 00:00:00 | |
| DO3MHA-12 | 2026-09-01 00:23:45 | 46.85663 | 7.77808 | 61° | 22km/h | 26092m | 4.0m/s | -49.3°C | 3.2% | 0hPa | 2.6V | 00:00:00 | 01:47:28 | 00:00:00 | |
| DM0DOS-11 | 2026-09-01 00:23:42 | 46.85642 | 7.77777 | 48° | 24km/h | 26063m | 6.4m/s | -49.6°C | 3.3% | 0hPa | 2.6V | 08:30:00 | 01:47:23 | 00:00:00 | |
| DK5PH-5 | 2026-09-01 00:23:42 | 46.85651 | 7.77789 | 39° | 16km/h | 26075m | 5.2m/s | -49.4°C | 3.2% | 0hPa | 2.7V | 00:00:00 | 01:47:25 | 00:00:00 | |
| BIOWL9-15 | 2026-09-01 00:23:41 | 46.85642 | 7.77777 | 48° | 22km/h | 26064m | 6.4m/s | -49.6°C | 0.7% | -1.0hPa | 2.7V | 00:00:00 | 00:00:00 | 00:00:00 | |
| IW2NTF | 2026-09-01 00:23:40 | 46.85636 | 7.77765 | 55° | 18km/h | 26053m | 4.6m/s | -49.8°C | 3.3% | 0hPa | 2.7V | 08:30:00 | 01:47:21 | 00:00:00 | |
| BIOWL1-15 | 2026-09-01 00:23:40 | 46.85628 | 7.77753 | 37° | 13km/h | 26036m | 5.1m/s | -49.9°C | 0% | 0hPa | 2.6V | 18:12:15 | 01:47:18 | 00:00:00 | |
| HASLITAL | 2026-09-01 00:23:36 | 46.85633 | 7.77760 | 51° | 16km/h | 26048m | 6.3m/s | -49.8°C | 0.8% | 0hPa | 2.6V | 00:00:00 | 00:00:00 | 00:00:00 | |
| DO3MHA-11 | 2026-09-01 00:23:35 | 46.85628 | 7.77753 | 38° | 18km/h | 26036m | 5.1m/s | -49.9°C | 3.3% | 0hPa | 2.6V | 00:00:00 | 01:47:18 | 00:00:00 | |
| DM0DOS-11 | 2026-09-01 00:23:32 | 46.85615 | 7.77735 | 32° | 20km/h | 26009m | 6.3m/s | -50°C | 3.3% | 0hPa | 2.6V | 08:30:00 | 01:47:13 | 00:00:00 | |
| BIOWL1-15 | 2026-09-01 00:23:26 | 46.85592 | 7.77719 | 32° | 24km/h | 25986m | 6.3m/s | -50°C | 0% | 0hPa | 2.7V | 18:12:15 | 01:47:09 | 00:00:00 | |
| DO3MHA-11 | 2026-09-01 00:23:25 | 46.85587 | 7.77714 | 40° | 9km/h | 25981m | 5.3m/s | -49.9°C | 3.3% | 0hPa | 2.7V | 00:00:00 | 01:47:08 | 00:00:00 | |
| DM0DOS-11 | 2026-09-01 00:23:22 | 46.85577 | 7.77705 | 1° | 5km/h | 25953m | 4.8m/s | -50°C | 3.3% | 0hPa | 2.7V | 08:30:00 | 01:47:03 | 00:00:00 | |
| IW2NTF | 2026-09-01 00:23:19 | 46.85575 | 7.77703 | 50° | 5km/h | 25942m | 5.6m/s | -50.2°C | 3.4% | 0hPa | 2.6V | 08:30:00 | 01:47:01 | 00:00:00 | |
| BIOWL1-15 | 2026-09-01 00:23:15 | 46.85551 | 7.77692 | 6° | 18km/h | 25911m | 4.1m/s | -50.3°C | 0% | 0hPa | 2.6V | 18:12:15 | 01:46:55 | 00:00:00 | |
| DO3MHA-12 | 2026-09-01 00:23:15 | 46.85567 | 7.77696 | 20° | 13km/h | 25928m | 6.5m/s | -50.2°C | 3.3% | 0hPa | 2.7V | 00:00:00 | 01:46:58 | 00:00:00 | |
| DK5PH-5 | 2026-09-01 00:23:12 | 46.85551 | 7.77692 | 6° | 9km/h | 25912m | 4.1m/s | -50.3°C | 3.4% | 0hPa | 2.7V | 00:00:00 | 01:46:55 | 00:00:00 | |
| DM0DOS-11 | 2026-09-01 00:23:11 | 46.85545 | 7.77690 | 37° | 5km/h | 25900m | 6.4m/s | -50.3°C | 3.4% | 0hPa | 2.7V | 08:30:00 | 01:46:53 | 00:00:00 | |
| IW2NTF | 2026-09-01 00:23:09 | 46.85547 | 7.77689 | 172° | 9km/h | 25889m | 4.7m/s | -50.4°C | 3.4% | 0hPa | 2.6V | 08:30:00 | 01:46:51 | 00:00:00 | |
| BIOWL1-15 | 2026-09-01 00:23:05 | 46.85546 | 7.77689 | 29° | 9km/h | 25852m | 5.4m/s | -50.7°C | 0.1% | 0hPa | 2.6V | 18:12:15 | 01:46:44 | 00:00:00 | |
| DM0DOS-11 | 2026-09-01 00:23:05 | 46.85545 | 7.77688 | 15° | 7km/h | 25847m | 4.3m/s | -50.7°C | 3.5% | 0hPa | 2.6V | 08:30:00 | 01:46:43 | 00:00:00 | |
| DO3MHA-11 | 2026-09-01 00:23:05 | 46.85552 | 7.77690 | 257° | 7km/h | 25874m | 5.0m/s | -50.4°C | 3.4% | 0hPa | 2.7V | 00:00:00 | 01:46:48 | 00:00:00 | |
| IW2NTF | 2026-09-01 00:22:59 | 46.85542 | 7.77690 | 280° | 7km/h | 25836m | 5.6m/s | -50.8°C | 3.5% | 0hPa | 2.7V | 08:30:00 | 01:46:41 | 00:00:00 | |
| DB0UT-7 | 2026-09-01 00:22:59 | 46.85543 | 7.77688 | 337° | 13km/h | 25842m | 5.6m/s | -50.7°C | 3.5% | 0hPa | 2.6V | 00:00:00 | 00:00:00 | 00:00:00 | |
| OE5DXL-15 | 2026-09-01 00:22:58 | 46.85542 | 7.77693 | 248° | 9km/h | 25831m | 4.6m/s | -50.7°C | 3.6% | 0hPa | 2.7V | 00:00:00 | 00:00:00 | 00:00:00 | |
| HASLITAL | 2026-09-01 00:22:57 | 46.85543 | 7.77693 | 248° | 11km/h | 25831m | 4.7m/s | -50.8°C | 0.9% | 0hPa | 2.6V | 00:00:00 | 00:00:00 | 00:00:00 | |
| DO3MHA-12 | 2026-09-01 00:22:55 | 46.85547 | 7.77700 | 208° | 9km/h | 25821m | 5.8m/s | -50.7°C | 3.5% | 0hPa | 2.6V | 00:00:00 | 01:46:38 | 08:30:00 | |
| DM0DOS-11 | 2026-09-01 00:22:53 | 46.85564 | 7.77701 | 203° | 4km/h | 25793m | 6.3m/s | -50.7°C | 3.5% | 0hPa | 2.6V | 08:30:00 | 01:46:33 | 00:00:00 | |
| BIOWL1-15 | 2026-09-01 00:22:50 | 46.85564 | 7.77701 | 204° | 4km/h | 25793m | 6.3m/s | -50.7°C | 0.2% | 0hPa | 2.6V | 18:12:15 | 01:46:33 | 00:00:00 | |
| IW2NTF | 2026-09-01 00:22:49 | 46.85563 | 7.77702 | 350° | 4km/h | 25782m | 5.7m/s | -50.7°C | 3.5% | 0hPa | 2.6V | 08:30:00 | 01:46:31 | 00:00:00 | |
| DF7PN | 2026-09-01 00:22:48 | 46.85563 | 7.77702 | 350° | 2km/h | 25782m | 5.7m/s | -50.7°C | 0.8% | -1.0hPa | 2.7V | 00:00:00 | 00:00:00 | 00:00:00 | |
| BIOWL1-15 | 2026-09-01 00:22:42 | 46.85580 | 7.77699 | 172° | 24km/h | 25739m | 6.4m/s | -50.6°C | 0.2% | 0hPa | 2.7V | 18:12:15 | 01:46:23 | 00:00:00 | |
| DK5PH-5 | 2026-09-01 00:22:42 | 46.85569 | 7.77699 | 187° | 16km/h | 25750m | 5.2m/s | -50.6°C | 3.5% | 0hPa | 2.6V | 00:00:00 | 01:46:25 | 08:30:00 | |
| DM0DOS-11 | 2026-09-01 00:22:41 | 46.85580 | 7.77699 | 171° | 24km/h | 25739m | 6.4m/s | -50.6°C | 3.5% | 0hPa | 2.7V | 08:30:00 | 01:46:23 | 00:00:00 | |
| DH7VM-15 | 2026-09-01 00:22:40 | 46.85574 | 7.77699 | 181° | 22km/h | 25745m | 5.3m/s | -50.6°C | 0.9% | 0hPa | 2.6V | 00:00:00 | 00:00:00 | 00:00:00 | |
| IW2NTF | 2026-09-01 00:22:39 | 46.85592 | 7.77694 | 159° | 22km/h | 25728m | 3.7m/s | -50.5°C | 3.5% | 0hPa | 2.6V | 08:30:00 | 01:46:21 | 00:00:00 | |
| BIOWL9-15 | 2026-09-01 00:22:38 | 46.85592 | 7.77694 | 159° | 22km/h | 25729m | 3.7m/s | -50.5°C | 0.8% | -1.0hPa | 2.7V | 00:00:00 | 00:00:00 | 00:00:00 | |
| DO3MHA-12 | 2026-09-01 00:22:35 | 46.85603 | 7.77689 | 175° | 16km/h | 25713m | 5.1m/s | -50.3°C | 3.4% | 0hPa | 2.7V | 00:00:00 | 01:46:18 | 00:00:00 | |
| DM0DOS-11 | 2026-09-01 00:22:31 | 46.85615 | 7.77678 | 140° | 20km/h | 25687m | 4.8m/s | -50.2°C | 3.4% | 0hPa | 2.7V | 08:30:00 | 01:46:13 | 00:00:00 | |
| IW2NTF | 2026-09-01 00:22:30 | 46.85625 | 7.77669 | 159° | 24km/h | 25676m | 6.4m/s | -50.1°C | 3.4% | 0hPa | 2.6V | 08:30:00 | 01:46:11 | 00:00:00 | |
| BIOWL1-15 | 2026-09-01 00:22:30 | 46.85652 | 7.77642 | 110° | 16km/h | 25617m | 6.3m/s | -50.3°C | 0% | 0hPa | 2.6V | 18:12:15 | 01:46:00 | 00:00:00 | |
| DB0UT-7 | 2026-09-01 00:22:29 | 46.85620 | 7.77673 | 151° | 16km/h | 25682m | 4.7m/s | -50.1°C | 3.3% | 0hPa | 2.6V | 00:00:00 | 01:46:12 | 00:00:00 | |
| OE5DXL-15 | 2026-09-01 00:22:28 | 46.85630 | 7.77667 | 168° | 15km/h | 25671m | 5.7m/s | -50.0°C | 3.3% | 0hPa | 2.6V | 00:00:00 | 00:00:00 | 00:00:00 | |
| DO3MHA-12 | 2026-09-01 00:22:25 | 46.85641 | 7.77664 | 167° | 11km/h | 25660m | 5.6m/s | -50.0°C | 3.3% | 0hPa | 2.6V | 00:00:00 | 01:46:08 | 00:00:00 | |
| DL1ZP-14 | 2026-09-01 00:22:20 | 46.85650 | 7.77651 | 95° | 4km/h | 25632m | 5.2m/s | -50.1°C | 0.7% | -1.0hPa | 2.6V | 00:00:00 | 00:00:00 | 00:00:00 | |
| IW2NTF | 2026-09-01 00:22:19 | 46.85651 | 7.77646 | 107° | 11km/h | 25622m | 4.9m/s | -50.2°C | 3.3% | 0hPa | 2.7V | 08:30:00 | 01:46:01 | 00:00:00 | |
| BIOWL1-15 | 2026-09-01 00:22:17 | 46.85656 | 7.77628 | 121° | 24km/h | 25605m | 4.7m/s | -50.5°C | 0.1% | 0hPa | 2.6V | 18:12:15 | 01:45:58 | 00:00:00 | |
| DF7PN | 2026-09-01 00:22:17 | 46.85652 | 7.77642 | 109° | 15km/h | 25617m | 6.3m/s | -50.3°C | 0.7% | -1.0hPa | 2.6V | 00:00:00 | 00:00:00 | 00:00:00 | |
| DO3MHA-11 | 2026-09-01 00:22:15 | 46.85656 | 7.77628 | 121° | 18km/h | 25606m | 4.6m/s | -50.4°C | 3.4% | 0hPa | 2.6V | 00:00:00 | 01:45:58 | 08:30:00 | |
| IW2NTF | 2026-09-01 00:22:13 | 46.85681 | 7.77602 | 121° | 13km/h | 25568m | 5.3m/s | -50.7°C | 3.5% | 0hPa | 2.6V | 08:30:00 | 01:45:51 | 00:00:00 | |
| DK5PH-5 | 2026-09-01 00:22:12 | 46.85668 | 7.77611 | 157° | 15km/h | 25590m | 5.0m/s | -50.5°C | 3.4% | 0hPa | 2.6V | 00:00:00 | 01:45:55 | 00:00:00 | |
| DM0DOS-11 | 2026-09-01 00:22:11 | 46.85676 | 7.77607 | 160° | 15km/h | 25580m | 5.5m/s | -50.6°C | 3.5% | 0hPa | 2.6V | 08:30:00 | 01:45:53 | 00:00:00 | |
| BIOWL1-15 | 2026-09-01 00:22:04 | 46.85680 | 7.77581 | 65° | 15km/h | 25547m | 5.8m/s | -50.7°C | 0.1% | 0hPa | 2.6V | 18:12:15 | 01:45:47 | 00:00:00 | |
| DM0DOS-11 | 2026-09-01 00:22:01 | 46.85674 | 7.77556 | 78° | 20km/h | 25525m | 4.3m/s | -50.6°C | 3.5% | 0hPa | 2.6V | 08:30:00 | 01:45:43 | 00:00:00 | |
| IW2NTF | 2026-09-01 00:22:01 | 46.85673 | 7.77544 | 87° | 11km/h | 25514m | 6.2m/s | -50.6°C | 3.4% | 0hPa | 2.6V | 08:30:00 | 01:45:41 | 00:00:00 | |
| DB0UT-7 | 2026-09-01 00:21:59 | 46.85673 | 7.77549 | 84° | 13km/h | 25520m | 5.0m/s | -50.5°C | 3.5% | 0hPa | 2.7V | 00:00:00 | 00:00:00 | 00:00:00 | |
| DM0DOS-11 | 2026-09-01 00:21:55 | 46.85664 | 7.77518 | 29° | 16km/h | 25471m | 6.1m/s | -50.7°C | 3.4% | 0hPa | 2.7V | 08:30:00 | 01:45:33 | 00:00:00 | |
| BIOWL1-15 | 2026-09-01 00:21:54 | 46.85667 | 7.77522 | 41° | 16km/h | 25477m | 5.6m/s | -50.7°C | 0.1% | 0hPa | 2.6V | 18:12:15 | 01:45:34 | 00:00:00 | |
| IW2NTF | 2026-09-01 00:21:54 | 46.85656 | 7.77513 | 32° | 16km/h | 25460m | 5.4m/s | -50.7°C | 3.4% | 0hPa | 2.6V | 08:30:00 | 01:45:31 | 00:00:00 | |
| DL1ZP-14 | 2026-09-01 00:21:49 | 46.85660 | 7.77515 | 27° | 15km/h | 25465m | 5.4m/s | -50.7°C | 0.8% | -1.0hPa | 2.7V | 00:00:00 | 00:00:00 | 00:00:00 | |
| DF7PN | 2026-09-01 00:21:46 | 46.85650 | 7.77504 | 56° | 15km/h | 25448m | 4.8m/s | -50.8°C | 0.8% | -1.0hPa | 2.6V | 00:00:00 | 00:00:00 | 00:00:00 | |
| DM0DOS-11 | 2026-09-01 00:21:45 | 46.85641 | 7.77489 | 31° | 11km/h | 25419m | 5.1m/s | -50.8°C | 3.5% | 0hPa | 2.6V | 08:30:00 | 01:45:23 | 00:00:00 | |
| DO3MHA-12 | 2026-09-01 00:21:45 | 46.85649 | 7.77500 | 65° | 13km/h | 25444m | 4.1m/s | -50.7°C | 3.5% | 0hPa | 2.7V | 00:00:00 | 01:45:28 | 00:00:00 | |
| IW2NTF | 2026-09-01 00:21:42 | 46.85636 | 7.77482 | 50° | 18km/h | 25408m | 5.6m/s | -50.9°C | 3.5% | 0hPa | 2.7V | 08:30:00 | 01:45:21 | 00:00:00 | |
| BIOWL1-15 | 2026-09-01 00:21:40 | 46.85641 | 7.77489 | 32° | 11km/h | 25419m | 5.1m/s | -50.8°C | 0.1% | 0hPa | 2.6V | 18:12:15 | 01:45:23 | 00:00:00 | |
| DL6DJ-15 | 2026-09-01 00:21:40 | 46.85633 | 7.77476 | 52° | 18km/h | 25403m | 4.3m/s | -50.9°C | 0.8% | -1.0hPa | 2.7V | 00:00:00 | 00:00:00 | 00:00:00 | |
| BIOWL9-15 | 2026-09-01 00:21:36 | 46.85630 | 7.77471 | 48° | 16km/h | 25399m | 4.1m/s | -50.9°C | 0.8% | -1.0hPa | 2.7V | 00:00:00 | 00:00:00 | 00:00:00 | |
| DO3MHA-11 | 2026-09-01 00:21:35 | 46.85627 | 7.77467 | 39° | 15km/h | 25394m | 5.6m/s | -50.9°C | 3.5% | 0hPa | 2.7V | 00:00:00 | 01:45:18 | 00:00:00 | |
| HASLITAL | 2026-09-01 00:21:34 | 46.85627 | 7.77467 | 39° | 15km/h | 25394m | 5.7m/s | -50.9°C | 0.9% | 0hPa | 2.7V | 00:00:00 | 00:00:00 | 00:00:00 | |
| IW2NTF | 2026-09-01 00:21:33 | 46.85607 | 7.77471 | 354° | 16km/h | 25357m | 4.8m/s | -51.2°C | 3.5% | 0hPa | 2.7V | 08:30:00 | 01:45:11 | 00:00:00 | |
| DM0DOS-11 | 2026-09-01 00:21:30 | 46.85614 | 7.77470 | 346° | 13km/h | 25366m | 5.6m/s | -51.1°C | 3.5% | 0hPa | 2.6V | 08:30:00 | 01:45:13 | 00:00:00 | |
| BIOWL1-15 | 2026-09-01 00:21:30 | 46.85523 | 7.77494 | 356° | 18km/h | 25244m | 4.6m/s | -51.3°C | 0.1% | 0hPa | 2.6V | 18:12:15 | 01:44:50 | 00:00:00 | |
| DB0UT-7 | 2026-09-01 00:21:29 | 46.85611 | 7.77470 | 357° | 15km/h | 25361m | 4.6m/s | -51.1°C | 3.5% | 0hPa | 2.6V | 00:00:00 | 01:45:12 | 00:00:00 | |
| DM0DOS-11 | 2026-09-01 00:21:25 | 46.85566 | 7.77475 | 339° | 18km/h | 25313m | 6m/s | -51.3°C | 3.6% | 0hPa | 2.6V | 08:30:00 | 01:45:03 | 00:00:00 | |
| DO3MHA-11 | 2026-09-01 00:21:25 | 46.85592 | 7.77474 | 353° | 18km/h | 25340m | 5.1m/s | -51.2°C | 3.6% | 0hPa | 2.6V | 00:00:00 | 01:45:08 | 00:00:00 | |
| IW2NTF | 2026-09-01 00:21:22 | 46.85558 | 7.77481 | 323° | 15km/h | 25302m | 5.5m/s | -51.3°C | 3.6% | 0hPa | 2.6V | 08:30:00 | 01:45:01 | 00:00:00 | |
| BIOWL1-15 | 2026-09-01 00:21:20 | 46.85519 | 7.77495 | 343° | 15km/h | 25239m | 4.8m/s | -51.3°C | 0.1% | 0hPa | 2.6V | 18:12:15 | 01:44:49 | 00:00:00 | |
| DL1ZP-14 | 2026-09-01 00:21:19 | 46.85558 | 7.77481 | 323° | 13km/h | 25302m | 5.5m/s | -51.3°C | 0.8% | -1.0hPa | 2.6V | 00:00:00 | 00:00:00 | 00:00:00 | |
| DO3MHA-12 | 2026-09-01 00:21:18 | 46.85552 | 7.77486 | 4° | 15km/h | 25285m | 4.3m/s | -51.3°C | 3.6% | 0hPa | 2.6V | 00:00:00 | 01:44:58 | 00:00:00 | |
| HASLITAL | 2026-09-01 00:21:16 | 46.85550 | 7.77486 | 5° | 7km/h | 25281m | 3.8m/s | -51.4°C | 0.9% | 0hPa | 2.6V | 00:00:00 | 00:00:00 | 00:00:00 | |
| IW2NTF | 2026-09-01 00:21:15 | 46.85528 | 7.77494 | 355° | 20km/h | 25249m | 5.7m/s | -51.3°C | 3.6% | 0hPa | 2.6V | 08:30:00 | 01:44:51 | 00:00:00 | |
| DM0DOS-11 | 2026-09-01 00:21:15 | 46.85538 | 7.77491 | 343° | 20km/h | 25261m | 4.5m/s | -51.4°C | 3.5% | 0hPa | 2.7V | 08:30:00 | 01:44:53 | 00:00:00 | |
| DH7VM-15 | 2026-09-01 00:21:06 | 46.85523 | 7.77494 | 357° | 18km/h | 25244m | 4.6m/s | -51.3°C | 0.9% | 0hPa | 2.7V | 00:00:00 | 00:00:00 | 00:00:00 | |
| DO3MHA-11 | 2026-09-01 00:21:05 | 46.85516 | 7.77497 | 324° | 9km/h | 25234m | 6.3m/s | -51.2°C | 3.6% | 0hPa | 2.7V | 00:00:00 | 01:44:48 | 00:00:00 | |
| IW2NTF | 2026-09-01 00:21:00 | 46.85518 | 7.77518 | 265° | 7km/h | 25195m | 6m/s | -51.2°C | 3.6% | 0hPa | 2.7V | 08:30:00 | 01:44:41 | 00:00:00 | |
| BIOWL1-15 | 2026-09-01 00:20:56 | 46.85515 | 7.77522 | 6° | 7km/h | 25179m | 6.4m/s | -51.3°C | 0.2% | 0hPa | 2.6V | 18:12:15 | 01:44:38 | 00:00:00 | |
| DO3MHA-11 | 2026-09-01 00:20:55 | 46.85515 | 7.77522 | 7° | 11km/h | 25179m | 6.3m/s | -51.2°C | 3.6% | 0hPa | 2.7V | 00:00:00 | 01:44:38 | 00:00:00 | |
| IW2NTF | 2026-09-01 00:20:53 | 46.85516 | 7.77521 | 204° | 16km/h | 25142m | 5.4m/s | -51.3°C | 3.6% | 0hPa | 2.7V | 08:30:00 | 01:44:31 | 00:00:00 | |
| DM0DOS-11 | 2026-09-01 00:20:53 | 46.85510 | 7.77517 | 218° | 7km/h | 25153m | 5.6m/s | -51.3°C | 3.6% | 0hPa | 2.6V | 08:30:00 | 01:44:33 | 00:00:00 | |
| BIOWL1-15 | 2026-09-01 00:20:44 | 46.85529 | 7.77525 | 186° | 7km/h | 25123m | 5.4m/s | -51.3°C | 0.2% | 0hPa | 2.6V | 18:12:15 | 01:44:27 | 00:00:00 | |
| DF7PN | 2026-09-01 00:20:44 | 46.85529 | 7.77525 | 185° | 7km/h | 25123m | 5.4m/s | -51.3°C | 0.8% | -1.0hPa | 2.6V | 00:00:00 | 00:00:00 | 00:00:00 | |
| DM0DOS-11 | 2026-09-01 00:20:42 | 46.85532 | 7.77528 | 180° | 4km/h | 25102m | 5.8m/s | -51.4°C | 3.6% | 0hPa | 2.6V | 08:30:00 | 01:44:23 | 00:00:00 | |
| DK5PH-5 | 2026-09-01 00:20:41 | 46.85531 | 7.77527 | 240° | 7km/h | 25108m | 4.0m/s | -51.3°C | 3.6% | 0hPa | 2.6V | 00:00:00 | 01:44:24 | 00:00:00 | |
| IW2NTF | 2026-09-01 00:20:39 | 46.85536 | 7.77526 | 164° | 13km/h | 25091m | 4.8m/s | -51.4°C | 3.6% | 0hPa | 2.6V | 08:30:00 | 01:44:21 | 00:00:00 | |
| BIOWL1-15 | 2026-09-01 00:20:34 | 46.85550 | 7.77534 | 190° | 5km/h | 25048m | 5.1m/s | -51.2°C | 0.2% | 0hPa | 2.7V | 18:12:15 | 01:44:13 | 00:00:00 | |
| HASLITAL | 2026-09-01 00:20:33 | 46.85546 | 7.77530 | 241° | 7km/h | 25065m | 4.8m/s | -51.3°C | 0.9% | 0hPa | 2.7V | 00:00:00 | 00:00:00 | 00:00:00 | |
| BIOWL1-15 | 2026-09-01 00:20:23 | 46.85561 | 7.77560 | 283° | 4km/h | 24961m | 6.3m/s | -51.4°C | 0.2% | 0hPa | 2.7V | 18:12:15 | 01:43:57 | 00:00:00 | |
| IW2NTF | 2026-09-01 00:20:20 | 46.85558 | 7.77554 | 249° | 7km/h | 24982m | 6.2m/s | -51.3°C | 3.5% | 0hPa | 2.6V | 08:30:00 | 01:44:01 | 00:00:00 | |
| BIOWL1-15 | 2026-09-01 00:20:16 | 46.85559 | 7.77563 | 325° | 5km/h | 24951m | 4.3m/s | -51.5°C | 0.2% | 0hPa | 2.6V | 18:12:15 | 01:43:55 | 00:00:00 | |
| DL1ZP-14 | 2026-09-01 00:20:16 | 46.85560 | 7.77557 | 220° | 4km/h | 24972m | 4.5m/s | -51.4°C | 0.8% | -1.0hPa | 2.6V | 00:00:00 | 00:00:00 | 00:00:00 | |
| DO3MHA-12 | 2026-09-01 00:20:15 | 46.85561 | 7.77558 | 243° | 4km/h | 24967m | 4.5m/s | -51.3°C | 3.6% | 0hPa | 2.7V | 00:00:00 | 01:43:58 | 00:00:00 | |
| IW2NTF | 2026-09-01 00:20:13 | 46.85558 | 7.77564 | 257° | 2km/h | 24929m | 5.4m/s | -51.6°C | 3.6% | 0hPa | 2.7V | 08:30:00 | 01:43:51 | 00:00:00 | |
| DF7PN | 2026-09-01 00:20:13 | 46.85560 | 7.77562 | 312° | 5km/h | 24956m | 5.1m/s | -51.5°C | 0.8% | -1.0hPa | 2.7V | 00:00:00 | 00:00:00 | 00:00:00 | |
| HASLITAL | 2026-09-01 00:20:12 | 46.85560 | 7.77562 | 313° | 5km/h | 24956m | 5.1m/s | -51.5°C | 0.9% | 0hPa | 2.7V | 00:00:00 | 00:00:00 | 00:00:00 | |
| DM0DOS-11 | 2026-09-01 00:20:11 | 46.85558 | 7.77565 | 286° | 4km/h | 24923m | 6.3m/s | -51.6°C | 3.6% | 0hPa | 2.7V | 08:30:00 | 01:43:50 | 00:00:00 | |
| BIOWL1-15 | 2026-09-01 00:20:02 | 46.85555 | 7.77573 | 16° | 4km/h | 24891m | 4.7m/s | -51.6°C | 0.2% | 0hPa | 2.6V | 18:12:15 | 01:43:44 | 00:00:00 | |
| IW2NTF | 2026-09-01 00:20:00 | 46.85550 | 7.77575 | 341° | 9km/h | 24874m | 4.7m/s | -51.6°C | 3.6% | 0hPa | 2.6V | 08:30:00 | 01:43:41 | 00:00:00 | |
| DM0DOS-11 | 2026-09-01 00:19:59 | 46.85547 | 7.77576 | 344° | 9km/h | 24869m | 6.1m/s | -51.6°C | 3.6% | 0hPa | 2.7V | 08:30:00 | 01:43:40 | 00:00:00 | |
| DB0UT-7 | 2026-09-01 00:19:59 | 46.85552 | 7.77573 | 340° | 15km/h | 24880m | 5.6m/s | -51.6°C | 3.6% | 0hPa | 2.6V | 00:00:00 | 00:00:00 | 08:30:00 | |
| DO3MHA-12 | 2026-09-01 00:19:55 | 46.85544 | 7.77577 | 333° | 11km/h | 24858m | 4.8m/s | -51.6°C | 3.6% | 0hPa | 2.6V | 00:00:00 | 01:43:38 | 08:30:00 | |
| DM0DOS-11 | 2026-09-01 00:19:51 | 46.85525 | 7.77585 | 21° | 15km/h | 24816m | 4.8m/s | -51.7°C | 3.7% | 0hPa | 2.6V | 08:30:00 | 01:43:30 | 00:00:00 | |
| BIOWL1-15 | 2026-09-01 00:19:50 | 46.85533 | 7.77589 | 347° | 11km/h | 24832m | 5.7m/s | -51.7°C | 0.2% | 0hPa | 2.7V | 18:12:15 | 01:43:33 | 00:00:00 | |
| IW2NTF | 2026-09-01 00:19:49 | 46.85528 | 7.77588 | 26° | 13km/h | 24820m | 5m/s | -51.7°C | 3.7% | 0hPa | 2.6V | 08:30:00 | 01:43:31 | 00:00:00 | |
| DL1ZP-14 | 2026-09-01 00:19:45 | 46.85517 | 7.77584 | 355° | 16km/h | 24804m | 5.7m/s | -51.7°C | 0.8% | -1.0hPa | 2.7V | 00:00:00 | 00:00:00 | 00:00:00 | |
| BIOWL1-15 | 2026-09-01 00:19:40 | 46.85483 | 7.77596 | 345° | 16km/h | 24751m | 5.1m/s | -51.7°C | 0.2% | 0hPa | 2.6V | 18:12:15 | 01:43:18 | 00:00:00 | |
| IW2NTF | 2026-09-01 00:19:40 | 46.85492 | 7.77590 | 335° | 9km/h | 24767m | 6.3m/s | -51.7°C | 3.6% | 0hPa | 2.6V | 08:30:00 | 01:43:21 | 00:00:00 | |
| DM0DOS-11 | 2026-09-01 00:19:40 | 46.85489 | 7.77592 | 326° | 11km/h | 24761m | 5.4m/s | -51.7°C | 3.6% | 0hPa | 2.6V | 08:30:00 | 01:43:20 | 00:00:00 | |
| DO3MHA-11 | 2026-09-01 00:19:35 | 46.85483 | 7.77596 | 346° | 27km/h | 24751m | 5.1m/s | -51.6°C | 3.6% | 0hPa | 2.6V | 00:00:00 | 01:43:18 | 00:00:00 | |
| HASLITAL | 2026-09-01 00:19:30 | 46.85460 | 7.77593 | 8° | 31km/h | 24730m | 5.0m/s | -51.6°C | 0.9% | 0hPa | 2.6V | 00:00:00 | 00:00:00 | 00:00:00 | |
| DB0UT-7 | 2026-09-01 00:19:29 | 46.85443 | 7.77593 | 353° | 24km/h | 24718m | 6.1m/s | -51.6°C | 3.6% | 0hPa | 2.6V | 00:00:00 | 01:43:12 | 00:00:00 | |
| DM0DOS-11 | 2026-09-01 00:19:28 | 46.85426 | 7.77598 | 345° | 33km/h | 24707m | 4.5m/s | -51.7°C | 3.6% | 0hPa | 2.6V | 08:30:00 | 01:43:10 | 00:00:00 | |
| BIOWL1-15 | 2026-09-01 00:19:25 | 46.85382 | 7.77608 | 2° | 20km/h | 24658m | 5.9m/s | -51.9°C | 0.2% | 0hPa | 2.6V | 18:12:15 | 01:43:01 | 00:00:00 | |
| DO3MHA-12 | 2026-09-01 00:19:25 | 46.85412 | 7.77603 | 350° | 20km/h | 24696m | 5.9m/s | -51.7°C | 3.6% | 0hPa | 2.6V | 00:00:00 | 01:43:08 | 00:00:00 | |
| IW2NTF | 2026-09-01 00:19:19 | 46.85382 | 7.77608 | 2° | 20km/h | 24658m | 5.9m/s | -51.9°C | 3.7% | 0hPa | 2.6V | 08:30:00 | 01:43:01 | 00:00:00 | |
| DM0DOS-11 | 2026-09-01 00:19:18 | 46.85376 | 7.77607 | 1° | 24km/h | 24653m | 4.8m/s | -51.9°C | 3.7% | 0hPa | 2.7V | 08:30:00 | 01:43:00 | 00:00:00 | |
| BIOWL1-15 | 2026-09-01 00:19:14 | 46.85337 | 7.77619 | 342° | 31km/h | 24625m | 6.1m/s | -51.8°C | 0.2% | 0hPa | 2.7V | 18:12:15 | 01:42:55 | 00:00:00 | |
| DL1ZP-14 | 2026-09-01 00:19:14 | 46.85354 | 7.77612 | 344° | 35km/h | 24635m | 5.0m/s | -51.8°C | 0.8% | -1.0hPa | 2.6V | 00:00:00 | 00:00:00 | 00:00:00 | |
| IW2NTF | 2026-09-01 00:19:13 | 46.85318 | 7.77631 | 324° | 16km/h | 24602m | 6.2m/s | -51.9°C | 3.6% | 0hPa | 2.6V | 08:30:00 | 01:42:51 | 00:00:00 | |
| DM0DOS-11 | 2026-09-01 00:19:11 | 46.85314 | 7.77635 | 321° | 16km/h | 24597m | 4.7m/s | -51.9°C | 3.6% | 0hPa | 2.6V | 08:30:00 | 01:42:50 | 00:00:00 | |
| HASLITAL | 2026-09-01 00:19:10 | 46.85330 | 7.77622 | 343° | 26km/h | 24620m | 5.4m/s | -51.8°C | 0.9% | 0hPa | 2.6V | 00:00:00 | 00:00:00 | 00:00:00 | |
| DO3MHA-11 | 2026-09-01 00:19:05 | 46.85308 | 7.77641 | 336° | 24km/h | 24587m | 6.4m/s | -51.9°C | 3.6% | 0hPa | 2.6V | 00:00:00 | 01:42:48 | 00:00:00 | |
| BIOWL1-15 | 2026-09-01 00:19:02 | 46.85224 | 7.77713 | 326° | 27km/h | 24489m | 6.7m/s | -52.3°C | 0.3% | 0hPa | 2.6V | 18:12:15 | 01:42:30 | 00:00:00 | |
| DM0DOS-11 | 2026-09-01 00:19:01 | 46.85265 | 7.77673 | 321° | 26km/h | 24543m | 5.9m/s | -52.3°C | 3.7% | 0hPa | 2.6V | 08:30:00 | 01:42:40 | 00:00:00 | |
| IW2NTF | 2026-09-01 00:18:59 | 46.85271 | 7.77667 | 324° | 29km/h | 24549m | 5.4m/s | -52.3°C | 3.7% | 0hPa | 2.6V | 08:30:00 | 01:42:41 | 00:00:00 | |
| DB0UT-7 | 2026-09-01 00:18:59 | 46.85277 | 7.77660 | 328° | 24km/h | 24554m | 4.1m/s | -52.2°C | 3.8% | 0hPa | 2.6V | 00:00:00 | 00:00:00 | 00:00:00 | |
| DK5PH-5 | 2026-09-01 00:18:55 | 46.85257 | 7.77683 | 316° | 24km/h | 24533m | 5.0m/s | -52.2°C | 3.7% | 0hPa | 2.6V | 00:00:00 | 01:42:38 | 00:00:00 | |
| DM0DOS-11 | 2026-09-01 00:18:51 | 46.85224 | 7.77713 | 325° | 27km/h | 24489m | 6.7m/s | -52.3°C | 3.7% | 0hPa | 2.6V | 08:30:00 | 01:42:30 | 00:00:00 | |
| IW2NTF | 2026-09-01 00:18:49 | 46.85230 | 7.77708 | 331° | 24km/h | 24494m | 5.1m/s | -52.3°C | 3.7% | 0hPa | 2.7V | 08:30:00 | 01:42:31 | 00:00:00 | |
| BIOWL1-15 | 2026-09-01 00:18:48 | 46.85207 | 7.77739 | 309° | 33km/h | 24474m | 4.7m/s | -52.3°C | 0.3% | 0hPa | 2.6V | 18:12:15 | 01:42:27 | 00:00:00 | |
| DO3MHA-11 | 2026-09-01 00:18:45 | 46.85212 | 7.77729 | 313° | 20km/h | 24478m | 3.4m/s | -52.3°C | 3.7% | 0hPa | 2.6V | 00:00:00 | 01:42:28 | 00:00:00 | |
| DL1ZP-14 | 2026-09-01 00:18:43 | 46.85202 | 7.77748 | 306° | 27km/h | 24469m | 5.7m/s | -52.3°C | 0.9% | -1.0hPa | 2.7V | 00:00:00 | 00:00:00 | 00:00:00 | |
| DM0DOS-11 | 2026-09-01 00:18:40 | 46.85184 | 7.77773 | 338° | 11km/h | 24436m | 5.5m/s | -52.4°C | 3.7% | 0hPa | 2.7V | 08:30:00 | 01:42:20 | 00:00:00 | |
| IW2NTF | 2026-09-01 00:18:40 | 46.85187 | 7.77772 | 332° | 13km/h | 24441m | 4.4m/s | -52.4°C | 3.7% | 0hPa | 2.6V | 08:30:00 | 01:42:21 | 00:00:00 | |
| BIOWL1-15 | 2026-09-01 00:18:32 | 46.85149 | 7.77862 | 289° | 20km/h | 24379m | 5.9m/s | -52.7°C | 0.3% | 0hPa | 2.7V | 18:12:15 | 01:42:09 | 00:00:00 | |
| IW2NTF | 2026-09-01 00:18:30 | 46.85153 | 7.77844 | 286° | 31km/h | 24389m | 4.7m/s | -52.6°C | 3.8% | 0hPa | 2.6V | 08:30:00 | 01:42:11 | 00:00:00 | |
| DM0DOS-11 | 2026-09-01 00:18:30 | 46.85151 | 7.77854 | 285° | 26km/h | 24384m | 4.8m/s | -52.7°C | 3.7% | 0hPa | 2.6V | 08:30:00 | 01:42:10 | 00:00:00 | |
| BIOWL1-15 | 2026-09-01 00:18:20 | 46.85118 | 7.77939 | 285° | 33km/h | 24315m | 4.8m/s | -53°C | 0.3% | 0hPa | 2.7V | 18:12:15 | 01:41:57 | 00:00:00 | |
| IW2NTF | 2026-09-01 00:18:19 | 46.85135 | 7.77895 | 309° | 31km/h | 24336m | 5.2m/s | -52.8°C | 3.7% | 0hPa | 2.6V | 08:30:00 | 01:42:01 | 00:00:00 | |
| DM0DOS-11 | 2026-09-01 00:18:19 | 46.85129 | 7.77904 | 305° | 37km/h | 24331m | 4.5m/s | -52.9°C | 3.7% | 0hPa | 2.6V | 08:30:00 | 01:42:00 | 00:00:00 | |
| OE5DXL-15 | 2026-09-01 00:18:16 | 46.85120 | 7.77927 | 292° | 26km/h | 24321m | 5.8m/s | -52.9°C | 3.8% | 0hPa | 2.7V | 00:00:00 | 00:00:00 | 00:00:00 | |
| DO3MHA-11 | 2026-09-01 00:18:15 | 46.85120 | 7.77927 | 292° | 24km/h | 24321m | 5.8m/s | -52.9°C | 3.8% | 0hPa | 2.7V | 00:00:00 | 01:41:58 | 00:00:00 | |
| DL1ZP-14 | 2026-09-01 00:18:12 | 46.85115 | 7.77960 | 280° | 26km/h | 24306m | 4.8m/s | -53.0°C | 0.9% | -1.0hPa | 2.6V | 00:00:00 | 00:00:00 | 00:00:00 | |
| IW2NTF | 2026-09-01 00:18:09 | 46.85106 | 7.77988 | 311° | 16km/h | 24285m | 5.3m/s | -53.3°C | 3.9% | 0hPa | 2.7V | 08:30:00 | 01:41:51 | 00:00:00 | |
| BIOWL1-15 | 2026-09-01 00:18:08 | 46.85100 | 7.77997 | 313° | 16km/h | 24273m | 5.4m/s | -53.4°C | 0.4% | 0hPa | 2.6V | 18:12:15 | 01:41:49 | 00:00:00 | |
| DO3MHA-11 | 2026-09-01 00:18:05 | 46.85097 | 7.78001 | 319° | 27km/h | 24268m | 4.2m/s | -53.4°C | 4.0% | 0hPa | 2.6V | 00:00:00 | 01:41:48 | 00:00:00 | |
| DL6DJ-15 | 2026-09-01 00:18:02 | 46.85068 | 7.78031 | 321° | 31km/h | 24241m | 6.2m/s | -53.4°C | 0.9% | -1.0hPa | 2.6V | 00:00:00 | 00:00:00 | 00:00:00 | |
| IW2NTF | 2026-09-01 00:17:59 | 46.85057 | 7.78045 | 322° | 27km/h | 24231m | 5.2m/s | -53.4°C | 4% | 0hPa | 2.6V | 08:30:00 | 01:41:41 | 00:00:00 | |
| DB0UT-7 | 2026-09-01 00:17:59 | 46.85062 | 7.78038 | 321° | 24km/h | 24236m | 4.2m/s | -53.4°C | 4.0% | 0hPa | 2.7V | 00:00:00 | 00:00:00 | 00:00:00 | |
| DM0DOS-11 | 2026-09-01 00:17:58 | 46.85051 | 7.78051 | 327° | 26km/h | 24225m | 5.8m/s | -53.4°C | 3.9% | 0hPa | 2.7V | 08:30:00 | 01:41:40 | 00:00:00 | |
| BIOWL1-15 | 2026-09-01 00:17:55 | 46.85033 | 7.78072 | 312° | 13km/h | 24195m | 4.4m/s | -53.3°C | 0.4% | 0hPa | 2.7V | 18:12:15 | 01:41:34 | 00:00:00 | |
| DO3MHA-11 | 2026-09-01 00:17:55 | 46.85042 | 7.78059 | 329° | 20km/h | 24215m | 4.5m/s | -53.3°C | 4.0% | 0hPa | 2.6V | 00:00:00 | 01:41:38 | 00:00:00 | |
| IW2NTF | 2026-09-01 00:17:49 | 46.85021 | 7.78084 | 330° | 27km/h | 24179m | 4.5m/s | -53.3°C | 4% | 0hPa | 2.6V | 08:30:00 | 01:41:31 | 00:00:00 | |
| DM0DOS-11 | 2026-09-01 00:17:48 | 46.85015 | 7.78090 | 326° | 29km/h | 24175m | 5.2m/s | -53.3°C | 3.9% | 0hPa | 2.6V | 08:30:00 | 01:41:30 | 00:00:00 | |
| BIOWL1-15 | 2026-09-01 00:17:43 | 46.84956 | 7.78238 | 286° | 38km/h | 24079m | 4.6m/s | 0°C | 0% | 0hPa | 2.7V | 18:12:15 | 01:41:12 | 00:00:00 | |
| OE5DXL-15 | 2026-09-01 00:17:41 | 46.84983 | 7.78153 | 295° | 26km/h | 24138m | 5.2m/s | -53.1°C | 3.9% | 0hPa | 2.6V | 00:00:00 | 00:00:00 | 00:00:00 | |
| IW2NTF | 2026-09-01 00:17:39 | 46.84980 | 7.78169 | 279° | 18km/h | 24126m | 6m/s | -53.1°C | 3.9% | 0hPa | 2.6V | 08:30:00 | 01:41:21 | 00:00:00 | |
| DM0DOS-11 | 2026-09-01 00:17:37 | 46.84979 | 7.78175 | 281° | 16km/h | 24121m | 4m/s | -53.2°C | 3.9% | 0hPa | 2.6V | 08:30:00 | 01:41:20 | 00:00:00 | |
| DO3MHA-11 | 2026-09-01 00:17:35 | 46.84976 | 7.78185 | 310° | 29km/h | 24111m | 5.8m/s | -53.2°C | 3.9% | 0hPa | 2.6V | 00:00:00 | 01:41:18 | 00:00:00 | |
| DM0DOS-11 | 2026-09-01 00:17:32 | 46.84951 | 7.78264 | 287° | 33km/h | 24068m | 5m/s | -53.1°C | 3.9% | 0hPa | 2.6V | 08:30:00 | 01:41:10 | 00:00:00 | |
| IW2NTF | 2026-09-01 00:17:29 | 46.84953 | 7.78252 | 287° | 37km/h | 24073m | 6m/s | -53.1°C | 3.9% | 0hPa | 2.7V | 08:30:00 | 01:41:11 | 00:00:00 | |
| DB0UT-7 | 2026-09-01 00:17:29 | 46.84956 | 7.78238 | 287° | 22km/h | 24079m | 4.6m/s | -53.1°C | 3.9% | 0hPa | 2.7V | 00:00:00 | 01:41:12 | 00:00:00 | |
| BIOWL9-15 | 2026-09-01 00:17:28 | 46.84953 | 7.78252 | 287° | 37km/h | 24074m | 6.0m/s | -53.1°C | 0.9% | -1.0hPa | 2.7V | 00:00:00 | 00:00:00 | 00:00:00 | |
| DO3MHA-11 | 2026-09-01 00:17:25 | 46.84947 | 7.78284 | 281° | 24km/h | 24058m | 5.1m/s | -53.0°C | 3.8% | 0hPa | 2.7V | 00:00:00 | 01:41:08 | 00:00:00 | |
| DM0DOS-11 | 2026-09-01 00:17:22 | 46.84938 | 7.78349 | 292° | 27km/h | 24015m | 6.3m/s | -53.3°C | 3.8% | 0hPa | 2.7V | 08:30:00 | 01:41:00 | 00:00:00 | |
| IW2NTF | 2026-09-01 00:17:19 | 46.84941 | 7.78340 | 296° | 27km/h | 24021m | 4.5m/s | -53.3°C | 3.8% | 0hPa | 2.7V | 08:30:00 | 01:41:01 | 00:00:00 | |
| BIOWL1-15 | 2026-09-01 00:17:18 | 46.84941 | 7.78340 | 296° | 27km/h | 24021m | 4.5m/s | 0°C | 0% | 0hPa | 2.7V | 18:12:15 | 01:41:01 | 00:00:00 | |
| DO3MHA-12 | 2026-09-01 00:17:15 | 46.84934 | 7.78369 | 282° | 22km/h | 24005m | 4.8m/s | -53.3°C | 3.8% | 0hPa | 2.6V | 00:00:00 | 01:40:58 | 00:00:00 | |
| IW2NTF | 2026-09-01 00:17:09 | 46.84927 | 7.78425 | 264° | 22km/h | 23967m | 5m/s | -53.8°C | 4% | 0hPa | 2.6V | 08:30:00 | 01:40:51 | 00:00:00 | |
| BIOWL1-15 | 2026-09-01 00:17:09 | 46.84930 | 7.78442 | 257° | 9km/h | 23953m | 6m/s | 0°C | 0% | 0hPa | 2.7V | 18:12:15 | 01:40:48 | 00:00:00 | |
| DM0DOS-11 | 2026-09-01 00:17:08 | 46.84928 | 7.78432 | 258° | 18km/h | 23963m | 3.5m/s | -53.8°C | 4% | 0hPa | 2.6V | 08:30:00 | 01:40:50 | 00:00:00 | |
| HASLITAL | 2026-09-01 00:17:07 | 46.84927 | 7.78425 | 265° | 22km/h | 23968m | 5.1m/s | -53.8°C | 1.1% | 0hPa | 2.7V | 00:00:00 | 00:00:00 | 00:00:00 | |
| OE5DXL-15 | 2026-09-01 00:17:06 | 46.84930 | 7.78442 | 257° | 11km/h | 23954m | 6.0m/s | -53.8°C | 4.1% | 0hPa | 2.7V | 00:00:00 | 00:00:00 | 08:30:00 | |
| DO3MHA-12 | 2026-09-01 00:17:05 | 46.84930 | 7.78442 | 257° | 9km/h | 23954m | 6.0m/s | -53.8°C | 4.1% | 0hPa | 2.6V | 00:00:00 | 01:40:48 | 00:00:00 | |
| DH7VM-15 | 2026-09-01 00:17:04 | 46.84930 | 7.78442 | 258° | 9km/h | 23954m | 6.0m/s | -53.9°C | 1.1% | 0hPa | 2.6V | 00:00:00 | 00:00:00 | 00:00:00 | |
| DM0DOS-11 | 2026-09-01 00:17:02 | 46.84933 | 7.78469 | 249° | 11km/h | 23911m | 5.5m/s | -54°C | 4.1% | 0hPa | 2.6V | 08:30:00 | 01:40:40 | 00:00:00 | |
| DL6DJ-15 | 2026-09-01 00:17:00 | 46.84932 | 7.78465 | 253° | 11km/h | 23916m | 5.9m/s | -54.0°C | 1.0% | -1.0hPa | 2.6V | 00:00:00 | 00:00:00 | 00:00:00 | |
| IW2NTF | 2026-09-01 00:16:59 | 46.84932 | 7.78465 | 253° | 13km/h | 23916m | 5.9m/s | -54°C | 4% | 0hPa | 2.6V | 08:30:00 | 01:40:41 | 00:00:00 | |
| BIOWL9-15 | 2026-09-01 00:16:57 | 46.84933 | 7.78469 | 249° | 9km/h | 23911m | 5.5m/s | -54.0°C | 1.0% | -1.0hPa | 2.7V | 00:00:00 | 00:00:00 | 00:00:00 | |
| DO3MHA-12 | 2026-09-01 00:16:55 | 46.84936 | 7.78476 | 232° | 13km/h | 23901m | 5.1m/s | -53.9°C | 4.0% | 0hPa | 2.7V | 00:00:00 | 01:40:38 | 08:30:00 | |
| DM0DOS-11 | 2026-09-01 00:16:52 | 46.84934 | 7.78507 | 309° | 15km/h | 23858m | 6m/s | -54.1°C | 4% | 0hPa | 2.6V | 08:30:00 | 01:40:30 | 00:00:00 | |
| IW2NTF | 2026-09-01 00:16:49 | 46.84937 | 7.78503 | 318° | 15km/h | 23864m | 5.1m/s | -54.1°C | 4% | 0hPa | 2.7V | 08:30:00 | 01:40:31 | 00:00:00 | |
| DK5PH-5 | 2026-09-01 00:16:48 | 46.84936 | 7.78503 | 319° | 9km/h | 23864m | 5.1m/s | -54.0°C | 4.0% | 0hPa | 2.7V | 00:00:00 | 01:40:31 | 00:00:00 | |
| HASLITAL | 2026-09-01 00:16:47 | 46.84936 | 7.78503 | 319° | 15km/h | 23864m | 5.1m/s | -54.1°C | 1.1% | 0hPa | 2.7V | 00:00:00 | 00:00:00 | 00:00:00 | |
| DO3MHA-12 | 2026-09-01 00:16:45 | 46.84930 | 7.78516 | 294° | 7km/h | 23848m | 4.1m/s | -54.1°C | 4.1% | 0hPa | 2.7V | 00:00:00 | 01:40:28 | 00:00:00 | |
| IW2NTF | 2026-09-01 00:16:40 | 46.84920 | 7.78531 | 274° | 5km/h | 23807m | 4.8m/s | -54.1°C | 4.1% | 0hPa | 2.7V | 08:30:00 | 01:40:20 | 00:00:00 | |
| DL1ZP-14 | 2026-09-01 00:16:39 | 46.84920 | 7.78529 | 276° | 4km/h | 23813m | 5.5m/s | -54.1°C | 1.0% | -1.0hPa | 2.7V | 00:00:00 | 00:00:00 | 00:00:00 | |
| DF7PN | 2026-09-01 00:16:36 | 46.84919 | 7.78535 | 324° | 7km/h | 23797m | 6.0m/s | -54.1°C | 1.0% | -1.0hPa | 2.7V | 00:00:00 | 00:00:00 | 00:00:00 | |
| DO3MHA-12 | 2026-09-01 00:16:35 | 46.84919 | 7.78535 | 325° | 9km/h | 23797m | 6.0m/s | -54.0°C | 4.1% | 0hPa | 2.7V | 00:00:00 | 01:40:18 | 00:00:00 | |
| DB0UT-7 | 2026-09-01 00:16:29 | 46.84904 | 7.78549 | 299° | 13km/h | 23766m | 4.9m/s | -54.1°C | 4.1% | 0hPa | 2.7V | 00:00:00 | 01:40:12 | 00:00:00 | |
| IW2NTF | 2026-09-01 00:16:28 | 46.84903 | 7.78553 | 326° | 4km/h | 23755m | 6.1m/s | -54.2°C | 4% | 0hPa | 2.7V | 08:30:00 | 01:40:10 | 00:00:00 | |
| HASLITAL | 2026-09-01 00:16:26 | 46.84903 | 7.78553 | 327° | 4km/h | 23755m | 6.1m/s | -54.2°C | 1.1% | 0hPa | 2.6V | 00:00:00 | 00:00:00 | 00:00:00 | |
| DO3MHA-11 | 2026-09-01 00:16:25 | 46.84902 | 7.78553 | 308° | 11km/h | 23745m | 4.6m/s | -54.1°C | 4.0% | 0hPa | 2.6V | 00:00:00 | 01:40:08 | 00:00:00 | |
| DK5PH-5 | 2026-09-01 00:16:17 | 46.84892 | 7.78576 | 309° | 15km/h | 23703m | 6.2m/s | -54.0°C | 4.1% | 0hPa | 2.6V | 00:00:00 | 01:40:00 | 00:00:00 | |
| DM0DOS-11 | 2026-09-01 00:16:17 | 46.84892 | 7.78576 | 308° | 16km/h | 23703m | 6.3m/s | -54.1°C | 4.1% | 0hPa | 2.6V | 08:30:00 | 01:40:00 | 00:00:00 | |
| DO3MHA-11 | 2026-09-01 00:16:15 | 46.84887 | 7.78586 | 302° | 13km/h | 23692m | 4.7m/s | -54.0°C | 4.1% | 0hPa | 2.7V | 00:00:00 | 01:39:58 | 08:30:00 | |
| IW2NTF | 2026-09-01 00:16:08 | 46.84872 | 7.78615 | 311° | 15km/h | 23649m | 6.3m/s | -54.3°C | 4% | 0hPa | 2.6V | 08:30:00 | 01:39:50 | 00:00:00 | |
| DO3MHA-11 | 2026-09-01 00:16:05 | 46.84865 | 7.78623 | 327° | 18km/h | 23639m | 3.9m/s | -54.3°C | 4.0% | 0hPa | 2.7V | 00:00:00 | 01:39:48 | 00:00:00 | |
| DF7PN | 2026-09-01 00:16:04 | 46.84861 | 7.78627 | 320° | 20km/h | 23634m | 5.0m/s | -54.4°C | 1.0% | -1.0hPa | 2.7V | 00:00:00 | 00:00:00 | 00:00:00 | |
| DL6DJ-15 | 2026-09-01 00:15:58 | 46.84841 | 7.78683 | 250° | 9km/h | 23571m | 5.2m/s | -54.8°C | 1.0% | -1.0hPa | 2.7V | 00:00:00 | 00:00:00 | 00:00:00 | |
| IW2NTF | 2026-09-01 00:15:57 | 46.84839 | 7.78666 | 305° | 11km/h | 23599m | 4.1m/s | -54.6°C | 4.1% | 0hPa | 2.7V | 08:30:00 | 01:39:40 | 00:00:00 | |
| DO3MHA-12 | 2026-09-01 00:15:55 | 46.84838 | 7.78673 | 256° | 15km/h | 23588m | 6.2m/s | -54.7°C | 4.1% | 0hPa | 2.6V | 00:00:00 | 01:39:38 | 00:00:00 | |
| IW2NTF | 2026-09-01 00:15:49 | 46.84842 | 7.78711 | 274° | 20km/h | 23545m | 4.9m/s | -55°C | 4.3% | 0hPa | 2.7V | 08:30:00 | 01:39:30 | 00:00:00 | |
| DK5PH-5 | 2026-09-01 00:15:47 | 46.84842 | 7.78711 | 275° | 16km/h | 23546m | 4.8m/s | -55.0°C | 4.3% | 0hPa | 2.6V | 00:00:00 | 01:39:30 | 00:00:00 | |
| DO3MHA-12 | 2026-09-01 00:15:45 | 46.84840 | 7.78725 | 290° | 18km/h | 23535m | 4.9m/s | -55.0°C | 4.3% | 0hPa | 2.6V | 00:00:00 | 01:39:28 | 00:00:00 | |
| HASLITAL | 2026-09-01 00:15:44 | 46.84840 | 7.78725 | 290° | 18km/h | 23535m | 5.0m/s | -55.1°C | 1.2% | 0hPa | 2.6V | 00:00:00 | 00:00:00 | 00:00:00 | |
| DH7VM-15 | 2026-09-01 00:15:41 | 46.84836 | 7.78745 | 276° | 20km/h | 23521m | 5.7m/s | -55.0°C | 1.1% | 0hPa | 2.6V | 00:00:00 | 00:00:00 | 00:00:00 | |
| DM0DOS-11 | 2026-09-01 00:15:40 | 46.84837 | 7.78780 | 267° | 18km/h | 23496m | 4.2m/s | -55°C | 4.2% | 0hPa | 2.6V | 08:30:00 | 01:39:20 | 00:00:00 | |
| DL1ZP-14 | 2026-09-01 00:15:37 | 46.84837 | 7.78787 | 262° | 16km/h | 23491m | 5.9m/s | -55.0°C | 1.0% | -1.0hPa | 2.7V | 00:00:00 | 00:00:00 | 00:00:00 | |
| DO3MHA-11 | 2026-09-01 00:15:35 | 46.84838 | 7.78793 | 254° | 15km/h | 23485m | 5.3m/s | -54.9°C | 4.2% | 0hPa | 2.6V | 00:00:00 | 01:39:18 | 00:00:00 | |
| DF7PN | 2026-09-01 00:15:33 | 46.84841 | 7.78804 | 246° | 11km/h | 23476m | 5.9m/s | -54.9°C | 1.0% | -1.0hPa | 2.6V | 00:00:00 | 00:00:00 | 00:00:00 | |
| DM0DOS-11 | 2026-09-01 00:15:30 | 46.84854 | 7.78833 | 249° | 15km/h | 23440m | 5.5m/s | -55.1°C | 4.3% | 0hPa | 2.6V | 08:30:00 | 01:39:09 | 00:00:00 | |
| IW2NTF | 2026-09-01 00:15:30 | 46.84852 | 7.78828 | 240° | 16km/h | 23445m | 4.2m/s | -55°C | 4.3% | 0hPa | 2.6V | 08:30:00 | 01:39:10 | 00:00:00 | |
| DB0UT-7 | 2026-09-01 00:15:29 | 46.84847 | 7.78817 | 231° | 15km/h | 23455m | 5.8m/s | -55.0°C | 4.3% | 0hPa | 2.7V | 00:00:00 | 01:39:12 | 08:30:00 | |
| OE5DXL-15 | 2026-09-01 00:15:28 | 46.84852 | 7.78827 | 241° | 11km/h | 23445m | 4.2m/s | -55.0°C | 4.3% | 0hPa | 2.6V | 00:00:00 | 00:00:00 | 00:00:00 | |
| IW2NTF | 2026-09-01 00:15:22 | 46.84877 | 7.78880 | 219° | 16km/h | 23385m | 5.8m/s | -55.1°C | 4.3% | 0hPa | 2.6V | 08:30:00 | 01:38:58 | 00:00:00 | |
| DM0DOS-11 | 2026-09-01 00:15:20 | 46.84874 | 7.78876 | 218° | 15km/h | 23390m | 4.1m/s | -55.1°C | 4.3% | 0hPa | 2.6V | 08:30:00 | 01:38:59 | 00:00:00 | |
| DK5PH-5 | 2026-09-01 00:15:17 | 46.84871 | 7.78873 | 218° | 11km/h | 23395m | 4.4m/s | -55.1°C | 4.3% | 0hPa | 2.7V | 00:00:00 | 01:39:00 | 00:00:00 | |
| DO3MHA-12 | 2026-09-01 00:15:15 | 46.84877 | 7.78880 | 220° | 15km/h | 23386m | 5.8m/s | -55.1°C | 4.3% | 0hPa | 2.7V | 00:00:00 | 01:38:58 | 00:00:00 | |
| IW2NTF | 2026-09-01 00:15:09 | 46.84896 | 7.78911 | 203° | 13km/h | 23343m | 5.2m/s | -55.1°C | 4.4% | 0hPa | 2.7V | 08:30:00 | 01:38:50 | 00:00:00 | |
| DM0DOS-11 | 2026-09-01 00:15:08 | 46.84899 | 7.78913 | 191° | 11km/h | 23339m | 4.6m/s | -55.1°C | 4.4% | 0hPa | 2.7V | 08:30:00 | 01:38:49 | 00:00:00 | |
| DO3MHA-12 | 2026-09-01 00:15:05 | 46.84902 | 7.78913 | 187° | 11km/h | 23334m | 5.8m/s | -55.1°C | 4.4% | 0hPa | 2.6V | 00:00:00 | 01:38:48 | 00:00:00 | |
| HASLITAL | 2026-09-01 00:15:03 | 46.84904 | 7.78914 | 183° | 9km/h | 23328m | 5.0m/s | -55.1°C | 1.2% | 0hPa | 2.6V | 00:00:00 | 00:00:00 | 00:00:00 | |
| IW2NTF | 2026-09-01 00:15:02 | 46.84924 | 7.78917 | 207° | 4km/h | 23292m | 4.9m/s | -54.8°C | 4.3% | 0hPa | 2.6V | 08:30:00 | 01:38:40 | 00:00:00 | |
| DB0UT-7 | 2026-09-01 00:14:59 | 46.84921 | 7.78916 | 194° | 9km/h | 23303m | 5.3m/s | -54.9°C | 4.3% | 0hPa | 2.7V | 00:00:00 | 00:00:00 | 00:00:00 | |
| DM0DOS-11 | 2026-09-01 00:14:57 | 46.84925 | 7.78918 | 181° | 4km/h | 23287m | 4.9m/s | -54.8°C | 4.3% | 0hPa | 2.7V | 08:30:00 | 01:38:39 | 00:00:00 | |
| DL6DJ-15 | 2026-09-01 00:14:56 | 46.84944 | 7.78895 | 176° | 7km/h | 23230m | 6.0m/s | -54.5°C | 1.0% | -1.0hPa | 2.7V | 00:00:00 | 00:00:00 | 00:00:00 | |
| DO3MHA-12 | 2026-09-01 00:14:55 | 46.84926 | 7.78917 | 163° | 9km/h | 23282m | 5.9m/s | -54.7°C | 4.3% | 0hPa | 2.7V | 00:00:00 | 01:38:38 | 00:00:00 | |
| OE5DXL-15 | 2026-09-01 00:14:52 | 46.84932 | 7.78908 | 108° | 11km/h | 23261m | 5.6m/s | -54.6°C | 4.2% | 0hPa | 2.6V | 00:00:00 | 00:00:00 | 00:00:00 | |
| DM0DOS-11 | 2026-09-01 00:14:51 | 46.84941 | 7.78895 | 168° | 11km/h | 23235m | 4.6m/s | -54.5°C | 4.2% | 0hPa | 2.6V | 08:30:00 | 01:38:29 | 00:00:00 | |
| IW2NTF | 2026-09-01 00:14:49 | 46.84938 | 7.78896 | 158° | 13km/h | 23240m | 4.7m/s | -54.5°C | 4.2% | 0hPa | 2.6V | 08:30:00 | 01:38:30 | 00:00:00 | |
| DK5PH-5 | 2026-09-01 00:14:47 | 46.84938 | 7.78896 | 159° | 9km/h | 23240m | 4.6m/s | -54.5°C | 4.2% | 0hPa | 2.6V | 00:00:00 | 01:38:30 | 00:00:00 | |
| DO3MHA-11 | 2026-09-01 00:14:45 | 46.84943 | 7.78895 | 177° | 7km/h | 23230m | 5.9m/s | -54.5°C | 4.2% | 0hPa | 2.7V | 00:00:00 | 01:38:28 | 08:30:00 | |
| HASLITAL | 2026-09-01 00:14:43 | 46.84945 | 7.78895 | 183° | 4km/h | 23225m | 4.9m/s | -54.5°C | 1.2% | 0hPa | 2.6V | 00:00:00 | 00:00:00 | 00:00:00 | |
| IW2NTF | 2026-09-01 00:14:42 | 46.84950 | 7.78878 | 89° | 11km/h | 23188m | 4.7m/s | -54.4°C | 4.2% | 0hPa | 2.6V | 08:30:00 | 01:38:20 | 00:00:00 | |
| DM0DOS-11 | 2026-09-01 00:14:41 | 46.84950 | 7.78874 | 91° | 11km/h | 23184m | 3.9m/s | -54.4°C | 4.1% | 0hPa | 2.6V | 08:30:00 | 01:38:19 | 00:00:00 | |
| DO3MHA-12 | 2026-09-01 00:14:35 | 46.84951 | 7.78870 | 103° | 7km/h | 23179m | 5.9m/s | -54.4°C | 4.1% | 0hPa | 2.6V | 00:00:00 | 01:38:18 | 00:00:00 | |
| DL1ZP-14 | 2026-09-01 00:14:34 | 46.84951 | 7.78866 | 115° | 11km/h | 23173m | 5.5m/s | -54.4°C | 1.0% | -1.0hPa | 2.6V | 00:00:00 | 00:00:00 | 00:00:00 | |
| DF7PN | 2026-09-01 00:14:31 | 46.84954 | 7.78857 | 81° | 4km/h | 23160m | 5.3m/s | -54.4°C | 1.0% | -1.0hPa | 2.7V | 00:00:00 | 00:00:00 | 00:00:00 | |
| IW2NTF | 2026-09-01 00:14:29 | 46.84949 | 7.78853 | 49° | 4km/h | 23140m | 6m/s | -54.4°C | 4.2% | 0hPa | 2.7V | 08:30:00 | 01:38:10 | 00:00:00 | |
| DM0DOS-11 | 2026-09-01 00:14:29 | 46.84948 | 7.78851 | 88° | 5km/h | 23134m | 4.8m/s | -54.4°C | 4.1% | 0hPa | 2.6V | 08:30:00 | 01:38:09 | 00:00:00 | |
| BIOWL1-15 | 2026-09-01 00:14:28 | 46.84949 | 7.78853 | 50° | 4km/h | 23140m | 6m/s | -54.4°C | 0.5% | 0hPa | 2.7V | 18:12:15 | 01:38:10 | 00:00:00 | |
| DO3MHA-11 | 2026-09-01 00:14:25 | 46.84949 | 7.78849 | 97° | 15km/h | 23130m | 4.2m/s | -54.4°C | 4.1% | 0hPa | 2.6V | 00:00:00 | 01:38:08 | 00:00:00 | |
| IW2NTF | 2026-09-01 00:14:23 | 46.84944 | 7.78806 | 59° | 15km/h | 23089m | 6m/s | -54.4°C | 4.2% | 0hPa | 2.6V | 08:30:00 | 01:38:00 | 00:00:00 | |
| BIOWL1-15 | 2026-09-01 00:14:16 | 46.84934 | 7.78793 | 41° | 16km/h | 23073m | 5.6m/s | -54.4°C | 0.5% | 0hPa | 2.6V | 18:12:15 | 01:37:57 | 00:00:00 | |
| DO3MHA-11 | 2026-09-01 00:14:15 | 46.84938 | 7.78797 | 38° | 16km/h | 23079m | 4.4m/s | -54.4°C | 4.1% | 0hPa | 2.7V | 00:00:00 | 01:37:58 | 00:00:00 | |
| IW2NTF | 2026-09-01 00:14:09 | 46.84918 | 7.78758 | 68° | 18km/h | 23038m | 5m/s | -54.4°C | 4.1% | 0hPa | 2.6V | 08:30:00 | 01:37:50 | 00:00:00 | |
| BIOWL1-15 | 2026-09-01 00:14:05 | 46.84900 | 7.78719 | 34° | 20km/h | 23003m | 5.4m/s | 0°C | 0% | 0hPa | 2.6V | 18:12:15 | 01:37:43 | 00:00:00 | |
| DO3MHA-11 | 2026-09-01 00:14:05 | 46.84915 | 7.78745 | 78° | 18km/h | 23027m | 4.6m/s | -54.3°C | 4.2% | 0hPa | 2.6V | 00:00:00 | 01:37:48 | 00:00:00 | |
| DL1ZP-14 | 2026-09-01 00:14:03 | 46.84912 | 7.78733 | 54° | 18km/h | 23018m | 5.9m/s | -54.3°C | 1.0% | -1.0hPa | 2.6V | 00:00:00 | 00:00:00 | 00:00:00 | |
| IW2NTF | 2026-09-01 00:14:02 | 46.84888 | 7.78707 | 31° | 15km/h | 22987m | 4.4m/s | -54.4°C | 4.1% | 0hPa | 2.6V | 08:30:00 | 01:37:40 | 00:00:00 | |
| BIOWL1-15 | 2026-09-01 00:13:50 | 46.84862 | 7.78687 | 45° | 18km/h | 22951m | 4.2m/s | 0°C | 0% | 0hPa | 2.6V | 18:12:15 | 01:37:33 | 00:00:00 | |
| DM0DOS-11 | 2026-09-01 00:13:49 | 46.84844 | 7.78666 | 30° | 22km/h | 22931m | 5.2m/s | -54.3°C | 4.1% | 0hPa | 2.6V | 08:30:00 | 01:37:29 | 00:00:00 | |
| IW2NTF | 2026-09-01 00:13:47 | 46.84849 | 7.78671 | 35° | 26km/h | 22935m | 4.5m/s | -54.3°C | 4.1% | 0hPa | 2.7V | 08:30:00 | 01:37:30 | 00:00:00 | |
| DK5PH-5 | 2026-09-01 00:13:47 | 46.84849 | 7.78671 | 36° | 20km/h | 22936m | 4.4m/s | -54.3°C | 4.1% | 0hPa | 2.6V | 00:00:00 | 01:37:30 | 00:00:00 | |
| OE5DXL-15 | 2026-09-01 00:13:46 | 46.84839 | 7.78662 | 25° | 18km/h | 22926m | 5.7m/s | -54.2°C | 4.1% | 0hPa | 2.6V | 00:00:00 | 00:00:00 | 00:00:00 | |
| DO3MHA-11 | 2026-09-01 00:13:45 | 46.84839 | 7.78662 | 25° | 20km/h | 22926m | 5.7m/s | -54.2°C | 4.1% | 0hPa | 2.6V | 00:00:00 | 01:37:28 | 00:00:00 | |
| IW2NTF | 2026-09-01 00:13:42 | 46.84799 | 7.78659 | 16° | 18km/h | 22884m | 4m/s | -54.2°C | 4% | 0hPa | 2.7V | 08:30:00 | 01:37:20 | 00:00:00 | |
| DM0DOS-11 | 2026-09-01 00:13:41 | 46.84795 | 7.78657 | 20° | 20km/h | 22880m | 5.6m/s | -54.2°C | 4% | 0hPa | 2.7V | 08:30:00 | 01:37:19 | 00:00:00 | |
| BIOWL1-15 | 2026-09-01 00:13:40 | 46.84814 | 7.78661 | 357° | 22km/h | 22900m | 4.2m/s | 0°C | 0% | 0hPa | 2.6V | 18:12:15 | 01:37:23 | 00:00:00 | |
| DO3MHA-11 | 2026-09-01 00:13:35 | 46.84790 | 7.78654 | 22° | 20km/h | 22875m | 5.3m/s | -54.2°C | 4.1% | 0hPa | 2.6V | 00:00:00 | 01:37:18 | 00:00:00 | |
| DL1ZP-14 | 2026-09-01 00:13:33 | 46.84776 | 7.78646 | 19° | 16km/h | 22859m | 5.8m/s | -54.4°C | 1.0% | -1.0hPa | 2.6V | 00:00:00 | 00:00:00 | 00:00:00 | |
| DB0UT-7 | 2026-09-01 00:13:29 | 46.84763 | 7.78644 | 354° | 16km/h | 22844m | 5.8m/s | -54.5°C | 4.2% | 0hPa | 2.7V | 00:00:00 | 01:37:12 | 00:00:00 | |
| DM0DOS-11 | 2026-09-01 00:13:28 | 46.84746 | 7.78649 | 348° | 22km/h | 22828m | 5.8m/s | -54.6°C | 4.2% | 0hPa | 2.7V | 08:30:00 | 01:37:09 | 00:00:00 | |
| IW2NTF | 2026-09-01 00:13:27 | 46.84752 | 7.78647 | 348° | 24km/h | 22833m | 5.1m/s | -54.6°C | 4.2% | 0hPa | 2.6V | 08:30:00 | 01:37:10 | 00:00:00 | |
| DO3MHA-12 | 2026-09-01 00:13:25 | 46.84741 | 7.78650 | 353° | 16km/h | 22822m | 5.4m/s | -54.6°C | 4.2% | 0hPa | 2.7V | 00:00:00 | 01:37:08 | 00:00:00 | |
| IW2NTF | 2026-09-01 00:13:22 | 46.84707 | 7.78641 | 9° | 13km/h | 22782m | 3.9m/s | -54.4°C | 4.2% | 0hPa | 2.6V | 08:30:00 | 01:37:00 | 00:00:00 | |
| DM0DOS-11 | 2026-09-01 00:13:21 | 46.84703 | 7.78641 | 355° | 15km/h | 22777m | 5.8m/s | -54.4°C | 4.2% | 0hPa | 2.6V | 08:30:00 | 01:36:59 | 00:00:00 | |
| HASLITAL | 2026-09-01 00:13:19 | 46.84718 | 7.78646 | 19° | 18km/h | 22797m | 5.0m/s | -54.5°C | 1.2% | 0hPa | 2.6V | 00:00:00 | 00:00:00 | 00:00:00 | |
| DK5PH-5 | 2026-09-01 00:13:17 | 46.84707 | 7.78641 | 10° | 15km/h | 22782m | 3.8m/s | -54.4°C | 4.2% | 0hPa | 2.6V | 00:00:00 | 01:37:00 | 08:30:00 | |
| DO3MHA-12 | 2026-09-01 00:13:15 | 46.84699 | 7.78642 | 344° | 16km/h | 22772m | 5.2m/s | -54.4°C | 4.2% | 0hPa | 2.6V | 00:00:00 | 01:36:58 | 00:00:00 | |
| OE5DXL-15 | 2026-09-01 00:13:14 | 46.84695 | 7.78645 | 335° | 13km/h | 22767m | 4.1m/s | -54.3°C | 4.2% | 0hPa | 2.6V | 00:00:00 | 00:00:00 | 00:00:00 | |
| IW2NTF | 2026-09-01 00:13:13 | 46.84669 | 7.78663 | 353° | 16km/h | 22731m | 4.4m/s | -54.3°C | 4.1% | 0hPa | 2.6V | 08:30:00 | 01:36:50 | 00:00:00 | |
| DM0DOS-11 | 2026-09-01 00:13:09 | 46.84665 | 7.78663 | 1° | 15km/h | 22726m | 5m/s | -54.3°C | 4.1% | 0hPa | 2.6V | 08:30:00 | 01:36:49 | 00:00:00 | |
| DO3MHA-11 | 2026-09-01 00:13:05 | 46.84662 | 7.78662 | 13° | 15km/h | 22721m | 6.0m/s | -54.3°C | 4.1% | 0hPa | 2.7V | 00:00:00 | 01:36:48 | 00:00:00 | |
| IW2NTF | 2026-09-01 00:13:02 | 46.84634 | 7.78664 | 332° | 11km/h | 22679m | 4.2m/s | -54.2°C | 4.1% | 0hPa | 2.7V | 08:30:00 | 01:36:40 | 00:00:00 | |
| DL1ZP-14 | 2026-09-01 00:13:01 | 46.84648 | 7.78660 | 354° | 16km/h | 22700m | 4.7m/s | -54.3°C | 1.0% | -1.0hPa | 2.6V | 00:00:00 | 00:00:00 | 00:00:00 | |
| DF7PN | 2026-09-01 00:12:59 | 46.84636 | 7.78663 | 343° | 11km/h | 22684m | 5.1m/s | -54.2°C | 1.0% | -1.0hPa | 2.7V | 00:00:00 | 00:00:00 | 00:00:00 | |
| DM0DOS-11 | 2026-09-01 00:12:57 | 46.84631 | 7.78666 | 323° | 11km/h | 22674m | 5.7m/s | -54.2°C | 4.2% | 0hPa | 2.7V | 08:30:00 | 01:36:39 | 00:00:00 | |
| DO3MHA-11 | 2026-09-01 00:12:55 | 46.84629 | 7.78669 | 317° | 13km/h | 22669m | 5.2m/s | -54.1°C | 4.1% | 0hPa | 2.6V | 00:00:00 | 01:36:38 | 00:00:00 | |
| IW2NTF | 2026-09-01 00:12:52 | 46.84612 | 7.78692 | 328° | 16km/h | 22630m | 4.1m/s | -54.1°C | 4.2% | 0hPa | 2.6V | 08:30:00 | 01:36:30 | 00:00:00 | |
| DL6DJ-15 | 2026-09-01 00:12:52 | 46.84612 | 7.78692 | 328° | 15km/h | 22630m | 4.1m/s | -54.1°C | 1.0% | -1.0hPa | 2.7V | 00:00:00 | 00:00:00 | 00:00:00 | |
| DM0DOS-11 | 2026-09-01 00:12:50 | 46.84609 | 7.78695 | 328° | 13km/h | 22625m | 5m/s | -54.1°C | 4.1% | 0hPa | 2.7V | 08:30:00 | 01:36:29 | 00:00:00 | |
| BIOWL9-15 | 2026-09-01 00:12:49 | 46.84616 | 7.78689 | 328° | 15km/h | 22634m | 4.9m/s | -54.1°C | 1.0% | -1.0hPa | 2.7V | 00:00:00 | 00:00:00 | 00:00:00 | |
| DK5PH-5 | 2026-09-01 00:12:47 | 46.84612 | 7.78692 | 329° | 9km/h | 22630m | 4.0m/s | -54.0°C | 4.2% | 0hPa | 2.7V | 00:00:00 | 01:36:30 | 00:00:00 | |
| DH7VM-15 | 2026-09-01 00:12:46 | 46.84612 | 7.78692 | 329° | 16km/h | 22630m | 4.1m/s | -54.1°C | 1.2% | 0hPa | 2.7V | 00:00:00 | 00:00:00 | 00:00:00 | |
| DO3MHA-11 | 2026-09-01 00:12:45 | 46.84606 | 7.78697 | 324° | 9km/h | 22620m | 5.8m/s | -54.0°C | 4.1% | 0hPa | 2.7V | 00:00:00 | 01:36:28 | 00:00:00 | |
| OE5DXL-15 | 2026-09-01 00:12:44 | 46.84604 | 7.78702 | 291° | 7km/h | 22610m | 4.8m/s | -54.0°C | 4.1% | 0hPa | 2.6V | 00:00:00 | 00:00:00 | 00:00:00 | |
| IW2NTF | 2026-09-01 00:12:43 | 46.84599 | 7.78720 | 323° | 9km/h | 22579m | 4.8m/s | -54°C | 4.2% | 0hPa | 2.6V | 08:30:00 | 01:36:20 | 00:00:00 | |
| DM0DOS-11 | 2026-09-01 00:12:40 | 46.84596 | 7.78722 | 332° | 13km/h | 22573m | 6.2m/s | -54°C | 4.2% | 0hPa | 2.6V | 08:30:00 | 01:36:19 | 00:00:00 | |
| HASLITAL | 2026-09-01 00:12:38 | 46.84601 | 7.78716 | 295° | 9km/h | 22590m | 6.1m/s | -54.0°C | 1.2% | 0hPa | 2.6V | 00:00:00 | 00:00:00 | 00:00:00 | |
| DO3MHA-12 | 2026-09-01 00:12:35 | 46.84593 | 7.78725 | 335° | 9km/h | 22568m | 5.0m/s | -53.9°C | 4.2% | 0hPa | 2.6V | 00:00:00 | 01:36:18 | 00:00:00 | |
| IW2NTF | 2026-09-01 00:12:32 | 46.84580 | 7.78740 | 288° | 7km/h | 22528m | 4.1m/s | -53.8°C | 4.1% | 0hPa | 2.6V | 08:30:00 | 01:36:10 | 00:00:00 | |
| DL1ZP-14 | 2026-09-01 00:12:30 | 46.84582 | 7.78735 | 302° | 4km/h | 22544m | 5.0m/s | -53.9°C | 1.0% | -1.0hPa | 2.6V | 00:00:00 | 00:00:00 | 00:00:00 | |
| DM0DOS-11 | 2026-09-01 00:12:29 | 46.84580 | 7.78745 | 251° | 7km/h | 22518m | 5.6m/s | -53.8°C | 4.1% | 0hPa | 2.6V | 08:30:00 | 01:36:08 | 00:00:00 | |
| DB0UT-7 | 2026-09-01 00:12:29 | 46.84581 | 7.78736 | 305° | 11km/h | 22538m | 5.9m/s | -53.8°C | 4.1% | 0hPa | 2.7V | 00:00:00 | 01:36:12 | 00:00:00 | |
| DF7PN | 2026-09-01 00:12:27 | 46.84580 | 7.78740 | 288° | 5km/h | 22528m | 4.1m/s | -53.8°C | 1.0% | -1.0hPa | 2.6V | 00:00:00 | 00:00:00 | 00:00:00 | |
| DO3MHA-12 | 2026-09-01 00:12:25 | 46.84580 | 7.78745 | 252° | 13km/h | 22518m | 5.5m/s | -53.7°C | 4.1% | 0hPa | 2.6V | 00:00:00 | 01:36:08 | 08:30:00 | |
| IW2NTF | 2026-09-01 00:12:23 | 46.84565 | 7.78773 | 314° | 11km/h | 22478m | 5.1m/s | -53.5°C | 4% | 0hPa | 2.7V | 08:30:00 | 01:36:00 | 00:00:00 | |
| DM0DOS-11 | 2026-09-01 00:12:18 | 46.84562 | 7.78777 | 327° | 7km/h | 22468m | 5.1m/s | -53.5°C | 4% | 0hPa | 2.6V | 08:30:00 | 01:35:58 | 00:00:00 | |
| BIOWL9-15 | 2026-09-01 00:12:18 | 46.84565 | 7.78773 | 314° | 11km/h | 22478m | 5.1m/s | 0°C | -1.0% | -1.0hPa | 2.7V | 00:00:00 | 00:00:00 | 00:00:00 | |
| DK5PH-5 | 2026-09-01 00:12:17 | 46.84565 | 7.78773 | 315° | 22km/h | 22478m | 5.1m/s | -53.5°C | 4.0% | 0hPa | 2.7V | 00:00:00 | 01:36:00 | 00:00:00 | |
| DO3MHA-12 | 2026-09-01 00:12:15 | 46.84562 | 7.78777 | 328° | 11km/h | 22469m | 5.0m/s | -53.4°C | 4.0% | 0hPa | 2.7V | 00:00:00 | 01:35:58 | 00:00:00 | |
| IW2NTF | 2026-09-01 00:12:13 | 46.84546 | 7.78791 | 352° | 18km/h | 22427m | 5.3m/s | -53.5°C | 4% | 0hPa | 2.7V | 08:30:00 | 01:35:50 | 00:00:00 | |
| OE5DXL-15 | 2026-09-01 00:12:12 | 46.84556 | 7.78783 | 312° | 13km/h | 22448m | 5.9m/s | -53.4°C | 3.9% | 0hPa | 2.7V | 00:00:00 | 00:00:00 | 08:30:00 | |
| DM0DOS-11 | 2026-09-01 00:12:10 | 46.84537 | 7.78791 | 10° | 18km/h | 22417m | 5.8m/s | -53.5°C | 4% | 0hPa | 2.6V | 08:30:00 | 01:35:48 | 00:00:00 | |
| DO3MHA-12 | 2026-09-01 00:12:05 | 46.84537 | 7.78790 | 11° | 13km/h | 22418m | 5.8m/s | -53.4°C | 4.0% | 0hPa | 2.6V | 00:00:00 | 01:35:48 | 00:00:00 | |
| IW2NTF | 2026-09-01 00:12:02 | 46.84510 | 7.78784 | 329° | 9km/h | 22377m | 4.7m/s | -53.5°C | 4% | 0hPa | 2.6V | 08:30:00 | 01:35:40 | 00:00:00 | |
| DM0DOS-11 | 2026-09-01 00:12:00 | 46.84505 | 7.78787 | 351° | 13km/h | 22369m | 4.9m/s | -53.5°C | 4% | 0hPa | 2.7V | 08:30:00 | 01:35:38 | 00:00:00 | |
| DL1ZP-14 | 2026-09-01 00:11:59 | 46.84515 | 7.78782 | 353° | 11km/h | 22388m | 4.4m/s | -53.5°C | 1.0% | -1.0hPa | 2.6V | 00:00:00 | 00:00:00 | 00:00:00 | |
| DF7PN | 2026-09-01 00:11:56 | 46.84508 | 7.78786 | 339° | 9km/h | 22373m | 3.7m/s | -53.5°C | 1.0% | -1.0hPa | 2.6V | 00:00:00 | 00:00:00 | 00:00:00 | |
| DO3MHA-11 | 2026-09-01 00:11:55 | 46.84505 | 7.78786 | 352° | 18km/h | 22369m | 4.9m/s | -53.4°C | 4.0% | 0hPa | 2.6V | 00:00:00 | 01:35:38 | 00:00:00 | |
| IW2NTF | 2026-09-01 00:11:52 | 46.84468 | 7.78776 | 28° | 16km/h | 22331m | 4.5m/s | -53.4°C | 4% | 0hPa | 2.6V | 08:30:00 | 01:35:30 | 00:00:00 | |
| DM0DOS-11 | 2026-09-01 00:11:50 | 46.84459 | 7.78770 | 24° | 20km/h | 22321m | 4.8m/s | -53.4°C | 3.9% | 0hPa | 2.6V | 08:30:00 | 01:35:28 | 00:00:00 | |
| BIOWL9-15 | 2026-09-01 00:11:47 | 46.84464 | 7.78773 | 27° | 18km/h | 22327m | 5.4m/s | 0°C | -1.0% | -1.0hPa | 2.6V | 00:00:00 | 00:00:00 | 00:00:00 | |
| DO3MHA-11 | 2026-09-01 00:11:45 | 46.84459 | 7.78770 | 25° | 22km/h | 22321m | 4.8m/s | -53.4°C | 3.9% | 0hPa | 2.6V | 00:00:00 | 01:35:28 | 08:30:00 | |
| IW2NTF | 2026-09-01 00:11:43 | 46.84417 | 7.78779 | 340° | 24km/h | 22281m | 5.7m/s | -53.8°C | 4.1% | 0hPa | 2.6V | 08:30:00 | 01:35:20 | 00:00:00 | |
| OE5DXL-15 | 2026-09-01 00:11:42 | 46.84435 | 7.78769 | 341° | 24km/h | 22297m | 6.0m/s | -53.5°C | 3.9% | 0hPa | 2.6V | 00:00:00 | 00:00:00 | 00:00:00 | |
| DM0DOS-11 | 2026-09-01 00:11:40 | 46.84407 | 7.78783 | 355° | 18km/h | 22271m | 5m/s | -53.9°C | 4.1% | 0hPa | 2.6V | 08:30:00 | 01:35:18 | 00:00:00 | |
| HASLITAL | 2026-09-01 00:11:37 | 46.84423 | 7.78775 | 340° | 26km/h | 22287m | 4.3m/s | -53.7°C | 1.1% | 0hPa | 2.7V | 00:00:00 | 00:00:00 | 00:00:00 | |
| DO3MHA-11 | 2026-09-01 00:11:35 | 46.84407 | 7.78782 | 356° | 18km/h | 22271m | 5.0m/s | -53.8°C | 4.1% | 0hPa | 2.7V | 00:00:00 | 01:35:18 | 00:00:00 | |
| IW2NTF | 2026-09-01 00:11:33 | 46.84371 | 7.78786 | 337° | 20km/h | 22233m | 4.6m/s | -53.8°C | 4% | 0hPa | 2.7V | 08:30:00 | 01:35:10 | 00:00:00 | |
| DM0DOS-11 | 2026-09-01 00:11:30 | 46.84360 | 7.78792 | 341° | 27km/h | 22222m | 4.9m/s | -53.7°C | 4% | 0hPa | 2.6V | 08:30:00 | 01:35:08 | 00:00:00 | |
| DB0UT-7 | 2026-09-01 00:11:29 | 46.84379 | 7.78781 | 347° | 22km/h | 22242m | 5.1m/s | -53.8°C | 4.1% | 0hPa | 2.6V | 00:00:00 | 01:35:12 | 00:00:00 | |
| DL1ZP-14 | 2026-09-01 00:11:28 | 46.84375 | 7.78783 | 338° | 15km/h | 22237m | 3.9m/s | -53.8°C | 1.0% | -1.0hPa | 2.6V | 00:00:00 | 00:00:00 | 00:00:00 | |
| DO3MHA-11 | 2026-09-01 00:11:25 | 46.84360 | 7.78792 | 342° | 22km/h | 22223m | 4.9m/s | -53.7°C | 4.0% | 0hPa | 2.6V | 00:00:00 | 01:35:08 | 00:00:00 | |
| DH7VM-15 | 2026-09-01 00:11:24 | 46.84360 | 7.78792 | 342° | 27km/h | 22223m | 4.9m/s | -53.7°C | 1.1% | 0hPa | 2.6V | 00:00:00 | 00:00:00 | 00:00:00 | |
| IW2NTF | 2026-09-01 00:11:22 | 46.84322 | 7.78818 | 310° | 18km/h | 22183m | 5m/s | -53.4°C | 4% | 0hPa | 2.6V | 08:30:00 | 01:35:00 | 00:00:00 | |
| DM0DOS-11 | 2026-09-01 00:11:20 | 46.84317 | 7.78831 | 295° | 22km/h | 22172m | 5m/s | -53.4°C | 4% | 0hPa | 2.7V | 08:30:00 | 01:34:58 | 00:00:00 | |
| DL6DJ-15 | 2026-09-01 00:11:18 | 46.84326 | 7.78813 | 319° | 16km/h | 22188m | 5.1m/s | -53.5°C | 1.0% | -1.0hPa | 2.6V | 00:00:00 | 00:00:00 | 00:00:00 | |
| HASLITAL | 2026-09-01 00:11:16 | 46.84322 | 7.78818 | 312° | 18km/h | 22183m | 5.0m/s | -53.4°C | 1.1% | 0hPa | 2.6V | 00:00:00 | 00:00:00 | 00:00:00 | |
| DO3MHA-12 | 2026-09-01 00:11:15 | 46.84317 | 7.78830 | 296° | 26km/h | 22172m | 4.9m/s | -53.3°C | 4.0% | 0hPa | 2.6V | 00:00:00 | 01:34:58 | 00:00:00 | |
| IW2NTF | 2026-09-01 00:11:12 | 46.84280 | 7.78887 | 320° | 24km/h | 22134m | 4.1m/s | -53.4°C | 3.9% | 0hPa | 2.6V | 08:30:00 | 01:34:50 | 00:00:00 | |
| DM0DOS-11 | 2026-09-01 00:11:08 | 46.84271 | 7.78896 | 325° | 22km/h | 22124m | 4.8m/s | -53.5°C | 4% | 0hPa | 2.7V | 08:30:00 | 01:34:48 | 00:00:00 | |
| DO3MHA-11 | 2026-09-01 00:11:05 | 46.84271 | 7.78896 | 326° | 24km/h | 22124m | 4.8m/s | -53.5°C | 4.0% | 0hPa | 2.6V | 00:00:00 | 01:34:48 | 00:00:00 | |
| IW2NTF | 2026-09-01 00:11:02 | 46.84246 | 7.78954 | 301° | 31km/h | 22083m | 5.5m/s | -53.8°C | 4.1% | 0hPa | 2.6V | 08:30:00 | 01:34:40 | 00:00:00 | |
| DL1ZP-14 | 2026-09-01 00:10:57 | 46.84246 | 7.78954 | 301° | 29km/h | 22084m | 5.5m/s | -53.8°C | 1.0% | -1.0hPa | 2.6V | 00:00:00 | 00:00:00 | 00:00:00 | |
| HASLITAL | 2026-09-01 00:10:56 | 46.84246 | 7.78953 | 303° | 31km/h | 22084m | 5.5m/s | -53.8°C | 1.2% | 0hPa | 2.6V | 00:00:00 | 00:00:00 | 00:00:00 | |
| DM0DOS-11 | 2026-09-01 00:10:55 | 46.84238 | 7.78972 | 303° | 29km/h | 22073m | 4.8m/s | -53.7°C | 4.1% | 0hPa | 2.6V | 08:30:00 | 01:34:38 | 00:00:00 | |
| DO3MHA-12 | 2026-09-01 00:10:55 | 46.84238 | 7.78972 | 304° | 18km/h | 22073m | 4.8m/s | -53.7°C | 4.1% | 0hPa | 2.6V | 00:00:00 | 01:34:38 | 08:30:00 | |
| DK5PH-5 | 2026-09-01 00:10:54 | 46.84234 | 7.78981 | 308° | 20km/h | 22068m | 4.8m/s | -53.7°C | 4.0% | 0hPa | 2.7V | 00:00:00 | 01:34:37 | 00:00:00 | |
| IW2NTF | 2026-09-01 00:10:52 | 46.84214 | 7.79013 | 296° | 16km/h | 22033m | 5.7m/s | -53.4°C | 4% | 0hPa | 2.7V | 08:30:00 | 01:34:30 | 00:00:00 | |
| DM0DOS-11 | 2026-09-01 00:10:50 | 46.84209 | 7.79026 | 300° | 26km/h | 22022m | 4.7m/s | -53.3°C | 4% | 0hPa | 2.6V | 08:30:00 | 01:34:28 | 00:00:00 | |
| DO3MHA-12 | 2026-09-01 00:10:45 | 46.84208 | 7.79026 | 301° | 27km/h | 22022m | 4.7m/s | -53.3°C | 4.0% | 0hPa | 2.7V | 00:00:00 | 01:34:28 | 00:00:00 | |
| IW2NTF | 2026-09-01 00:10:42 | 46.84179 | 7.79089 | 323° | 16km/h | 21982m | 4.8m/s | -53.1°C | 3.9% | 0hPa | 2.7V | 08:30:00 | 01:34:20 | 00:00:00 | |
| DM0DOS-11 | 2026-09-01 00:10:39 | 46.84174 | 7.79096 | 299° | 13km/h | 21972m | 5.1m/s | -53.1°C | 3.9% | 0hPa | 2.6V | 08:30:00 | 01:34:18 | 00:00:00 | |
| HASLITAL | 2026-09-01 00:10:36 | 46.84179 | 7.79089 | 325° | 16km/h | 21983m | 4.8m/s | -53.1°C | 1.1% | 0hPa | 2.7V | 00:00:00 | 00:00:00 | 00:00:00 | |
| DO3MHA-12 | 2026-09-01 00:10:35 | 46.84174 | 7.79096 | 300° | 18km/h | 21972m | 5.1m/s | -53.1°C | 3.9% | 0hPa | 2.7V | 00:00:00 | 01:34:18 | 00:00:00 | |
| IW2NTF | 2026-09-01 00:10:31 | 46.84156 | 7.79150 | 296° | 22km/h | 21925m | 5.4m/s | -53.2°C | 3.9% | 0hPa | 2.7V | 08:30:00 | 01:34:09 | 00:00:00 | |
| DM0DOS-11 | 2026-09-01 00:10:30 | 46.84153 | 7.79157 | 304° | 22km/h | 21920m | 5.2m/s | -53.2°C | 3.9% | 0hPa | 2.7V | 08:30:00 | 01:34:08 | 00:00:00 | |
| DB0UT-7 | 2026-09-01 00:10:29 | 46.84162 | 7.79127 | 295° | 9km/h | 21941m | 6.0m/s | -53.2°C | 3.9% | 0hPa | 2.6V | 00:00:00 | 01:34:12 | 00:00:00 | |
| OE5DXL-15 | 2026-09-01 00:10:28 | 46.84158 | 7.79142 | 290° | 9km/h | 21930m | 3.7m/s | -53.2°C | 3.9% | 0hPa | 2.6V | 00:00:00 | 00:00:00 | 00:00:00 | |
| DL1ZP-14 | 2026-09-01 00:10:26 | 46.84156 | 7.79150 | 296° | 22km/h | 21925m | 5.4m/s | -53.2°C | 1.0% | -1.0hPa | 2.7V | 00:00:00 | 00:00:00 | 00:00:00 | |
| DO3MHA-11 | 2026-09-01 00:10:25 | 46.84153 | 7.79157 | 305° | 13km/h | 21920m | 5.2m/s | -53.2°C | 3.9% | 0hPa | 2.6V | 00:00:00 | 01:34:08 | 00:00:00 | |
| DO3MHA-12 | 2026-09-01 00:10:24 | 46.84150 | 7.79163 | 310° | 13km/h | 21916m | 4.1m/s | -53.2°C | 3.9% | 0hPa | 2.6V | 00:00:00 | 01:34:07 | 00:00:00 | |
| DF7PN | 2026-09-01 00:10:23 | 46.84145 | 7.79173 | 302° | 15km/h | 21905m | 5.5m/s | -53.4°C | 1.0% | -1.0hPa | 2.6V | 00:00:00 | 00:00:00 | 00:00:00 | |
| IW2NTF | 2026-09-01 00:10:22 | 46.84135 | 7.79192 | 303° | 9km/h | 21874m | 6.1m/s | -53.5°C | 4% | 0hPa | 2.6V | 08:30:00 | 01:33:59 | 00:00:00 | |
| DM0DOS-11 | 2026-09-01 00:10:21 | 46.84134 | 7.79195 | 286° | 7km/h | 21868m | 5.3m/s | -53.5°C | 4% | 0hPa | 2.6V | 08:30:00 | 01:33:58 | 00:00:00 | |
| DK5PH-5 | 2026-09-01 00:10:18 | 46.84138 | 7.79187 | 319° | 7km/h | 21885m | 5.2m/s | -53.4°C | 4.0% | 0hPa | 2.6V | 00:00:00 | 01:34:01 | 00:00:00 | |
| DL6DJ-15 | 2026-09-01 00:10:16 | 46.84135 | 7.79192 | 303° | 7km/h | 21875m | 6.1m/s | -53.5°C | 1.0% | -1.0hPa | 2.6V | 00:00:00 | 00:00:00 | 00:00:00 | |
| DO3MHA-11 | 2026-09-01 00:10:15 | 46.84134 | 7.79195 | 287° | 5km/h | 21869m | 5.3m/s | -53.5°C | 4.0% | 0hPa | 2.6V | 00:00:00 | 01:33:58 | 08:30:00 | |
| IW2NTF | 2026-09-01 00:10:11 | 46.84128 | 7.79200 | 258° | 5km/h | 21822m | 5.3m/s | -53.6°C | 3.9% | 0hPa | 2.6V | 08:30:00 | 01:33:49 | 00:00:00 | |
| DM0DOS-11 | 2026-09-01 00:10:10 | 46.84128 | 7.79202 | 282° | 5km/h | 21817m | 5.8m/s | -53.6°C | 3.9% | 0hPa | 2.6V | 08:30:00 | 01:33:48 | 00:00:00 | |
| DO3MHA-11 | 2026-09-01 00:10:05 | 46.84128 | 7.79202 | 283° | 5km/h | 21817m | 5.7m/s | -53.6°C | 3.9% | 0hPa | 2.6V | 00:00:00 | 01:33:48 | 00:00:00 | |
| IW2NTF | 2026-09-01 00:10:01 | 46.84126 | 7.79200 | 80° | 11km/h | 21770m | 6.3m/s | -53.9°C | 4% | 0hPa | 2.6V | 08:30:00 | 01:33:39 | 00:00:00 | |
| DM0DOS-11 | 2026-09-01 00:10:00 | 46.84126 | 7.79196 | 81° | 11km/h | 21765m | 5m/s | -54°C | 4% | 0hPa | 2.6V | 08:30:00 | 01:33:38 | 00:00:00 | |
| DL1ZP-14 | 2026-09-01 00:09:55 | 46.84125 | 7.79192 | 72° | 11km/h | 21760m | 4.8m/s | -54.0°C | 1.0% | -1.0hPa | 2.6V | 00:00:00 | 00:00:00 | 00:00:00 | |
| DF7PN | 2026-09-01 00:09:52 | 46.84121 | 7.79184 | 27° | 5km/h | 21744m | 4.4m/s | -54.2°C | 0% | -1.0hPa | 2.7V | 00:00:00 | 00:00:00 | 00:00:00 | |
| IW2NTF | 2026-09-01 00:09:51 | 46.84119 | 7.79182 | 59° | 2km/h | 21718m | 5.8m/s | -54.2°C | 4.2% | 0hPa | 2.7V | 08:30:00 | 01:33:29 | 00:00:00 | |
| DM0DOS-11 | 2026-09-01 00:09:50 | 46.84119 | 7.79181 | 46° | 4km/h | 21712m | 4.7m/s | -54.2°C | 4.2% | 0hPa | 2.7V | 08:30:00 | 01:33:28 | 00:00:00 | |
| DO3MHA-12 | 2026-09-01 00:09:48 | 46.84119 | 7.79182 | 180° | 5km/h | 21728m | 4.7m/s | -54.2°C | 4.2% | 0hPa | 2.7V | 00:00:00 | 01:33:31 | 00:00:00 | |
| DO3MHA-11 | 2026-09-01 00:09:45 | 46.84119 | 7.79181 | 47° | 9km/h | 21713m | 4.6m/s | -54.2°C | 4.2% | 0hPa | 2.7V | 00:00:00 | 01:33:28 | 00:00:00 | |
| DM0DOS-11 | 2026-09-01 00:09:40 | 46.84106 | 7.79159 | 340° | 7km/h | 21663m | 5.8m/s | -54.3°C | 4.2% | 0hPa | 2.7V | 08:30:00 | 01:33:18 | 00:00:00 | |
| DO3MHA-12 | 2026-09-01 00:09:38 | 46.84114 | 7.79164 | 41° | 9km/h | 21678m | 5.2m/s | -54.3°C | 4.1% | 0hPa | 2.7V | 00:00:00 | 01:33:21 | 00:00:00 | |
| IW2NTF | 2026-09-01 00:09:36 | 46.84105 | 7.79161 | 287° | 7km/h | 21658m | 5.4m/s | -54.4°C | 4.2% | 0hPa | 2.7V | 08:30:00 | 01:33:17 | 00:00:00 | |
| DO3MHA-11 | 2026-09-01 00:09:35 | 46.84106 | 7.79159 | 341° | 9km/h | 21664m | 5.7m/s | -54.3°C | 4.2% | 0hPa | 2.6V | 00:00:00 | 01:33:18 | 00:00:00 | |
| HASLITAL | 2026-09-01 00:09:34 | 46.84106 | 7.79159 | 341° | 7km/h | 21664m | 5.8m/s | -54.3°C | 1.2% | 0hPa | 2.6V | 00:00:00 | 00:00:00 | 00:00:00 | |
| DM0DOS-11 | 2026-09-01 00:09:31 | 46.84115 | 7.79167 | 94° | 15km/h | 21612m | 5.4m/s | -54.3°C | 4.2% | 0hPa | 2.6V | 08:30:00 | 01:33:08 | 00:00:00 | |
| DB0UT-7 | 2026-09-01 00:09:29 | 46.84108 | 7.79175 | 205° | 11km/h | 21633m | 5.6m/s | -54.3°C | 4.2% | 0hPa | 2.7V | 00:00:00 | 01:33:12 | 00:00:00 | |
| DO3MHA-12 | 2026-09-01 00:09:28 | 46.84110 | 7.79175 | 178° | 13km/h | 21628m | 5.6m/s | -54.3°C | 4.2% | 0hPa | 2.6V | 00:00:00 | 01:33:11 | 00:00:00 | |
| IW2NTF | 2026-09-01 00:09:25 | 46.84115 | 7.79162 | 87° | 16km/h | 21607m | 4m/s | -54.3°C | 4.2% | 0hPa | 2.7V | 08:30:00 | 01:33:07 | 00:00:00 | |
| DO3MHA-11 | 2026-09-01 00:09:25 | 46.84115 | 7.79167 | 95° | 13km/h | 21612m | 5.3m/s | -54.3°C | 4.2% | 0hPa | 2.7V | 00:00:00 | 01:33:08 | 00:00:00 | |
| DL1ZP-14 | 2026-09-01 00:09:24 | 46.84115 | 7.79156 | 89° | 15km/h | 21603m | 4.1m/s | -54.3°C | 1.0% | -1.0hPa | 2.7V | 00:00:00 | 00:00:00 | 00:00:00 | |
| DF7PN | 2026-09-01 00:09:21 | 46.84119 | 7.79146 | 174° | 9km/h | 21589m | 4.5m/s | -54.2°C | 1.1% | -1.0hPa | 2.6V | 00:00:00 | 00:00:00 | 00:00:00 | |
| DM0DOS-11 | 2026-09-01 00:09:20 | 46.84130 | 7.79158 | 210° | 13km/h | 21565m | 5.1m/s | -54.1°C | 4.1% | 0hPa | 2.6V | 08:30:00 | 01:32:58 | 00:00:00 | |
| DO3MHA-12 | 2026-09-01 00:09:18 | 46.84123 | 7.79149 | 219° | 11km/h | 21580m | 5.4m/s | -54.1°C | 4.1% | 0hPa | 2.6V | 00:00:00 | 01:33:01 | 00:00:00 | |
| IW2NTF | 2026-09-01 00:09:16 | 46.84134 | 7.79160 | 198° | 13km/h | 21560m | 5.2m/s | -54.1°C | 4.1% | 0hPa | 2.6V | 08:30:00 | 01:32:57 | 00:00:00 | |
| DO3MHA-11 | 2026-09-01 00:09:15 | 46.84130 | 7.79158 | 211° | 11km/h | 21565m | 5.0m/s | -54.0°C | 4.1% | 0hPa | 2.6V | 00:00:00 | 01:32:58 | 00:00:00 | |
| DL6DJ-15 | 2026-09-01 00:09:14 | 46.84134 | 7.79160 | 198° | 13km/h | 21560m | 5.2m/s | -54.1°C | 1.0% | -1.0hPa | 2.6V | 00:00:00 | 00:00:00 | 00:00:00 | |
| HASLITAL | 2026-09-01 00:09:13 | 46.84134 | 7.79160 | 200° | 13km/h | 21560m | 5.2m/s | -54.1°C | 1.2% | 0hPa | 2.6V | 00:00:00 | 00:00:00 | 00:00:00 | |
| DM0DOS-11 | 2026-09-01 00:09:11 | 46.84150 | 7.79139 | 170° | 13km/h | 21516m | 3.9m/s | -53.9°C | 0% | 0hPa | 2.6V | 08:30:00 | 01:32:48 | 00:00:00 | |
| DO3MHA-12 | 2026-09-01 00:09:08 | 46.84143 | 7.79147 | 105° | 11km/h | 21531m | 5.0m/s | -53.9°C | 4.1% | 0hPa | 2.6V | 00:00:00 | 01:32:51 | 00:00:00 | |
| IW2NTF | 2026-09-01 00:09:06 | 46.84153 | 7.79138 | 183° | 13km/h | 21512m | 5m/s | -53.9°C | 4% | 0hPa | 2.6V | 08:30:00 | 01:32:47 | 00:00:00 | |
| DO3MHA-11 | 2026-09-01 00:09:05 | 46.84150 | 7.79138 | 171° | 11km/h | 21516m | 3.8m/s | -53.9°C | 4.1% | 0hPa | 2.6V | 00:00:00 | 01:32:48 | 00:00:00 | |
| DB0UT-7 | 2026-09-01 00:08:59 | 46.84166 | 7.79140 | 168° | 9km/h | 21486m | 4.8m/s | -53.8°C | 4.0% | 0hPa | 2.6V | 00:00:00 | 00:00:00 | 00:00:00 | |
| DO3MHA-12 | 2026-09-01 00:08:57 | 46.84169 | 7.79138 | 136° | 11km/h | 21476m | 6.0m/s | -53.8°C | 4.0% | 0hPa | 2.6V | 00:00:00 | 01:32:40 | 08:30:00 | |
| IW2NTF | 2026-09-01 00:08:55 | 46.84173 | 7.79128 | 120° | 13km/h | 21461m | 5.8m/s | -53.8°C | 4% | 0hPa | 2.6V | 08:30:00 | 01:32:37 | 00:00:00 | |
| DL1ZP-14 | 2026-09-01 00:08:53 | 46.84177 | 7.79121 | 129° | 9km/h | 21451m | 4.2m/s | -53.8°C | 1.0% | -1.0hPa | 2.6V | 00:00:00 | 00:00:00 | 00:00:00 | |
| DF7PN | 2026-09-01 00:08:49 | 46.84181 | 7.79115 | 148° | 4km/h | 21437m | 4.5m/s | -53.8°C | 1.0% | -1.0hPa | 2.7V | 00:00:00 | 00:00:00 | 00:00:00 | |
| DK5PH-5 | 2026-09-01 00:08:48 | 46.84182 | 7.79114 | 155° | 9km/h | 21432m | 5.5m/s | -53.7°C | 4.1% | 0hPa | 2.7V | 00:00:00 | 01:32:31 | 00:00:00 | |
| DO3MHA-12 | 2026-09-01 00:08:47 | 46.84184 | 7.79113 | 156° | 9km/h | 21427m | 4.3m/s | -53.7°C | 4.1% | 0hPa | 2.7V | 00:00:00 | 01:32:30 | 00:00:00 | |
| IW2NTF | 2026-09-01 00:08:46 | 46.84186 | 7.79109 | 85° | 5km/h | 21412m | 4.6m/s | -53.8°C | 4% | 0hPa | 2.7V | 08:30:00 | 01:32:27 | 00:00:00 | |
| DO3MHA-11 | 2026-09-01 00:08:45 | 46.84186 | 7.79110 | 110° | 11km/h | 21417m | 5.5m/s | -53.7°C | 4.0% | 0hPa | 2.7V | 00:00:00 | 01:32:28 | 08:30:00 | |
| DL6DJ-15 | 2026-09-01 00:08:43 | 46.84186 | 7.79106 | 85° | 7km/h | 21408m | 4.5m/s | -53.8°C | 1.0% | -1.0hPa | 2.7V | 00:00:00 | 00:00:00 | 00:00:00 | |
| DH7VM-15 | 2026-09-01 00:08:41 | 46.84186 | 7.79102 | 94° | 11km/h | 21402m | 5.7m/s | -53.8°C | 0% | 0hPa | 2.7V | 00:00:00 | 00:00:00 | 00:00:00 | |
| DO3MHA-12 | 2026-09-01 00:08:37 | 46.84186 | 7.79079 | 76° | 7km/h | 21379m | 4.0m/s | -53.7°C | 4.1% | 0hPa | 2.7V | 00:00:00 | 01:32:20 | 00:00:00 | |
| IW2NTF | 2026-09-01 00:08:35 | 46.84186 | 7.79069 | 106° | 7km/h | 21363m | 4.3m/s | -53.7°C | 4% | 0hPa | 2.7V | 08:30:00 | 01:32:17 | 00:00:00 | |
| DO3MHA-11 | 2026-09-01 00:08:35 | 46.84186 | 7.79072 | 97° | 7km/h | 21369m | 5.1m/s | -53.7°C | 4.0% | 0hPa | 2.7V | 00:00:00 | 01:32:18 | 00:00:00 | |
| HASLITAL | 2026-09-01 00:08:32 | 46.84186 | 7.79067 | 109° | 5km/h | 21359m | 5.3m/s | -53.7°C | 1.2% | 0hPa | 2.7V | 00:00:00 | 00:00:00 | 00:00:00 | |
| DB0UT-7 | 2026-09-01 00:08:29 | 46.84187 | 7.79061 | 100° | 13km/h | 21340m | 5.5m/s | -53.6°C | 4.0% | 0hPa | 2.7V | 00:00:00 | 01:32:12 | 00:00:00 | |
| DO3MHA-12 | 2026-09-01 00:08:27 | 46.84187 | 7.79053 | 90° | 13km/h | 21331m | 4.3m/s | -53.6°C | 4.0% | 0hPa | 2.7V | 00:00:00 | 01:32:10 | 00:00:00 | |
| DM0DOS-11 | 2026-09-01 00:08:25 | 46.84184 | 7.79041 | 53° | 13km/h | 21316m | 4m/s | -53.6°C | 0% | 0hPa | 2.6V | 08:30:00 | 01:32:07 | 00:00:00 | |
| DO3MHA-11 | 2026-09-01 00:08:25 | 46.84186 | 7.79045 | 62° | 11km/h | 21320m | 4.6m/s | -53.6°C | 4.1% | 0hPa | 2.7V | 00:00:00 | 01:32:08 | 00:00:00 | |
| DL1ZP-14 | 2026-09-01 00:08:22 | 46.84178 | 7.79028 | 59° | 13km/h | 21301m | 4.1m/s | -53.6°C | 1.0% | -1.0hPa | 2.7V | 00:00:00 | 00:00:00 | 00:00:00 | |
| DF7PN | 2026-09-01 00:08:19 | 46.84172 | 7.79018 | 28° | 9km/h | 21287m | 4.2m/s | -53.6°C | 1.0% | -1.0hPa | 2.6V | 00:00:00 | 00:00:00 | 00:00:00 | |
| DK5PH-5 | 2026-09-01 00:08:18 | 46.84172 | 7.79018 | 29° | 9km/h | 21288m | 4.1m/s | -53.6°C | 4.1% | 0hPa | 2.6V | 00:00:00 | 01:32:01 | 00:00:00 | |
| DO3MHA-12 | 2026-09-01 00:08:17 | 46.84170 | 7.79016 | 34° | 11km/h | 21283m | 4.1m/s | -53.6°C | 4.1% | 0hPa | 2.6V | 00:00:00 | 01:32:00 | 00:00:00 | |
| IW2NTF | 2026-09-01 00:08:16 | 46.84168 | 7.79009 | 87° | 9km/h | 21269m | 3.6m/s | -53.7°C | 4.1% | 0hPa | 2.6V | 08:30:00 | 01:31:57 | 00:00:00 | |
| DO3MHA-11 | 2026-09-01 00:08:15 | 46.84168 | 7.79012 | 84° | 15km/h | 21273m | 5.0m/s | -53.7°C | 4.1% | 0hPa | 2.6V | 00:00:00 | 01:31:58 | 00:00:00 | |
| DL6DJ-15 | 2026-09-01 00:08:12 | 46.84165 | 7.78998 | 47° | 15km/h | 21255m | 4.3m/s | -53.7°C | 1.0% | -1.0hPa | 2.6V | 00:00:00 | 00:00:00 | 00:00:00 | |
| DO3MHA-12 | 2026-09-01 00:08:07 | 46.84154 | 7.78975 | 72° | 11km/h | 21237m | 4.5m/s | -53.7°C | 4.0% | 0hPa | 2.6V | 00:00:00 | 01:31:50 | 00:00:00 | |
| IW2NTF | 2026-09-01 00:08:05 | 46.84151 | 7.78958 | 63° | 11km/h | 21223m | 5m/s | -53.7°C | 4.1% | 0hPa | 2.6V | 08:30:00 | 01:31:47 | 00:00:00 | |
| DO3MHA-11 | 2026-09-01 00:08:05 | 46.84152 | 7.78962 | 73° | 9km/h | 21228m | 4.8m/s | -53.7°C | 4.1% | 0hPa | 2.7V | 00:00:00 | 01:31:48 | 00:00:00 | |
| DB0UT-7 | 2026-09-01 00:07:59 | 46.84148 | 7.78945 | 97° | 7km/h | 21200m | 4.6m/s | -53.6°C | 4.0% | 0hPa | 2.7V | 00:00:00 | 00:00:00 | 00:00:00 | |
| DO3MHA-12 | 2026-09-01 00:07:57 | 46.84147 | 7.78939 | 76° | 9km/h | 21190m | 5.6m/s | -53.6°C | 4.0% | 0hPa | 2.6V | 00:00:00 | 01:31:40 | 00:00:00 | |
| IW2NTF | 2026-09-01 00:07:55 | 46.84145 | 7.78927 | 87° | 13km/h | 21176m | 5.8m/s | -53.6°C | 4% | 0hPa | 2.7V | 08:30:00 | 01:31:37 | 00:00:00 | |
| DM0DOS-11 | 2026-09-01 00:07:55 | 46.84146 | 7.78923 | 101° | 11km/h | 21170m | 4.5m/s | 0°C | 0% | 0hPa | 2.7V | 00:00:00 | 01:31:36 | 00:00:00 | |
| DL1ZP-14 | 2026-09-01 00:07:51 | 46.84148 | 7.78917 | 218° | 2km/h | 21156m | 5.1m/s | -53.6°C | 1.0% | -1.0hPa | 2.6V | 00:00:00 | 00:00:00 | 00:00:00 | |
| DF7PN | 2026-09-01 00:07:48 | 46.84151 | 7.78924 | 231° | 7km/h | 21140m | 5.0m/s | -53.5°C | 1.0% | -1.0hPa | 2.6V | 00:00:00 | 00:00:00 | 00:00:00 | |
| DO3MHA-12 | 2026-09-01 00:07:47 | 46.84151 | 7.78924 | 232° | 5km/h | 21140m | 5.0m/s | -53.5°C | 4.0% | 0hPa | 2.6V | 00:00:00 | 01:31:30 | 00:00:00 | |
| IW2NTF | 2026-09-01 00:07:45 | 46.84152 | 7.78930 | 318° | 4km/h | 21126m | 5.2m/s | -53.5°C | 3.9% | 0hPa | 2.6V | 08:30:00 | 01:31:27 | 00:00:00 | |
| DO3MHA-11 | 2026-09-01 00:07:45 | 46.84152 | 7.78928 | 270° | 7km/h | 21132m | 5.3m/s | -53.5°C | 4.0% | 0hPa | 2.6V | 00:00:00 | 01:31:28 | 00:00:00 | |
| DL6DJ-15 | 2026-09-01 00:07:41 | 46.84150 | 7.78927 | 95° | 5km/h | 21113m | 5.4m/s | 0°C | -1.0% | -1.0hPa | 2.6V | 00:00:00 | 00:00:00 | 00:00:00 | |
| DK5PH-5 | 2026-09-01 00:07:39 | 46.84152 | 7.78923 | 160° | 9km/h | 21104m | 4.1m/s | -53.7°C | 4.0% | 0hPa | 2.6V | 00:00:00 | 01:31:22 | 08:30:00 | |
| DO3MHA-12 | 2026-09-01 00:07:37 | 46.84156 | 7.78925 | 218° | 7km/h | 21093m | 5.0m/s | -53.8°C | 4.0% | 0hPa | 2.6V | 00:00:00 | 01:31:20 | 00:00:00 | |
| IW2NTF | 2026-09-01 00:07:35 | 46.84163 | 7.78935 | 221° | 13km/h | 21080m | 5.1m/s | -54°C | 4% | 0hPa | 2.6V | 08:30:00 | 01:31:17 | 00:00:00 | |
| DO3MHA-11 | 2026-09-01 00:07:35 | 46.84160 | 7.78931 | 227° | 7km/h | 21085m | 4.4m/s | -53.9°C | 4.0% | 0hPa | 2.7V | 00:00:00 | 01:31:18 | 00:00:00 | |
| HASLITAL | 2026-09-01 00:07:31 | 46.84167 | 7.78940 | 210° | 9km/h | 21071m | 4.2m/s | -54.0°C | 1.2% | 0hPa | 2.7V | 00:00:00 | 00:00:00 | 00:00:00 | |
| DB0UT-7 | 2026-09-01 00:07:29 | 46.84170 | 7.78942 | 173° | 7km/h | 21057m | 4.3m/s | -54.0°C | 4.0% | 0hPa | 2.7V | 00:00:00 | 01:31:12 | 00:00:00 | |
| DO3MHA-12 | 2026-09-01 00:07:27 | 46.84171 | 7.78940 | 120° | 7km/h | 21048m | 5.8m/s | -54.1°C | 4.1% | 0hPa | 2.7V | 00:00:00 | 01:31:10 | 08:30:00 | |
| IW2NTF | 2026-09-01 00:07:25 | 46.84175 | 7.78930 | 128° | 9km/h | 21034m | 4.4m/s | -54.2°C | 4.1% | 0hPa | 2.6V | 08:30:00 | 01:31:07 | 00:00:00 | |
| DO3MHA-11 | 2026-09-01 00:07:25 | 46.84173 | 7.78933 | 124° | 7km/h | 21038m | 3.9m/s | -54.1°C | 4.1% | 0hPa | 2.6V | 00:00:00 | 01:31:08 | 00:00:00 | |
| DH7VM-15 | 2026-09-01 00:07:20 | 46.84180 | 7.78928 | 197° | 5km/h | 21016m | 4.2m/s | -54.2°C | 0% | 0hPa | 2.6V | 00:00:00 | 00:00:00 | 00:00:00 | |
| DL1ZP-14 | 2026-09-01 00:07:19 | 46.84181 | 7.78928 | 180° | 4km/h | 21011m | 5.5m/s | -54.3°C | 1.1% | -1.0hPa | 2.6V | 00:00:00 | 00:00:00 | 00:00:00 | |
| DO3MHA-12 | 2026-09-01 00:07:17 | 46.84183 | 7.78926 | 106° | 9km/h | 21001m | 3.8m/s | -54.3°C | 4.1% | 0hPa | 2.7V | 00:00:00 | 01:31:00 | 00:00:00 | |
| IW2NTF | 2026-09-01 00:07:16 | 46.84181 | 7.78918 | 56° | 11km/h | 20987m | 4.4m/s | -54.3°C | 4.1% | 0hPa | 2.7V | 08:30:00 | 01:30:57 | 00:00:00 | |
| DO3MHA-11 | 2026-09-01 00:07:15 | 46.84182 | 7.78921 | 59° | 9km/h | 20992m | 5.2m/s | -54.2°C | 4.1% | 0hPa | 2.7V | 00:00:00 | 01:30:58 | 08:30:00 | |
| HASLITAL | 2026-09-01 00:07:12 | 46.84179 | 7.78910 | 84° | 11km/h | 20977m | 5.5m/s | -54.3°C | 1.2% | 0hPa | 2.7V | 00:00:00 | 00:00:00 | 00:00:00 | |
| DL6DJ-15 | 2026-09-01 00:07:10 | 46.84179 | 7.78902 | 94° | 9km/h | 20967m | 5.0m/s | 0°C | -1.0% | -1.0hPa | 2.7V | 00:00:00 | 00:00:00 | 00:00:00 | |
| DO3MHA-12 | 2026-09-01 00:07:07 | 46.84180 | 7.78893 | 120° | 11km/h | 20952m | 5.5m/s | -54.3°C | 4.1% | 0hPa | 2.7V | 00:00:00 | 01:30:50 | 00:00:00 | |
| IW2NTF | 2026-09-01 00:07:06 | 46.84184 | 7.78886 | 96° | 7km/h | 20937m | 5.3m/s | -54.5°C | 4.1% | 0hPa | 2.7V | 08:30:00 | 01:30:47 | 00:00:00 | |
| DO3MHA-11 | 2026-09-01 00:07:05 | 46.84183 | 7.78888 | 121° | 11km/h | 20942m | 4.3m/s | -54.4°C | 4.1% | 0hPa | 2.6V | 00:00:00 | 01:30:48 | 00:00:00 | |
| DB0UT-7 | 2026-09-01 00:06:59 | 46.84177 | 7.78868 | 65° | 9km/h | 20912m | 4.3m/s | -54.9°C | 4.2% | 0hPa | 2.6V | 00:00:00 | 00:00:00 | 00:00:00 | |
| DO3MHA-12 | 2026-09-01 00:06:57 | 46.84174 | 7.78859 | 56° | 7km/h | 20902m | 4.6m/s | -54.9°C | 4.3% | 0hPa | 2.6V | 00:00:00 | 01:30:40 | 00:00:00 | |
| IW2NTF | 2026-09-01 00:06:55 | 46.84172 | 7.78850 | 116° | 5km/h | 20886m | 5.5m/s | -54.9°C | 4.3% | 0hPa | 2.6V | 08:30:00 | 01:30:37 | 00:00:00 | |
| DL1ZP-14 | 2026-09-01 00:06:48 | 46.84168 | 7.78841 | 37° | 9km/h | 20857m | 5.5m/s | -55.0°C | 1.1% | -1.0hPa | 2.7V | 00:00:00 | 00:00:00 | 00:00:00 | |
| DO3MHA-12 | 2026-09-01 00:06:47 | 46.84166 | 7.78838 | 45° | 11km/h | 20852m | 5.5m/s | -55.0°C | 4.3% | 0hPa | 2.6V | 00:00:00 | 01:30:30 | 00:00:00 | |
| IW2NTF | 2026-09-01 00:06:45 | 46.84159 | 7.78828 | 43° | 15km/h | 20837m | 5.2m/s | -54.9°C | 4.2% | 0hPa | 2.6V | 08:30:00 | 01:30:27 | 00:00:00 | |
| DO3MHA-11 | 2026-09-01 00:06:45 | 46.84162 | 7.78832 | 47° | 9km/h | 20842m | 4.6m/s | -54.9°C | 4.3% | 0hPa | 2.6V | 00:00:00 | 01:30:28 | 00:00:00 | |
| DK5PH-5 | 2026-09-01 00:06:42 | 46.84155 | 7.78822 | 41° | 11km/h | 20829m | 5.0m/s | -54.9°C | 4.2% | 0hPa | 2.6V | 00:00:00 | 01:30:25 | 00:00:00 | |
| OE5DXL-15 | 2026-09-01 00:06:41 | 46.84154 | 7.78822 | 233° | 13km/h | 20818m | 4.6m/s | 0°C | 0% | 0hPa | 2.6V | 00:00:00 | 00:00:00 | 00:00:00 | |
| DL6DJ-15 | 2026-09-01 00:06:39 | 46.84155 | 7.78824 | 238° | 9km/h | 20813m | 4.8m/s | 0°C | -1.0% | -1.0hPa | 2.6V | 00:00:00 | 00:00:00 | 00:00:00 | |
| DO3MHA-12 | 2026-09-01 00:06:37 | 46.84157 | 7.78832 | 265° | 11km/h | 20803m | 4.7m/s | -54.9°C | 4.2% | 0hPa | 2.6V | 00:00:00 | 01:30:20 | 00:00:00 | |
| IW2NTF | 2026-09-01 00:06:35 | 46.84157 | 7.78840 | 299° | 2km/h | 20788m | 5.1m/s | -55°C | 4.2% | 0hPa | 2.6V | 08:30:00 | 01:30:17 | 00:00:00 | |
| DO3MHA-11 | 2026-09-01 00:06:35 | 46.84157 | 7.78838 | 271° | 11km/h | 20793m | 5.7m/s | -54.9°C | 4.2% | 0hPa | 2.6V | 00:00:00 | 01:30:18 | 00:00:00 | |
| HASLITAL | 2026-09-01 00:06:30 | 46.84155 | 7.78832 | 68° | 15km/h | 20772m | 4.5m/s | -55.0°C | 1.2% | 0hPa | 2.6V | 00:00:00 | 00:00:00 | 00:00:00 | |
| DO3MHA-12 | 2026-09-01 00:06:27 | 46.84156 | 7.78812 | 150° | 13km/h | 20753m | 4.7m/s | -55.2°C | 4.2% | 0hPa | 2.6V | 00:00:00 | 01:30:10 | 00:00:00 | |
| IW2NTF | 2026-09-01 00:06:25 | 46.84166 | 7.78811 | 195° | 13km/h | 20738m | 4.3m/s | -55.3°C | 4.2% | 0hPa | 2.6V | 08:30:00 | 01:30:07 | 00:00:00 | |
| DO3MHA-11 | 2026-09-01 00:06:25 | 46.84163 | 7.78810 | 185° | 13km/h | 20743m | 5.7m/s | -55.2°C | 4.2% | 0hPa | 2.6V | 00:00:00 | 01:30:08 | 00:00:00 | |
| DL1ZP-14 | 2026-09-01 00:06:17 | 46.84182 | 7.78797 | 96° | 15km/h | 20705m | 4.7m/s | -55.5°C | 1.1% | -1.0hPa | 2.6V | 00:00:00 | 00:00:00 | 00:00:00 | |
| DO3MHA-12 | 2026-09-01 00:06:16 | 46.84182 | 7.78791 | 103° | 18km/h | 20700m | 4.5m/s | -55.4°C | 4.3% | 0hPa | 2.6V | 00:00:00 | 01:29:59 | 00:00:00 | |
| IW2NTF | 2026-09-01 00:06:15 | 46.84193 | 7.78769 | 146° | 18km/h | 20680m | 5.5m/s | -55.7°C | 4.3% | 0hPa | 2.6V | 08:30:00 | 01:29:55 | 00:00:00 | |
| DO3MHA-11 | 2026-09-01 00:06:15 | 46.84184 | 7.78784 | 114° | 18km/h | 20695m | 5.5m/s | -55.5°C | 4.3% | 0hPa | 2.7V | 00:00:00 | 01:29:58 | 00:00:00 | |
| DF7PN | 2026-09-01 00:06:14 | 46.84186 | 7.78778 | 126° | 20km/h | 20690m | 4.6m/s | -55.6°C | 1.1% | -1.0hPa | 2.6V | 00:00:00 | 00:00:00 | 00:00:00 | |
| DK5PH-5 | 2026-09-01 00:06:12 | 46.84193 | 7.78769 | 147° | 16km/h | 20681m | 5.5m/s | -55.6°C | 4.3% | 0hPa | 2.6V | 00:00:00 | 01:29:55 | 00:00:00 | |
| HASLITAL | 2026-09-01 00:06:09 | 46.84201 | 7.78763 | 161° | 18km/h | 20671m | 4.2m/s | -55.7°C | 1.3% | 0hPa | 2.6V | 00:00:00 | 00:00:00 | 00:00:00 | |
| OE5DXL-15 | 2026-09-01 00:06:08 | 46.84218 | 7.78751 | 133° | 18km/h | 20653m | 4.8m/s | 0°C | 0% | 0hPa | 2.6V | 00:00:00 | 00:00:00 | 00:00:00 | |
| DO3MHA-12 | 2026-09-01 00:06:06 | 46.84218 | 7.78751 | 133° | 18km/h | 20653m | 4.8m/s | -55.7°C | 4.5% | 0hPa | 2.6V | 00:00:00 | 01:29:49 | 00:00:00 | |
| IW2NTF | 2026-09-01 00:06:05 | 46.84221 | 7.78727 | 94° | 20km/h | 20632m | 5.2m/s | -55.8°C | 4.5% | 0hPa | 2.6V | 08:30:00 | 01:29:45 | 00:00:00 | |
| IW2NTF | 2026-09-01 00:05:59 | 46.84232 | 7.78674 | 104° | 5km/h | 20583m | 4.8m/s | -55.6°C | 4.5% | 0hPa | 2.7V | 08:30:00 | 01:29:35 | 00:00:00 | |
| DB0UT-7 | 2026-09-01 00:05:59 | 46.84223 | 7.78703 | 97° | 13km/h | 20619m | 5.5m/s | -55.8°C | 4.5% | 0hPa | 2.6V | 00:00:00 | 00:00:00 | 00:00:00 | |
| DO3MHA-12 | 2026-09-01 00:05:56 | 46.84226 | 7.78686 | 121° | 11km/h | 20604m | 5.9m/s | -55.7°C | 4.5% | 0hPa | 2.6V | 00:00:00 | 01:29:39 | 08:30:00 | |
| DO3MHA-11 | 2026-09-01 00:05:55 | 46.84228 | 7.78682 | 132° | 11km/h | 20598m | 4.5m/s | -55.7°C | 4.6% | 0hPa | 2.6V | 00:00:00 | 01:29:38 | 00:00:00 | |
| DH7VM-15 | 2026-09-01 00:05:52 | 46.84232 | 7.78676 | 130° | 7km/h | 20589m | 5.8m/s | -55.7°C | 0% | 0hPa | 2.6V | 00:00:00 | 00:00:00 | 00:00:00 | |
| IW2NTF | 2026-09-01 00:05:49 | 46.84222 | 7.78625 | 58° | 7km/h | 20524m | 5.1m/s | -55.2°C | 4.3% | 0hPa | 2.6V | 08:30:00 | 01:29:23 | 00:00:00 | |
| HASLITAL | 2026-09-01 00:05:48 | 46.84232 | 7.78665 | 89° | 13km/h | 20569m | 4.7m/s | -55.5°C | 1.3% | 0hPa | 2.6V | 00:00:00 | 00:00:00 | 00:00:00 | |
| DO3MHA-12 | 2026-09-01 00:05:47 | 46.84230 | 7.78649 | 62° | 11km/h | 20554m | 5.4m/s | -55.3°C | 4.4% | 0hPa | 2.6V | 00:00:00 | 01:29:29 | 00:00:00 | |
| DO3MHA-11 | 2026-09-01 00:05:46 | 46.84227 | 7.78643 | 59° | 11km/h | 20550m | 4.0m/s | -55.3°C | 4.4% | 0hPa | 2.6V | 00:00:00 | 01:29:28 | 08:30:00 | |
| DF7PN | 2026-09-01 00:05:44 | 46.84224 | 7.78634 | 70° | 11km/h | 20539m | 5.5m/s | -55.3°C | 1.1% | -1.0hPa | 2.7V | 00:00:00 | 00:00:00 | 00:00:00 | |
| DO3MHA-12 | 2026-09-01 00:05:37 | 46.84220 | 7.78614 | 87° | 18km/h | 20505m | 3.3m/s | 0°C | 0% | 0hPa | 2.7V | 00:00:00 | 01:29:19 | 00:00:00 | |
| DO3MHA-11 | 2026-09-01 00:05:36 | 46.84219 | 7.78609 | 71° | 18km/h | 20501m | 4.6m/s | -55.2°C | 4.3% | 0hPa | 2.7V | 00:00:00 | 01:29:18 | 00:00:00 | |
| IW2NTF | 2026-09-01 00:05:35 | 46.84205 | 7.78579 | 59° | 24km/h | 20475m | 4.8m/s | -55.1°C | 4.3% | 0hPa | 2.7V | 08:30:00 | 01:29:13 | 00:00:00 | |
| DB0UT-7 | 2026-09-01 00:05:29 | 46.84202 | 7.78572 | 62° | 18km/h | 20471m | 3.6m/s | -55.1°C | 4.2% | 0hPa | 2.6V | 00:00:00 | 01:29:12 | 00:00:00 | |
| HASLITAL | 2026-09-01 00:05:28 | 46.84202 | 7.78572 | 62° | 20km/h | 20471m | 3.7m/s | -55.1°C | 1.2% | 0hPa | 2.6V | 00:00:00 | 00:00:00 | 00:00:00 | |
| DK5PH-5 | 2026-09-01 00:05:27 | 46.84197 | 7.78561 | 48° | 18km/h | 20462m | 5.2m/s | -55.0°C | 4.2% | 0hPa | 2.6V | 00:00:00 | 01:29:10 | 00:00:00 | |
| DO3MHA-12 | 2026-09-01 00:05:26 | 46.84194 | 7.78557 | 39° | 16km/h | 20457m | 4.6m/s | -55.0°C | 4.1% | 0hPa | 2.6V | 00:00:00 | 01:29:09 | 00:00:00 | |
| IW2NTF | 2026-09-01 00:05:26 | 46.84180 | 7.78539 | 30° | 18km/h | 20428m | 5m/s | -55.1°C | 4.1% | 0hPa | 2.7V | 08:30:00 | 01:29:03 | 00:00:00 | |
| DO3MHA-11 | 2026-09-01 00:05:25 | 46.84192 | 7.78554 | 43° | 16km/h | 20452m | 5.0m/s | -55.0°C | 4.1% | 0hPa | 2.6V | 00:00:00 | 01:29:08 | 00:00:00 | |
| DO3MHA-12 | 2026-09-01 00:05:17 | 46.84162 | 7.78521 | 35° | 18km/h | 20409m | 4.5m/s | -55.6°C | 4.3% | 0hPa | 2.6V | 00:00:00 | 01:28:59 | 00:00:00 | |
| DO3MHA-11 | 2026-09-01 00:05:16 | 46.84157 | 7.78517 | 30° | 18km/h | 20404m | 5.7m/s | -55.7°C | 4.3% | 0hPa | 2.6V | 00:00:00 | 01:28:58 | 00:00:00 | |
| IW2NTF | 2026-09-01 00:05:13 | 46.84140 | 7.78504 | 28° | 15km/h | 20380m | 3.2m/s | -56°C | 4.5% | 0hPa | 2.6V | 08:30:00 | 01:28:53 | 00:00:00 | |
| DF7PN | 2026-09-01 00:05:12 | 46.84146 | 7.78509 | 27° | 11km/h | 20389m | 5.8m/s | -56.0°C | 1.2% | -1.0hPa | 2.6V | 00:00:00 | 00:00:00 | 00:00:00 | |
| HASLITAL | 2026-09-01 00:05:08 | 46.84136 | 7.78502 | 23° | 18km/h | 20376m | 5.3m/s | -56.0°C | 1.3% | 0hPa | 2.6V | 00:00:00 | 00:00:00 | 00:00:00 | |
| DL6DJ-15 | 2026-09-01 00:05:07 | 46.84114 | 7.78490 | 22° | 26km/h | 20355m | 5.3m/s | 0°C | -1.0% | -1.0hPa | 2.6V | 00:00:00 | 00:00:00 | 00:00:00 | |
| DO3MHA-11 | 2026-09-01 00:05:06 | 46.84114 | 7.78490 | 23° | 20km/h | 20356m | 5.3m/s | -55.9°C | 4.6% | 0hPa | 2.6V | 00:00:00 | 01:28:48 | 00:00:00 | |
| IW2NTF | 2026-09-01 00:05:04 | 46.84084 | 7.78479 | 4° | 18km/h | 20332m | 5.1m/s | -55.9°C | 4.5% | 0hPa | 2.6V | 08:30:00 | 01:28:43 | 00:00:00 | |
| DB0UT-7 | 2026-09-01 00:05:00 | 46.84080 | 7.78478 | 4° | 22km/h | 20327m | 5.5m/s | -55.8°C | 4.5% | 0hPa | 2.6V | 00:00:00 | 00:00:00 | 00:00:00 | |
| DO3MHA-11 | 2026-09-01 00:04:55 | 46.84064 | 7.78479 | 2° | 26km/h | 20308m | 4.4m/s | -55.7°C | 4.5% | 0hPa | 2.6V | 00:00:00 | 01:28:38 | 00:00:00 | |
| IW2NTF | 2026-09-01 00:04:54 | 46.84034 | 7.78468 | 13° | 29km/h | 20284m | 5.6m/s | -55.6°C | 4.4% | 0hPa | 2.6V | 08:30:00 | 01:28:33 | 00:00:00 | |
| DL1ZP-14 | 2026-09-01 00:04:46 | 46.83998 | 7.78464 | 345° | 16km/h | 20255m | 5.5m/s | -55.7°C | 1.2% | -1.0hPa | 2.6V | 00:00:00 | 00:00:00 | 00:00:00 | |
| IW2NTF | 2026-09-01 00:04:44 | 46.83979 | 7.78470 | 359° | 20km/h | 20235m | 5m/s | -55.5°C | 4.4% | 0hPa | 2.7V | 08:30:00 | 01:28:23 | 00:00:00 | |
| DF7PN | 2026-09-01 00:04:41 | 46.83984 | 7.78470 | 352° | 20km/h | 20241m | 5.0m/s | -55.6°C | 1.2% | -1.0hPa | 2.7V | 00:00:00 | 00:00:00 | 00:00:00 | |
| DO3MHA-11 | 2026-09-01 00:04:36 | 46.83947 | 7.78471 | 359° | 24km/h | 20213m | 5.1m/s | -55.4°C | 4.4% | 0hPa | 2.7V | 00:00:00 | 01:28:18 | 00:00:00 | |
| DO3MHA-12 | 2026-09-01 00:04:35 | 46.83947 | 7.78471 | 359° | 24km/h | 20213m | 5.1m/s | -55.4°C | 4.4% | 0hPa | 2.7V | 00:00:00 | 01:28:18 | 00:00:00 | |
| IW2NTF | 2026-09-01 00:04:34 | 46.83920 | 7.78477 | 342° | 26km/h | 20190m | 4.2m/s | -55.3°C | 4.4% | 0hPa | 2.7V | 08:30:00 | 01:28:13 | 00:00:00 | |
| DH7VM-15 | 2026-09-01 00:04:31 | 46.83920 | 7.78477 | 343° | 26km/h | 20190m | 4.2m/s | -55.3°C | 0% | 0hPa | 2.7V | 00:00:00 | 00:00:00 | 00:00:00 | |
| DB0UT-7 | 2026-09-01 00:04:29 | 46.83913 | 7.78479 | 346° | 24km/h | 20186m | 4.2m/s | -55.2°C | 4.3% | 0hPa | 2.7V | 00:00:00 | 01:28:12 | 00:00:00 | |
| HASLITAL | 2026-09-01 00:04:28 | 46.83906 | 7.78482 | 351° | 29km/h | 20181m | 4.6m/s | -55.2°C | 1.3% | 0hPa | 2.7V | 00:00:00 | 00:00:00 | 00:00:00 | |
| DO3MHA-12 | 2026-09-01 00:04:25 | 46.83886 | 7.78485 | 351° | 24km/h | 20168m | 4.6m/s | -55.0°C | 4.4% | 0hPa | 2.7V | 00:00:00 | 01:28:08 | 08:30:00 | |
| IW2NTF | 2026-09-01 00:04:24 | 46.83856 | 7.78497 | 348° | 22km/h | 20145m | 4.1m/s | -54.9°C | 4.3% | 0hPa | 2.6V | 08:30:00 | 01:28:03 | 00:00:00 | |
| DK5PH-5 | 2026-09-01 00:04:24 | 46.83880 | 7.78487 | 345° | 26km/h | 20163m | 4.7m/s | -55.0°C | 4.4% | 0hPa | 2.6V | 00:00:00 | 01:28:07 | 00:00:00 | |
| IW2NTF | 2026-09-01 00:04:16 | 46.83792 | 7.78518 | 339° | 27km/h | 20099m | 4.7m/s | -54.5°C | 4.2% | 0hPa | 2.6V | 08:30:00 | 01:27:53 | 00:00:00 | |
| DO3MHA-12 | 2026-09-01 00:04:15 | 46.83830 | 7.78506 | 350° | 27km/h | 20121m | 5.7m/s | -54.7°C | 4.3% | 0hPa | 2.6V | 00:00:00 | 01:27:58 | 00:00:00 | |
| DL1ZP-14 | 2026-09-01 00:04:13 | 46.83807 | 7.78512 | 347° | 31km/h | 20108m | 4.8m/s | -54.6°C | 1.1% | -1.0hPa | 2.6V | 00:00:00 | 00:00:00 | 00:00:00 | |
| DF7PN | 2026-09-01 00:04:10 | 46.83787 | 7.78521 | 339° | 24km/h | 20094m | 4.5m/s | -54.5°C | 1.1% | -1.0hPa | 2.6V | 00:00:00 | 00:00:00 | 00:00:00 | |
| HASLITAL | 2026-09-01 00:04:06 | 46.83775 | 7.78527 | 345° | 22km/h | 20085m | 4.2m/s | -54.5°C | 1.3% | 0hPa | 2.6V | 00:00:00 | 00:00:00 | 00:00:00 | |
| DO3MHA-11 | 2026-09-01 00:04:05 | 46.83766 | 7.78531 | 341° | 24km/h | 20075m | 5.6m/s | -54.3°C | 4.2% | 0hPa | 2.6V | 00:00:00 | 01:27:48 | 00:00:00 | |
| IW2NTF | 2026-09-01 00:04:02 | 46.83739 | 7.78537 | 354° | 29km/h | 20053m | 3.5m/s | -54.2°C | 4.1% | 0hPa | 2.6V | 08:30:00 | 01:27:43 | 00:00:00 | |
| DB0UT-7 | 2026-09-01 00:03:59 | 46.83732 | 7.78539 | 351° | 20km/h | 20049m | 3.9m/s | -54.1°C | 4.1% | 0hPa | 2.6V | 00:00:00 | 00:00:00 | 00:00:00 | |
| IW2NTF | 2026-09-01 00:03:56 | 46.83685 | 7.78558 | 1° | 15km/h | 20006m | 3.9m/s | -54°C | 4.1% | 0hPa | 2.6V | 08:30:00 | 01:27:33 | 00:00:00 | |
| DO3MHA-12 | 2026-09-01 00:03:55 | 46.83707 | 7.78550 | 338° | 20km/h | 20031m | 5.5m/s | -54.0°C | 4.1% | 0hPa | 2.6V | 00:00:00 | 01:27:38 | 00:00:00 | |
| DK5PH-5 | 2026-09-01 00:03:54 | 46.83702 | 7.78553 | 342° | 18km/h | 20025m | 4.4m/s | -54.0°C | 4.1% | 0hPa | 2.6V | 00:00:00 | 01:27:37 | 00:00:00 | |
| OE5DXL-15 | 2026-09-01 00:03:52 | 46.83685 | 7.78558 | 2° | 16km/h | 20006m | 3.8m/s | 0°C | 0% | 0hPa | 2.7V | 00:00:00 | 00:00:00 | 00:00:00 | |
| HASLITAL | 2026-09-01 00:03:50 | 46.83669 | 7.78556 | 6° | 27km/h | 19992m | 4.6m/s | -54.1°C | 1.2% | 0hPa | 2.7V | 00:00:00 | 00:00:00 | 00:00:00 | |
| DO3MHA-11 | 2026-09-01 00:03:48 | 46.83654 | 7.78554 | 5° | 18km/h | 19982m | 5.4m/s | -54.2°C | 4.1% | 0hPa | 2.7V | 00:00:00 | 01:27:28 | 00:00:00 | |
| IW2NTF | 2026-09-01 00:03:46 | 46.83626 | 7.78552 | 356° | 18km/h | 19957m | 4.4m/s | -54.1°C | 4.2% | 0hPa | 2.7V | 08:30:00 | 01:27:23 | 00:00:00 | |
| DF7PN | 2026-09-01 00:03:44 | 46.83618 | 7.78553 | 357° | 11km/h | 19948m | 6.1m/s | -54.1°C | 1.1% | -1.0hPa | 2.7V | 00:00:00 | 00:00:00 | 00:00:00 | |
| DO3MHA-11 | 2026-09-01 00:03:42 | 46.83610 | 7.78549 | 32° | 16km/h | 19933m | 5.9m/s | -53.9°C | 4.2% | 0hPa | 2.7V | 00:00:00 | 01:27:18 | 00:00:00 | |
| IW2NTF | 2026-09-01 00:03:36 | 46.83591 | 7.78530 | 47° | 15km/h | 19908m | 4.8m/s | -53.8°C | 4.1% | 0hPa | 2.7V | 08:30:00 | 01:27:13 | 00:00:00 | |
| IW2NTF | 2026-09-01 00:03:26 | 46.83567 | 7.78500 | 31° | 20km/h | 19862m | 5.6m/s | -53.6°C | 4% | 0hPa | 2.6V | 08:30:00 | 01:27:03 | 00:00:00 | |
| HASLITAL | 2026-09-01 00:03:24 | 46.83549 | 7.78460 | 112° | 16km/h | 19791m | 4.0m/s | -53.4°C | 1.2% | 0hPa | 2.7V | 00:00:00 | 00:00:00 | 00:00:00 | |
| DB0UT-7 | 2026-09-01 00:03:19 | 46.83557 | 7.78447 | 95° | 9km/h | 19764m | 5.0m/s | -53.5°C | 3.9% | 0hPa | 2.7V | 00:00:00 | 00:00:00 | 00:00:00 | |
| DH7VM-15 | 2026-09-01 00:03:18 | 46.83557 | 7.78447 | 96° | 4km/h | 19764m | 5.1m/s | -53.5°C | 0% | 0hPa | 2.7V | 00:00:00 | 00:00:00 | 00:00:00 | |
| DL6DJ-15 | 2026-09-01 00:03:16 | 46.83570 | 7.78405 | 125° | 2km/h | 19704m | 4.5m/s | 0°C | -1.0% | -1.0hPa | 2.7V | 00:00:00 | 00:00:00 | 00:00:00 | |
| DK5PH-5 | 2026-09-01 00:03:15 | 46.83564 | 7.78432 | 140° | 9km/h | 19741m | 3.5m/s | -53.8°C | 4.0% | 0hPa | 2.7V | 00:00:00 | 01:26:37 | 00:00:00 | |
| IW2NTF | 2026-09-01 00:03:14 | 46.83548 | 7.78473 | 84° | 7km/h | 19805m | 4m/s | -53.5°C | 3.9% | 0hPa | 2.7V | 08:30:00 | 01:26:51 | 00:00:00 | |
| IW2NTF | 2026-09-01 00:03:04 | 46.83558 | 7.78445 | 95° | 7km/h | 19759m | 4.2m/s | -53.5°C | 3.9% | 0hPa | 2.6V | 08:30:00 | 01:26:41 | 00:00:00 | |
| DO3MHA-12 | 2026-09-01 00:03:04 | 46.83570 | 7.78403 | 115° | 5km/h | 19700m | 3.7m/s | -54.2°C | 4.1% | 0hPa | 2.7V | 00:00:00 | 01:26:28 | 00:00:00 | |
| HASLITAL | 2026-09-01 00:03:03 | 46.83570 | 7.78403 | 116° | 4km/h | 19700m | 3.7m/s | -54.2°C | 1.2% | 0hPa | 2.7V | 00:00:00 | 00:00:00 | 00:00:00 | |
| OE5DXL-15 | 2026-09-01 00:03:01 | 46.83569 | 7.78399 | 72° | 9km/h | 19686m | 4.3m/s | 0°C | 0% | 0hPa | 2.7V | 00:00:00 | 00:00:00 | 00:00:00 | |
| DL1ZP-14 | 2026-09-01 00:02:54 | 46.83569 | 7.78395 | 359° | 2km/h | 19671m | 3.6m/s | -54.3°C | 1.1% | -1.0hPa | 2.7V | 00:00:00 | 00:00:00 | 00:00:00 | |
| IW2NTF | 2026-09-01 00:02:54 | 46.83569 | 7.78408 | 84° | 7km/h | 19714m | 5.2m/s | -54.1°C | 4.1% | 0hPa | 2.6V | 08:30:00 | 01:26:31 | 00:00:00 | |
| DF7PN | 2026-09-01 00:02:49 | 46.83563 | 7.78397 | 345° | 11km/h | 19657m | 4.1m/s | -54.2°C | 1.1% | -1.0hPa | 2.6V | 00:00:00 | 00:00:00 | 00:00:00 | |
| DO3MHA-11 | 2026-09-01 00:02:47 | 46.83560 | 7.78398 | 337° | 13km/h | 19653m | 5.2m/s | -54.2°C | 4.0% | 0hPa | 2.6V | 00:00:00 | 01:26:18 | 00:00:00 | |
| DO3MHA-12 | 2026-09-01 00:02:46 | 46.83560 | 7.78398 | 337° | 13km/h | 19653m | 5.2m/s | -54.2°C | 4.0% | 0hPa | 2.6V | 00:00:00 | 01:26:18 | 00:00:00 | |
| IW2NTF | 2026-09-01 00:02:44 | 46.83568 | 7.78395 | 351° | 5km/h | 19667m | 4.8m/s | -54.2°C | 4.1% | 0hPa | 2.6V | 08:30:00 | 01:26:21 | 00:00:00 | |
| DB0UT-7 | 2026-09-01 00:02:42 | 46.83541 | 7.78408 | 12° | 7km/h | 19624m | 4.3m/s | -54.2°C | 4.0% | 0hPa | 2.7V | 00:00:00 | 01:26:12 | 00:00:00 | |
| IW2NTF | 2026-09-01 00:02:34 | 46.83538 | 7.78407 | 15° | 11km/h | 19619m | 5.4m/s | -54.2°C | 4% | 0hPa | 2.7V | 08:30:00 | 01:26:11 | 00:00:00 | |
| DO3MHA-12 | 2026-09-01 00:02:32 | 46.83532 | 7.78405 | 360° | 9km/h | 19607m | 5.2m/s | -54.1°C | 4.0% | 0hPa | 2.6V | 00:00:00 | 01:26:08 | 00:00:00 | |
| HASLITAL | 2026-09-01 00:02:31 | 46.83530 | 7.78406 | 350° | 9km/h | 19601m | 4.5m/s | -54.2°C | 1.2% | 0hPa | 2.7V | 00:00:00 | 00:00:00 | 00:00:00 | |
| IW2NTF | 2026-09-01 00:02:24 | 46.83521 | 7.78421 | 344° | 4km/h | 19576m | 4.8m/s | -54.7°C | 4.2% | 0hPa | 2.7V | 08:30:00 | 01:26:01 | 00:00:00 | |
| DO3MHA-12 | 2026-09-01 00:02:18 | 46.83516 | 7.78417 | 28° | 7km/h | 19563m | 4.6m/s | -54.9°C | 4.2% | 0hPa | 2.6V | 00:00:00 | 01:25:58 | 00:00:00 | |
| IW2NTF | 2026-09-01 00:02:14 | 46.83506 | 7.78423 | 262° | 4km/h | 19531m | 4m/s | -55°C | 4.3% | 0hPa | 2.6V | 08:30:00 | 01:25:51 | 00:00:00 | |
| DL1ZP-14 | 2026-09-01 00:02:10 | 46.83506 | 7.78423 | 262° | 4km/h | 19531m | 4.0m/s | -55.0°C | 1.1% | -1.0hPa | 2.6V | 00:00:00 | 00:00:00 | 00:00:00 | |
| DF7PN | 2026-09-01 00:02:07 | 46.83504 | 7.78428 | 314° | 5km/h | 19518m | 3.9m/s | -54.9°C | 1.1% | -1.0hPa | 2.6V | 00:00:00 | 00:00:00 | 00:00:00 | |
| OE5DXL-15 | 2026-09-01 00:02:06 | 46.83503 | 7.78429 | 306° | 5km/h | 19514m | 3.9m/s | 0°C | 0% | 0hPa | 2.6V | 00:00:00 | 01:25:47 | 00:00:00 | |
| DO3MHA-12 | 2026-09-01 00:02:05 | 46.83504 | 7.78428 | 315° | 7km/h | 19518m | 3.9m/s | -54.9°C | 4.3% | 0hPa | 2.6V | 00:00:00 | 01:25:48 | 00:00:00 | |
| IW2NTF | 2026-09-01 00:02:04 | 46.83508 | 7.78423 | 114° | 11km/h | 19486m | 3.4m/s | -54.8°C | 4.2% | 0hPa | 2.6V | 08:30:00 | 01:25:41 | 00:00:00 | |
| DO3MHA-11 | 2026-09-01 00:02:01 | 46.83527 | 7.78401 | 179° | 7km/h | 19429m | 3.3m/s | -54.5°C | 4.2% | 0hPa | 2.7V | 00:00:00 | 01:25:28 | 00:00:00 | |
| HASLITAL | 2026-09-01 00:01:59 | 46.83531 | 7.78401 | 181° | 9km/h | 19419m | 5.0m/s | -54.5°C | 1.3% | 0hPa | 2.6V | 00:00:00 | 00:00:00 | 00:00:00 | |
| IW2NTF | 2026-09-01 00:01:54 | 46.83520 | 7.78401 | 177° | 9km/h | 19441m | 3.1m/s | -54.6°C | 4.2% | 0hPa | 2.6V | 08:30:00 | 01:25:31 | 00:00:00 | |
| DL1ZP-14 | 2026-09-01 00:01:49 | 46.83540 | 7.78395 | 147° | 7km/h | 19390m | 4.6m/s | -54.3°C | 1.1% | -1.0hPa | 2.6V | 00:00:00 | 00:00:00 | 00:00:00 | |
| DO3MHA-11 | 2026-09-01 00:01:46 | 46.83543 | 7.78391 | 137° | 11km/h | 19382m | 5.2m/s | -54.2°C | 4.2% | 0hPa | 2.6V | 00:00:00 | 01:25:18 | 00:00:00 | |
| IW2NTF | 2026-09-01 00:01:44 | 46.83538 | 7.78396 | 141° | 5km/h | 19396m | 5.6m/s | -54.3°C | 4.2% | 0hPa | 2.6V | 08:30:00 | 01:25:21 | 00:00:00 | |
| OE5DXL-15 | 2026-09-01 00:01:42 | 46.83547 | 7.78386 | 145° | 13km/h | 19372m | 4.7m/s | 0°C | 0% | 0hPa | 2.6V | 00:00:00 | 00:00:00 | 00:00:00 | |
| DB0UT-7 | 2026-09-01 00:01:39 | 46.83558 | 7.78375 | 135° | 18km/h | 19354m | 5.2m/s | -54.2°C | 4.1% | 0hPa | 2.6V | 00:00:00 | 01:25:12 | 00:00:00 | |
| DB0ND-19 | 2026-09-01 00:01:38 | 46.83571 | 7.78359 | 141° | 11km/h | 19324m | 5.7m/s | 0°C | -1.0% | -1.0hPa | 2.6V | 00:00:00 | 00:00:00 | 00:00:00 | |
| DH7VM-15 | 2026-09-01 00:01:36 | 46.83564 | 7.78366 | 139° | 11km/h | 19340m | 5.8m/s | -54.2°C | 0% | 0hPa | 2.6V | 00:00:00 | 00:00:00 | 00:00:00 | |
| DO3MHA-12 | 2026-09-01 00:01:35 | 46.83566 | 7.78363 | 149° | 15km/h | 19334m | 4.8m/s | -54.2°C | 4.1% | 0hPa | 2.6V | 00:00:00 | 01:25:08 | 08:30:00 | |
| IW2NTF | 2026-09-01 00:01:34 | 46.83561 | 7.78372 | 123° | 11km/h | 19349m | 4.3m/s | -54.2°C | 4.2% | 0hPa | 2.7V | 08:30:00 | 01:25:11 | 00:00:00 | |
| DO3MHA-11 | 2026-09-01 00:01:34 | 46.83566 | 7.78363 | 149° | 15km/h | 19334m | 4.8m/s | -54.2°C | 4.1% | 0hPa | 2.7V | 00:00:00 | 01:25:08 | 00:00:00 | |
| DK5PH-5 | 2026-09-01 00:01:32 | 46.83568 | 7.78361 | 149° | 20km/h | 19330m | 4.0m/s | -54.1°C | 4.1% | 0hPa | 2.7V | 00:00:00 | 01:25:07 | 00:00:00 | |
| HASLITAL | 2026-09-01 00:01:28 | 46.83573 | 7.78356 | 136° | 13km/h | 19319m | 4.7m/s | -54.2°C | 1.3% | 0hPa | 2.7V | 00:00:00 | 00:00:00 | 00:00:00 | |
| IW2NTF | 2026-09-01 00:01:25 | 46.83584 | 7.78340 | 126° | 16km/h | 19301m | 3.3m/s | -54.2°C | 4.1% | 0hPa | 2.7V | 08:30:00 | 01:25:01 | 00:00:00 | |
| DO3MHA-12 | 2026-09-01 00:01:21 | 46.83588 | 7.78323 | 100° | 18km/h | 19287m | 3.8m/s | -54.1°C | 4.1% | 0hPa | 2.6V | 00:00:00 | 01:24:58 | 00:00:00 | |
| DO3MHA-11 | 2026-09-01 00:01:20 | 46.83588 | 7.78323 | 100° | 18km/h | 19287m | 3.8m/s | -54.1°C | 4.1% | 0hPa | 2.6V | 00:00:00 | 01:24:58 | 08:30:00 | |
| IW2NTF | 2026-09-01 00:01:13 | 46.83600 | 7.78285 | 111° | 18km/h | 19252m | 4.4m/s | -54.1°C | 4.2% | 0hPa | 2.7V | 08:30:00 | 01:24:51 | 00:00:00 | |
| DO3MHA-12 | 2026-09-01 00:01:06 | 46.83607 | 7.78263 | 116° | 24km/h | 19238m | 4.4m/s | -53.9°C | 4.2% | 0hPa | 2.6V | 00:00:00 | 01:24:48 | 00:00:00 | |
| DF7PN | 2026-09-01 00:01:05 | 46.83612 | 7.78244 | 106° | 27km/h | 19227m | 4.9m/s | -53.9°C | 1.1% | -1.0hPa | 2.6V | 00:00:00 | 00:00:00 | 00:00:00 | |
| IW2NTF | 2026-09-01 00:01:04 | 46.83621 | 7.78199 | 100° | 22km/h | 19204m | 5.3m/s | -53.8°C | 4.1% | 0hPa | 2.6V | 08:30:00 | 01:24:41 | 00:00:00 | |
| DO3MHA-12 | 2026-09-01 00:01:00 | 46.83623 | 7.78179 | 103° | 24km/h | 19190m | 5.5m/s | -53.6°C | 4.1% | 0hPa | 2.6V | 00:00:00 | 01:24:38 | 00:00:00 | |
| IW2NTF | 2026-09-01 00:00:55 | 46.83638 | 7.78125 | 110° | 31km/h | 19156m | 5.2m/s | -53.6°C | 4% | 0hPa | 2.6V | 08:30:00 | 01:24:31 | 00:00:00 | |
| DK5PH-5 | 2026-09-01 00:00:51 | 46.83641 | 7.78114 | 111° | 16km/h | 19151m | 4.5m/s | -53.5°C | 4.0% | 0hPa | 2.6V | 00:00:00 | 01:24:30 | 00:00:00 | |
| DO3MHA-12 | 2026-09-01 00:00:48 | 46.83644 | 7.78094 | 99° | 18km/h | 19142m | 5.3m/s | -53.5°C | 4.0% | 0hPa | 2.6V | 00:00:00 | 01:24:28 | 00:00:00 | |
| IW2NTF | 2026-09-01 00:00:44 | 46.83646 | 7.78052 | 88° | 15km/h | 19108m | 4.9m/s | -53.3°C | 4% | 0hPa | 2.6V | 08:30:00 | 01:24:21 | 00:00:00 | |
| HASLITAL | 2026-09-01 00:00:42 | 46.83644 | 7.78065 | 97° | 13km/h | 19122m | 5.3m/s | -53.4°C | 1.2% | 0hPa | 2.6V | 00:00:00 | 00:00:00 | 00:00:00 | |
| DO3MHA-12 | 2026-09-01 00:00:36 | 46.83645 | 7.78034 | 88° | 16km/h | 19093m | 5.5m/s | -53.2°C | 4.0% | 0hPa | 2.6V | 00:00:00 | 01:24:18 | 00:00:00 | |
| DO3MHA-11 | 2026-09-01 00:00:35 | 46.83645 | 7.78034 | 88° | 16km/h | 19093m | 5.5m/s | -53.2°C | 4.0% | 0hPa | 2.6V | 00:00:00 | 01:24:18 | 00:00:00 | |
| IW2NTF | 2026-09-01 00:00:34 | 46.83638 | 7.77990 | 82° | 13km/h | 19059m | 3.7m/s | -53.1°C | 3.9% | 0hPa | 2.6V | 08:30:00 | 01:24:11 | 00:00:00 | |
| DF7PN | 2026-09-01 00:00:33 | 46.83642 | 7.78014 | 72° | 20km/h | 19079m | 5.0m/s | -53.1°C | 1.0% | -1.0hPa | 2.7V | 00:00:00 | 00:00:00 | 00:00:00 | |
| DB0UT-7 | 2026-09-01 00:00:30 | 46.83638 | 7.77995 | 77° | 16km/h | 19064m | 5.0m/s | -53.1°C | 3.9% | 0hPa | 2.7V | 00:00:00 | 01:24:12 | 00:00:00 | |
| DO3MHA-11 | 2026-09-01 00:00:28 | 46.83635 | 7.77975 | 77° | 18km/h | 19045m | 4.5m/s | -53.1°C | 3.9% | 0hPa | 2.7V | 00:00:00 | 01:24:08 | 00:00:00 | |
| HASLITAL | 2026-09-01 00:00:26 | 46.83633 | 7.77951 | 86° | 16km/h | 19027m | 3.7m/s | -53.2°C | 1.2% | 0hPa | 2.7V | 00:00:00 | 00:00:00 | 00:00:00 | |
| IW2NTF | 2026-09-01 00:00:24 | 46.83629 | 7.77930 | 60° | 20km/h | 19013m | 4m/s | -53.2°C | 4% | 0hPa | 2.7V | 08:30:00 | 01:24:01 | 00:00:00 | |
| DK5PH-5 | 2026-09-01 00:00:22 | 46.83623 | 7.77919 | 45° | 26km/h | 19004m | 4.5m/s | -53.1°C | 4.0% | 0hPa | 2.6V | 00:00:00 | 01:23:59 | 00:00:00 | |
| DO3MHA-11 | 2026-09-01 00:00:21 | 46.83620 | 7.77915 | 38° | 16km/h | 18999m | 4.4m/s | -53.1°C | 4.0% | 0hPa | 2.6V | 00:00:00 | 01:23:58 | 00:00:00 | |
| DH7VM-15 | 2026-09-01 00:00:19 | 46.83617 | 7.77911 | 39° | 18km/h | 18995m | 5.1m/s | -53.1°C | 0% | 0hPa | 2.7V | 00:00:00 | 00:00:00 | 00:00:00 | |
| IW2NTF | 2026-09-01 00:00:15 | 46.83602 | 7.77885 | 58° | 15km/h | 18966m | 5.2m/s | -52.9°C | 4% | 0hPa | 2.7V | 08:30:00 | 01:23:51 | 00:00:00 | |
| DO3MHA-11 | 2026-09-01 00:00:05 | 46.83595 | 7.77872 | 49° | 15km/h | 18954m | 5.2m/s | -52.9°C | 3.9% | 0hPa | 2.6V | 00:00:00 | 01:23:48 | 00:00:00 | |
| IW2NTF | 2026-09-01 00:00:04 | 46.83578 | 7.77840 | 63° | 15km/h | 18921m | 4.8m/s | -52.9°C | 3.9% | 0hPa | 2.6V | 08:30:00 | 01:23:41 | 00:00:00 | |
| DB0UT-7 | 2026-08-31 23:59:59 | 46.83580 | 7.77845 | 58° | 20km/h | 18927m | 5.2m/s | -52.8°C | 3.9% | 0hPa | 2.6V | 00:00:00 | 00:00:00 | 00:00:00 | |
| IW2NTF | 2026-08-31 23:59:53 | 46.83569 | 7.77786 | 70° | 20km/h | 18875m | 4.6m/s | -52.5°C | 3.8% | 0hPa | 2.6V | 08:30:00 | 01:23:31 | 00:00:00 | |
| DO3MHA-11 | 2026-08-31 23:59:52 | 46.83572 | 7.77810 | 86° | 20km/h | 18893m | 3.6m/s | -52.6°C | 3.9% | 0hPa | 2.6V | 00:00:00 | 01:23:35 | 00:00:00 | |
| IW2NTF | 2026-08-31 23:59:43 | 46.83565 | 7.77706 | 109° | 20km/h | 18830m | 3.9m/s | -53°C | 3.8% | 0hPa | 2.6V | 08:30:00 | 01:23:21 | 00:00:00 | |
| DO3MHA-11 | 2026-08-31 23:59:42 | 46.83561 | 7.77735 | 89° | 26km/h | 18849m | 3.6m/s | -52.5°C | 3.7% | 0hPa | 2.6V | 00:00:00 | 01:23:25 | 08:30:00 | |
| HASLITAL | 2026-08-31 23:59:39 | 46.83562 | 7.77719 | 104° | 20km/h | 18838m | 5.3m/s | -52.7°C | 1.2% | 0hPa | 2.6V | 00:00:00 | 00:00:00 | 00:00:00 | |
| IW2NTF | 2026-08-31 23:59:33 | 46.83578 | 7.77615 | 111° | 26km/h | 18786m | 4m/s | -53.4°C | 4% | 0hPa | 2.6V | 08:30:00 | 01:23:11 | 00:00:00 | |
| DL1ZP-14 | 2026-08-31 23:59:33 | 46.83571 | 7.77655 | 93° | 27km/h | 18806m | 4.6m/s | -53.5°C | 1.1% | -1.0hPa | 2.6V | 00:00:00 | 00:00:00 | 00:00:00 | |
| DO3MHA-11 | 2026-08-31 23:59:32 | 46.83572 | 7.77645 | 97° | 26km/h | 18802m | 4.5m/s | -53.4°C | 4.0% | 0hPa | 2.7V | 00:00:00 | 01:23:15 | 00:00:00 | |
| DF7PN | 2026-08-31 23:59:30 | 46.83574 | 7.77630 | 108° | 20km/h | 18794m | 3.8m/s | -53.4°C | 1.1% | -1.0hPa | 2.7V | 00:00:00 | 00:00:00 | 00:00:00 | |
| DB0UT-7 | 2026-08-31 23:59:29 | 46.83576 | 7.77623 | 112° | 35km/h | 18790m | 3.8m/s | -53.3°C | 4.0% | 0hPa | 2.7V | 00:00:00 | 01:23:12 | 00:00:00 | |
| IW2NTF | 2026-08-31 23:59:23 | 46.83607 | 7.77509 | 116° | 33km/h | 18743m | 4m/s | -53.4°C | 4% | 0hPa | 2.7V | 08:30:00 | 01:23:01 | 00:00:00 | |
| DO3MHA-11 | 2026-08-31 23:59:22 | 46.83594 | 7.77557 | 112° | 35km/h | 18761m | 4.9m/s | -53.2°C | 4.0% | 0hPa | 2.7V | 00:00:00 | 01:23:05 | 00:00:00 | |
| HASLITAL | 2026-08-31 23:59:18 | 46.83603 | 7.77521 | 114° | 35km/h | 18748m | 5.2m/s | -53.3°C | 1.3% | 0hPa | 2.7V | 00:00:00 | 00:00:00 | 00:00:00 | |
| DK5PH-5 | 2026-08-31 23:59:15 | 46.83619 | 7.77476 | 118° | 37km/h | 18732m | 4.5m/s | -53.5°C | 3.9% | 0hPa | 2.7V | 00:00:00 | 01:22:58 | 00:00:00 | |
| IW2NTF | 2026-08-31 23:59:13 | 46.83644 | 7.77389 | 102° | 38km/h | 18702m | 2.9m/s | -53.4°C | 3.9% | 0hPa | 2.7V | 08:30:00 | 01:22:51 | 00:00:00 | |
| DO3MHA-11 | 2026-08-31 23:59:13 | 46.83631 | 7.77440 | 119° | 38km/h | 18718m | 4.2m/s | -53.4°C | 4.0% | 0hPa | 2.6V | 00:00:00 | 01:22:55 | 00:00:00 | |
| IW2NTF | 2026-08-31 23:59:03 | 46.83657 | 7.77243 | 101° | 42km/h | 18661m | 4.9m/s | -53.9°C | 4.1% | 0hPa | 2.7V | 08:30:00 | 01:22:41 | 00:00:00 | |
| DO3MHA-11 | 2026-08-31 23:59:02 | 46.83651 | 7.77303 | 94° | 42km/h | 18678m | 3.3m/s | -53.6°C | 4.0% | 0hPa | 2.6V | 00:00:00 | 01:22:45 | 00:00:00 | |
| DB0UT-7 | 2026-08-31 23:58:59 | 46.83655 | 7.77258 | 101° | 42km/h | 18665m | 3.2m/s | -53.8°C | 4.1% | 0hPa | 2.6V | 00:00:00 | 00:00:00 | 00:00:00 | |
| HASLITAL | 2026-08-31 23:58:57 | 46.83657 | 7.77243 | 102° | 44km/h | 18661m | 4.9m/s | -53.9°C | 1.3% | 0hPa | 2.6V | 00:00:00 | 00:00:00 | 00:00:00 | |
| IW2NTF | 2026-08-31 23:58:54 | 46.83677 | 7.77081 | 93° | 42km/h | 18618m | 3.9m/s | -54.1°C | 4.1% | 0hPa | 2.6V | 08:30:00 | 01:22:31 | 00:00:00 | |
| DO3MHA-11 | 2026-08-31 23:58:52 | 46.83671 | 7.77147 | 101° | 42km/h | 18636m | 4.4m/s | -53.9°C | 4.1% | 0hPa | 2.6V | 00:00:00 | 01:22:35 | 00:00:00 | |
| IW2NTF | 2026-08-31 23:58:43 | 46.83694 | 7.76935 | 100° | 44km/h | 18576m | 5.1m/s | -54°C | 4.2% | 0hPa | 2.6V | 08:30:00 | 01:22:21 | 00:00:00 | |
| DO3MHA-11 | 2026-08-31 23:58:42 | 46.83684 | 7.76995 | 105° | 44km/h | 18593m | 4.0m/s | -54.0°C | 4.1% | 0hPa | 2.6V | 00:00:00 | 01:22:25 | 00:00:00 | |
| HASLITAL | 2026-08-31 23:58:37 | 46.83694 | 7.76935 | 101° | 44km/h | 18576m | 5.1m/s | -54.0°C | 1.4% | 0hPa | 2.6V | 00:00:00 | 00:00:00 | 00:00:00 | |
| IW2NTF | 2026-08-31 23:58:33 | 46.83693 | 7.76782 | 92° | 38km/h | 18534m | 4m/s | -53.8°C | 4.1% | 0hPa | 2.6V | 08:30:00 | 01:22:11 | 00:00:00 | |
| DO3MHA-11 | 2026-08-31 23:58:32 | 46.83695 | 7.76836 | 84° | 40km/h | 18551m | 4.8m/s | -53.8°C | 4.1% | 0hPa | 2.7V | 00:00:00 | 01:22:15 | 00:00:00 | |
| DL1ZP-14 | 2026-08-31 23:58:31 | 46.83694 | 7.76822 | 85° | 35km/h | 18546m | 3.9m/s | -53.9°C | 1.2% | -1.0hPa | 2.7V | 00:00:00 | 00:00:00 | 00:00:00 | |
| DB0UT-7 | 2026-08-31 23:58:29 | 46.83693 | 7.76795 | 90° | 38km/h | 18538m | 4.5m/s | -53.8°C | 4.1% | 0hPa | 2.6V | 00:00:00 | 01:22:12 | 00:00:00 | |
| DF7PN | 2026-08-31 23:58:28 | 46.83693 | 7.76782 | 92° | 38km/h | 18534m | 4.1m/s | -53.8°C | 1.1% | -1.0hPa | 2.6V | 00:00:00 | 00:00:00 | 00:00:00 | |
| IW2NTF | 2026-08-31 23:58:23 | 46.83693 | 7.76623 | 78° | 38km/h | 18493m | 4.2m/s | -53.7°C | 3.9% | 0hPa | 2.6V | 08:30:00 | 01:22:01 | 00:00:00 | |
| HASLITAL | 2026-08-31 23:58:16 | 46.83690 | 7.76609 | 80° | 38km/h | 18488m | 4.6m/s | -53.7°C | 1.3% | 0hPa | 2.7V | 00:00:00 | 00:00:00 | 00:00:00 | |
| IW2NTF | 2026-08-31 23:58:13 | 46.83689 | 7.76484 | 102° | 47km/h | 18450m | 3.2m/s | -54.3°C | 4% | 0hPa | 2.7V | 08:30:00 | 01:21:51 | 00:00:00 | |
| IW2NTF | 2026-08-31 23:58:03 | 46.83695 | 7.76358 | 96° | 29km/h | 18409m | 3.9m/s | -55.6°C | 4.4% | 0hPa | 2.7V | 08:30:00 | 01:21:41 | 00:00:00 | |
| DL1ZP-14 | 2026-08-31 23:58:00 | 46.83695 | 7.76380 | 87° | 31km/h | 18418m | 3.6m/s | -55.5°C | 1.2% | -1.0hPa | 2.6V | 00:00:00 | 00:00:00 | 00:00:00 | |
| DF7PN | 2026-08-31 23:57:57 | 46.83696 | 7.76347 | 99° | 29km/h | 18405m | 3.8m/s | -55.6°C | 1.3% | -1.0hPa | 2.7V | 00:00:00 | 00:00:00 | 00:00:00 | |
| HASLITAL | 2026-08-31 23:57:55 | 46.83697 | 7.76336 | 99° | 33km/h | 18401m | 4.5m/s | -55.6°C | 1.4% | 0hPa | 2.7V | 00:00:00 | 00:00:00 | 00:00:00 | |
| IW2NTF | 2026-08-31 23:57:53 | 46.83707 | 7.76220 | 92° | 44km/h | 18365m | 3.6m/s | -55.6°C | 4.5% | 0hPa | 2.7V | 08:30:00 | 01:21:31 | 00:00:00 | |
| HASLITAL | 2026-08-31 23:57:34 | 46.83699 | 7.76030 | 88° | 40km/h | 18308m | 4.5m/s | -55.6°C | 1.5% | 0hPa | 2.6V | 00:00:00 | 00:00:00 | 00:00:00 | |
| DB0UT-7 | 2026-08-31 23:57:29 | 46.83697 | 7.75950 | 86° | 33km/h | 18282m | 3.9m/s | -55.4°C | 4.5% | 0hPa | 2.6V | 00:00:00 | 01:21:12 | 08:30:00 | |
| DF7PN | 2026-08-31 23:57:26 | 46.83695 | 7.75915 | 88° | 31km/h | 18268m | 4.0m/s | -55.4°C | 1.3% | -1.0hPa | 2.6V | 00:00:00 | 00:00:00 | 00:00:00 | |
| DK5PH-5 | 2026-08-31 23:57:14 | 46.83683 | 7.75764 | 80° | 31km/h | 18216m | 4.4m/s | -55.2°C | 4.3% | 0hPa | 2.6V | 00:00:00 | 01:20:57 | 00:00:00 | |
| DL1ZP-14 | 2026-08-31 23:56:58 | 46.83675 | 7.75573 | 94° | 29km/h | 18140m | 4.7m/s | -55.7°C | 1.3% | -1.0hPa | 2.6V | 00:00:00 | 00:00:00 | 00:00:00 | |
| DF7PN | 2026-08-31 23:56:55 | 46.83678 | 7.75554 | 106° | 22km/h | 18131m | 4.2m/s | -55.7°C | 1.3% | -1.0hPa | 2.7V | 00:00:00 | 00:00:00 | 00:00:00 | |
| HASLITAL | 2026-08-31 23:56:53 | 46.83679 | 7.75546 | 105° | 22km/h | 18127m | 4.2m/s | -55.7°C | 1.5% | 0hPa | 2.7V | 00:00:00 | 00:00:00 | 00:00:00 | |
| DK5PH-5 | 2026-08-31 23:56:44 | 46.83661 | 7.75464 | 51° | 27km/h | 18081m | 3.5m/s | -55.3°C | 4.5% | 0hPa | 2.7V | 00:00:00 | 01:20:27 | 00:00:00 | |
| HASLITAL | 2026-08-31 23:56:32 | 46.83641 | 7.75364 | 83° | 29km/h | 18031m | 3.3m/s | -54.9°C | 1.5% | 0hPa | 2.7V | 00:00:00 | 00:00:00 | 00:00:00 | |
| IW2NTF | 2026-08-31 23:56:31 | 46.83630 | 7.75304 | 83° | 26km/h | 18000m | 4.8m/s | -54.6°C | 4.3% | 0hPa | 2.7V | 08:30:00 | 01:20:10 | 00:00:00 | |
| DB0UT-7 | 2026-08-31 23:56:29 | 46.83632 | 7.75323 | 73° | 26km/h | 18011m | 5.1m/s | -54.7°C | 4.4% | 0hPa | 2.6V | 00:00:00 | 01:20:12 | 00:00:00 | |
| DL1ZP-14 | 2026-08-31 23:56:27 | 46.83629 | 7.75294 | 85° | 26km/h | 17995m | 4.9m/s | -54.6°C | 1.2% | -1.0hPa | 2.6V | 00:00:00 | 00:00:00 | 00:00:00 | |
| DF7PN | 2026-08-31 23:56:24 | 46.83627 | 7.75264 | 88° | 26km/h | 17980m | 4.5m/s | -54.5°C | 1.2% | -1.0hPa | 2.6V | 00:00:00 | 00:00:00 | 00:00:00 | |
| DK5PH-5 | 2026-08-31 23:56:13 | 46.83618 | 7.75170 | 95° | 37km/h | 17929m | 4.1m/s | -54.0°C | 4.1% | 0hPa | 2.6V | 00:00:00 | 01:19:56 | 00:00:00 | |
| HASLITAL | 2026-08-31 23:56:12 | 46.83618 | 7.75170 | 95° | 26km/h | 17929m | 4.2m/s | -54.1°C | 1.4% | 0hPa | 2.6V | 00:00:00 | 00:00:00 | 00:00:00 | |
| DH7VM-15 | 2026-08-31 23:56:08 | 46.83617 | 7.75130 | 81° | 27km/h | 17911m | 4.2m/s | -54.0°C | 0% | 0hPa | 2.6V | 00:00:00 | 00:00:00 | 00:00:00 | |
| DB0UT-7 | 2026-08-31 23:55:59 | 46.83604 | 7.75036 | 84° | 35km/h | 17865m | 3.2m/s | -54.7°C | 4.2% | 0hPa | 2.6V | 00:00:00 | 00:00:00 | 00:00:00 | |
| IW2NTF | 2026-08-31 23:55:57 | 46.83604 | 7.74938 | 97° | 35km/h | 17830m | 4.6m/s | -55.3°C | 4.5% | 0hPa | 2.6V | 08:30:00 | 01:19:35 | 00:00:00 | |
| DL1ZP-14 | 2026-08-31 23:55:55 | 46.83602 | 7.74978 | 91° | 40km/h | 17844m | 4.9m/s | -55.1°C | 1.2% | -1.0hPa | 2.7V | 00:00:00 | 00:00:00 | 00:00:00 | |
| HASLITAL | 2026-08-31 23:55:51 | 46.83604 | 7.74938 | 98° | 35km/h | 17830m | 4.6m/s | -55.3°C | 1.5% | 0hPa | 2.7V | 00:00:00 | 00:00:00 | 00:00:00 | |
| IW2NTF | 2026-08-31 23:55:42 | 46.83593 | 7.74775 | 79° | 42km/h | 17771m | 5.2m/s | -55.3°C | 4.5% | 0hPa | 2.7V | 08:30:00 | 01:19:23 | 00:00:00 | |
| IW2NTF | 2026-08-31 23:55:32 | 46.83581 | 7.74676 | 58° | 31km/h | 17720m | 6.4m/s | -54.8°C | 4.5% | 0hPa | 2.6V | 08:30:00 | 01:19:13 | 00:00:00 | |
| HASLITAL | 2026-08-31 23:55:32 | 46.83587 | 7.74694 | 74° | 24km/h | 17731m | 4.9m/s | -54.9°C | 1.5% | 0hPa | 2.7V | 00:00:00 | 00:00:00 | 00:00:00 | |
| DB0UT-7 | 2026-08-31 23:55:29 | 46.83577 | 7.74666 | 54° | 33km/h | 17714m | 6.5m/s | -54.7°C | 4.4% | 0hPa | 2.7V | 00:00:00 | 01:19:12 | 00:00:00 | |
| DL1ZP-14 | 2026-08-31 23:55:24 | 46.83548 | 7.74603 | 63° | 38km/h | 17687m | 3.9m/s | -54.4°C | 1.3% | -1.0hPa | 2.7V | 00:00:00 | 00:00:00 | 00:00:00 | |
| IW2NTF | 2026-08-31 23:55:22 | 46.83530 | 7.74568 | 36° | 24km/h | 17664m | 5.2m/s | -54.2°C | 4.3% | 0hPa | 2.6V | 08:30:00 | 01:19:03 | 00:00:00 | |
| DF7PN | 2026-08-31 23:55:22 | 46.83535 | 7.74573 | 44° | 24km/h | 17669m | 5.5m/s | -54.3°C | 1.2% | -1.0hPa | 2.6V | 00:00:00 | 00:00:00 | 00:00:00 | |
| HASLITAL | 2026-08-31 23:55:10 | 46.83478 | 7.74501 | 33° | 26km/h | 17611m | 3.9m/s | -53.8°C | 1.4% | 0hPa | 2.6V | 00:00:00 | 00:00:00 | 00:00:00 | |
| DL1ZP-14 | 2026-08-31 23:54:53 | 46.83369 | 7.74364 | 46° | 27km/h | 17519m | 4.9m/s | -53.0°C | 1.2% | -1.0hPa | 2.6V | 00:00:00 | 00:00:00 | 00:00:00 | |
| DF7PN | 2026-08-31 23:54:51 | 46.83353 | 7.74334 | 57° | 40km/h | 17501m | 5.2m/s | -52.8°C | 0% | -1.0hPa | 2.7V | 00:00:00 | 00:00:00 | 00:00:00 | |
| HASLITAL | 2026-08-31 23:54:50 | 46.83359 | 7.74345 | 57° | 37km/h | 17507m | 6.6m/s | -52.8°C | 1.4% | 0hPa | 2.7V | 00:00:00 | 00:00:00 | 00:00:00 | |
| DH7VM-15 | 2026-08-31 23:54:40 | 46.83291 | 7.74243 | 53° | 26km/h | 17449m | 4.2m/s | -52.3°C | 0% | 0hPa | 2.7V | 00:00:00 | 00:00:00 | 00:00:00 | |
| DB0UT-7 | 2026-08-31 23:54:29 | 46.83219 | 7.74119 | 49° | 38km/h | 17390m | 4.3m/s | -51.9°C | 3.9% | 0hPa | 2.7V | 00:00:00 | 01:18:12 | 00:00:00 | |
| DL1ZP-14 | 2026-08-31 23:54:22 | 46.83180 | 7.74051 | 41° | 38km/h | 17355m | 4.1m/s | -51.9°C | 1.1% | -1.0hPa | 2.6V | 00:00:00 | 00:00:00 | 00:00:00 | |
| IW2NTF | 2026-08-31 23:54:21 | 46.83144 | 7.73998 | 44° | 40km/h | 17332m | 4.7m/s | -51.8°C | 3.8% | 0hPa | 2.6V | 08:30:00 | 01:18:00 | 00:00:00 | |
| DF7PN | 2026-08-31 23:54:20 | 46.83158 | 7.74020 | 47° | 40km/h | 17341m | 3.5m/s | -51.8°C | 1.2% | -1.0hPa | 2.7V | 00:00:00 | 00:00:00 | 00:00:00 | |
| IW2NTF | 2026-08-31 23:54:08 | 46.83068 | 7.73843 | 50° | 47km/h | 17263m | 4.6m/s | -51.6°C | 3.7% | 0hPa | 2.7V | 08:30:00 | 01:17:46 | 00:00:00 | |
| DB0UT-7 | 2026-08-31 23:53:59 | 46.83041 | 7.73787 | 64° | 38km/h | 17246m | 5.3m/s | -51.5°C | 3.8% | 0hPa | 2.7V | 00:00:00 | 00:00:00 | 00:00:00 | |
| IW2NTF | 2026-08-31 23:53:54 | 46.83028 | 7.73724 | 70° | 38km/h | 17214m | 4.6m/s | -51.6°C | 3.6% | 0hPa | 2.7V | 08:30:00 | 01:17:36 | 00:00:00 | |
| DL1ZP-14 | 2026-08-31 23:53:51 | 46.83021 | 7.73695 | 65° | 46km/h | 17204m | 5.8m/s | -51.7°C | 1.1% | -1.0hPa | 2.6V | 00:00:00 | 00:00:00 | 00:00:00 | |
| DF7PN | 2026-08-31 23:53:49 | 46.83005 | 7.73649 | 64° | 44km/h | 17187m | 4.3m/s | -52.1°C | 1.1% | -1.0hPa | 2.6V | 00:00:00 | 00:00:00 | 00:00:00 | |
| IW2NTF | 2026-08-31 23:53:48 | 46.82990 | 7.73580 | 85° | 37km/h | 17158m | 5.7m/s | -52°C | 3.8% | 0hPa | 2.6V | 08:30:00 | 01:17:26 | 00:00:00 | |
| IW2NTF | 2026-08-31 23:53:38 | 46.82986 | 7.73440 | 80° | 37km/h | 17111m | 4.7m/s | -52.2°C | 3.7% | 0hPa | 2.6V | 08:30:00 | 01:17:16 | 00:00:00 | |
| DK5PH-5 | 2026-08-31 23:53:36 | 46.82989 | 7.73483 | 91° | 47km/h | 17125m | 4.1m/s | -52.0°C | 3.7% | 0hPa | 2.7V | 00:00:00 | 01:17:19 | 08:30:00 | |
| DB0UT-7 | 2026-08-31 23:53:29 | 46.82984 | 7.73384 | 91° | 53km/h | 17094m | 5.0m/s | -52.6°C | 3.9% | 0hPa | 2.6V | 00:00:00 | 01:17:12 | 00:00:00 | |
| IW2NTF | 2026-08-31 23:53:28 | 46.82984 | 7.73271 | 87° | 53km/h | 17064m | 3.9m/s | -52.9°C | 4% | 0hPa | 2.6V | 08:30:00 | 01:17:06 | 00:00:00 | |
| HASLITAL | 2026-08-31 23:53:27 | 46.82984 | 7.73367 | 92° | 49km/h | 17089m | 5.5m/s | -52.8°C | 1.4% | 0hPa | 2.7V | 00:00:00 | 00:00:00 | 00:00:00 | |
| DL1ZP-14 | 2026-08-31 23:53:20 | 46.82982 | 7.73210 | 89° | 57km/h | 17050m | 4.1m/s | -52.9°C | 1.2% | -1.0hPa | 2.7V | 00:00:00 | 00:00:00 | 00:00:00 | |
| IW2NTF | 2026-08-31 23:53:19 | 46.82991 | 7.73066 | 99° | 60km/h | 17019m | 3.6m/s | -52.8°C | 3.9% | 0hPa | 2.6V | 08:30:00 | 01:16:56 | 00:00:00 | |
| DF7PN | 2026-08-31 23:53:17 | 46.82983 | 7.73149 | 94° | 51km/h | 17036m | 4.5m/s | -52.8°C | 1.2% | -1.0hPa | 2.6V | 00:00:00 | 00:00:00 | 00:00:00 | |
| IW2NTF | 2026-08-31 23:53:08 | 46.82989 | 7.72881 | 87° | 53km/h | 16975m | 3.5m/s | -53.1°C | 4.1% | 0hPa | 2.6V | 08:30:00 | 01:16:46 | 00:00:00 | |
| DK5PH-5 | 2026-08-31 23:53:06 | 46.82992 | 7.72934 | 83° | 49km/h | 16988m | 4.1m/s | -53.0°C | 4.1% | 0hPa | 2.7V | 00:00:00 | 01:16:49 | 00:00:00 | |
| DB0UT-7 | 2026-08-31 23:52:59 | 46.82989 | 7.72797 | 90° | 49km/h | 16957m | 5.1m/s | -53.2°C | 4.1% | 0hPa | 2.7V | 00:00:00 | 00:00:00 | 08:30:00 | |
| IW2NTF | 2026-08-31 23:52:58 | 46.82981 | 7.72684 | 87° | 49km/h | 16930m | 6.1m/s | -53.1°C | 4% | 0hPa | 2.7V | 08:30:00 | 01:16:36 | 00:00:00 | |
| DL1ZP-14 | 2026-08-31 23:52:49 | 46.82986 | 7.72611 | 97° | 53km/h | 16906m | 5.6m/s | -53.2°C | 1.2% | -1.0hPa | 2.7V | 00:00:00 | 00:00:00 | 00:00:00 | |
| IW2NTF | 2026-08-31 23:52:48 | 46.82998 | 7.72503 | 105° | 49km/h | 16876m | 5.2m/s | -53.3°C | 4.2% | 0hPa | 2.7V | 08:30:00 | 01:16:26 | 00:00:00 | |
| DF7PN | 2026-08-31 23:52:47 | 46.82991 | 7.72555 | 98° | 47km/h | 16891m | 5.2m/s | -53.3°C | 1.3% | -1.0hPa | 2.7V | 00:00:00 | 00:00:00 | 00:00:00 | |
| IW2NTF | 2026-08-31 23:52:38 | 46.83035 | 7.72330 | 111° | 49km/h | 16826m | 4.2m/s | -53.9°C | 4.2% | 0hPa | 2.7V | 08:30:00 | 01:16:16 | 00:00:00 | |
| DK5PH-5 | 2026-08-31 23:52:36 | 46.83022 | 7.72383 | 109° | 66km/h | 16841m | 4.8m/s | -53.5°C | 4.1% | 0hPa | 2.6V | 00:00:00 | 01:16:19 | 00:00:00 | |
| IW2NTF | 2026-08-31 23:52:29 | 46.83088 | 7.72147 | 111° | 60km/h | 16779m | 5.6m/s | -53.7°C | 4.1% | 0hPa | 2.6V | 08:30:00 | 01:16:06 | 00:00:00 | |
| DO3MHA-11 | 2026-08-31 23:52:26 | 46.83072 | 7.72208 | 111° | 60km/h | 16794m | 4.7m/s | -53.7°C | 4.1% | 0hPa | 2.6V | 00:00:00 | 01:16:09 | 00:00:00 | |
| HASLITAL | 2026-08-31 23:52:25 | 46.83073 | 7.72208 | 111° | 55km/h | 16794m | 4.8m/s | -53.7°C | 1.5% | 0hPa | 2.6V | 00:00:00 | 00:00:00 | 00:00:00 | |
| IW2NTF | 2026-08-31 23:52:18 | 46.83144 | 7.71937 | 108° | 64km/h | 16730m | 4.4m/s | -54.3°C | 4.2% | 0hPa | 2.6V | 08:30:00 | 01:15:56 | 00:00:00 | |
| DL1ZP-14 | 2026-08-31 23:52:18 | 46.83116 | 7.72044 | 110° | 62km/h | 16754m | 4.4m/s | -53.8°C | 1.3% | -1.0hPa | 2.6V | 00:00:00 | 00:00:00 | 00:00:00 | |
| DO3MHA-11 | 2026-08-31 23:52:16 | 46.83127 | 7.72002 | 112° | 64km/h | 16744m | 4.6m/s | -54.0°C | 4.1% | 0hPa | 2.7V | 00:00:00 | 01:15:59 | 08:30:00 | |
| DF7PN | 2026-08-31 23:52:15 | 46.83133 | 7.71981 | 110° | 60km/h | 16739m | 4.0m/s | -54.1°C | 1.3% | -1.0hPa | 2.6V | 00:00:00 | 00:00:00 | 00:00:00 | |
| IW2NTF | 2026-08-31 23:52:08 | 46.83179 | 7.71703 | 104° | 68km/h | 16684m | 3.9m/s | -55.3°C | 4.4% | 0hPa | 2.6V | 08:30:00 | 01:15:46 | 00:00:00 | |
| DO3MHA-11 | 2026-08-31 23:52:05 | 46.83172 | 7.71751 | 101° | 69km/h | 16693m | 4.9m/s | -55.0°C | 4.4% | 0hPa | 2.6V | 00:00:00 | 01:15:48 | 00:00:00 | |
| IW2NTF | 2026-08-31 23:51:59 | 46.83203 | 7.71440 | 91° | 78km/h | 16639m | 4.2m/s | -55.9°C | 4.7% | 0hPa | 2.6V | 08:30:00 | 01:15:36 | 00:00:00 | |
| DO3MHA-11 | 2026-08-31 23:51:55 | 46.83202 | 7.71498 | 91° | 78km/h | 16648m | 4.1m/s | -55.8°C | 4.6% | 0hPa | 2.7V | 00:00:00 | 01:15:38 | 00:00:00 | |
| DK5PH-5 | 2026-08-31 23:51:50 | 46.83208 | 7.71352 | 98° | 75km/h | 16627m | 4.2m/s | -55.8°C | 4.7% | 0hPa | 2.7V | 00:00:00 | 01:15:33 | 00:00:00 | |
| IW2NTF | 2026-08-31 23:51:48 | 46.83229 | 7.71154 | 94° | 80km/h | 16596m | 4.4m/s | -56.1°C | 4.8% | 0hPa | 2.6V | 08:30:00 | 01:15:26 | 00:00:00 | |
| DL1ZP-14 | 2026-08-31 23:51:47 | 46.83218 | 7.71265 | 100° | 75km/h | 16614m | 4.9m/s | -55.8°C | 1.6% | -1.0hPa | 2.6V | 00:00:00 | 00:00:00 | 00:00:00 | |
| DF7PN | 2026-08-31 23:51:44 | 46.83227 | 7.71183 | 97° | 77km/h | 16602m | 5.5m/s | -56.0°C | 1.6% | -1.0hPa | 2.7V | 00:00:00 | 00:00:00 | 00:00:00 | |
| IW2NTF | 2026-08-31 23:51:39 | 46.83249 | 7.70881 | 101° | 66km/h | 16554m | 4.4m/s | -56.5°C | 4.9% | 0hPa | 2.7V | 08:30:00 | 01:15:16 | 00:00:00 | |
| DO3MHA-11 | 2026-08-31 23:51:35 | 46.83243 | 7.70929 | 100° | 73km/h | 16563m | 4.7m/s | -56.5°C | 4.8% | 0hPa | 2.7V | 00:00:00 | 01:15:18 | 00:00:00 | |
| DB0UT-7 | 2026-08-31 23:51:29 | 46.83261 | 7.70776 | 96° | 80km/h | 16538m | 4.6m/s | -56.3°C | 4.9% | 0hPa | 2.7V | 00:00:00 | 01:15:12 | 00:00:00 | |
| IW2NTF | 2026-08-31 23:51:26 | 46.83275 | 7.70553 | 99° | 75km/h | 16506m | 4.6m/s | -56.8°C | 5% | 0hPa | 2.6V | 08:30:00 | 01:15:04 | 00:00:00 | |
| DO3MHA-11 | 2026-08-31 23:51:25 | 46.83266 | 7.70663 | 95° | 77km/h | 16523m | 3.2m/s | -56.4°C | 4.8% | 0hPa | 2.6V | 00:00:00 | 01:15:08 | 00:00:00 | |
| DK5PH-5 | 2026-08-31 23:51:20 | 46.83278 | 7.70526 | 100° | 82km/h | 16502m | 3.7m/s | -56.8°C | 5.0% | 0hPa | 2.6V | 00:00:00 | 01:15:03 | 00:00:00 | |
| DL1ZP-14 | 2026-08-31 23:51:16 | 46.83285 | 7.70410 | 91° | 82km/h | 16487m | 3.8m/s | -56.8°C | 1.7% | -1.0hPa | 2.6V | 00:00:00 | 00:00:00 | 00:00:00 | |
| DO3MHA-11 | 2026-08-31 23:51:15 | 46.83286 | 7.70379 | 91° | 82km/h | 16483m | 4.2m/s | -56.8°C | 4.9% | 0hPa | 2.6V | 00:00:00 | 01:14:58 | 00:00:00 | |
| DF7PN | 2026-08-31 23:51:13 | 46.83286 | 7.70318 | 89° | 82km/h | 16476m | 4.5m/s | -57.1°C | 1.7% | -1.0hPa | 2.6V | 00:00:00 | 00:00:00 | 00:00:00 | |
| IW2NTF | 2026-08-31 23:51:10 | 46.83285 | 7.70200 | 93° | 78km/h | 16460m | 4.3m/s | -57.2°C | 5.1% | 0hPa | 2.6V | 08:30:00 | 01:14:52 | 00:00:00 | |
| DO3MHA-11 | 2026-08-31 23:51:05 | 46.83294 | 7.70083 | 97° | 82km/h | 16445m | 3.4m/s | -57.4°C | 5.1% | 0hPa | 2.6V | 00:00:00 | 01:14:48 | 00:00:00 | |
| HASLITAL | 2026-08-31 23:51:04 | 46.83294 | 7.70083 | 97° | 82km/h | 16445m | 3.4m/s | -57.5°C | 2.0% | 0hPa | 2.6V | 00:00:00 | 00:00:00 | 00:00:00 | |
| DL1ZP-14 | 2026-08-31 23:50:45 | 46.83307 | 7.69429 | 85° | 80km/h | 16377m | 4.4m/s | -57.8°C | 1.8% | -1.0hPa | 2.6V | 00:00:00 | 00:00:00 | 00:00:00 | |
| HASLITAL | 2026-08-31 23:50:43 | 46.83306 | 7.69429 | 87° | 82km/h | 16378m | 4.4m/s | -57.8°C | 2.0% | 0hPa | 2.6V | 00:00:00 | 00:00:00 | 00:00:00 | |
| DF7PN | 2026-08-31 23:50:42 | 46.83304 | 7.69368 | 86° | 82km/h | 16372m | 3.7m/s | -58.0°C | 1.8% | -1.0hPa | 2.6V | 00:00:00 | 00:00:00 | 00:00:00 | |
| DO3MHA-11 | 2026-08-31 23:50:39 | 46.83300 | 7.69274 | 87° | 84km/h | 16366m | 3.9m/s | -58.0°C | 5.3% | 0hPa | 2.6V | 00:00:00 | 01:14:22 | 08:30:00 | |
| DO3MHA-11 | 2026-08-31 23:50:36 | 46.83256 | 7.68930 | 83° | 78km/h | 16361m | 7.5m/s | -57.9°C | 5.3% | 0hPa | 2.6V | 00:00:00 | 01:14:12 | 00:00:00 | |
| HASLITAL | 2026-08-31 23:50:34 | 46.83260 | 7.68823 | 82° | 80km/h | 16281m | 4.7m/s | -58.1°C | 2.1% | 0hPa | 2.6V | 00:00:00 | 00:00:00 | 00:00:00 | |
| DK5PH-5 | 2026-08-31 23:50:23 | 46.83249 | 7.68709 | 82° | 77km/h | 16264m | 3.8m/s | 0°C | 0% | 0hPa | 2.6V | 00:00:00 | 01:14:03 | 00:00:00 | |
| DO3MHA-11 | 2026-08-31 23:50:18 | 46.83242 | 7.68652 | 80° | 77km/h | 16256m | 5.3m/s | -58.4°C | 5.5% | 0hPa | 2.6V | 00:00:00 | 01:14:01 | 00:00:00 | |
| DL1ZP-14 | 2026-08-31 23:50:14 | 46.83227 | 7.68512 | 83° | 77km/h | 16235m | 3.4m/s | -58.5°C | 1.9% | -1.0hPa | 2.6V | 00:00:00 | 00:00:00 | 00:00:00 | |
| DF7PN | 2026-08-31 23:50:11 | 46.83223 | 7.68456 | 84° | 73km/h | 16226m | 4.4m/s | -58.4°C | 1.9% | -1.0hPa | 2.6V | 00:00:00 | 00:00:00 | 00:00:00 | |
| DO3MHA-11 | 2026-08-31 23:50:08 | 46.83218 | 7.68372 | 86° | 82km/h | 16214m | 4.2m/s | -58.3°C | 5.6% | 0hPa | 2.6V | 00:00:00 | 01:13:51 | 00:00:00 | |
| HASLITAL | 2026-08-31 23:50:02 | 46.83202 | 7.68223 | 79° | 86km/h | 16193m | 4.4m/s | -58.3°C | 2.1% | 0hPa | 2.6V | 00:00:00 | 00:00:00 | 00:00:00 | |
| DO3MHA-11 | 2026-08-31 23:49:58 | 46.83181 | 7.68075 | 79° | 77km/h | 16172m | 4.1m/s | -58.1°C | 5.4% | 0hPa | 2.6V | 00:00:00 | 01:13:41 | 00:00:00 | |
| DB0UT-7 | 2026-08-31 23:49:57 | 46.83177 | 7.68047 | 79° | 75km/h | 16168m | 4.7m/s | -58.0°C | 5.5% | 0hPa | 2.6V | 00:00:00 | 00:00:00 | 00:00:00 | |
| DK5PH-5 | 2026-08-31 23:49:50 | 46.83147 | 7.67855 | 79° | 75km/h | 16136m | 4.1m/s | 0°C | 0% | 0hPa | 2.6V | 00:00:00 | 01:13:33 | 00:00:00 | |
| DO3MHA-11 | 2026-08-31 23:49:48 | 46.83139 | 7.67798 | 79° | 73km/h | 16128m | 5.3m/s | -57.6°C | 5.4% | 0hPa | 2.6V | 00:00:00 | 01:13:31 | 00:00:00 | |
| DL1ZP-14 | 2026-08-31 23:49:43 | 46.83127 | 7.67630 | 85° | 68km/h | 16100m | 5.7m/s | -57.5°C | 1.8% | -1.0hPa | 2.6V | 00:00:00 | 00:00:00 | 00:00:00 | |
| HASLITAL | 2026-08-31 23:49:41 | 46.83126 | 7.67630 | 87° | 69km/h | 16100m | 5.7m/s | -57.5°C | 2.1% | 0hPa | 2.7V | 00:00:00 | 00:00:00 | 00:00:00 | |
| DF7PN | 2026-08-31 23:49:40 | 46.83122 | 7.67582 | 78° | 64km/h | 16091m | 3.5m/s | -57.4°C | 1.8% | -1.0hPa | 2.7V | 00:00:00 | 00:00:00 | 00:00:00 | |
| DO3MHA-11 | 2026-08-31 23:49:38 | 46.83114 | 7.67532 | 77° | 77km/h | 16082m | 4.9m/s | -57.3°C | 5.2% | 0hPa | 2.7V | 00:00:00 | 01:13:21 | 00:00:00 | |
| DO3MHA-11 | 2026-08-31 23:49:28 | 46.83084 | 7.67254 | 84° | 71km/h | 16032m | 5.6m/s | -57.3°C | 5.2% | 0hPa | 2.6V | 00:00:00 | 01:13:11 | 00:00:00 | |
| DB0UT-7 | 2026-08-31 23:49:27 | 46.83082 | 7.67231 | 85° | 73km/h | 16028m | 4.0m/s | -57.3°C | 5.2% | 0hPa | 2.6V | 00:00:00 | 01:13:10 | 00:00:00 | |
| HASLITAL | 2026-08-31 23:49:21 | 46.83078 | 7.67075 | 88° | 77km/h | 15998m | 4.7m/s | -57.4°C | 2.0% | 0hPa | 2.6V | 00:00:00 | 00:00:00 | 00:00:00 | |
| DO3MHA-11 | 2026-08-31 23:49:18 | 46.83076 | 7.66992 | 89° | 71km/h | 15984m | 4.1m/s | -57.4°C | 5.2% | 0hPa | 2.6V | 00:00:00 | 01:13:01 | 00:00:00 | |
| IW2NTF | 2026-08-31 23:49:17 | 46.83079 | 7.66837 | 94° | 68km/h | 15955m | 5.2m/s | -57.4°C | 5.2% | 0hPa | 2.6V | 08:30:00 | 01:12:55 | 00:00:00 | |
| DK5PH-5 | 2026-08-31 23:49:16 | 46.83075 | 7.66938 | 90° | 77km/h | 15974m | 4.6m/s | 0°C | 0% | 0hPa | 2.6V | 00:00:00 | 01:12:59 | 00:00:00 | |
| DL1ZP-14 | 2026-08-31 23:49:12 | 46.83080 | 7.66812 | 92° | 68km/h | 15950m | 4.8m/s | -57.5°C | 1.8% | -1.0hPa | 2.6V | 00:00:00 | 00:00:00 | 00:00:00 | |
| DF7PN | 2026-08-31 23:49:09 | 46.83080 | 7.66732 | 89° | 77km/h | 15937m | 5.0m/s | -57.4°C | 1.8% | -1.0hPa | 2.7V | 00:00:00 | 00:00:00 | 00:00:00 | |
| DO3MHA-11 | 2026-08-31 23:49:08 | 46.83080 | 7.66732 | 90° | 77km/h | 15937m | 5.0m/s | -57.4°C | 5.2% | 0hPa | 2.7V | 00:00:00 | 01:12:51 | 08:30:00 | |
| IW2NTF | 2026-08-31 23:49:06 | 46.83071 | 7.66558 | 85° | 78km/h | 15909m | 4.2m/s | -57.5°C | 5.4% | 0hPa | 2.8V | 08:30:00 | 01:12:45 | 00:00:00 | |
| DB0ND-19 | 2026-08-31 23:49:03 | 46.83065 | 7.66421 | 87° | 73km/h | 15886m | 5.0m/s | 0°C | -1.0% | -1.0hPa | 2.8V | 00:00:00 | 00:00:00 | 00:00:00 | |
| HASLITAL | 2026-08-31 23:48:59 | 46.83068 | 7.66502 | 87° | 75km/h | 15901m | 5.2m/s | -57.6°C | 2.1% | 0hPa | 2.8V | 00:00:00 | 00:00:00 | 00:00:00 | |
| DO3MHA-11 | 2026-08-31 23:48:58 | 46.83066 | 7.66448 | 88° | 75km/h | 15892m | 4.6m/s | -57.5°C | 5.4% | 0hPa | 2.8V | 00:00:00 | 01:12:41 | 00:00:00 | |
| DB0UT-7 | 2026-08-31 23:48:57 | 46.83065 | 7.66421 | 88° | 77km/h | 15887m | 5.0m/s | -57.5°C | 5.4% | 0hPa | 2.8V | 00:00:00 | 00:00:00 | 00:00:00 | |
| IW2NTF | 2026-08-31 23:48:55 | 46.83062 | 7.66283 | 89° | 77km/h | 15864m | 4.9m/s | -57.6°C | 5.4% | 0hPa | 2.8V | 08:30:00 | 01:12:35 | 00:00:00 | |
| DO3MHA-11 | 2026-08-31 23:48:48 | 46.83061 | 7.66169 | 87° | 77km/h | 15846m | 4.1m/s | -57.6°C | 5.5% | 0hPa | 2.8V | 00:00:00 | 01:12:31 | 00:00:00 | |
| DK5PH-5 | 2026-08-31 23:48:45 | 46.83057 | 7.66086 | 86° | 78km/h | 15833m | 3.8m/s | 0°C | 0% | 0hPa | 2.8V | 00:00:00 | 01:12:28 | 08:30:00 | |
| IW2NTF | 2026-08-31 23:48:44 | 46.83049 | 7.66004 | 80° | 75km/h | 15820m | 4.1m/s | -57.6°C | 5.5% | 0hPa | 2.8V | 08:30:00 | 01:12:25 | 00:00:00 | |
| DL1ZP-14 | 2026-08-31 23:48:41 | 46.83043 | 7.65947 | 82° | 78km/h | 15811m | 4.9m/s | -57.6°C | 2.0% | -1.0hPa | 2.8V | 00:00:00 | 00:00:00 | 00:00:00 | |
| HASLITAL | 2026-08-31 23:48:39 | 46.83043 | 7.65947 | 83° | 78km/h | 15812m | 4.9m/s | -57.6°C | 2.2% | 0hPa | 2.6V | 00:00:00 | 00:00:00 | 00:00:00 | |
| DO3MHA-11 | 2026-08-31 23:48:38 | 46.83038 | 7.65889 | 84° | 75km/h | 15803m | 4.5m/s | -57.6°C | 5.5% | 0hPa | 2.6V | 00:00:00 | 01:12:21 | 00:00:00 | |
| IW2NTF | 2026-08-31 23:48:34 | 46.83034 | 7.65718 | 87° | 73km/h | 15777m | 4.9m/s | -57.6°C | 5.5% | 0hPa | 2.6V | 08:30:00 | 01:12:15 | 00:00:00 | |
| DB0ND-19 | 2026-08-31 23:48:32 | 46.83031 | 7.65665 | 84° | 69km/h | 15768m | 4.1m/s | 0°C | -1.0% | -1.0hPa | 2.6V | 00:00:00 | 00:00:00 | 00:00:00 | |
| DO3MHA-11 | 2026-08-31 23:48:28 | 46.83027 | 7.65613 | 85° | 73km/h | 15759m | 4.1m/s | -57.4°C | 5.5% | 0hPa | 2.6V | 00:00:00 | 01:12:11 | 00:00:00 | |
| DB0UT-7 | 2026-08-31 23:48:27 | 46.83025 | 7.65587 | 84° | 73km/h | 15755m | 4.1m/s | -57.4°C | 5.5% | 0hPa | 2.6V | 00:00:00 | 01:12:10 | 08:30:00 | |
| IW2NTF | 2026-08-31 23:48:24 | 46.83016 | 7.65453 | 86° | 77km/h | 15733m | 3.9m/s | -57.3°C | 5.4% | 0hPa | 2.6V | 08:30:00 | 01:12:05 | 00:00:00 | |
| HASLITAL | 2026-08-31 23:48:19 | 46.83012 | 7.65370 | 85° | 73km/h | 15720m | 3.9m/s | -57.2°C | 2.2% | 0hPa | 2.7V | 00:00:00 | 00:00:00 | 00:00:00 | |
| DO3MHA-11 | 2026-08-31 23:48:18 | 46.83010 | 7.65343 | 85° | 73km/h | 15715m | 4.5m/s | -57.1°C | 5.3% | 0hPa | 2.7V | 00:00:00 | 01:12:01 | 00:00:00 | |
| IW2NTF | 2026-08-31 23:48:15 | 46.82998 | 7.65185 | 85° | 71km/h | 15690m | 4.9m/s | -57.2°C | 5.4% | 0hPa | 2.7V | 08:30:00 | 01:11:55 | 00:00:00 | |
| DL1ZP-14 | 2026-08-31 23:48:10 | 46.82996 | 7.65105 | 89° | 71km/h | 15678m | 4.8m/s | -57.2°C | 2.0% | -1.0hPa | 2.8V | 00:00:00 | 00:00:00 | 00:00:00 | |
| DO3MHA-11 | 2026-08-31 23:48:08 | 46.82995 | 7.65078 | 90° | 75km/h | 15673m | 4.2m/s | -57.2°C | 5.4% | 0hPa | 2.6V | 00:00:00 | 01:11:51 | 00:00:00 | |
| DF7PN | 2026-08-31 23:48:07 | 46.82995 | 7.65022 | 89° | 77km/h | 15664m | 4.2m/s | -57.3°C | 2.0% | -1.0hPa | 2.7V | 00:00:00 | 00:00:00 | 00:00:00 | |
| IW2NTF | 2026-08-31 23:48:03 | 46.82992 | 7.64911 | 86° | 71km/h | 15647m | 3.9m/s | -57.4°C | 5.4% | 0hPa | 2.7V | 08:30:00 | 01:11:45 | 00:00:00 | |
| DH7VM-15 | 2026-08-31 23:48:03 | 46.82994 | 7.64965 | 89° | 77km/h | 15656m | 4.7m/s | -57.3°C | 0% | 0hPa | 2.7V | 00:00:00 | 00:00:00 | 00:00:00 | |
| DB0ND-19 | 2026-08-31 23:48:01 | 46.82987 | 7.64581 | 87° | 80km/h | 15597m | 4.7m/s | 0°C | -1.0% | -1.0hPa | 2.7V | 00:00:00 | 00:00:00 | 00:00:00 | |
| DO3MHA-11 | 2026-08-31 23:47:58 | 46.82987 | 7.64805 | 88° | 77km/h | 15630m | 5.1m/s | -57.5°C | 5.4% | 0hPa | 2.7V | 00:00:00 | 01:11:41 | 00:00:00 | |
| DB0UT-7 | 2026-08-31 23:47:57 | 46.82987 | 7.64779 | 90° | 80km/h | 15626m | 4.3m/s | -57.5°C | 5.4% | 0hPa | 2.7V | 00:00:00 | 00:00:00 | 00:00:00 | |
| IW2NTF | 2026-08-31 23:47:54 | 46.82988 | 7.64639 | 89° | 77km/h | 15605m | 4.6m/s | -57.7°C | 5.5% | 0hPa | 2.7V | 08:30:00 | 01:11:35 | 00:00:00 | |
| DO3MHA-11 | 2026-08-31 23:47:48 | 46.82984 | 7.64521 | 85° | 80km/h | 15589m | 3.5m/s | -57.7°C | 5.6% | 0hPa | 2.7V | 00:00:00 | 01:11:31 | 00:00:00 | |
| IW2NTF | 2026-08-31 23:47:44 | 46.82971 | 7.64344 | 84° | 80km/h | 15565m | 4.2m/s | -57.9°C | 5.7% | 0hPa | 2.7V | 08:30:00 | 01:11:25 | 00:00:00 | |
| DL1ZP-14 | 2026-08-31 23:47:39 | 46.82964 | 7.64225 | 84° | 84km/h | 15548m | 3.8m/s | -58.0°C | 2.2% | -1.0hPa | 2.7V | 00:00:00 | 00:00:00 | 00:00:00 | |
| DO3MHA-11 | 2026-08-31 23:47:38 | 46.82964 | 7.64225 | 85° | 80km/h | 15548m | 3.8m/s | -58.0°C | 5.8% | 0hPa | 2.7V | 00:00:00 | 01:11:21 | 08:30:00 | |
| HASLITAL | 2026-08-31 23:47:37 | 46.82964 | 7.64225 | 86° | 84km/h | 15548m | 3.8m/s | -58.0°C | 2.4% | 0hPa | 2.7V | 00:00:00 | 00:00:00 | 00:00:00 | |
| DF7PN | 2026-08-31 23:47:36 | 46.82957 | 7.64132 | 82° | 82km/h | 15536m | 3.6m/s | -57.9°C | 2.2% | -1.0hPa | 2.7V | 00:00:00 | 00:00:00 | 00:00:00 | |
| IW2NTF | 2026-08-31 23:47:33 | 46.82949 | 7.64040 | 83° | 84km/h | 15524m | 3.8m/s | -57.9°C | 5.7% | 0hPa | 2.7V | 08:30:00 | 01:11:15 | 00:00:00 | |
| DB0UT-7 | 2026-08-31 23:47:27 | 46.82939 | 7.63893 | 83° | 75km/h | 15504m | 4.1m/s | -57.7°C | 5.7% | 0hPa | 2.6V | 00:00:00 | 01:11:10 | 00:00:00 | |
| IW2NTF | 2026-08-31 23:47:23 | 46.82922 | 7.63752 | 77° | 77km/h | 15483m | 4.8m/s | -57.7°C | 5.7% | 0hPa | 2.6V | 08:30:00 | 01:11:05 | 00:00:00 | |
| HASLITAL | 2026-08-31 23:47:17 | 46.82907 | 7.63642 | 81° | 75km/h | 15466m | 3.8m/s | -57.5°C | 2.3% | 0hPa | 2.7V | 00:00:00 | 00:00:00 | 00:00:00 | |
| DO3MHA-11 | 2026-08-31 23:47:10 | 46.82888 | 7.63421 | 80° | 73km/h | 15435m | 4.3m/s | -57.3°C | 5.5% | 0hPa | 2.7V | 00:00:00 | 01:10:53 | 00:00:00 | |
| DL1ZP-14 | 2026-08-31 23:47:08 | 46.82878 | 7.63340 | 80° | 71km/h | 15423m | 4.3m/s | -57.3°C | 2.0% | -1.0hPa | 2.7V | 00:00:00 | 00:00:00 | 00:00:00 | |
| DO3MHA-11 | 2026-08-31 23:47:00 | 46.82861 | 7.63158 | 84° | 73km/h | 15395m | 4.6m/s | -57.1°C | 5.3% | 0hPa | 2.7V | 00:00:00 | 01:10:43 | 00:00:00 | |
| DB0UT-7 | 2026-08-31 23:46:57 | 46.82856 | 7.63076 | 84° | 71km/h | 15383m | 4.3m/s | -57.0°C | 5.2% | 0hPa | 2.7V | 00:00:00 | 00:00:00 | 00:00:00 | |
| HASLITAL | 2026-08-31 23:46:56 | 46.82856 | 7.63076 | 85° | 77km/h | 15383m | 4.4m/s | -57.1°C | 2.2% | 0hPa | 2.8V | 00:00:00 | 00:00:00 | 00:00:00 | |
| IW2NTF | 2026-08-31 23:46:54 | 46.82846 | 7.62894 | 85° | 66km/h | 15353m | 4.2m/s | -57.2°C | 5.3% | 0hPa | 2.8V | 08:30:00 | 01:10:33 | 00:00:00 | |
| DO3MHA-11 | 2026-08-31 23:46:50 | 46.82846 | 7.62894 | 86° | 71km/h | 15354m | 4.1m/s | -57.2°C | 5.3% | 0hPa | 2.7V | 00:00:00 | 01:10:33 | 00:00:00 | |
| DH7VM-15 | 2026-08-31 23:46:45 | 46.82842 | 7.62794 | 88° | 73km/h | 15337m | 4.1m/s | -57.3°C | 0% | 0hPa | 2.7V | 00:00:00 | 00:00:00 | 00:00:00 | |
| DO3MHA-11 | 2026-08-31 23:46:40 | 46.82841 | 7.62632 | 89° | 71km/h | 15314m | 3.8m/s | -57.3°C | 5.4% | 0hPa | 2.7V | 00:00:00 | 01:10:23 | 00:00:00 | |
| DL1ZP-14 | 2026-08-31 23:46:36 | 46.82841 | 7.62530 | 92° | 71km/h | 15298m | 3.8m/s | -57.5°C | 2.1% | -1.0hPa | 2.7V | 00:00:00 | 00:00:00 | 00:00:00 | |
| HASLITAL | 2026-08-31 23:46:35 | 46.82841 | 7.62530 | 93° | 73km/h | 15299m | 3.8m/s | -57.5°C | 2.3% | 0hPa | 2.7V | 00:00:00 | 00:00:00 | 00:00:00 | |
| DF7PN | 2026-08-31 23:46:34 | 46.82842 | 7.62450 | 88° | 71km/h | 15287m | 3.9m/s | 0°C | -1.0% | -1.0hPa | 2.7V | 00:00:00 | 00:00:00 | 00:00:00 | |
| DO3MHA-11 | 2026-08-31 23:46:30 | 46.82840 | 7.62368 | 90° | 77km/h | 15276m | 4.5m/s | -57.5°C | 5.6% | 0hPa | 2.7V | 00:00:00 | 01:10:13 | 00:00:00 | |
| DB0UT-7 | 2026-08-31 23:46:27 | 46.82840 | 7.62286 | 89° | 80km/h | 15264m | 4.3m/s | -57.6°C | 5.6% | 0hPa | 2.7V | 00:00:00 | 01:10:10 | 00:00:00 | |
| DO3MHA-11 | 2026-08-31 23:46:20 | 46.82838 | 7.62087 | 88° | 80km/h | 15235m | 4.1m/s | -57.5°C | 5.6% | 0hPa | 2.7V | 00:00:00 | 01:10:03 | 00:00:00 | |
| IW2NTF | 2026-08-31 23:46:18 | 46.82829 | 7.61853 | 89° | 77km/h | 15203m | 3.6m/s | -57.6°C | 5.6% | 0hPa | 2.7V | 08:30:00 | 01:09:55 | 00:00:00 | |
| HASLITAL | 2026-08-31 23:46:15 | 46.82833 | 7.61968 | 86° | 80km/h | 15218m | 4.1m/s | -57.6°C | 2.3% | 0hPa | 2.8V | 00:00:00 | 00:00:00 | 00:00:00 | |
| DO3MHA-11 | 2026-08-31 23:46:10 | 46.82827 | 7.61796 | 89° | 78km/h | 15195m | 3.6m/s | -57.5°C | 5.6% | 0hPa | 2.8V | 00:00:00 | 01:09:53 | 00:00:00 | |
| DL1ZP-14 | 2026-08-31 23:46:05 | 46.82823 | 7.61646 | 83° | 84km/h | 15174m | 3.9m/s | -57.5°C | -1.0% | -1.0hPa | 2.8V | 00:00:00 | 00:00:00 | 00:00:00 | |
| DF7PN | 2026-08-31 23:46:02 | 46.82817 | 7.61550 | 87° | 86km/h | 15163m | 4.3m/s | 0°C | -1.0% | -1.0hPa | 2.7V | 00:00:00 | 00:00:00 | 00:00:00 | |
| DO3MHA-11 | 2026-08-31 23:46:00 | 46.82816 | 7.61487 | 90° | 80km/h | 15156m | 3.9m/s | -57.4°C | 5.6% | 0hPa | 2.7V | 00:00:00 | 01:09:43 | 00:00:00 | |
| DB0UT-7 | 2026-08-31 23:45:57 | 46.82815 | 7.61395 | 90° | 80km/h | 15144m | 4.9m/s | -57.4°C | 5.6% | 0hPa | 2.7V | 00:00:00 | 00:00:00 | 00:00:00 | |
| HASLITAL | 2026-08-31 23:45:54 | 46.82815 | 7.61336 | 90° | 78km/h | 15135m | 3.6m/s | -57.4°C | 2.4% | 0hPa | 2.7V | 00:00:00 | 00:00:00 | 00:00:00 | |
| DK5PH-5 | 2026-08-31 23:45:53 | 46.82813 | 7.61280 | 86° | 82km/h | 15127m | 3.5m/s | 0°C | 0% | 0hPa | 2.7V | 00:00:00 | 01:09:36 | 00:00:00 | |
| DO3MHA-11 | 2026-08-31 23:45:46 | 46.82806 | 7.61075 | 90° | 80km/h | 15098m | 5.1m/s | -57.2°C | 5.6% | 0hPa | 2.7V | 00:00:00 | 01:09:29 | 08:30:00 | |
| IW2NTF | 2026-08-31 23:45:41 | 46.82804 | 7.60834 | 91° | 77km/h | 15065m | 4.1m/s | -57.3°C | 5.7% | 0hPa | 2.7V | 08:30:00 | 01:09:21 | 00:00:00 | |
| HASLITAL | 2026-08-31 23:45:35 | 46.82805 | 7.60750 | 90° | 75km/h | 15053m | 4.0m/s | -57.2°C | 2.4% | 0hPa | 2.8V | 00:00:00 | 00:00:00 | 00:00:00 | |
| DL1ZP-14 | 2026-08-31 23:45:34 | 46.82805 | 7.60722 | 89° | 75km/h | 15049m | 4.0m/s | 0°C | -1.0% | -1.0hPa | 2.8V | 00:00:00 | 00:00:00 | 00:00:00 | |
| IW2NTF | 2026-08-31 23:45:31 | 46.82810 | 7.60540 | 93° | 89km/h | 15023m | 4.8m/s | -57°C | 5.5% | 0hPa | 2.7V | 08:30:00 | 01:09:11 | 00:00:00 | |
| DO3MHA-11 | 2026-08-31 23:45:29 | 46.82809 | 7.60573 | 94° | 86km/h | 15028m | 4.2m/s | -56.9°C | 5.6% | 0hPa | 2.7V | 00:00:00 | 01:09:12 | 00:00:00 | |
| DB0UT-7 | 2026-08-31 23:45:27 | 46.82812 | 7.60507 | 95° | 86km/h | 15019m | 4.4m/s | -56.9°C | 5.6% | 0hPa | 2.7V | 00:00:00 | 01:09:10 | 00:00:00 | |
| DH7VM-15 | 2026-08-31 23:45:23 | 46.82815 | 7.60378 | 90° | 86km/h | 15003m | 3.4m/s | -57.0°C | 0% | 0hPa | 2.7V | 00:00:00 | 00:00:00 | 00:00:00 | |
| IW2NTF | 2026-08-31 23:45:21 | 46.82814 | 7.60168 | 91° | 84km/h | 14974m | 4.2m/s | -56.9°C | 5.7% | 0hPa | 2.7V | 08:30:00 | 01:08:59 | 00:00:00 | |
| DO3MHA-11 | 2026-08-31 23:45:19 | 46.82815 | 7.60258 | 89° | 84km/h | 14986m | 4.8m/s | -56.9°C | 5.7% | 0hPa | 2.7V | 00:00:00 | 01:09:02 | 00:00:00 | |
| HASLITAL | 2026-08-31 23:45:15 | 46.82816 | 7.60137 | 94° | 86km/h | 14970m | 4.4m/s | -56.9°C | 2.4% | 0hPa | 2.7V | 00:00:00 | 00:00:00 | 00:00:00 | |
| IW2NTF | 2026-08-31 23:45:11 | 46.82820 | 7.59854 | 87° | 84km/h | 14932m | 4.2m/s | -56.7°C | 5.5% | 0hPa | 2.7V | 08:30:00 | 01:08:49 | 00:00:00 | |
| DO3MHA-11 | 2026-08-31 23:45:04 | 46.82818 | 7.59790 | 89° | 88km/h | 14922m | 4.4m/s | -56.7°C | 5.6% | 0hPa | 2.7V | 00:00:00 | 01:08:47 | 00:00:00 | |
| IW2NTF | 2026-08-31 23:45:00 | 46.82817 | 7.59529 | 91° | 84km/h | 14888m | 4.6m/s | -56.7°C | 5.6% | 0hPa | 2.7V | 08:30:00 | 01:08:39 | 00:00:00 | |
| DB0UT-7 | 2026-08-31 23:44:57 | 46.82817 | 7.59561 | 92° | 84km/h | 14893m | 3.8m/s | -56.6°C | 5.5% | 0hPa | 2.8V | 00:00:00 | 00:00:00 | 00:00:00 | |
| DO3MHA-11 | 2026-08-31 23:44:54 | 46.82819 | 7.59468 | 93° | 84km/h | 14880m | 5.1m/s | -56.6°C | 5.6% | 0hPa | 2.8V | 00:00:00 | 01:08:37 | 00:00:00 | |
| IW2NTF | 2026-08-31 23:44:51 | 46.82825 | 7.59223 | 89° | 91km/h | 14847m | 3.6m/s | -56.5°C | 5.6% | 0hPa | 2.8V | 08:30:00 | 01:08:29 | 00:00:00 | |
| DO3MHA-11 | 2026-08-31 23:44:44 | 46.82826 | 7.59156 | 91° | 84km/h | 14838m | 5.3m/s | -56.5°C | 5.6% | 0hPa | 2.8V | 00:00:00 | 01:08:27 | 00:00:00 | |
| IW2NTF | 2026-08-31 23:44:40 | 46.82825 | 7.58908 | 89° | 80km/h | 14804m | 3.5m/s | -56.5°C | 5.6% | 0hPa | 2.8V | 08:30:00 | 01:08:19 | 00:00:00 | |
| HASLITAL | 2026-08-31 23:44:34 | 46.82825 | 7.58847 | 89° | 82km/h | 14795m | 4.7m/s | -56.6°C | 2.5% | 0hPa | 2.8V | 00:00:00 | 00:00:00 | 00:00:00 | |
| IW2NTF | 2026-08-31 23:44:30 | 46.82825 | 7.58592 | 90° | 88km/h | 14761m | 4.5m/s | -56.7°C | 5.7% | 0hPa | 2.8V | 08:30:00 | 01:08:09 | 00:00:00 | |
| DB0UT-7 | 2026-08-31 23:44:27 | 46.82825 | 7.58624 | 91° | 86km/h | 14766m | 4.4m/s | -56.6°C | 5.7% | 0hPa | 2.7V | 00:00:00 | 01:08:10 | 00:00:00 | |
| DO3MHA-11 | 2026-08-31 23:44:24 | 46.82824 | 7.58529 | 88° | 82km/h | 14753m | 5.0m/s | -56.6°C | 5.7% | 0hPa | 2.7V | 00:00:00 | 01:08:07 | 00:00:00 | |
| IW2NTF | 2026-08-31 23:44:20 | 46.82813 | 7.58288 | 86° | 82km/h | 14720m | 4.8m/s | -56.5°C | 5.6% | 0hPa | 2.7V | 08:30:00 | 01:07:59 | 00:00:00 | |
| DO3MHA-11 | 2026-08-31 23:44:14 | 46.82810 | 7.58228 | 87° | 84km/h | 14712m | 4.4m/s | -56.5°C | 5.6% | 0hPa | 2.7V | 00:00:00 | 01:07:57 | 00:00:00 | |
| HASLITAL | 2026-08-31 23:44:12 | 46.82809 | 7.58199 | 87° | 80km/h | 14707m | 5.0m/s | -56.6°C | 2.5% | 0hPa | 2.7V | 00:00:00 | 00:00:00 | 00:00:00 | |
| IW2NTF | 2026-08-31 23:44:09 | 46.82801 | 7.57980 | 85° | 91km/h | 14676m | 4.1m/s | -56.5°C | 5.7% | 0hPa | 2.7V | 08:30:00 | 01:07:49 | 00:00:00 | |
| DL1ZP-14 | 2026-08-31 23:44:01 | 46.82792 | 7.57782 | 86° | 88km/h | 14651m | 4.2m/s | 0°C | -1.0% | -1.0hPa | 2.7V | 00:00:00 | 00:00:00 | 00:00:00 | |
| IW2NTF | 2026-08-31 23:43:59 | 46.82789 | 7.57648 | 87° | 91km/h | 14633m | 4.5m/s | -56.5°C | 5.8% | 0hPa | 2.8V | 08:30:00 | 01:07:39 | 00:00:00 | |
| DO3MHA-11 | 2026-08-31 23:43:58 | 46.82790 | 7.57716 | 89° | 91km/h | 14642m | 3.8m/s | -56.5°C | 5.8% | 0hPa | 2.7V | 00:00:00 | 01:07:41 | 08:30:00 | |
| DB0UT-7 | 2026-08-31 23:43:57 | 46.82790 | 7.57682 | 88° | 95km/h | 14637m | 4.4m/s | -56.5°C | 5.7% | 0hPa | 2.7V | 00:00:00 | 00:00:00 | 08:30:00 | |
| HASLITAL | 2026-08-31 23:43:51 | 46.82785 | 7.57512 | 89° | 93km/h | 14616m | 4.2m/s | -56.5°C | 2.6% | 0hPa | 2.7V | 00:00:00 | 00:00:00 | 00:00:00 | |
| IW2NTF | 2026-08-31 23:43:50 | 46.82777 | 7.57244 | 87° | 91km/h | 14581m | 3.4m/s | -56.5°C | 5.8% | 0hPa | 2.7V | 08:30:00 | 01:07:27 | 00:00:00 | |
| DO3MHA-11 | 2026-08-31 23:43:48 | 46.82781 | 7.57377 | 88° | 93km/h | 14598m | 3.8m/s | -56.4°C | 5.8% | 0hPa | 2.7V | 00:00:00 | 01:07:31 | 00:00:00 | |
| DO3MHA-11 | 2026-08-31 23:43:38 | 46.82773 | 7.57034 | 88° | 99km/h | 14556m | 4.9m/s | -56.3°C | 5.8% | 0hPa | 2.7V | 00:00:00 | 01:07:21 | 00:00:00 | |
| HASLITAL | 2026-08-31 23:43:30 | 46.82761 | 7.56780 | 86° | 99km/h | 14526m | 3.6m/s | -56.3°C | 2.7% | 0hPa | 2.7V | 00:00:00 | 00:00:00 | 00:00:00 | |
| DO3MHA-11 | 2026-08-31 23:43:28 | 46.82755 | 7.56676 | 86° | 97km/h | 14513m | 3.9m/s | -56.2°C | 5.8% | 0hPa | 2.7V | 00:00:00 | 01:07:11 | 00:00:00 | |
| DB0UT-7 | 2026-08-31 23:43:27 | 46.82753 | 7.56642 | 87° | 99km/h | 14509m | 3.9m/s | -56.2°C | 5.8% | 0hPa | 2.7V | 00:00:00 | 01:07:10 | 00:00:00 | |
| DO3MHA-11 | 2026-08-31 23:43:18 | 46.82751 | 7.56316 | 91° | 99km/h | 14475m | -4.8m/s | -56.2°C | 5.8% | 0hPa | 2.7V | 00:00:00 | 01:07:01 | 00:00:00 | |
| HASLITAL | 2026-08-31 23:43:10 | 46.82737 | 7.56061 | 83° | 95km/h | 14450m | 4.3m/s | -56.2°C | 2.8% | 0hPa | 2.7V | 00:00:00 | 00:00:00 | 00:00:00 | |
| DO3MHA-11 | 2026-08-31 23:43:08 | 46.82729 | 7.55955 | 86° | 102km/h | 14438m | 4.5m/s | -56.2°C | 5.9% | 0hPa | 2.7V | 00:00:00 | 01:06:51 | 00:00:00 | |
| DK5PH-5 | 2026-08-31 23:42:59 | 46.82711 | 7.55618 | 83° | 95km/h | 14403m | 3.3m/s | 0°C | 0% | 0hPa | 2.7V | 00:00:00 | 01:06:42 | 00:00:00 | |
| DB0UT-7 | 2026-08-31 23:42:57 | 46.82704 | 7.55547 | 81° | 93km/h | 14395m | 4.5m/s | -56.0°C | 5.9% | 0hPa | 2.7V | 00:00:00 | 00:00:00 | 00:00:00 | |
| HASLITAL | 2026-08-31 23:42:49 | 46.82683 | 7.55308 | 85° | 95km/h | 14366m | 4.6m/s | -55.9°C | 2.8% | 0hPa | 2.7V | 00:00:00 | 00:00:00 | 00:00:00 | |
| DO3MHA-11 | 2026-08-31 23:42:47 | 46.82674 | 7.55202 | 81° | 93km/h | 14353m | 4.6m/s | -55.8°C | 5.8% | 0hPa | 2.7V | 00:00:00 | 01:06:30 | 00:00:00 | |
| DO3MHA-11 | 2026-08-31 23:42:37 | 46.82627 | 7.54863 | 80° | 93km/h | 14315m | 4.0m/s | -56.0°C | 6.1% | 0hPa | 2.7V | 00:00:00 | 01:06:20 | 00:00:00 | |
| HASLITAL | 2026-08-31 23:42:29 | 46.82598 | 7.54624 | 82° | 93km/h | 14288m | 3.8m/s | -56.2°C | 3.1% | 0hPa | 2.7V | 00:00:00 | 00:00:00 | 00:00:00 | |
| DO3MHA-11 | 2026-08-31 23:42:27 | 46.82586 | 7.54523 | 80° | 93km/h | 14276m | 3.9m/s | -56.1°C | 6.2% | 0hPa | 2.7V | 00:00:00 | 01:06:10 | 08:30:00 | |
| IW2NTF | 2026-08-31 23:42:26 | 46.82558 | 7.54286 | 81° | 93km/h | 14246m | 3.7m/s | -56.3°C | 6.4% | 0hPa | 2.8V | 08:30:00 | 01:06:03 | 00:00:00 | |
| DO3MHA-11 | 2026-08-31 23:42:17 | 46.82547 | 7.54184 | 80° | 93km/h | 14234m | 4.0m/s | -56.3°C | 6.5% | 0hPa | 2.8V | 00:00:00 | 01:06:00 | 00:00:00 | |
| IW2NTF | 2026-08-31 23:42:15 | 46.82517 | 7.53949 | 77° | 95km/h | 14206m | 4.4m/s | -56.5°C | 6.7% | 0hPa | 2.8V | 08:30:00 | 01:05:53 | 00:00:00 | |
| HASLITAL | 2026-08-31 23:42:08 | 46.82512 | 7.53914 | 79° | 95km/h | 14201m | 4.2m/s | -56.6°C | 3.5% | 0hPa | 2.8V | 00:00:00 | 00:00:00 | 00:00:00 | |
| DO3MHA-11 | 2026-08-31 23:42:07 | 46.82502 | 7.53845 | 79° | 99km/h | 14194m | 3.3m/s | -56.6°C | 6.8% | 0hPa | 2.8V | 00:00:00 | 01:05:50 | 00:00:00 | |
| IW2NTF | 2026-08-31 23:42:06 | 46.82466 | 7.53599 | 78° | 100km/h | 14165m | 5m/s | -56.5°C | 6.6% | 0hPa | 2.8V | 08:30:00 | 01:05:43 | 00:00:00 | |
| DO3MHA-11 | 2026-08-31 23:41:57 | 46.82452 | 7.53491 | 81° | 95km/h | 14153m | 4.4m/s | -56.4°C | 6.6% | 0hPa | 2.7V | 00:00:00 | 01:05:40 | 00:00:00 | |
| IW2NTF | 2026-08-31 23:41:56 | 46.82420 | 7.53252 | 78° | 95km/h | 14125m | 3.5m/s | -56.3°C | 6.5% | 0hPa | 2.8V | 08:30:00 | 01:05:33 | 00:00:00 | |
| HASLITAL | 2026-08-31 23:41:48 | 46.82414 | 7.53218 | 79° | 95km/h | 14121m | 3.7m/s | -56.3°C | 3.3% | 0hPa | 2.8V | 00:00:00 | 00:00:00 | 00:00:00 | |
| DO3MHA-11 | 2026-08-31 23:41:47 | 46.82405 | 7.53150 | 79° | 89km/h | 14113m | 3.8m/s | -56.2°C | 6.4% | 0hPa | 2.8V | 00:00:00 | 01:05:30 | 00:00:00 | |
| DK5PH-5 | 2026-08-31 23:41:46 | 46.82400 | 7.53116 | 80° | 91km/h | 14109m | 4.5m/s | 0°C | 0% | 0hPa | 2.8V | 00:00:00 | 01:05:29 | 00:00:00 | |
| IW2NTF | 2026-08-31 23:41:45 | 46.82376 | 7.52924 | 79° | 88km/h | 14083m | 3.9m/s | -56.3°C | 6.3% | 0hPa | 2.8V | 08:30:00 | 01:05:23 | 00:00:00 | |
| DO3MHA-11 | 2026-08-31 23:41:37 | 46.82363 | 7.52829 | 78° | 89km/h | 14070m | 3.6m/s | -56.6°C | 6.5% | 0hPa | 2.7V | 00:00:00 | 01:05:20 | 00:00:00 | |
| IW2NTF | 2026-08-31 23:41:35 | 46.82340 | 7.52603 | 84° | 91km/h | 14042m | 4.2m/s | -57°C | 6.7% | 0hPa | 2.7V | 08:30:00 | 01:05:13 | 00:00:00 | |
| DO3MHA-12 | 2026-08-31 23:41:31 | 46.82343 | 7.52636 | 84° | 91km/h | 14046m | 3.0m/s | -56.9°C | 6.8% | 0hPa | 2.7V | 00:00:00 | 01:05:14 | 08:30:00 | |
| DH7VM-15 | 2026-08-31 23:41:29 | 46.82340 | 7.52603 | 85° | 91km/h | 14042m | 4.2m/s | -57.0°C | 0% | 0hPa | 2.7V | 00:00:00 | 00:00:00 | 00:00:00 | |
| DO3MHA-11 | 2026-08-31 23:41:28 | 46.82334 | 7.52502 | 84° | 91km/h | 14030m | 4.5m/s | -57.2°C | 6.9% | 0hPa | 2.7V | 00:00:00 | 01:05:10 | 00:00:00 | |
| IW2NTF | 2026-08-31 23:41:26 | 46.82313 | 7.52271 | 82° | 91km/h | 14001m | 3.9m/s | -57.6°C | 7.1% | 0hPa | 2.7V | 08:30:00 | 01:05:03 | 00:00:00 | |
| DL1ZP-14 | 2026-08-31 23:41:25 | 46.82319 | 7.52337 | 82° | 91km/h | 14010m | 4.3m/s | 0°C | -1.0% | -1.0hPa | 2.7V | 00:00:00 | 00:00:00 | 00:00:00 | |
| IW2NTF | 2026-08-31 23:41:13 | 46.82279 | 7.51946 | 78° | 91km/h | 13960m | 4.5m/s | -57.5°C | 7.3% | 0hPa | 2.8V | 08:30:00 | 01:04:53 | 00:00:00 | |
| DO3MHA-11 | 2026-08-31 23:41:07 | 46.82266 | 7.51845 | 81° | 88km/h | 13947m | 4.1m/s | -57.4°C | 7.3% | 0hPa | 2.7V | 00:00:00 | 01:04:50 | 00:00:00 | |
| DK5PH-5 | 2026-08-31 23:41:04 | 46.82253 | 7.51745 | 79° | 99km/h | 13935m | 3.8m/s | 0°C | 0% | 0hPa | 2.7V | 00:00:00 | 01:04:47 | 00:00:00 | |
| IW2NTF | 2026-08-31 23:41:02 | 46.82236 | 7.51623 | 77° | 86km/h | 13920m | 4m/s | -57.3°C | 7.2% | 0hPa | 2.7V | 08:30:00 | 01:04:43 | 00:00:00 | |
| DL1ZP-14 | 2026-08-31 23:40:55 | 46.82208 | 7.51429 | 78° | 91km/h | 13895m | 4.8m/s | 0°C | -1.0% | -1.0hPa | 2.7V | 00:00:00 | 00:00:00 | 00:00:00 | |
| IW2NTF | 2026-08-31 23:40:52 | 46.82191 | 7.51296 | 82° | 91km/h | 13879m | 3m/s | -57.4°C | 7.2% | 0hPa | 2.8V | 08:30:00 | 01:04:33 | 00:00:00 | |
| DO3MHA-11 | 2026-08-31 23:40:47 | 46.82182 | 7.51196 | 84° | 88km/h | 13867m | 4.2m/s | -57.3°C | 7.2% | 0hPa | 2.8V | 00:00:00 | 01:04:30 | 00:00:00 | |
| HASLITAL | 2026-08-31 23:40:46 | 46.82183 | 7.51196 | 84° | 89km/h | 13867m | 4.3m/s | -57.4°C | 3.8% | 0hPa | 2.8V | 00:00:00 | 00:00:00 | 00:00:00 | |
| IW2NTF | 2026-08-31 23:40:45 | 46.82154 | 7.50972 | 78° | 88km/h | 13837m | 3.8m/s | -57.2°C | 7.3% | 0hPa | 2.8V | 08:30:00 | 01:04:23 | 00:00:00 | |
| DO3MHA-11 | 2026-08-31 23:40:37 | 46.82142 | 7.50876 | 81° | 88km/h | 13825m | 3.4m/s | -57.1°C | 7.4% | 0hPa | 2.7V | 00:00:00 | 01:04:20 | 00:00:00 | |
| IW2NTF | 2026-08-31 23:40:36 | 46.82117 | 7.50650 | 77° | 86km/h | 13796m | 4.4m/s | -57.3°C | 7.3% | 0hPa | 2.7V | 08:30:00 | 01:04:13 | 00:00:00 | |
| DO3MHA-11 | 2026-08-31 23:40:27 | 46.82101 | 7.50558 | 76° | 86km/h | 13783m | 4.4m/s | -57.2°C | 7.4% | 0hPa | 2.7V | 00:00:00 | 01:04:10 | 00:00:00 | |
| HASLITAL | 2026-08-31 23:40:26 | 46.82102 | 7.50558 | 77° | 84km/h | 13783m | 4.5m/s | -57.2°C | 3.9% | 0hPa | 2.8V | 00:00:00 | 00:00:00 | 00:00:00 | |
| IW2NTF | 2026-08-31 23:40:25 | 46.82077 | 7.50341 | 82° | 89km/h | 13754m | 4.6m/s | -57°C | 0% | 0hPa | 2.8V | 08:30:00 | 01:04:03 | 00:00:00 | |
| DL1ZP-14 | 2026-08-31 23:40:23 | 46.82086 | 7.50437 | 82° | 84km/h | 13767m | 4.3m/s | 0°C | -1.0% | -1.0hPa | 2.7V | 00:00:00 | 00:00:00 | 00:00:00 | |
| DO3MHA-11 | 2026-08-31 23:40:17 | 46.82066 | 7.50244 | 79° | 89km/h | 13742m | 5.3m/s | -56.9°C | 7.2% | 0hPa | 2.7V | 00:00:00 | 01:04:00 | 00:00:00 | |
| DO3MHA-12 | 2026-08-31 23:40:16 | 46.82062 | 7.50211 | 78° | 89km/h | 13737m | 3.7m/s | -56.9°C | 7.2% | 0hPa | 2.7V | 00:00:00 | 01:03:59 | 00:00:00 | |
| IW2NTF | 2026-08-31 23:40:15 | 46.82040 | 7.50018 | 84° | 89km/h | 13712m | 4.2m/s | -56.8°C | 0% | 0hPa | 2.8V | 08:30:00 | 01:03:53 | 00:00:00 | |
| HASLITAL | 2026-08-31 23:40:07 | 46.82034 | 7.49917 | 86° | 93km/h | 13700m | 4.6m/s | -56.7°C | 3.8% | 0hPa | 2.7V | 00:00:00 | 00:00:00 | 00:00:00 | |
| DO3MHA-12 | 2026-08-31 23:40:06 | 46.82032 | 7.49883 | 84° | 97km/h | 13695m | 4.7m/s | -56.6°C | 7.0% | 0hPa | 2.7V | 00:00:00 | 01:03:49 | 00:00:00 | |
| IW2NTF | 2026-08-31 23:40:04 | 46.82001 | 7.49643 | 80° | 95km/h | 13666m | 3.6m/s | 0°C | 0% | 0hPa | 2.7V | 08:30:00 | 01:03:42 | 00:00:00 | |
| DH7VM-15 | 2026-08-31 23:40:02 | 46.82020 | 7.49779 | 80° | 95km/h | 13682m | 4.3m/s | 0°C | 0% | 0hPa | 2.7V | 00:00:00 | 00:00:00 | 00:00:00 | |
| DO3MHA-11 | 2026-08-31 23:39:57 | 46.81994 | 7.49575 | 85° | 99km/h | 13658m | 4.2m/s | -56.9°C | 7.2% | 0hPa | 2.7V | 00:00:00 | 01:03:40 | 00:00:00 | |
| IW2NTF | 2026-08-31 23:39:54 | 46.81976 | 7.49285 | 81° | 102km/h | 13626m | 4.3m/s | 0°C | 0% | 0hPa | 2.8V | 08:30:00 | 01:03:32 | 00:00:00 | |
| DO3MHA-11 | 2026-08-31 23:39:47 | 46.81969 | 7.49209 | 83° | 102km/h | 13617m | 4.2m/s | -57.6°C | 8.0% | 0hPa | 2.7V | 00:00:00 | 01:03:30 | 00:00:00 | |
| IW2NTF | 2026-08-31 23:39:45 | 46.81947 | 7.48910 | 86° | 100km/h | 13584m | 3.9m/s | 0°C | 0% | 0hPa | 2.7V | 08:30:00 | 01:03:22 | 00:00:00 | |
| DO3MHA-11 | 2026-08-31 23:39:37 | 46.81944 | 7.48835 | 88° | 106km/h | 13577m | 4.7m/s | -57.9°C | 8.5% | 0hPa | 2.7V | 00:00:00 | 01:03:20 | 00:00:00 | |
| DO3MHA-11 | 2026-08-31 23:39:27 | 46.81920 | 7.48444 | 85° | 104km/h | 13536m | 3.4m/s | -58.2°C | 8.9% | 0hPa | 2.7V | 00:00:00 | 01:03:10 | 08:30:00 | |
| HASLITAL | 2026-08-31 23:39:25 | 46.81918 | 7.48404 | 86° | 108km/h | 13532m | 4.2m/s | -58.3°C | 5.2% | 0hPa | 2.7V | 00:00:00 | 00:00:00 | 00:00:00 | |
| DK5PH-5 | 2026-08-31 23:39:24 | 46.81913 | 7.48326 | 86° | 104km/h | 13524m | 3.2m/s | 0°C | 0% | 0hPa | 2.7V | 00:00:00 | 01:03:07 | 00:00:00 | |
| DO3MHA-12 | 2026-08-31 23:39:21 | 46.81905 | 7.48213 | 84° | 102km/h | 13512m | 3.0m/s | -58.2°C | 9.2% | 0hPa | 2.7V | 00:00:00 | 01:03:04 | 00:00:00 | |
| DO3MHA-11 | 2026-08-31 23:39:17 | 46.81893 | 7.48062 | 84° | 104km/h | 13497m | 4.2m/s | -58.2°C | 9.2% | 0hPa | 2.7V | 00:00:00 | 01:03:00 | 00:00:00 | |
| DO3MHA-12 | 2026-08-31 23:39:11 | 46.81877 | 7.47831 | 86° | 102km/h | 13473m | 3.6m/s | -58.3°C | 9.6% | 0hPa | 2.7V | 00:00:00 | 01:02:54 | 00:00:00 | |
| DO3MHA-11 | 2026-08-31 23:39:07 | 46.81866 | 7.47679 | 83° | 100km/h | 13458m | 3.0m/s | -58.3°C | 9.7% | 0hPa | 2.8V | 00:00:00 | 01:02:50 | 00:00:00 | |
| IW2NTF | 2026-08-31 23:39:04 | 46.81840 | 7.47420 | 82° | 99km/h | 13429m | 4m/s | 0°C | 0% | 0hPa | 2.8V | 08:30:00 | 01:02:43 | 00:00:00 | |
| DB0UT-7 | 2026-08-31 23:38:57 | 46.81832 | 7.47312 | 85° | 97km/h | 13417m | 3.9m/s | -58.1°C | 9.6% | 0hPa | 2.8V | 00:00:00 | 00:00:00 | 00:00:00 | |
| DK5PH-5 | 2026-08-31 23:38:54 | 46.81827 | 7.47204 | 86° | 99km/h | 13405m | 3.0m/s | 0°C | 0% | 0hPa | 2.8V | 00:00:00 | 01:02:37 | 00:00:00 | |
| IW2NTF | 2026-08-31 23:38:53 | 46.81815 | 7.47059 | 80° | 99km/h | 13389m | 4.4m/s | 0°C | 0% | 0hPa | 2.8V | 08:30:00 | 01:02:33 | 00:00:00 | |
| DO3MHA-11 | 2026-08-31 23:38:47 | 46.81802 | 7.46951 | 81° | 97km/h | 13378m | 3.9m/s | -57.9°C | 9.4% | 0hPa | 2.7V | 00:00:00 | 01:02:30 | 00:00:00 | |
| HASLITAL | 2026-08-31 23:38:44 | 46.81795 | 7.46878 | 84° | 99km/h | 13371m | 4.8m/s | -58.0°C | 5.6% | 0hPa | 2.7V | 00:00:00 | 00:00:00 | 00:00:00 | |
| DO3MHA-12 | 2026-08-31 23:38:39 | 46.81787 | 7.46666 | 91° | 97km/h | 13347m | 3.8m/s | -57.9°C | 9.5% | 0hPa | 2.7V | 00:00:00 | 01:02:22 | 00:00:00 | |
| DO3MHA-11 | 2026-08-31 23:38:37 | 46.81786 | 7.46596 | 89° | 97km/h | 13340m | 4.6m/s | -57.8°C | 9.6% | 0hPa | 2.7V | 00:00:00 | 01:02:20 | 00:00:00 | |
| IW2NTF | 2026-08-31 23:38:31 | 46.81762 | 7.46345 | 81° | 97km/h | 13313m | 3.7m/s | 0°C | 0% | 0hPa | 2.7V | 08:30:00 | 01:02:13 | 00:00:00 | |
| DO3MHA-12 | 2026-08-31 23:38:29 | 46.81759 | 7.46310 | 83° | 95km/h | 13309m | 4.1m/s | -57.7°C | 9.7% | 0hPa | 2.7V | 00:00:00 | 01:02:12 | 00:00:00 | |
| DO3MHA-11 | 2026-08-31 23:38:27 | 46.81753 | 7.46242 | 85° | 95km/h | 13302m | 3.1m/s | -57.7°C | 9.8% | 0hPa | 2.7V | 00:00:00 | 01:02:10 | 00:00:00 | |
| IW2NTF | 2026-08-31 23:38:25 | 46.81740 | 7.45998 | 82° | 97km/h | 13275m | 3.9m/s | 0°C | 0% | 0hPa | 2.7V | 08:30:00 | 01:02:03 | 00:00:00 | |
| HASLITAL | 2026-08-31 23:38:24 | 46.81749 | 7.46139 | 89° | 97km/h | 13290m | 3.5m/s | -57.7°C | 6.0% | 0hPa | 2.7V | 00:00:00 | 00:00:00 | 00:00:00 | |
| DO3MHA-12 | 2026-08-31 23:38:19 | 46.81737 | 7.45962 | 83° | 97km/h | 13271m | 4.8m/s | -57.7°C | 9.8% | 0hPa | 2.7V | 00:00:00 | 01:02:02 | 08:30:00 | |
| DO3MHA-11 | 2026-08-31 23:38:17 | 46.81730 | 7.45892 | 82° | 97km/h | 13262m | 4.5m/s | -57.8°C | 10.0% | 0hPa | 2.7V | 00:00:00 | 01:02:00 | 00:00:00 | |
| IW2NTF | 2026-08-31 23:38:11 | 46.81714 | 7.45647 | 85° | 99km/h | 13234m | 3.9m/s | 0°C | 0% | 0hPa | 2.7V | 08:30:00 | 01:01:53 | 00:00:00 | |
| DK5PH-5 | 2026-08-31 23:38:11 | 46.81716 | 7.45683 | 86° | 100km/h | 13239m | 5.0m/s | 0°C | 0% | 0hPa | 2.7V | 00:00:00 | 01:01:54 | 00:00:00 | |
| DO3MHA-12 | 2026-08-31 23:38:09 | 46.81712 | 7.45610 | 85° | 99km/h | 13231m | 3.2m/s | -58.1°C | 10.5% | 0hPa | 2.7V | 00:00:00 | 01:01:52 | 00:00:00 | |
| IW2NTF | 2026-08-31 23:38:05 | 46.81683 | 7.45253 | 84° | 97km/h | 13189m | 4.9m/s | 0°C | 0% | 0hPa | 2.7V | 08:30:00 | 01:01:42 | 00:00:00 | |
| HASLITAL | 2026-08-31 23:38:03 | 46.81694 | 7.45395 | 82° | 97km/h | 13206m | 3.7m/s | -58.0°C | 6.4% | 0hPa | 2.7V | 00:00:00 | 00:00:00 | 00:00:00 | |
| DO3MHA-12 | 2026-08-31 23:37:59 | 46.81683 | 7.45253 | 85° | 99km/h | 13190m | 4.8m/s | -57.9°C | 10.3% | 0hPa | 2.7V | 00:00:00 | 01:01:42 | 00:00:00 | |
| DB0UT-7 | 2026-08-31 23:37:57 | 46.81678 | 7.45183 | 83° | 99km/h | 13181m | 3.1m/s | -57.8°C | 10.4% | 0hPa | 2.7V | 00:00:00 | 00:00:00 | 00:00:00 | |
| DO3MHA-12 | 2026-08-31 23:37:49 | 46.81653 | 7.44892 | 85° | 97km/h | 13148m | 3.6m/s | -57.9°C | 10.5% | 0hPa | 2.7V | 00:00:00 | 01:01:32 | 00:00:00 | |
| DO3MHA-11 | 2026-08-31 23:37:47 | 46.81648 | 7.44819 | 85° | 97km/h | 13139m | 4.4m/s | -58.0°C | 10.5% | 0hPa | 2.7V | 00:00:00 | 01:01:30 | 00:00:00 | |
| HASLITAL | 2026-08-31 23:37:41 | 46.81640 | 7.44643 | 86° | 93km/h | 13119m | 4.4m/s | -58.3°C | 6.7% | 0hPa | 2.7V | 00:00:00 | 00:00:00 | 00:00:00 | |
| DO3MHA-12 | 2026-08-31 23:37:39 | 46.81633 | 7.44538 | 85° | 102km/h | 13107m | 4.4m/s | -58.2°C | 10.7% | 0hPa | 2.7V | 00:00:00 | 01:01:22 | 00:00:00 | |
| DO3MHA-11 | 2026-08-31 23:37:37 | 46.81628 | 7.44462 | 85° | 100km/h | 13098m | 4.8m/s | -58.2°C | 10.7% | 0hPa | 2.7V | 00:00:00 | 01:01:20 | 00:00:00 | |
| DO3MHA-12 | 2026-08-31 23:37:29 | 46.81611 | 7.44167 | 84° | 99km/h | 13063m | 2.3m/s | -58.3°C | 10.8% | 0hPa | 2.7V | 00:00:00 | 01:01:12 | 00:00:00 | |
| DO3MHA-11 | 2026-08-31 23:37:27 | 46.81605 | 7.44098 | 83° | 100km/h | 13055m | 5.0m/s | -58.5°C | 11.0% | 0hPa | 2.7V | 00:00:00 | 01:01:10 | 00:00:00 | |
| HASLITAL | 2026-08-31 23:37:21 | 46.81586 | 7.43914 | 85° | 102km/h | 13033m | 5.4m/s | -58.4°C | 6.9% | 0hPa | 2.7V | 00:00:00 | 00:00:00 | 00:00:00 | |
| DO3MHA-11 | 2026-08-31 23:37:17 | 46.81575 | 7.43734 | 83° | 100km/h | 13012m | 4.9m/s | -58.1°C | 11.1% | 0hPa | 2.7V | 00:00:00 | 01:01:00 | 00:00:00 | |
| DO3MHA-12 | 2026-08-31 23:37:09 | 46.81532 | 7.43447 | 84° | 108km/h | 12976m | 4.1m/s | -57.8°C | 10.8% | 0hPa | 2.7V | 00:00:00 | 01:00:52 | 00:00:00 | |
| DO3MHA-11 | 2026-08-31 23:37:07 | 46.81528 | 7.43366 | 88° | 108km/h | 12966m | 5.0m/s | -57.7°C | 10.7% | 0hPa | 2.7V | 00:00:00 | 01:00:50 | 00:00:00 | |
| HASLITAL | 2026-08-31 23:37:01 | 46.81519 | 7.43167 | 84° | 106km/h | 12943m | 4.6m/s | -57.6°C | 7.4% | 0hPa | 2.7V | 00:00:00 | 00:00:00 | 00:00:00 | |
| DO3MHA-12 | 2026-08-31 23:36:59 | 46.81507 | 7.43051 | 80° | 102km/h | 12928m | 5.0m/s | -57.4°C | 11.7% | 0hPa | 2.7V | 00:00:00 | 01:00:42 | 00:00:00 | |
| DO3MHA-11 | 2026-08-31 23:36:57 | 46.81496 | 7.42974 | 77° | 104km/h | 12920m | 5.6m/s | -57.3°C | 11.2% | 0hPa | 2.7V | 00:00:00 | 01:00:40 | 00:00:00 | |
| DO3MHA-12 | 2026-08-31 23:36:49 | 46.81465 | 7.42680 | 86° | 110km/h | 12883m | 4.2m/s | -57.0°C | 11.9% | 0hPa | 2.7V | 00:00:00 | 01:00:32 | 08:30:00 | |
| DO3MHA-11 | 2026-08-31 23:36:47 | 46.81459 | 7.42597 | 82° | 110km/h | 12874m | 5.3m/s | -56.9°C | 11.9% | 0hPa | 2.8V | 00:00:00 | 01:00:30 | 00:00:00 | |
| IW2NTF | 2026-08-31 23:36:41 | 46.81416 | 7.42241 | 81° | 108km/h | 12829m | 4.6m/s | 0°C | 0% | 0hPa | 2.8V | 08:30:00 | 01:00:21 | 00:00:00 | |
| HASLITAL | 2026-08-31 23:36:40 | 46.81429 | 7.42357 | 81° | 108km/h | 12842m | 6.5m/s | -56.7°C | 8.2% | 0hPa | 2.7V | 00:00:00 | 00:00:00 | 00:00:00 | |
| DO3MHA-12 | 2026-08-31 23:36:39 | 46.81420 | 7.42280 | 81° | 113km/h | 12832m | 1.9m/s | -56.6°C | 12.5% | 0hPa | 2.7V | 00:00:00 | 01:00:22 | 00:00:00 | |
| DO3MHA-11 | 2026-08-31 23:36:37 | 46.81412 | 7.42201 | 82° | 115km/h | 12824m | 4.7m/s | -56.6°C | 12.7% | 0hPa | 2.7V | 00:00:00 | 01:00:20 | 00:00:00 | |
| IW2NTF | 2026-08-31 23:36:34 | 46.81367 | 7.41824 | 80° | 119km/h | 12785m | 4.3m/s | 0°C | 0% | 0hPa | 2.7V | 00:00:00 | 01:00:11 | 00:00:00 | |
| DB0UT-7 | 2026-08-31 23:36:27 | 46.81362 | 7.41782 | 81° | 115km/h | 12781m | 4.1m/s | -57.0°C | 13.7% | 0hPa | 2.7V | 00:00:00 | 01:00:10 | 00:00:00 | |
| HASLITAL | 2026-08-31 23:36:20 | 46.81331 | 7.41524 | 81° | 117km/h | 12755m | 4.7m/s | -57.2°C | 9.9% | 0hPa | 2.7V | 00:00:00 | 00:00:00 | 00:00:00 | |
| IW2NTF | 2026-08-31 23:36:19 | 46.81318 | 7.41396 | 82° | 115km/h | 12741m | 4.9m/s | 0°C | 0% | 0hPa | 2.7V | 00:00:00 | 01:00:01 | 00:00:00 | |
| DO3MHA-11 | 2026-08-31 23:36:17 | 46.81314 | 7.41354 | 84° | 115km/h | 12737m | 3.2m/s | -57.2°C | 14.9% | 0hPa | 2.7V | 00:00:00 | 01:00:00 | 00:00:00 | |
| DO3MHA-11 | 2026-08-31 23:36:07 | 46.81282 | 7.40938 | 84° | 111km/h | 12696m | 4.7m/s | -57.6°C | 16.6% | 0hPa | 2.7V | 00:00:00 | 00:59:50 | 00:00:00 | |
| IW2NTF | 2026-08-31 23:36:03 | 46.81263 | 7.40652 | 85° | 111km/h | 12667m | 3.5m/s | 0°C | 0% | 0hPa | 2.7V | 00:00:00 | 00:59:43 | 00:00:00 | |
| HASLITAL | 2026-08-31 23:35:59 | 46.81262 | 7.40652 | 86° | 111km/h | 12667m | 3.5m/s | -57.6°C | 12.1% | 0hPa | 2.7V | 00:00:00 | 00:00:00 | 00:00:00 | |
| DB0UT-7 | 2026-08-31 23:35:57 | 46.81253 | 7.40529 | 82° | 108km/h | 12655m | 4.2m/s | -57.5°C | 16.9% | 0hPa | 2.7V | 00:00:00 | 00:00:00 | 00:00:00 | |
| DO3MHA-11 | 2026-08-31 23:35:54 | 46.81239 | 7.40408 | 79° | 110km/h | 12642m | 4.1m/s | -57.5°C | 17.0% | 0hPa | 2.7V | 00:00:00 | 00:59:37 | 00:00:00 | |
| IW2NTF | 2026-08-31 23:35:53 | 46.81218 | 7.40255 | 80° | 106km/h | 12625m | 3.7m/s | 0°C | 0% | 0hPa | 2.8V | 00:00:00 | 00:59:33 | 00:00:00 | |
| IW2NTF | 2026-08-31 23:35:43 | 46.81186 | 7.39851 | 78° | 104km/h | 12584m | 6.5m/s | 0°C | 0% | 0hPa | 2.7V | 00:00:00 | 00:59:23 | 00:00:00 | |
| DO3MHA-11 | 2026-08-31 23:35:43 | 46.81198 | 7.39968 | 85° | 106km/h | 12596m | 4.7m/s | -57.3°C | 19.0% | 0hPa | 2.7V | 00:00:00 | 00:59:26 | 00:00:00 | |
| HASLITAL | 2026-08-31 23:35:39 | 46.81186 | 7.39851 | 79° | 104km/h | 12584m | 6.6m/s | -57.3°C | 13.6% | 0hPa | 2.7V | 00:00:00 | 00:00:00 | 00:00:00 | |
| DO3MHA-11 | 2026-08-31 23:35:33 | 46.81162 | 7.39581 | 90° | 108km/h | 12544m | 7.2m/s | -57.5°C | 20.6% | 0hPa | 2.7V | 00:00:00 | 00:59:16 | 00:00:00 | |
| IW2NTF | 2026-08-31 23:35:30 | 46.81150 | 7.39263 | 81° | 115km/h | 12490m | 6.3m/s | 0°C | 0% | 0hPa | 2.7V | 00:00:00 | 00:59:08 | 00:00:00 | |
| DB0UT-7 | 2026-08-31 23:35:27 | 46.81157 | 7.39348 | 85° | 108km/h | 12500m | 7.4m/s | -57.5°C | 23.0% | 0hPa | 2.7V | 00:00:00 | 00:59:10 | 00:00:00 | |
| DO3MHA-11 | 2026-08-31 23:35:23 | 46.81143 | 7.39182 | 85° | 100km/h | 12479m | 5.3m/s | -57.7°C | 24.4% | 0hPa | 2.7V | 00:00:00 | 00:59:06 | 00:00:00 | |
| HASLITAL | 2026-08-31 23:35:18 | 46.81144 | 7.39034 | 97° | 99km/h | 12457m | 6.6m/s | -57.8°C | 18.1% | 0hPa | 2.7V | 00:00:00 | 00:00:00 | 00:00:00 | |
| DO3MHA-11 | 2026-08-31 23:35:13 | 46.81131 | 7.38804 | 78° | 111km/h | 12418m | 8.0m/s | -57.6°C | 25.7% | 0hPa | 2.7V | 00:00:00 | 00:58:56 | 00:00:00 | |
| IW2NTF | 2026-08-31 23:35:11 | 46.81092 | 7.38482 | 77° | 111km/h | 12366m | 7.1m/s | 0°C | 0% | 0hPa | 2.7V | 00:00:00 | 00:58:48 | 00:00:00 | |
| DB0ND-19 | 2026-08-31 23:35:06 | 46.81024 | 7.37977 | 78° | 100km/h | 12289m | 4.7m/s | 0°C | -1.0% | -1.0hPa | 2.8V | 00:00:00 | 00:00:00 | 00:00:00 | |
| DO3MHA-11 | 2026-08-31 23:35:01 | 46.81067 | 7.38323 | 77° | 100km/h | 12343m | 7.0m/s | -57.6°C | 29.6% | 0hPa | 2.8V | 00:00:00 | 00:58:44 | 00:00:00 | |
| IW2NTF | 2026-08-31 23:34:58 | 46.81029 | 7.38014 | 78° | 102km/h | 12294m | 6.1m/s | 0°C | 0% | 0hPa | 2.8V | 00:00:00 | 00:58:36 | 00:00:00 | |
| DB0UT-7 | 2026-08-31 23:34:57 | 46.81046 | 7.38165 | 81° | 100km/h | 12319m | 3.5m/s | -57.8°C | 31.7% | 0hPa | 2.7V | 00:00:00 | 00:00:00 | 08:30:00 | |
| HASLITAL | 2026-08-31 23:34:37 | 46.80959 | 7.37466 | 81° | 93km/h | 12201m | 6.7m/s | -59.2°C | 0% | 0hPa | 2.7V | 00:00:00 | 00:00:00 | 00:00:00 | |
| DB0UT-7 | 2026-08-31 23:34:27 | 46.80904 | 7.37084 | 72° | 91km/h | 12138m | 9.1m/s | -58.8°C | 40.0% | 0hPa | 2.7V | 00:00:00 | 00:58:10 | 00:00:00 | |
| DO3MHA-12 | 2026-08-31 23:34:25 | 46.80889 | 7.37016 | 73° | 91km/h | 12126m | 5.6m/s | -58.7°C | 40.8% | 0hPa | 2.7V | 00:00:00 | 00:58:08 | 00:00:00 | |
| DO3MHA-11 | 2026-08-31 23:34:23 | 46.80875 | 7.36949 | 75° | 91km/h | 12114m | 4.6m/s | -58.6°C | 40.7% | 0hPa | 2.7V | 00:00:00 | 00:58:06 | 08:30:00 | |
| HASLITAL | 2026-08-31 23:34:17 | 46.80846 | 7.36792 | 76° | 89km/h | 12084m | 3.8m/s | -58.5°C | 0% | 0hPa | 2.7V | 00:00:00 | 00:00:00 | 00:00:00 | |
| DO3MHA-12 | 2026-08-31 23:34:15 | 46.80829 | 7.36693 | 77° | 89km/h | 12066m | 4.1m/s | -58.4°C | 41.2% | 0hPa | 2.7V | 00:00:00 | 00:57:58 | 00:00:00 | |
| DO3MHA-11 | 2026-08-31 23:34:13 | 46.80818 | 7.36626 | 76° | 88km/h | 12055m | 6.7m/s | -58.4°C | 40.8% | 0hPa | 2.7V | 00:00:00 | 00:57:56 | 00:00:00 | |
| DO3MHA-12 | 2026-08-31 23:34:05 | 46.80770 | 7.36378 | 81° | 89km/h | 12009m | 8.6m/s | 0°C | 0% | 0hPa | 2.7V | 00:00:00 | 00:57:48 | 00:00:00 | |
| IW2NTF | 2026-08-31 23:34:03 | 46.80753 | 7.36210 | 82° | 95km/h | 11980m | 7.5m/s | 0°C | 0% | 0hPa | 2.7V | 00:00:00 | 00:57:43 | 00:00:00 | |
| DO3MHA-11 | 2026-08-31 23:34:03 | 46.80763 | 7.36312 | 82° | 86km/h | 11998m | 7.1m/s | -58.6°C | 42.8% | 0hPa | 2.7V | 00:00:00 | 00:57:46 | 00:00:00 | |
| DB0UT-7 | 2026-08-31 23:33:57 | 46.80743 | 7.36114 | 80° | 84km/h | 11962m | 6.8m/s | -58.4°C | 41.8% | 0hPa | 2.7V | 00:00:00 | 00:00:00 | 00:00:00 | |
| HASLITAL | 2026-08-31 23:33:56 | 46.80743 | 7.36114 | 80° | 82km/h | 11962m | 6.8m/s | -58.4°C | 0% | 0hPa | 2.7V | 00:00:00 | 00:00:00 | 00:00:00 | |
| DO3MHA-12 | 2026-08-31 23:33:55 | 46.80734 | 7.36058 | 75° | 80km/h | 11949m | 6.9m/s | 0°C | 0% | 0hPa | 2.7V | 00:00:00 | 00:57:38 | 00:00:00 | |
| DO3MHA-11 | 2026-08-31 23:33:53 | 46.80723 | 7.36003 | 76° | 82km/h | 11937m | 5.0m/s | -58.3°C | 41.9% | 0hPa | 2.7V | 00:00:00 | 00:57:36 | 00:00:00 | |
| DO3MHA-12 | 2026-08-31 23:33:45 | 46.80692 | 7.35764 | 79° | 86km/h | 11888m | 8.9m/s | 0°C | 0% | 0hPa | 2.9V | 00:00:00 | 00:57:28 | 00:00:00 | |
| IW2NTF | 2026-08-31 23:33:43 | 46.80672 | 7.35645 | 75° | 86km/h | 11863m | 4.6m/s | 0°C | 0% | 0hPa | 2.9V | 00:00:00 | 00:57:24 | 00:00:00 | |
| DH7VM-15 | 2026-08-31 23:33:37 | 46.80655 | 7.35552 | 76° | 88km/h | 11848m | 4.6m/s | 0°C | 0% | 0hPa | 2.9V | 00:00:00 | 00:00:00 | 00:00:00 | |
| IW2NTF | 2026-08-31 23:33:34 | 46.80613 | 7.35338 | 75° | 80km/h | 11804m | 5.6m/s | 0°C | 0% | 0hPa | 2.9V | 00:00:00 | 00:57:14 | 00:00:00 | |
| DO3MHA-11 | 2026-08-31 23:33:33 | 46.80624 | 7.35397 | 75° | 84km/h | 11816m | 4.4m/s | -57.6°C | 38.7% | 0hPa | 2.7V | 00:00:00 | 00:57:16 | 00:00:00 | |
| DB0UT-7 | 2026-08-31 23:33:27 | 46.80590 | 7.35222 | 74° | 82km/h | 11783m | 2.8m/s | -57.4°C | 37.9% | 0hPa | 2.7V | 00:00:00 | 00:57:10 | 00:00:00 | |
| DO3MHA-11 | 2026-08-31 23:33:23 | 46.80569 | 7.35097 | 77° | 80km/h | 11763m | 5.7m/s | -57.2°C | 36.2% | 0hPa | 2.7V | 00:00:00 | 00:57:06 | 00:00:00 | |
| HASLITAL | 2026-08-31 23:33:14 | 46.80518 | 7.34863 | 77° | 75km/h | 11719m | 4.9m/s | 0°C | 0% | 0hPa | 2.7V | 00:00:00 | 00:00:00 | 00:00:00 | |
| DO3MHA-11 | 2026-08-31 23:33:12 | 46.80504 | 7.34785 | 73° | 82km/h | 11701m | 2.9m/s | -57.1°C | 35.5% | 0hPa | 2.7V | 00:00:00 | 00:56:55 | 00:00:00 | |
| DO3MHA-11 | 2026-08-31 23:33:02 | 46.80439 | 7.34498 | 70° | 77km/h | 11643m | 4.8m/s | -56.8°C | 33.4% | 0hPa | 2.7V | 00:00:00 | 00:56:45 | 00:00:00 | |
| DB0ND-19 | 2026-08-31 23:33:01 | 46.80433 | 7.34473 | 68° | 71km/h | 11637m | 7.4m/s | 0°C | -1.0% | -1.0hPa | 2.7V | 00:00:00 | 00:00:00 | 00:00:00 | |
| DB0UT-7 | 2026-08-31 23:32:57 | 46.80409 | 7.34363 | 77° | 75km/h | 11612m | 6.5m/s | -56.5°C | 32.7% | 0hPa | 2.7V | 00:00:00 | 00:00:00 | 00:00:00 | |
| HASLITAL | 2026-08-31 23:32:53 | 46.80398 | 7.34276 | 82° | 77km/h | 11596m | 4.1m/s | 0°C | 0% | 0hPa | 2.7V | 00:00:00 | 00:00:00 | 00:00:00 | |
| DO3MHA-11 | 2026-08-31 23:32:52 | 46.80392 | 7.34222 | 81° | 73km/h | 11585m | 4.8m/s | -56.3°C | 32.8% | 0hPa | 2.7V | 00:00:00 | 00:56:35 | 08:30:00 | |
| DO3MHA-11 | 2026-08-31 23:32:42 | 46.80343 | 7.33962 | 74° | 75km/h | 11530m | 6.2m/s | -55.9°C | 35.1% | 0hPa | 2.9V | 00:00:00 | 00:56:25 | 00:00:00 | |
| DO3MHA-11 | 2026-08-31 23:32:32 | 46.80286 | 7.33696 | 74° | 75km/h | 11471m | 8.4m/s | -55.4°C | 36.1% | 0hPa | 2.9V | 00:00:00 | 00:56:15 | 00:00:00 | |
| DB0UT-7 | 2026-08-31 23:32:27 | 46.80264 | 7.33562 | 79° | 73km/h | 11441m | 7.8m/s | -55.2°C | 35.6% | 0hPa | 2.9V | 00:00:00 | 00:56:10 | 00:00:00 | |
| DO3MHA-11 | 2026-08-31 23:32:22 | 46.80243 | 7.33430 | 74° | 77km/h | 11413m | 8.0m/s | -54.9°C | 35.4% | 0hPa | 2.9V | 00:00:00 | 00:56:05 | 00:00:00 | |
| DO3MHA-12 | 2026-08-31 23:32:21 | 46.80238 | 7.33404 | 73° | 77km/h | 11406m | 5.8m/s | 0°C | 0% | 0hPa | 2.9V | 00:00:00 | 00:56:04 | 08:30:00 | |
| DH7VM-15 | 2026-08-31 23:32:19 | 46.80231 | 7.33378 | 72° | 73km/h | 11401m | 4.5m/s | 0°C | 0% | 0hPa | 2.9V | 00:00:00 | 00:00:00 | 00:00:00 | |
| DO3MHA-11 | 2026-08-31 23:32:12 | 46.80184 | 7.33165 | 78° | 71km/h | 11354m | 4.6m/s | -54.4°C | 34.8% | 0hPa | 2.9V | 00:00:00 | 00:55:55 | 00:00:00 | |
| DO3MHA-12 | 2026-08-31 23:32:11 | 46.80179 | 7.33139 | 76° | 75km/h | 11348m | 6.7m/s | 0°C | 0% | 0hPa | 2.9V | 00:00:00 | 00:55:54 | 00:00:00 | |
| DO3MHA-11 | 2026-08-31 23:32:02 | 46.80125 | 7.32919 | 74° | 66km/h | 11296m | 4.2m/s | -53.9°C | 33.5% | 0hPa | 2.9V | 00:00:00 | 00:55:45 | 00:00:00 | |
| DO3MHA-12 | 2026-08-31 23:32:00 | 46.80116 | 7.32865 | 79° | 64km/h | 11282m | 5.7m/s | 0°C | 0% | 0hPa | 2.9V | 00:00:00 | 00:55:43 | 00:00:00 | |
| DB0UT-7 | 2026-08-31 23:31:57 | 46.80106 | 7.32792 | 77° | 68km/h | 11265m | 3.8m/s | -53.6°C | 33.0% | 0hPa | 2.9V | 00:00:00 | 00:00:00 | 00:00:00 | |
| DO3MHA-11 | 2026-08-31 23:31:52 | 46.80083 | 7.32689 | 68° | 68km/h | 11233m | 5.7m/s | -53.4°C | 32.7% | 0hPa | 2.7V | 00:00:00 | 00:55:35 | 00:00:00 | |
| HASLITAL | 2026-08-31 23:31:51 | 46.80083 | 7.32689 | 69° | 62km/h | 11233m | 5.8m/s | 0°C | 0% | 0hPa | 2.7V | 00:00:00 | 00:00:00 | 00:00:00 | |
| DO3MHA-12 | 2026-08-31 23:31:49 | 46.80066 | 7.32619 | 74° | 68km/h | 11215m | 5.1m/s | 0°C | 0% | 0hPa | 2.7V | 00:00:00 | 00:55:32 | 00:00:00 | |
| DO3MHA-11 | 2026-08-31 23:31:41 | 46.80038 | 7.32422 | 74° | 69km/h | 11165m | 3.2m/s | -52.9°C | 31.6% | 0hPa | 2.7V | 00:00:00 | 00:55:24 | 00:00:00 | |
| DO3MHA-12 | 2026-08-31 23:31:39 | 46.80028 | 7.32376 | 71° | 71km/h | 11151m | 5.5m/s | 0°C | 0% | 0hPa | 2.7V | 00:00:00 | 00:55:22 | 00:00:00 | |
| DO3MHA-11 | 2026-08-31 23:31:31 | 46.79997 | 7.32172 | 79° | 71km/h | 11113m | 4.7m/s | -52.3°C | 29.5% | 0hPa | 2.7V | 00:00:00 | 00:55:14 | 00:00:00 | |
| HASLITAL | 2026-08-31 23:31:30 | 46.79997 | 7.32172 | 80° | 69km/h | 11113m | 4.7m/s | 0°C | 0% | 0hPa | 2.7V | 00:00:00 | 00:00:00 | 00:00:00 | |
| DB0UT-7 | 2026-08-31 23:31:27 | 46.79978 | 7.32070 | 73° | 71km/h | 11088m | 8.2m/s | -52.1°C | 28.9% | 0hPa | 2.7V | 00:00:00 | 00:55:10 | 00:00:00 | |
| DO3MHA-11 | 2026-08-31 23:31:21 | 46.79946 | 7.31921 | 71° | 73km/h | 11054m | 4.6m/s | -51.9°C | 27.7% | 0hPa | 2.7V | 00:00:00 | 00:55:04 | 08:30:00 | |
| DO3MHA-12 | 2026-08-31 23:31:19 | 46.79935 | 7.31874 | 72° | 75km/h | 11040m | 7.2m/s | 0°C | 0% | 0hPa | 2.9V | 00:00:00 | 00:55:02 | 00:00:00 | |
| DO3MHA-11 | 2026-08-31 23:31:11 | 46.79907 | 7.31656 | 79° | 71km/h | 10996m | 7.0m/s | 0°C | 0% | 0hPa | 2.9V | 00:00:00 | 00:54:54 | 00:00:00 | |
| DO3MHA-12 | 2026-08-31 23:31:09 | 46.79898 | 7.31602 | 75° | 71km/h | 10982m | 5.0m/s | 0°C | 0% | 0hPa | 2.9V | 00:00:00 | 00:54:52 | 00:00:00 | |
| DO3MHA-11 | 2026-08-31 23:31:01 | 46.79874 | 7.31400 | 90° | 71km/h | 10934m | 5.1m/s | 0°C | 0% | 0hPa | 2.9V | 00:00:00 | 00:54:44 | 00:00:00 | |
| IW2NTF | 2026-08-31 23:31:00 | 46.79869 | 7.31321 | 79° | 73km/h | 10916m | 5.5m/s | 0°C | 0% | 0hPa | 2.9V | 00:00:00 | 00:54:41 | 00:00:00 | |
| DO3MHA-12 | 2026-08-31 23:30:59 | 46.79871 | 7.31348 | 84° | 71km/h | 10923m | 7.9m/s | 0°C | 0% | 0hPa | 2.9V | 00:00:00 | 00:54:42 | 00:00:00 | |
| DB0UT-7 | 2026-08-31 23:30:57 | 46.79865 | 7.31295 | 79° | 73km/h | 10912m | 3.8m/s | -51.2°C | 27.7% | 0hPa | 2.9V | 00:00:00 | 00:00:00 | 00:00:00 | |
| DO3MHA-11 | 2026-08-31 23:30:51 | 46.79849 | 7.31138 | 86° | 75km/h | 10878m | 6.7m/s | 0°C | 0% | 0hPa | 2.9V | 00:00:00 | 00:54:34 | 00:00:00 | |
| DO3MHA-12 | 2026-08-31 23:30:49 | 46.79847 | 7.31086 | 87° | 75km/h | 10867m | 6.3m/s | 0°C | 0% | 0hPa | 2.9V | 00:00:00 | 00:54:32 | 00:00:00 | |
| HASLITAL | 2026-08-31 23:30:47 | 46.79846 | 7.31061 | 88° | 71km/h | 10861m | 6.9m/s | 0°C | 0% | 0hPa | 2.9V | 00:00:00 | 00:00:00 | 00:00:00 | |
| DO3MHA-11 | 2026-08-31 23:30:41 | 46.79828 | 7.30864 | 86° | 77km/h | 10827m | 4.8m/s | 0°C | 0% | 0hPa | 2.9V | 00:00:00 | 00:54:24 | 00:00:00 | |
| DO3MHA-11 | 2026-08-31 23:30:31 | 46.79798 | 7.30592 | 81° | 68km/h | 10772m | 7.5m/s | 0°C | 0% | 0hPa | 2.9V | 00:00:00 | 00:54:14 | 00:00:00 | |
| DB0UT-7 | 2026-08-31 23:30:27 | 46.79793 | 7.30499 | 89° | 71km/h | 10750m | 5.6m/s | -49.8°C | 29.3% | 0hPa | 2.9V | 00:00:00 | 00:54:10 | 08:30:00 | |
| IW2NTF | 2026-08-31 23:30:23 | 46.79786 | 7.30338 | 77° | 75km/h | 10716m | 6.1m/s | 0°C | 0% | 0hPa | 2.9V | 00:00:00 | 00:54:04 | 00:00:00 | |
| IW2NTF | 2026-08-31 23:30:14 | 46.79762 | 7.30079 | 81° | 68km/h | 10659m | 8.2m/s | 0°C | 0% | 0hPa | 2.9V | 00:00:00 | 00:53:54 | 00:00:00 | |
| DO3MHA-11 | 2026-08-31 23:30:11 | 46.79762 | 7.30079 | 82° | 69km/h | 10659m | 8.1m/s | 0°C | 0% | 0hPa | 2.9V | 00:00:00 | 00:53:54 | 00:00:00 | |
| IW2NTF | 2026-08-31 23:30:03 | 46.79725 | 7.29827 | 87° | 73km/h | 10602m | 3.6m/s | 0°C | 0% | 0hPa | 2.9V | 00:00:00 | 00:53:44 | 00:00:00 | |
| DO3MHA-11 | 2026-08-31 23:30:01 | 46.79725 | 7.29827 | 88° | 73km/h | 10602m | 3.6m/s | 0°C | 0% | 0hPa | 2.9V | 00:00:00 | 00:53:44 | 00:00:00 | |
| DB0UT-7 | 2026-08-31 23:29:57 | 46.79717 | 7.29719 | 80° | 73km/h | 10578m | 8.2m/s | -48.3°C | 29.1% | 0hPa | 2.9V | 00:00:00 | 00:00:00 | 00:00:00 | |
| IW2NTF | 2026-08-31 23:29:53 | 46.79693 | 7.29559 | 82° | 77km/h | 10544m | 6.2m/s | 0°C | 0% | 0hPa | 2.9V | 00:00:00 | 00:53:34 | 00:00:00 | |
| DO3MHA-11 | 2026-08-31 23:29:51 | 46.79693 | 7.29559 | 83° | 73km/h | 10544m | 6.1m/s | 0°C | 0% | 0hPa | 2.9V | 00:00:00 | 00:53:34 | 08:30:00 | |
| IW2NTF | 2026-08-31 23:29:43 | 46.79677 | 7.29306 | 75° | 71km/h | 10485m | 5.5m/s | 0°C | 0% | 0hPa | 2.9V | 00:00:00 | 00:53:24 | 00:00:00 | |
| DH7VM-15 | 2026-08-31 23:29:39 | 46.79672 | 7.29280 | 78° | 73km/h | 10480m | 4.1m/s | 0°C | 0% | 0hPa | 2.8V | 00:00:00 | 00:00:00 | 00:00:00 | |
| HASLITAL | 2026-08-31 23:29:35 | 46.79659 | 7.29173 | 85° | 75km/h | 10456m | 7.6m/s | 0°C | 0% | 0hPa | 2.8V | 00:00:00 | 00:00:00 | 00:00:00 | |
| IW2NTF | 2026-08-31 23:29:33 | 46.79656 | 7.29032 | 90° | 77km/h | 10428m | 2.5m/s | 0°C | 0% | 0hPa | 2.8V | 00:00:00 | 00:53:14 | 00:00:00 | |
| DB0UT-7 | 2026-08-31 23:29:27 | 46.79656 | 7.28923 | 91° | 73km/h | 10410m | 6.6m/s | -46.8°C | 29.1% | 0hPa | 2.8V | 00:00:00 | 00:53:10 | 00:00:00 | |
| IW2NTF | 2026-08-31 23:29:24 | 46.79644 | 7.28772 | 76° | 71km/h | 10376m | 5.1m/s | 0°C | 0% | 0hPa | 2.8V | 00:00:00 | 00:53:04 | 00:00:00 | |
| IW2NTF | 2026-08-31 23:29:13 | 46.79601 | 7.28462 | 81° | 82km/h | 10307m | 6m/s | 0°C | 0% | 0hPa | 2.8V | 00:00:00 | 00:52:52 | 00:00:00 | |
| DB0UT-7 | 2026-08-31 23:28:57 | 46.79568 | 7.28132 | 76° | 75km/h | 10240m | 3.6m/s | -45.4°C | 31.0% | 0hPa | 2.7V | 00:00:00 | 00:00:00 | 00:00:00 | |
| IW2NTF | 2026-08-31 23:28:36 | 46.79468 | 7.27521 | 81° | 82km/h | 10115m | 5.2m/s | 0°C | 0% | 0hPa | 2.8V | 00:00:00 | 00:52:17 | 00:00:00 | |
| IW2NTF | 2026-08-31 23:28:29 | 46.79440 | 7.27238 | 86° | 75km/h | 10057m | 7m/s | 0°C | 0% | 0hPa | 2.9V | 00:00:00 | 00:52:07 | 00:00:00 | |
| DB0UT-7 | 2026-08-31 23:28:27 | 46.79445 | 7.27317 | 83° | 73km/h | 10075m | 7.2m/s | -44.2°C | 36.0% | 0hPa | 2.7V | 00:00:00 | 00:52:10 | 00:00:00 | |
| DB0ND-19 | 2026-08-31 23:28:22 | 46.79396 | 7.26593 | 84° | 73km/h | 9916m | 5.2m/s | -42.9°C | -1.0% | -1.0hPa | 2.7V | 00:00:00 | 00:00:00 | 00:00:00 | |
| DB0UT-7 | 2026-08-31 23:27:57 | 46.79388 | 7.26515 | 79° | 75km/h | 9897m | 4.7m/s | -42.6°C | 32.6% | 0hPa | 2.7V | 00:00:00 | 00:00:00 | 00:00:00 | |
| DB0UT-7 | 2026-08-31 23:27:27 | 46.79359 | 7.25688 | 89° | 75km/h | 9724m | 4.5m/s | -41.0°C | 25.7% | 0hPa | 2.7V | 00:00:00 | 00:51:10 | 00:00:00 | |
| DB0UT-7 | 2026-08-31 23:26:57 | 46.79325 | 7.24865 | 94° | 77km/h | 9547m | 5.7m/s | -39.4°C | 23.7% | 0hPa | 2.7V | 00:00:00 | 00:00:00 | 00:00:00 | |
| DB0ND-19 | 2026-08-31 23:26:49 | 46.79312 | 7.24181 | 94° | 73km/h | 9400m | 7.0m/s | -38.4°C | -1.0% | -1.0hPa | 2.7V | 00:00:00 | 00:00:00 | 00:00:00 | |
| DB0UT-7 | 2026-08-31 23:26:27 | 46.79312 | 7.24023 | 92° | 82km/h | 9374m | 2.3m/s | -38.2°C | 23.9% | 0hPa | 2.7V | 00:00:00 | 00:50:10 | 00:00:00 | |
| DB0ND-19 | 2026-08-31 23:26:18 | 46.79326 | 7.23675 | 88° | 77km/h | 9306m | 4.1m/s | -37.7°C | -1.0% | -1.0hPa | 2.7V | 00:00:00 | 00:00:00 | 00:00:00 | |
| DB0UT-7 | 2026-08-31 23:25:57 | 46.79331 | 7.23119 | 90° | 86km/h | 9199m | 6.5m/s | -36.8°C | 22.4% | 0hPa | 2.7V | 00:00:00 | 00:00:00 | 08:30:00 | |
| DB0ND-19 | 2026-08-31 23:25:47 | 46.79333 | 7.22234 | 95° | 82km/h | 9036m | 6.6m/s | -35.8°C | -1.0% | -1.0hPa | 2.9V | 00:00:00 | 00:00:00 | 00:00:00 | |
| DB0UT-7 | 2026-08-31 23:25:27 | 46.79336 | 7.22174 | 93° | 84km/h | 9024m | 4.6m/s | -35.7°C | 32.0% | 0hPa | 2.9V | 00:00:00 | 00:49:10 | 00:00:00 | |
| DB0UT-7 | 2026-08-31 23:24:57 | 46.79363 | 7.21238 | 96° | 80km/h | 8845m | 4.7m/s | -34.2°C | 30.5% | 0hPa | 2.9V | 00:00:00 | 00:00:00 | 00:00:00 | |
| DB0ND-19 | 2026-08-31 23:24:45 | 46.79385 | 7.20405 | 88° | 75km/h | 8676m | 5.2m/s | -32.7°C | -1.0% | -1.0hPa | 2.9V | 00:00:00 | 00:00:00 | 00:00:00 | |
| DB0UT-7 | 2026-08-31 23:24:27 | 46.79385 | 7.20345 | 93° | 82km/h | 8666m | 6.4m/s | -32.5°C | 17.7% | 0hPa | 2.9V | 00:00:00 | 00:48:10 | 00:00:00 | |
| DH7VM-15 | 2026-08-31 23:24:22 | 46.79395 | 7.20217 | 97° | 86km/h | 8640m | 7.7m/s | 0°C | 0% | 0hPa | 2.9V | 00:00:00 | 00:00:00 | 00:00:00 | |
| DB0ND-19 | 2026-08-31 23:24:14 | 46.79417 | 7.19889 | 95° | 82km/h | 8570m | 3.9m/s | -31.8°C | -1.0% | -1.0hPa | 2.9V | 00:00:00 | 00:00:00 | 00:00:00 | |
| DB0UT-7 | 2026-08-31 23:23:57 | 46.79444 | 7.19446 | 99° | 84km/h | 8477m | 7.4m/s | -31.0°C | 26.9% | 0hPa | 2.9V | 00:00:00 | 00:00:00 | 00:00:00 | |
| DB0ND-19 | 2026-08-31 23:23:43 | 46.79477 | 7.18929 | 87° | 77km/h | 8370m | 4.6m/s | 0°C | -1.0% | -1.0hPa | 2.9V | 00:00:00 | 00:00:00 | 00:00:00 | |
| DB0UT-7 | 2026-08-31 23:23:27 | 46.79484 | 7.18524 | 90° | 88km/h | 8294m | 7.4m/s | -29.5°C | 27.1% | 0hPa | 2.9V | 00:00:00 | 00:47:10 | 00:00:00 | |
| DB0UT-7 | 2026-08-31 23:22:57 | 46.79526 | 7.17563 | 96° | 88km/h | 8104m | 8.5m/s | -27.8°C | 24.3% | 0hPa | 2.9V | 00:00:00 | 00:00:00 | 00:00:00 | |
| DB0UT-7 | 2026-08-31 23:22:27 | 46.79576 | 7.16603 | 93° | 82km/h | 7918m | 7.7m/s | -26.2°C | 23.9% | 0hPa | 2.9V | 00:00:00 | 00:46:10 | 00:00:00 | |
| DB0UT-7 | 2026-08-31 23:21:57 | 46.79604 | 7.15695 | 89° | 80km/h | 7720m | 5.7m/s | -24.5°C | 23.1% | 0hPa | 2.9V | 00:00:00 | 00:00:00 | 00:00:00 | |
| DB0UT-7 | 2026-08-31 23:21:27 | 46.79626 | 7.14801 | 92° | 84km/h | 7536m | 4.0m/s | -23.2°C | 21.3% | 0hPa | 2.9V | 00:00:00 | 00:45:10 | 08:30:00 | |
| DB0ND-19 | 2026-08-31 23:21:07 | 46.79649 | 7.14100 | 94° | 80km/h | 7424m | 9.1m/s | -22.3°C | -1.0% | -1.0hPa | 2.9V | 00:00:00 | 00:00:00 | 00:00:00 | |
| DB0UT-7 | 2026-08-31 23:20:57 | 46.79663 | 7.13873 | 95° | 78km/h | 7373m | 6.0m/s | -22.0°C | 25.5% | 0hPa | 2.9V | 00:00:00 | 00:00:00 | 00:00:00 | |
| DB0ND-19 | 2026-08-31 23:20:36 | 46.79680 | 7.13269 | 97° | 82km/h | 7229m | 5.9m/s | -21.0°C | -1.0% | -1.0hPa | 2.9V | 00:00:00 | 00:00:00 | 00:00:00 | |
| DB0UT-7 | 2026-08-31 23:20:27 | 46.79680 | 7.13002 | 96° | 77km/h | 7166m | 7.0m/s | -20.5°C | 26.0% | 0hPa | 2.9V | 00:00:00 | 00:44:10 | 00:00:00 | |
| DB0ND-19 | 2026-08-31 23:20:05 | 46.79738 | 7.12411 | 99° | 75km/h | 7028m | 6.0m/s | 0°C | -1.0% | -1.0hPa | 2.9V | 00:00:00 | 00:00:00 | 00:00:00 | |
| DB0UT-7 | 2026-08-31 23:19:57 | 46.79764 | 7.12173 | 94° | 75km/h | 6975m | 8.0m/s | -18.7°C | 23.6% | 0hPa | 2.9V | 00:00:00 | 00:00:00 | 00:00:00 | |
| DB0ND-19 | 2026-08-31 23:19:34 | 46.79828 | 7.11546 | 98° | 71km/h | 6825m | 5.9m/s | 0°C | -1.0% | -1.0hPa | 2.9V | 00:00:00 | 00:00:00 | 00:00:00 | |
| DB0UT-7 | 2026-08-31 23:19:27 | 46.79851 | 7.11367 | 101° | 68km/h | 6780m | 7.2m/s | -17.2°C | 24.4% | 0hPa | 2.9V | 00:00:00 | 00:43:10 | 00:00:00 | |
| DB0UT-7 | 2026-08-31 23:18:27 | 46.80020 | 7.09870 | 109° | 73km/h | 6399m | 6.4m/s | -14.2°C | 22.3% | 0hPa | 2.9V | 00:00:00 | 00:42:10 | 00:00:00 | |
| DB0UT-7 | 2026-08-31 23:17:57 | 46.80155 | 7.09095 | 96° | 64km/h | 6211m | 6.7m/s | -13.1°C | 25.7% | 0hPa | 3.0V | 00:00:00 | 00:00:00 | 00:00:00 | |
| DB0UT-7 | 2026-08-31 23:17:27 | 46.80231 | 7.08401 | 103° | 68km/h | 6025m | 3.9m/s | -11.7°C | 25.9% | 0hPa | 3.0V | 00:00:00 | 00:41:10 | 00:00:00 | |
| DB0UT-7 | 2026-08-31 23:16:57 | 46.80348 | 7.07682 | 109° | 66km/h | 5848m | 5.2m/s | -10.4°C | 23.4% | 0hPa | 3.0V | 00:00:00 | 00:00:00 | 08:30:00 | |
| DB0ND-19 | 2026-08-31 23:16:28 | 46.80428 | 7.06949 | 91° | 62km/h | 5654m | 4.4m/s | -9.0°C | 19.5% | -1.0hPa | 3.0V | 00:00:00 | 00:00:00 | 00:00:00 | |
| DB0UT-7 | 2026-08-31 23:15:57 | 46.80509 | 7.06148 | 98° | 68km/h | 5485m | 5.3m/s | -8.2°C | 7.9% | 0hPa | 3.0V | 00:00:00 | 00:00:00 | 00:00:00 | |
| DB0UT-7 | 2026-08-31 23:15:27 | 46.80623 | 7.05414 | 102° | 71km/h | 5323m | 5.4m/s | -7.9°C | 17.2% | 0hPa | 3.0V | 00:00:00 | 00:39:10 | 00:00:00 | |
| DB0ND-19 | 2026-08-31 23:15:26 | 46.80626 | 7.05390 | 96° | 64km/h | 5318m | 3.3m/s | -8.0°C | 16.8% | -1.0hPa | 3.0V | 00:00:00 | 00:00:00 | 00:00:00 | |
| DB0ND-19 | 2026-08-31 23:14:55 | 46.80807 | 7.04628 | 113° | 77km/h | 5160m | 5.8m/s | -7.3°C | -1.0% | -1.0hPa | 3.0V | 00:00:00 | 00:00:00 | 00:00:00 | |
| DB0UT-7 | 2026-08-31 23:14:12 | 46.81090 | 7.03705 | 116° | 53km/h | 4934m | 5.2m/s | -6.0°C | 20.1% | 0hPa | 3.0V | 00:00:00 | 00:37:55 | 00:00:00 | |
| DB0UT-7 | 2026-08-31 23:13:42 | 46.81261 | 7.03168 | 106° | 60km/h | 4783m | 4.6m/s | -5.2°C | 21.8% | 0hPa | 3.0V | 00:00:00 | 00:00:00 | 00:00:00 | |
| DB0UT-7 | 2026-08-31 23:13:12 | 46.81378 | 7.02531 | 107° | 60km/h | 4621m | 8.4m/s | -4.4°C | 24.0% | 0hPa | 0V | 00:00:00 | 00:36:55 | 00:00:00 | |
| DB0UT-7 | 2026-08-31 23:12:42 | 46.81497 | 7.01898 | 100° | 53km/h | 4457m | 4.9m/s | 0°C | 0% | 0hPa | 0V | 00:00:00 | 00:00:00 | 00:00:00 |